
Distance (Route):
Temperature : 11.1°C
Humidity : 67.0%
Pressure : 0hPa| Receiver | Frames | First received | Last received |
|---|---|---|---|
| PETON7-10 | 354 | 2026-09-01 23:21:30 | 2026-09-02 01:13:43 |
| DO3MHA-11 | 227 | 2026-09-02 00:03:08 | 2026-09-02 01:04:49 |
| OE5DRO-10 | 213 | 2026-09-01 23:39:34 | 2026-09-02 01:07:52 |
| OE5MMP-10 | 203 | 2026-09-02 00:11:10 | 2026-09-02 01:03:39 |
| PG1ADW-2 | 180 | 2026-09-01 23:40:18 | 2026-09-02 01:07:21 |
| HA6NAB-11 | 161 | 2026-09-01 23:50:57 | 2026-09-02 01:10:03 |
| OE3OSB-13 | 160 | 2026-09-01 23:24:53 | 2026-09-02 01:14:08 |
| OM5KV | 92 | 2026-09-01 23:59:11 | 2026-09-02 00:52:39 |
| OE5DXL-15 | 91 | 2026-09-01 23:42:25 | 2026-09-02 01:06:26 |
| OE3JTB-15 | 89 | 2026-09-01 23:19:47 | 2026-09-02 01:15:18 |
| POL1PZ | 79 | 2026-09-01 23:29:28 | 2026-09-02 00:06:44 |
| SP3WXH-11 | 70 | 2026-09-02 00:20:09 | 2026-09-02 01:05:40 |
| OK1SLM-15 | 33 | 2026-09-02 00:33:55 | 2026-09-02 01:02:13 |
| NBG1-10 | 30 | 2026-09-02 00:21:13 | 2026-09-02 01:02:39 |
| SP9KGR-15 | 29 | 2026-09-02 00:47:59 | 2026-09-02 01:01:47 |
| SONDE2-11 | 9 | 2026-09-02 01:00:16 | 2026-09-02 01:05:26 |
| SQ9EZE-14 | 8 | 2026-09-02 00:13:19 | 2026-09-02 01:04:35 |
| DB0DAN | 7 | 2026-09-02 00:27:40 | 2026-09-02 00:29:25 |
| DB0UT-7 | 6 | 2026-09-02 00:56:23 | 2026-09-02 01:00:52 |
| SP3BTT-10 | 5 | 2026-09-02 00:55:43 | 2026-09-02 01:00:28 |
| Receiver | Date | Latitude | Longitude | Direction | Speed | Altitude | Climb | Temperature | Humidity | Pressure | Voltage | Killtimer | Uptime | BKT | XDATA |
|---|---|---|---|---|---|---|---|---|---|---|---|---|---|---|---|
| OE3JTB-15 | 2026-09-02 01:15:18 | 49.44310 | 18.23560 | 140° | 22km/h | 1414m | -16.7m/s | 11.1°C | 67.0% | 0hPa | 2.6V | 00:00:00 | 02:31:54 | 00:00:00 | |
| OE3JTB-15 | 2026-09-02 01:15:13 | 49.44330 | 18.23536 | 141° | 20km/h | 1501m | -16.6m/s | 10.3°C | 71.1% | 0hPa | 2.6V | 00:00:00 | 00:00:00 | 00:00:00 | |
| OE3JTB-15 | 2026-09-02 01:15:11 | 49.44338 | 18.23527 | 134° | 22km/h | 1535m | -17.4m/s | 10.0°C | 70.6% | 0hPa | 2.6V | 00:00:00 | 00:00:00 | 00:00:00 | |
| OE3JTB-15 | 2026-09-02 01:15:09 | 49.44345 | 18.23515 | 129° | 22km/h | 1569m | -17.1m/s | 9.7°C | 72.2% | 0hPa | 2.6V | 00:00:00 | 02:31:45 | 00:00:00 | |
| OE3JTB-15 | 2026-09-02 01:15:07 | 49.44353 | 18.23503 | 137° | 20km/h | 1605m | -18.0m/s | 9.4°C | 73.9% | 0hPa | 2.6V | 08:16:00 | 00:00:00 | 00:00:00 | |
| OE3JTB-15 | 2026-09-02 01:14:56 | 49.44398 | 18.23431 | 131° | 26km/h | 1795m | -18.0m/s | 7.9°C | 76.9% | 0hPa | 2.6V | 00:00:00 | 00:00:00 | 00:00:00 | |
| OE3JTB-15 | 2026-09-02 01:14:51 | 49.44419 | 18.23396 | 134° | 24km/h | 1880m | -17.6m/s | 7.1°C | 80.0% | 0hPa | 2.6V | 00:00:00 | 02:31:27 | 00:00:00 | |
| OE3JTB-15 | 2026-09-02 01:14:49 | 49.44427 | 18.23383 | 130° | 26km/h | 1915m | -17.5m/s | 6.8°C | 81.2% | 0hPa | 2.6V | 00:00:00 | 00:00:00 | 00:00:00 | |
| OE3JTB-15 | 2026-09-02 01:14:47 | 49.44436 | 18.23368 | 130° | 26km/h | 1950m | -17.3m/s | 6.6°C | 81.6% | 0hPa | 2.5V | 00:00:00 | 00:00:00 | 00:00:00 | |
| OE3JTB-15 | 2026-09-02 01:14:45 | 49.44445 | 18.23354 | 133° | 26km/h | 1985m | -16.8m/s | 6.3°C | 82.6% | 0hPa | 2.5V | 00:00:00 | 02:31:21 | 00:00:00 | |
| OE3JTB-15 | 2026-09-02 01:14:41 | 49.44462 | 18.23325 | 132° | 27km/h | 2053m | -16.5m/s | 5.8°C | 79.6% | 0hPa | 2.5V | 00:00:00 | 00:00:00 | 00:00:00 | |
| OE3JTB-15 | 2026-09-02 01:14:39 | 49.44470 | 18.23309 | 125° | 26km/h | 2086m | -17.1m/s | 5.5°C | 80.9% | 0hPa | 2.6V | 00:00:00 | 00:00:00 | 00:00:00 | |
| OE3JTB-15 | 2026-09-02 01:14:31 | 49.44500 | 18.23241 | 121° | 26km/h | 2223m | -17.8m/s | 4.6°C | 80.6% | 0hPa | 2.6V | 00:00:00 | 02:31:07 | 00:00:00 | |
| OE3JTB-15 | 2026-09-02 01:14:20 | 49.44539 | 18.23143 | 114° | 27km/h | 2412m | -16.3m/s | 3.3°C | 78.7% | 0hPa | 2.6V | 08:16:00 | 00:00:00 | 00:00:00 | |
| OE3JTB-15 | 2026-09-02 01:14:11 | 49.44563 | 18.23052 | 107° | 31km/h | 2567m | -17.8m/s | 2.1°C | 80.6% | 0hPa | 2.5V | 00:00:00 | 00:00:00 | 00:00:00 | |
| OE3OSB-13 | 2026-09-02 01:14:08 | 49.44569 | 18.23018 | 104° | 29km/h | 2618m | -17.1m/s | 1.7°C | 82.4% | -1.0hPa | 2.5V | 00:00:00 | 00:00:00 | 00:00:00 | |
| OE3JTB-15 | 2026-09-02 01:13:56 | 49.44587 | 18.22878 | 98° | 35km/h | 2825m | -18.0m/s | 0.3°C | 81.7% | 0hPa | 2.5V | 00:00:00 | 02:30:32 | 00:00:00 | |
| PETON7-10 | 2026-09-02 01:13:43 | 49.44616 | 18.22719 | 106° | 38km/h | 3041m | -17.1m/s | 1.3°C | 39.7% | 0hPa | 2.5V | 00:00:00 | 02:30:19 | 00:00:00 | |
| OE3JTB-15 | 2026-09-02 01:13:37 | 49.44630 | 18.22630 | 102° | 38km/h | 3147m | -18.2m/s | 1.6°C | 27.3% | 0hPa | 2.5V | 00:00:00 | 00:00:00 | 00:00:00 | |
| PETON7-10 | 2026-09-02 01:13:28 | 49.44653 | 18.22504 | 101° | 37km/h | 3313m | -18.3m/s | 1.4°C | 20.7% | 0hPa | 2.6V | 00:00:00 | 00:00:00 | 00:00:00 | |
| OE3JTB-15 | 2026-09-02 01:13:18 | 49.44671 | 18.22358 | 91° | 29km/h | 3498m | -21.1m/s | 0.4°C | 29.2% | 0hPa | 2.6V | 00:00:00 | 00:00:00 | 00:00:00 | |
| PETON7-10 | 2026-09-02 01:13:13 | 49.44672 | 18.22297 | 91° | 29km/h | 3593m | -19.2m/s | -0.1°C | 37.3% | 0hPa | 2.6V | 00:00:00 | 00:00:00 | 00:00:00 | |
| OE3OSB-13 | 2026-09-02 01:13:06 | 49.44668 | 18.22216 | 90° | 31km/h | 3722m | -18.8m/s | -1.0°C | 45.7% | -1.0hPa | 2.6V | 00:00:00 | 00:00:00 | 00:00:00 | |
| OE3JTB-15 | 2026-09-02 01:12:59 | 49.44668 | 18.22137 | 86° | 33km/h | 3850m | -18.7m/s | -1.9°C | 46.8% | 0hPa | 2.6V | 00:00:00 | 02:29:35 | 00:00:00 | |
| PETON7-10 | 2026-09-02 01:12:58 | 49.44667 | 18.22126 | 82° | 33km/h | 3868m | -18.7m/s | -2.0°C | 46.9% | 0hPa | 2.6V | 00:00:00 | 02:29:34 | 00:00:00 | |
| PETON7-10 | 2026-09-02 01:12:43 | 49.44666 | 18.21930 | 90° | 33km/h | 4148m | -18.9m/s | -4.1°C | 48.2% | 0hPa | 2.6V | 00:00:00 | 00:00:00 | 00:00:00 | |
| OE3OSB-13 | 2026-09-02 01:12:35 | 49.44669 | 18.21828 | 97° | 29km/h | 4297m | -20.0m/s | -5.3°C | 48.4% | -1.0hPa | 2.6V | 00:00:00 | 00:00:00 | 00:00:00 | |
| OE3JTB-15 | 2026-09-02 01:12:30 | 49.44672 | 18.21766 | 94° | 38km/h | 4393m | -20.2m/s | -6.1°C | 51.5% | 0hPa | 2.6V | 00:00:00 | 00:00:00 | 00:00:00 | |
| PETON7-10 | 2026-09-02 01:12:28 | 49.44673 | 18.21740 | 95° | 37km/h | 4432m | -18.9m/s | -6.4°C | 52.6% | 0hPa | 2.4V | 00:00:00 | 00:00:00 | 00:00:00 | |
| PETON7-10 | 2026-09-02 01:12:13 | 49.44684 | 18.21527 | 93° | 42km/h | 4716m | -19.4m/s | -8.9°C | 62.9% | 0hPa | 2.4V | 00:00:00 | 02:28:49 | 00:00:00 | |
| OE3OSB-13 | 2026-09-02 01:12:04 | 49.44688 | 18.21377 | 94° | 46km/h | 4889m | -18.7m/s | -10.1°C | 47.5% | -1.0hPa | 2.4V | 00:00:00 | 00:00:00 | 00:00:00 | |
| OE3JTB-15 | 2026-09-02 01:12:01 | 49.44691 | 18.21326 | 94° | 44km/h | 4946m | -18.7m/s | -10.6°C | 49.7% | 0hPa | 2.4V | 00:00:00 | 00:00:00 | 00:00:00 | |
| PETON7-10 | 2026-09-02 01:11:58 | 49.44694 | 18.21278 | 94° | 44km/h | 5005m | -20.4m/s | -11.0°C | 50.4% | 0hPa | 2.4V | 08:19:00 | 00:00:00 | 00:00:00 | |
| PETON7-10 | 2026-09-02 01:11:43 | 49.44711 | 18.21018 | 96° | 44km/h | 5301m | -20.3m/s | -12.7°C | 43.7% | 0hPa | 2.6V | 00:00:00 | 00:00:00 | 00:00:00 | |
| OE3OSB-13 | 2026-09-02 01:11:33 | 49.44721 | 18.20829 | 93° | 46km/h | 5515m | -19.7m/s | -14.2°C | 70.6% | -1.0hPa | 2.6V | 00:00:00 | 00:00:00 | 00:00:00 | |
| OE3JTB-15 | 2026-09-02 01:11:32 | 49.44721 | 18.20829 | 94° | 49km/h | 5516m | -19.7m/s | -14.2°C | 73.3% | 0hPa | 2.6V | 00:00:00 | 02:28:08 | 00:00:00 | |
| PETON7-10 | 2026-09-02 01:11:28 | 49.44723 | 18.20759 | 93° | 47km/h | 5592m | -19.8m/s | -14.6°C | 69.4% | 0hPa | 2.6V | 00:00:00 | 02:28:04 | 00:00:00 | |
| PETON7-10 | 2026-09-02 01:11:13 | 49.44748 | 18.20486 | 98° | 51km/h | 5882m | -19.8m/s | -16.4°C | 54.6% | 0hPa | 2.6V | 00:00:00 | 00:00:00 | 00:00:00 | |
| OE3OSB-13 | 2026-09-02 01:11:02 | 49.44760 | 18.20252 | 92° | 51km/h | 6120m | -19.6m/s | -18.5°C | 54.2% | -1.0hPa | 2.6V | 00:00:00 | 00:00:00 | 00:00:00 | |
| PETON7-10 | 2026-09-02 01:10:58 | 49.44762 | 18.20194 | 92° | 47km/h | 6179m | -20.5m/s | -19.0°C | 56.2% | 0hPa | 2.6V | 00:00:00 | 00:00:00 | 00:00:00 | |
| PETON7-10 | 2026-09-02 01:10:43 | 49.44764 | 18.19914 | 91° | 57km/h | 6479m | -20.6m/s | -19.7°C | 21.3% | 0hPa | 2.6V | 00:00:00 | 02:27:19 | 00:00:00 | |
| OE3JTB-15 | 2026-09-02 01:10:34 | 49.44784 | 18.19699 | 101° | 66km/h | 6679m | -20.5m/s | -20.8°C | 25.4% | 0hPa | 2.6V | 00:00:00 | 00:00:00 | 00:00:00 | |
| OE3OSB-13 | 2026-09-02 01:10:31 | 49.44793 | 18.19631 | 98° | 58km/h | 6739m | -21.5m/s | -21.4°C | 24.5% | -1.0hPa | 2.6V | 00:00:00 | 00:00:00 | 00:00:00 | |
| PETON7-10 | 2026-09-02 01:10:28 | 49.44797 | 18.19585 | 99° | 66km/h | 6781m | -21.2m/s | -21.7°C | 27.0% | 0hPa | 2.6V | 00:00:00 | 00:00:00 | 00:00:00 | |
| PETON7-10 | 2026-09-02 01:10:13 | 49.44849 | 18.19208 | 101° | 69km/h | 7093m | -21.2m/s | -24.1°C | 39.9% | 0hPa | 2.6V | 00:00:00 | 00:00:00 | 00:00:00 | |
| OE3JTB-15 | 2026-09-02 01:10:05 | 49.44873 | 18.18999 | 99° | 75km/h | 7259m | -21.1m/s | -25.4°C | 50.1% | 0hPa | 2.6V | 00:00:00 | 02:26:41 | 00:00:00 | |
| HA6NAB-11 | 2026-09-02 01:10:03 | 49.44879 | 18.18945 | 101° | 73km/h | 7299m | -20.5m/s | -25.7°C | 47.6% | 0hPa | 2.6V | 08:21:00 | 00:00:00 | 00:00:00 | |
| OE3OSB-13 | 2026-09-02 01:10:00 | 49.44940 | 18.18568 | 105° | 75km/h | 7596m | -21.8m/s | -28.1°C | 46.3% | -1.0hPa | 2.6V | 00:00:00 | 00:00:00 | 00:00:00 | |
| PETON7-10 | 2026-09-02 01:09:58 | 49.44898 | 18.18810 | 103° | 73km/h | 7403m | -22.0m/s | -26.5°C | 54.5% | 0hPa | 2.6V | 00:00:00 | 02:26:34 | 00:00:00 | |
| HA6NAB-11 | 2026-09-02 01:09:55 | 49.44905 | 18.18757 | 105° | 69km/h | 7445m | -21.5m/s | -26.9°C | 50.7% | 0hPa | 2.6V | 08:21:00 | 00:00:00 | 00:00:00 | |
| HA6NAB-11 | 2026-09-02 01:09:50 | 49.44930 | 18.18624 | 106° | 71km/h | 7553m | -22.6m/s | -27.7°C | 47.1% | 0hPa | 2.6V | 08:21:00 | 00:00:00 | 00:00:00 | |
| HA6NAB-11 | 2026-09-02 01:09:44 | 49.44958 | 18.18454 | 103° | 75km/h | 7684m | -21.7m/s | -28.6°C | 45.3% | 0hPa | 2.6V | 08:21:00 | 00:00:00 | 00:00:00 | |
| PETON7-10 | 2026-09-02 01:09:43 | 49.44966 | 18.18395 | 102° | 82km/h | 7726m | -20.5m/s | -28.9°C | 49.1% | 0hPa | 2.6V | 08:21:00 | 00:00:00 | 00:00:00 | |
| HA6NAB-11 | 2026-09-02 01:09:39 | 49.44979 | 18.18304 | 105° | 80km/h | 7789m | -21.1m/s | -29.4°C | 43.9% | 0hPa | 2.4V | 08:21:00 | 00:00:00 | 00:00:00 | |
| OE3JTB-15 | 2026-09-02 01:09:36 | 49.44999 | 18.18180 | 102° | 88km/h | 7875m | -22.6m/s | -30.0°C | 38.1% | 0hPa | 2.4V | 00:00:00 | 00:00:00 | 00:00:00 | |
| HA6NAB-11 | 2026-09-02 01:09:34 | 49.45003 | 18.18149 | 102° | 82km/h | 7898m | -22.7m/s | -30.1°C | 28.6% | 0hPa | 2.6V | 00:00:00 | 00:00:00 | 00:00:00 | |
| PETON7-10 | 2026-09-02 01:09:28 | 49.45031 | 18.17922 | 100° | 88km/h | 8047m | -21.5m/s | -31.1°C | 33.1% | 0hPa | 2.6V | 00:00:00 | 00:00:00 | 00:00:00 | |
| HA6NAB-11 | 2026-09-02 01:09:23 | 49.45046 | 18.17789 | 100° | 84km/h | 8134m | -21.9m/s | -32.0°C | 33.7% | 0hPa | 2.6V | 00:00:00 | 00:00:00 | 00:00:00 | |
| HA6NAB-11 | 2026-09-02 01:09:17 | 49.45067 | 18.17589 | 98° | 88km/h | 8269m | -22.8m/s | -33.2°C | 39.1% | 0hPa | 2.6V | 00:00:00 | 00:00:00 | 00:00:00 | |
| PETON7-10 | 2026-09-02 01:09:13 | 49.45082 | 18.17419 | 98° | 93km/h | 8384m | -23.7m/s | -34.1°C | 43.0% | 0hPa | 2.6V | 00:00:00 | 02:25:49 | 00:00:00 | |
| OE3JTB-15 | 2026-09-02 01:09:07 | 49.45098 | 18.17209 | 96° | 97km/h | 8517m | -22.7m/s | -35.2°C | 49.5% | 0hPa | 2.6V | 00:00:00 | 00:00:00 | 00:00:00 | |
| OE3OSB-13 | 2026-09-02 01:08:57 | 49.45113 | 18.16842 | 92° | 99km/h | 8752m | -24.4m/s | -37.0°C | 46.5% | -1.0hPa | 2.6V | 00:00:00 | 00:00:00 | 00:00:00 | |
| PETON7-10 | 2026-09-02 01:08:43 | 49.45127 | 18.16314 | 92° | 102km/h | 9094m | -25.7m/s | -39.8°C | 53.8% | 0hPa | 2.6V | 00:00:00 | 00:00:00 | 00:00:00 | |
| OE3JTB-15 | 2026-09-02 01:08:38 | 49.45127 | 18.16121 | 90° | 110km/h | 9220m | -26.5m/s | -40.7°C | 54.4% | 0hPa | 2.6V | 00:00:00 | 02:25:14 | 00:00:00 | |
| PETON7-10 | 2026-09-02 01:08:28 | 49.45116 | 18.15715 | 89° | 113km/h | 9477m | -27.1m/s | -42.2°C | 74.4% | 0hPa | 2.6V | 00:00:00 | 02:25:04 | 00:00:00 | |
| OE3OSB-13 | 2026-09-02 01:08:26 | 49.45114 | 18.15627 | 87° | 111km/h | 9530m | -27.0m/s | -42.7°C | 68.9% | -1.0hPa | 2.6V | 00:00:00 | 00:00:00 | 00:00:00 | |
| PETON7-10 | 2026-09-02 01:08:13 | 49.45115 | 18.15056 | 92° | 117km/h | 9895m | -27.8m/s | -45.6°C | 81.0% | 0hPa | 2.6V | 00:00:00 | 00:00:00 | 00:00:00 | |
| OE3JTB-15 | 2026-09-02 01:08:09 | 49.45117 | 18.14878 | 91° | 122km/h | 10011m | -28.5m/s | -46.3°C | 77.7% | 0hPa | 2.5V | 00:00:00 | 00:00:00 | 00:00:00 | |
| OE3OSB-13 | 2026-09-02 01:07:57 | 49.45123 | 18.14230 | 91° | 120km/h | 10427m | -31.1m/s | -49.3°C | 57.3% | -1.0hPa | 2.5V | 00:00:00 | 00:00:00 | 00:00:00 | |
| OE5DRO-10 | 2026-09-02 01:07:52 | 49.45123 | 18.14088 | 90° | 128km/h | 10523m | -30.7m/s | -50.0°C | 68.1% | 0hPa | 2.5V | 00:00:00 | 00:00:00 | 00:00:00 | |
| HA6NAB-11 | 2026-09-02 01:07:49 | 49.45122 | 18.13992 | 91° | 126km/h | 10583m | -30.8m/s | -50.6°C | 59.1% | 0hPa | 2.5V | 00:00:00 | 00:00:00 | 00:00:00 | |
| PETON7-10 | 2026-09-02 01:07:43 | 49.45116 | 18.13656 | 88° | 133km/h | 10795m | -31.4m/s | -52.4°C | 64.3% | 0hPa | 2.5V | 00:00:00 | 02:24:19 | 00:00:00 | |
| OE3JTB-15 | 2026-09-02 01:07:40 | 49.45112 | 18.13507 | 89° | 137km/h | 10891m | -31.1m/s | -53.1°C | 59.6% | 0hPa | 2.5V | 00:00:00 | 00:00:00 | 00:00:00 | |
| HA6NAB-11 | 2026-09-02 01:07:37 | 49.45111 | 18.13406 | 90° | 131km/h | 10952m | -31.8m/s | -53.5°C | 47.1% | 0hPa | 2.5V | 00:00:00 | 00:00:00 | 00:00:00 | |
| OE5DRO-10 | 2026-09-02 01:07:33 | 49.45112 | 18.13149 | 90° | 139km/h | 11109m | -32.3m/s | -54.8°C | 50.3% | 0hPa | 2.5V | 00:00:00 | 00:00:00 | 00:00:00 | |
| HA6NAB-11 | 2026-09-02 01:07:32 | 49.45112 | 18.13149 | 90° | 133km/h | 11109m | -32.3m/s | -54.8°C | 41.7% | 0hPa | 2.5V | 00:00:00 | 00:00:00 | 00:00:00 | |
| PETON7-10 | 2026-09-02 01:07:28 | 49.45111 | 18.12884 | 88° | 141km/h | 11268m | -32.2m/s | -55.9°C | 45.2% | 0hPa | 2.5V | 08:23:00 | 00:00:00 | 00:00:00 | |
| HA6NAB-11 | 2026-09-02 01:07:27 | 49.45111 | 18.12885 | 89° | 141km/h | 11268m | -32.3m/s | -55.9°C | 36.8% | 0hPa | 2.4V | 00:00:00 | 00:00:00 | 00:00:00 | |
| OE3OSB-13 | 2026-09-02 01:07:24 | 49.45105 | 18.12667 | 86° | 141km/h | 11393m | -32.8m/s | -56.7°C | 30.5% | -1.0hPa | 2.4V | 00:00:00 | 00:00:00 | 00:00:00 | |
| PG1ADW-2 | 2026-09-02 01:07:21 | 49.45100 | 18.12503 | 89° | 133km/h | 11488m | -32.9m/s | -57.1°C | 34.2% | 0hPa | 2.4V | 00:00:00 | 00:00:00 | 00:00:00 | |
| OE5DRO-10 | 2026-09-02 01:07:14 | 49.45094 | 18.12125 | 91° | 126km/h | 11710m | -33.4m/s | -57.9°C | 24.7% | 0hPa | 2.4V | 00:00:00 | 00:00:00 | 00:00:00 | |
| PETON7-10 | 2026-09-02 01:07:12 | 49.45095 | 18.12018 | 92° | 126km/h | 11774m | -34.1m/s | -58.0°C | 20.6% | 0hPa | 2.4V | 00:00:00 | 00:00:00 | 00:00:00 | |
| OE3JTB-15 | 2026-09-02 01:07:11 | 49.45097 | 18.11914 | 92° | 111km/h | 11840m | -34.4m/s | -58.1°C | 17.9% | 0hPa | 2.4V | 00:00:00 | 02:23:46 | 00:00:00 | |
| OE3OSB-13 | 2026-09-02 01:06:53 | 49.45092 | 18.11124 | 80° | 97km/h | 12406m | -35.6m/s | -53.4°C | 3.5% | -1.0hPa | 2.4V | 00:00:00 | 00:00:00 | 00:00:00 | |
| PETON7-10 | 2026-09-02 01:06:42 | 49.45033 | 18.10715 | 78° | 91km/h | 12795m | -36.4m/s | -52.5°C | 5.0% | 0hPa | 2.4V | 00:00:00 | 00:00:00 | 00:00:00 | |
| PG1ADW-2 | 2026-09-02 01:06:41 | 49.45029 | 18.10676 | 81° | 89km/h | 12830m | -36.4m/s | -52.6°C | 4.9% | 0hPa | 2.4V | 00:00:00 | 02:23:17 | 00:00:00 | |
| OE5DRO-10 | 2026-09-02 01:06:36 | 49.45018 | 18.10498 | 89° | 86km/h | 13011m | -37.2m/s | -50.9°C | 4.3% | 0hPa | 2.4V | 00:00:00 | 00:00:00 | 00:00:00 | |
| PETON7-10 | 2026-09-02 01:06:27 | 49.45011 | 18.10190 | 89° | 75km/h | 13347m | -38.3m/s | -50.6°C | 3.9% | 0hPa | 2.4V | 00:00:00 | 00:00:00 | 00:00:00 | |
| OE5DXL-15 | 2026-09-02 01:06:26 | 49.45011 | 18.10158 | 88° | 69km/h | 13384m | -38.2m/s | -50.7°C | 3.9% | 0hPa | 2.4V | 00:00:00 | 00:00:00 | 00:00:00 | |
| OE3OSB-13 | 2026-09-02 01:06:22 | 49.45007 | 18.10026 | 86° | 86km/h | 13532m | -38.8m/s | -51.2°C | 1.5% | -1.0hPa | 2.6V | 00:00:00 | 00:00:00 | 00:00:00 | |
| PG1ADW-2 | 2026-09-02 01:06:21 | 49.45006 | 18.09993 | 88° | 66km/h | 13569m | -38.0m/s | -51.1°C | 4.0% | 0hPa | 2.6V | 00:00:00 | 00:00:00 | 00:00:00 | |
| OE5DRO-10 | 2026-09-02 01:06:17 | 49.45006 | 18.09877 | 90° | 64km/h | 13719m | -37.8m/s | -50.6°C | 3.8% | 0hPa | 2.6V | 00:00:00 | 00:00:00 | 00:00:00 | |
| OE3JTB-15 | 2026-09-02 01:06:13 | 49.45005 | 18.09779 | 87° | 60km/h | 13871m | -40.2m/s | -49.9°C | 3.6% | 0hPa | 2.4V | 00:00:00 | 00:00:00 | 00:00:00 | |
| PETON7-10 | 2026-09-02 01:06:11 | 49.45003 | 18.09733 | 84° | 64km/h | 13950m | -38.7m/s | -50.6°C | 3.7% | 0hPa | 2.4V | 00:00:00 | 02:22:47 | 00:00:00 | |
| OE3OSB-13 | 2026-09-02 01:05:51 | 49.44974 | 18.09248 | 89° | 58km/h | 14744m | -40.7m/s | -51.5°C | 1.3% | -1.0hPa | 2.4V | 00:00:00 | 00:00:00 | 00:00:00 | |
| HA6NAB-11 | 2026-09-02 01:05:49 | 49.44974 | 18.09204 | 90° | 55km/h | 14825m | -41.7m/s | -51.9°C | 1.5% | 0hPa | 2.4V | 00:00:00 | 00:00:00 | 00:00:00 | |
| OE3JTB-15 | 2026-09-02 01:05:44 | 49.44969 | 18.09103 | 85° | 49km/h | 15030m | -41.6m/s | -52.8°C | 4.1% | 0hPa | 2.4V | 00:00:00 | 02:22:20 | 00:00:00 | |
| HA6NAB-11 | 2026-09-02 01:05:42 | 49.44968 | 18.09081 | 84° | 55km/h | 15071m | -41.7m/s | -53.1°C | 1.6% | 0hPa | 2.4V | 00:00:00 | 00:00:00 | 00:00:00 | |
| PETON7-10 | 2026-09-02 01:05:41 | 49.44966 | 18.09041 | 86° | 49km/h | 15153m | -41.9m/s | -53.0°C | 4.1% | 0hPa | 2.4V | 00:00:00 | 00:00:00 | 00:00:00 | |
| SP3WXH-11 | 2026-09-02 01:05:40 | 49.44965 | 18.09021 | 81° | 51km/h | 15195m | -42.3m/s | -53.0°C | 1.4% | -1.0hPa | 2.4V | 00:00:00 | 00:00:00 | 00:00:00 | |
| OE5DRO-10 | 2026-09-02 01:05:39 | 49.44963 | 18.09001 | 85° | 49km/h | 15237m | -42.9m/s | -52.8°C | 4.0% | 0hPa | 2.4V | 00:00:00 | 00:00:00 | 00:00:00 | |
| HA6NAB-11 | 2026-09-02 01:05:37 | 49.44961 | 18.08958 | 85° | 55km/h | 15321m | -43.7m/s | -52.8°C | 1.5% | 0hPa | 2.4V | 00:00:00 | 00:00:00 | 00:00:00 | |
| HA6NAB-11 | 2026-09-02 01:05:30 | 49.44958 | 18.08841 | 89° | 46km/h | 15576m | -44.8m/s | -52.5°C | 1.4% | 0hPa | 2.4V | 00:00:00 | 00:00:00 | 00:00:00 | |
| SONDE2-11 | 2026-09-02 01:05:26 | 49.44955 | 18.08735 | 83° | 46km/h | 15835m | -44.6m/s | -53.5°C | 1.3% | -1.0hPa | 2.4V | 00:00:00 | 00:00:00 | 00:00:00 | |
| HA6NAB-11 | 2026-09-02 01:05:24 | 49.44955 | 18.08735 | 84° | 46km/h | 15835m | -44.6m/s | -53.5°C | 1.4% | 0hPa | 2.4V | 00:00:00 | 00:00:00 | 00:00:00 | |
| PG1ADW-2 | 2026-09-02 01:05:21 | 49.44946 | 18.08662 | 79° | 53km/h | 16010m | -45.2m/s | -54.0°C | 4.4% | 0hPa | 2.4V | 08:25:00 | 02:21:57 | 00:00:00 | |
| OE5DRO-10 | 2026-09-02 01:05:20 | 49.44944 | 18.08644 | 79° | 53km/h | 16054m | -45.5m/s | -54.2°C | 4.4% | 0hPa | 2.4V | 08:25:00 | 00:00:00 | 00:00:00 | |
| OE3JTB-15 | 2026-09-02 01:05:15 | 49.44932 | 18.08553 | 78° | 51km/h | 16272m | -45.1m/s | -54.9°C | 4.8% | 0hPa | 2.4V | 00:00:00 | 00:00:00 | 00:00:00 | |
| PETON7-10 | 2026-09-02 01:05:11 | 49.44924 | 18.08467 | 86° | 57km/h | 16452m | -46.3m/s | -55.0°C | 4.9% | 0hPa | 2.6V | 08:26:00 | 00:00:00 | 00:00:00 | |
| SP3WXH-11 | 2026-09-02 01:05:09 | 49.44923 | 18.08422 | 89° | 57km/h | 16544m | -46.3m/s | -54.8°C | 1.5% | -1.0hPa | 2.4V | 00:00:00 | 00:00:00 | 00:00:00 | |
| SONDE2-11 | 2026-09-02 01:04:55 | 49.44927 | 18.08099 | 101° | 49km/h | 17222m | -48.0m/s | -51.4°C | 1.1% | -1.0hPa | 2.4V | 00:00:00 | 00:00:00 | 00:00:00 | |
| DO3MHA-11 | 2026-09-02 01:04:49 | 49.44942 | 18.08019 | 106° | 29km/h | 17457m | -49.0m/s | -51.1°C | 3.6% | 0hPa | 2.4V | 00:00:00 | 02:21:25 | 00:00:00 | |
| HA6NAB-11 | 2026-09-02 01:04:47 | 49.44945 | 18.08007 | 106° | 33km/h | 17506m | -49.7m/s | -51.4°C | 1.2% | 0hPa | 2.4V | 08:26:00 | 00:00:00 | 00:00:00 | |
| OE3JTB-15 | 2026-09-02 01:04:46 | 49.44948 | 18.07982 | 101° | 24km/h | 17602m | -48.5m/s | -51.1°C | 3.6% | 0hPa | 2.4V | 00:00:00 | 00:00:00 | 00:00:00 | |
| OE5DRO-10 | 2026-09-02 01:04:42 | 49.44956 | 18.07933 | 102° | 22km/h | 17796m | -51.3m/s | -49.9°C | 3.3% | 0hPa | 2.4V | 00:00:00 | 00:00:00 | 00:00:00 | |
| PG1ADW-2 | 2026-09-02 01:04:41 | 49.44958 | 18.07923 | 104° | 22km/h | 17846m | -51.8m/s | -49.7°C | 3.2% | 0hPa | 2.4V | 00:00:00 | 00:00:00 | 00:00:00 | |
| SP3WXH-11 | 2026-09-02 01:04:38 | 49.44959 | 18.07901 | 79° | 16km/h | 17996m | -51.9m/s | -49.9°C | 0.9% | -1.0hPa | 2.4V | 00:00:00 | 00:00:00 | 00:00:00 | |
| HA6NAB-11 | 2026-09-02 01:04:37 | 49.44959 | 18.07901 | 80° | 16km/h | 17996m | -51.9m/s | -49.9°C | 1.0% | 0hPa | 2.4V | 08:26:00 | 00:00:00 | 00:00:00 | |
| SQ9EZE-14 | 2026-09-02 01:04:35 | 49.44957 | 18.07889 | 75° | 18km/h | 18097m | -52.5m/s | -50.3°C | 0% | 0hPa | 2.4V | 00:00:00 | 00:00:00 | 00:00:00 | |
| HA6NAB-11 | 2026-09-02 01:04:33 | 49.44953 | 18.07869 | 72° | 18km/h | 18249m | -52.6m/s | -51.3°C | 1.1% | 0hPa | 2.4V | 08:26:00 | 00:00:00 | 00:00:00 | |
| PETON7-10 | 2026-09-02 01:04:26 | 49.44934 | 18.07821 | 62° | 20km/h | 18614m | -55.0m/s | -52.0°C | 3.7% | 0hPa | 2.4V | 00:00:00 | 00:00:00 | 00:00:00 | |
| SONDE2-11 | 2026-09-02 01:04:24 | 49.44925 | 18.07794 | 65° | 26km/h | 18775m | -56.6m/s | -52.6°C | 1.1% | -1.0hPa | 2.6V | 00:00:00 | 00:00:00 | 00:00:00 | |
| OE5DRO-10 | 2026-09-02 01:04:23 | 49.44925 | 18.07794 | 66° | 20km/h | 18776m | -56.6m/s | -52.5°C | 3.9% | 0hPa | 2.6V | 00:00:00 | 00:00:00 | 00:00:00 | |
| PG1ADW-2 | 2026-09-02 01:04:21 | 49.44921 | 18.07776 | 73° | 18km/h | 18886m | -56.1m/s | -52.9°C | 4.1% | 0hPa | 2.6V | 00:00:00 | 00:00:00 | 00:00:00 | |
| HA6NAB-11 | 2026-09-02 01:04:20 | 49.44921 | 18.07776 | 74° | 22km/h | 18886m | -56.1m/s | -53.0°C | 1.1% | 0hPa | 2.4V | 00:00:00 | 00:00:00 | 00:00:00 | |
| OE3OSB-13 | 2026-09-02 01:04:18 | 49.44916 | 18.07754 | 67° | 16km/h | 19049m | -56.2m/s | -52.9°C | 1.1% | -1.0hPa | 2.4V | 00:00:00 | 00:00:00 | 00:00:00 | |
| OE3JTB-15 | 2026-09-02 01:04:17 | 49.44915 | 18.07748 | 66° | 18km/h | 19104m | -56.0m/s | -52.8°C | 4.1% | 0hPa | 2.4V | 00:00:00 | 02:20:53 | 00:00:00 | |
| PETON7-10 | 2026-09-02 01:04:11 | 49.44903 | 18.07715 | 71° | 18km/h | 19439m | -58.6m/s | -52.4°C | 3.9% | 0hPa | 2.4V | 00:00:00 | 00:00:00 | 00:00:00 | |
| SP3WXH-11 | 2026-09-02 01:04:07 | 49.44898 | 18.07690 | 75° | 18km/h | 19670m | -60.6m/s | -53.0°C | 1.2% | -1.0hPa | 2.4V | 00:00:00 | 00:00:00 | 00:00:00 | |
| OE5DRO-10 | 2026-09-02 01:04:04 | 49.44896 | 18.07667 | 77° | 18km/h | 19849m | -61.8m/s | -52.6°C | 4.1% | 0hPa | 2.4V | 00:00:00 | 00:00:00 | 00:00:00 | |
| SONDE2-11 | 2026-09-02 01:03:52 | 49.44876 | 18.07595 | 61° | 18km/h | 20573m | -63.0m/s | -50.6°C | 0.9% | -1.0hPa | 2.4V | 00:00:00 | 00:00:00 | 00:00:00 | |
| OE3OSB-13 | 2026-09-02 01:03:47 | 49.44862 | 18.07563 | 43° | 18km/h | 20880m | -63.6m/s | -51.6°C | 1.0% | -1.0hPa | 2.4V | 00:00:00 | 00:00:00 | 00:00:00 | |
| OE5DRO-10 | 2026-09-02 01:03:45 | 49.44856 | 18.07553 | 52° | 15km/h | 21004m | -64.5m/s | -51.7°C | 3.7% | 0hPa | 2.4V | 00:00:00 | 00:00:00 | 00:00:00 | |
| PG1ADW-2 | 2026-09-02 01:03:41 | 49.44849 | 18.07524 | 81° | 11km/h | 21258m | -65.1m/s | -51.9°C | 3.9% | 0hPa | 2.4V | 00:00:00 | 00:00:00 | 00:00:00 | |
| DO3MHA-11 | 2026-09-02 01:03:40 | 49.44848 | 18.07517 | 84° | 15km/h | 21322m | -65.5m/s | -51.8°C | 3.9% | 0hPa | 2.4V | 00:00:00 | 02:20:16 | 00:00:00 | |
| OE5MMP-10 | 2026-09-02 01:03:39 | 49.44847 | 18.07510 | 90° | 13km/h | 21386m | -66.0m/s | -51.5°C | 3.7% | 0hPa | 2.4V | 08:27:00 | 02:20:15 | 00:00:00 | |
| SP3WXH-11 | 2026-09-02 01:03:36 | 49.44849 | 18.07491 | 98° | 15km/h | 21581m | -66.8m/s | -52.2°C | 1.0% | -1.0hPa | 2.6V | 00:00:00 | 00:00:00 | 00:00:00 | |
| DO3MHA-11 | 2026-09-02 01:03:30 | 49.44849 | 18.07460 | 87° | 7km/h | 21980m | -69.1m/s | -51.9°C | 3.9% | 0hPa | 2.6V | 00:00:00 | 02:20:06 | 00:00:00 | |
| OE5DRO-10 | 2026-09-02 01:03:26 | 49.44855 | 18.07453 | 162° | 4km/h | 22247m | -69.8m/s | -51.7°C | 3.8% | 0hPa | 2.4V | 00:00:00 | 00:00:00 | 00:00:00 | |
| PG1ADW-2 | 2026-09-02 01:03:21 | 49.44864 | 18.07462 | 252° | 2km/h | 22578m | -70.6m/s | -51.4°C | 3.8% | 0hPa | 2.4V | 00:00:00 | 00:00:00 | 00:00:00 | |
| DO3MHA-11 | 2026-09-02 01:03:20 | 49.44864 | 18.07463 | 284° | 2km/h | 22647m | -70.9m/s | -51.7°C | 3.9% | 0hPa | 2.6V | 00:00:00 | 02:19:56 | 00:00:00 | |
| OE3JTB-15 | 2026-09-02 01:03:19 | 49.44864 | 18.07462 | 10° | 7km/h | 22716m | -70.9m/s | -51.6°C | 3.9% | 0hPa | 2.6V | 00:00:00 | 00:00:00 | 00:00:00 | |
| OE5MMP-10 | 2026-09-02 01:03:16 | 49.44863 | 18.07461 | 59° | 2km/h | 22922m | -72.9m/s | -51.4°C | 3.9% | 0hPa | 2.6V | 00:00:00 | 02:19:52 | 00:00:00 | |
| PETON7-10 | 2026-09-02 01:03:11 | 49.44864 | 18.07461 | 62° | 4km/h | 23275m | -72.6m/s | -52.1°C | 4.3% | 0hPa | 2.6V | 00:00:00 | 02:19:47 | 00:00:00 | |
| DO3MHA-11 | 2026-09-02 01:03:10 | 49.44863 | 18.07460 | 343° | 2km/h | 23346m | -72.6m/s | -52.1°C | 4.3% | 0hPa | 2.6V | 00:00:00 | 02:19:46 | 00:00:00 | |
| OE5DRO-10 | 2026-09-02 01:03:07 | 49.44864 | 18.07460 | 70° | 4km/h | 23563m | -75.1m/s | -51.5°C | 4.2% | 0hPa | 2.6V | 00:00:00 | 00:00:00 | 00:00:00 | |
| OE5MMP-10 | 2026-09-02 01:03:06 | 49.44864 | 18.07459 | 71° | 4km/h | 23636m | -75.2m/s | -51.3°C | 4.1% | 0hPa | 2.6V | 00:00:00 | 02:19:42 | 00:00:00 | |
| SP3WXH-11 | 2026-09-02 01:03:05 | 49.44864 | 18.07458 | 97° | 2km/h | 23709m | -75.6m/s | -51.4°C | 1.0% | -1.0hPa | 2.4V | 00:00:00 | 00:00:00 | 00:00:00 | |
| SONDE2-11 | 2026-09-02 01:02:51 | 49.44877 | 18.07444 | 210° | 4km/h | 24878m | -81.6m/s | -49.1°C | 0.9% | -1.0hPa | 2.4V | 00:00:00 | 00:00:00 | 00:00:00 | |
| OE3OSB-13 | 2026-09-02 01:02:45 | 49.44884 | 18.07450 | 246° | 5km/h | 25283m | -83.2m/s | -47.9°C | 0.8% | -1.0hPa | 2.4V | 00:00:00 | 00:00:00 | 00:00:00 | |
| HA6NAB-11 | 2026-09-02 01:02:42 | 49.44886 | 18.07453 | 254° | 4km/h | 25447m | -82.6m/s | -47.9°C | 0.8% | 0hPa | 2.4V | 00:00:00 | 00:00:00 | 00:00:00 | |
| PG1ADW-2 | 2026-09-02 01:02:41 | 49.44887 | 18.07456 | 258° | 5km/h | 25613m | -84.0m/s | -47.3°C | 3.3% | 0hPa | 2.4V | 00:00:00 | 02:19:17 | 00:00:00 | |
| NBG1-10 | 2026-09-02 01:02:39 | 49.44888 | 18.07461 | 264° | 15km/h | 25782m | -85.0m/s | -46.6°C | 3.1% | 0hPa | 2.4V | 00:00:00 | 02:19:15 | 08:30:00 | |
| DO3MHA-11 | 2026-09-02 01:02:38 | 49.44888 | 18.07464 | 281° | 5km/h | 25866m | -85.3m/s | -46.5°C | 3.1% | 0hPa | 2.6V | 00:00:00 | 02:19:14 | 00:00:00 | |
| HA6NAB-11 | 2026-09-02 01:02:37 | 49.44888 | 18.07464 | 281° | 7km/h | 25866m | -85.4m/s | -46.5°C | 0.7% | 0hPa | 2.6V | 00:00:00 | 00:00:00 | 00:00:00 | |
| OE5MMP-10 | 2026-09-02 01:02:36 | 49.44888 | 18.07471 | 291° | 5km/h | 26036m | -85.7m/s | -47.1°C | 3.3% | 0hPa | 2.6V | 00:00:00 | 02:19:12 | 00:00:00 | |
| SP3WXH-11 | 2026-09-02 01:02:34 | 49.44887 | 18.07476 | 300° | 5km/h | 26209m | -86.5m/s | -47.9°C | 0.8% | -1.0hPa | 2.6V | 00:00:00 | 00:00:00 | 00:00:00 | |
| HA6NAB-11 | 2026-09-02 01:02:31 | 49.44886 | 18.07477 | 341° | 4km/h | 26385m | -88.5m/s | -47.5°C | 0.8% | 0hPa | 2.6V | 00:00:00 | 00:00:00 | 00:00:00 | |
| OE5DRO-10 | 2026-09-02 01:02:29 | 49.44883 | 18.07477 | 341° | 7km/h | 26649m | -86.4m/s | -47.0°C | 3.5% | 0hPa | 2.6V | 08:28:00 | 00:00:00 | 00:00:00 | |
| DO3MHA-11 | 2026-09-02 01:02:28 | 49.44882 | 18.07478 | 338° | 5km/h | 26735m | -84.9m/s | -46.8°C | 3.4% | 0hPa | 2.6V | 08:28:00 | 02:19:04 | 00:00:00 | |
| PETON7-10 | 2026-09-02 01:02:26 | 49.44880 | 18.07477 | 12° | 7km/h | 26903m | -84.2m/s | -46.1°C | 3.2% | 0hPa | 2.4V | 00:00:00 | 02:19:02 | 00:00:00 | |
| PG1ADW-2 | 2026-09-02 01:02:21 | 49.44873 | 18.07475 | 37° | 11km/h | 27315m | -80.2m/s | -44.6°C | 2.9% | 0hPa | 2.4V | 08:28:00 | 00:00:00 | 00:00:00 | |
| SONDE2-11 | 2026-09-02 01:02:19 | 49.44870 | 18.07473 | 6° | 7km/h | 27475m | -80.3m/s | -44.5°C | 0.6% | -1.0hPa | 2.6V | 00:00:00 | 00:00:00 | 00:00:00 | |
| DO3MHA-11 | 2026-09-02 01:02:18 | 49.44868 | 18.07472 | 30° | 9km/h | 27555m | -79.4m/s | -44.2°C | 2.8% | 0hPa | 2.6V | 00:00:00 | 02:18:54 | 00:00:00 | |
| OE5MMP-10 | 2026-09-02 01:02:16 | 49.44863 | 18.07469 | 40° | 11km/h | 27713m | -78.8m/s | -43.6°C | 2.7% | 0hPa | 2.6V | 00:00:00 | 02:18:52 | 00:00:00 | |
| HA6NAB-11 | 2026-09-02 01:02:15 | 49.44864 | 18.07469 | 41° | 13km/h | 27713m | -78.9m/s | -43.6°C | 0.6% | 0hPa | 2.6V | 00:00:00 | 00:00:00 | 00:00:00 | |
| OK1SLM-15 | 2026-09-02 01:02:13 | 49.44860 | 18.07464 | 53° | 9km/h | 27866m | -76.0m/s | -43.5°C | 0.6% | 0hPa | 2.6V | 00:00:00 | 00:00:00 | 00:00:00 | |
| PETON7-10 | 2026-09-02 01:02:11 | 49.44857 | 18.07456 | 56° | 15km/h | 28092m | -77.2m/s | -43.1°C | 2.7% | 0hPa | 2.6V | 00:00:00 | 00:00:00 | 00:00:00 | |
| OE5DRO-10 | 2026-09-02 01:02:10 | 49.44855 | 18.07453 | 53° | 15km/h | 28170m | -78.3m/s | -43.1°C | 2.7% | 0hPa | 2.4V | 00:00:00 | 00:00:00 | 00:00:00 | |
| DO3MHA-11 | 2026-09-02 01:02:08 | 49.44852 | 18.07447 | 46° | 16km/h | 28327m | -79.2m/s | -43.4°C | 2.8% | 0hPa | 2.4V | 00:00:00 | 02:18:44 | 00:00:00 | |
| OE5MMP-10 | 2026-09-02 01:02:06 | 49.44850 | 18.07440 | 72° | 16km/h | 28485m | -79.6m/s | -43.7°C | 2.9% | 0hPa | 2.4V | 08:29:00 | 02:18:42 | 00:00:00 | |
| SQ9EZE-14 | 2026-09-02 01:02:04 | 49.44849 | 18.07434 | 79° | 16km/h | 28564m | -81.1m/s | -43.7°C | 0% | 0hPa | 2.4V | 00:00:00 | 00:00:00 | 00:00:00 | |
| SP3WXH-11 | 2026-09-02 01:02:03 | 49.44848 | 18.07422 | 85° | 16km/h | 28727m | -83.5m/s | -43.4°C | 0.6% | -1.0hPa | 2.4V | 00:00:00 | 00:00:00 | 00:00:00 | |
| SONDE2-11 | 2026-09-02 01:01:49 | 49.44851 | 18.07327 | 81° | 13km/h | 30027m | -84.8m/s | -40.5°C | 0.5% | -1.0hPa | 2.4V | 00:00:00 | 00:00:00 | 00:00:00 | |
| DO3MHA-11 | 2026-09-02 01:01:48 | 49.44851 | 18.07327 | 82° | 15km/h | 30027m | -84.8m/s | -40.5°C | 2.5% | 0hPa | 2.4V | 00:00:00 | 02:18:24 | 00:00:00 | |
| SP9KGR-15 | 2026-09-02 01:01:47 | 49.44851 | 18.07327 | 83° | 15km/h | 30027m | -84.8m/s | 0°C | 0% | 0hPa | 2.4V | 00:00:00 | 00:00:00 | 00:00:00 | |
| OE5MMP-10 | 2026-09-02 01:01:46 | 49.44849 | 18.07314 | 89° | 15km/h | 30191m | -83.4m/s | -40.4°C | 2.5% | 0hPa | 2.4V | 00:00:00 | 02:18:22 | 00:00:00 | |
| PETON7-10 | 2026-09-02 01:01:41 | 49.44854 | 18.07282 | 120° | 11km/h | 30603m | -83.6m/s | -38.7°C | 2.2% | 0hPa | 2.4V | 00:00:00 | 02:18:17 | 00:00:00 | |
| PG1ADW-2 | 2026-09-02 01:01:39 | 49.44857 | 18.07272 | 115° | 13km/h | 30772m | -87.1m/s | -38.4°C | 2.2% | 0hPa | 2.4V | 00:00:00 | 00:00:00 | 00:00:00 | |
| OE5MMP-10 | 2026-09-02 01:01:36 | 49.44859 | 18.07257 | 101° | 9km/h | 31033m | -88.9m/s | -37.9°C | 2.2% | 0hPa | 2.4V | 00:00:00 | 02:18:12 | 00:00:00 | |
| OE5DRO-10 | 2026-09-02 01:01:32 | 49.44859 | 18.07237 | 88° | 11km/h | 31388m | -89.9m/s | -37.5°C | 2.1% | 0hPa | 2.6V | 00:00:00 | 00:00:00 | 00:00:00 | |
| NBG1-10 | 2026-09-02 01:01:31 | 49.44859 | 18.07234 | 103° | 9km/h | 31478m | -89.9m/s | -37.6°C | 2.1% | 0hPa | 2.6V | 00:00:00 | 02:18:07 | 00:00:00 | |
| PETON7-10 | 2026-09-02 01:01:26 | 49.44860 | 18.07221 | 84° | 13km/h | 31940m | -93.8m/s | -37.0°C | 2.1% | 0hPa | 2.6V | 00:00:00 | 00:00:00 | 00:00:00 | |
| SONDE2-11 | 2026-09-02 01:01:17 | 49.44847 | 18.07185 | 58° | 13km/h | 32811m | -96.3m/s | -34.9°C | 0.4% | -1.0hPa | 2.6V | 00:00:00 | 00:00:00 | 00:00:00 | |
| OE5MMP-10 | 2026-09-02 01:01:16 | 49.44846 | 18.07180 | 68° | 16km/h | 32908m | -98.3m/s | -34.3°C | 1.8% | 0hPa | 2.6V | 00:00:00 | 02:17:52 | 00:00:00 | |
| PG1ADW-2 | 2026-09-02 01:01:14 | 49.44842 | 18.07167 | 62° | 18km/h | 33102m | -95.7m/s | -34.1°C | 1.7% | 0hPa | 2.6V | 00:00:00 | 02:17:50 | 00:00:00 | |
| OE5DRO-10 | 2026-09-02 01:01:13 | 49.44841 | 18.07161 | 60° | 20km/h | 33196m | -95.0m/s | -34.5°C | 1.8% | 0hPa | 2.6V | 00:00:00 | 00:00:00 | 00:00:00 | |
| OE3OSB-13 | 2026-09-02 01:01:12 | 49.44838 | 18.07149 | 57° | 15km/h | 33383m | -93.2m/s | -34.9°C | 0.4% | -1.0hPa | 2.6V | 00:00:00 | 00:00:00 | 00:00:00 | |
| PETON7-10 | 2026-09-02 01:01:11 | 49.44838 | 18.07149 | 58° | 18km/h | 33383m | -93.2m/s | -34.9°C | 1.9% | 0hPa | 2.6V | 00:00:00 | 00:00:00 | 00:00:00 | |
| OE5MMP-10 | 2026-09-02 01:01:06 | 49.44829 | 18.07116 | 81° | 20km/h | 33838m | -90.2m/s | -32.9°C | 1.6% | 0hPa | 2.6V | 00:00:00 | 02:17:42 | 00:00:00 | |
| OK1SLM-15 | 2026-09-02 01:01:05 | 49.44829 | 18.07117 | 81° | 18km/h | 33838m | -90.2m/s | -32.9°C | 0.3% | 0hPa | 2.6V | 00:00:00 | 00:00:00 | 00:00:00 | |
| HA6NAB-11 | 2026-09-02 01:01:04 | 49.44828 | 18.07109 | 94° | 22km/h | 33929m | -89.1m/s | -32.8°C | 0.3% | 0hPa | 2.6V | 00:00:00 | 00:00:00 | 00:00:00 | |
| SP3WXH-11 | 2026-09-02 01:01:01 | 49.44835 | 18.07078 | 122° | 18km/h | 34271m | -82.3m/s | -31.2°C | 0.2% | -1.0hPa | 2.6V | 00:00:00 | 00:00:00 | 00:00:00 | |
| HA6NAB-11 | 2026-09-02 01:00:59 | 49.44838 | 18.07072 | 128° | 20km/h | 34352m | -81.0m/s | -31.6°C | 0.3% | 0hPa | 2.6V | 00:00:00 | 00:00:00 | 00:00:00 | |
| OE5DXL-15 | 2026-09-02 01:00:57 | 49.44852 | 18.07051 | 133° | 29km/h | 34671m | -73.1m/s | -33.1°C | 1.6% | 0hPa | 2.6V | 00:00:00 | 00:00:00 | 00:00:00 | |
| PETON7-10 | 2026-09-02 01:00:56 | 49.44852 | 18.07051 | 133° | 31km/h | 34671m | -73.1m/s | -33.1°C | 1.6% | 0hPa | 2.6V | 00:00:00 | 02:17:32 | 00:00:00 | |
| OE5DRO-10 | 2026-09-02 01:00:54 | 49.44858 | 18.07036 | 117° | 37km/h | 34815m | -71.0m/s | -32.2°C | 1.5% | 0hPa | 2.6V | 00:00:00 | 00:00:00 | 00:00:00 | |
| DB0UT-7 | 2026-09-02 01:00:52 | 49.44865 | 18.07017 | 126° | 29km/h | 34958m | -70.9m/s | -31.2°C | 1.3% | 0hPa | 2.6V | 00:00:00 | 02:17:28 | 00:00:00 | |
| HA6NAB-11 | 2026-09-02 01:00:48 | 49.44884 | 18.07010 | 189° | 31km/h | 35175m | -68.9m/s | -31.9°C | 0.3% | 0hPa | 2.6V | 00:00:00 | 00:00:00 | 00:00:00 | |
| OE5MMP-10 | 2026-09-02 01:00:46 | 49.44909 | 18.07021 | 196° | 40km/h | 35349m | -45.8m/s | -33.4°C | 1.6% | 0hPa | 2.6V | 00:00:00 | 02:17:22 | 00:00:00 | |
| HA6NAB-11 | 2026-09-02 01:00:42 | 49.44936 | 18.07032 | 191° | 35km/h | 35447m | -19.3m/s | -33.8°C | 0.3% | 0hPa | 2.6V | 00:00:00 | 00:00:00 | 00:00:00 | |
| PETON7-10 | 2026-09-02 01:00:41 | 49.44952 | 18.07031 | 155° | 27km/h | 35467m | -1.6m/s | -33.8°C | 1.7% | 0hPa | 2.6V | 00:00:00 | 00:00:00 | 08:30:00 | |
| OE3OSB-13 | 2026-09-02 01:00:40 | 49.44970 | 18.06993 | 120° | 51km/h | 35449m | 6.8m/s | -33.8°C | 0.3% | -1.0hPa | 2.5V | 00:00:00 | 00:00:00 | 00:00:00 | |
| NBG1-10 | 2026-09-02 01:00:38 | 49.44970 | 18.06993 | 121° | 38km/h | 35449m | 6.8m/s | -33.8°C | 1.7% | 0hPa | 2.5V | 00:00:00 | 02:17:14 | 00:00:00 | |
| OE5MMP-10 | 2026-09-02 01:00:36 | 49.44982 | 18.06957 | 112° | 20km/h | 35438m | 3.7m/s | -33.7°C | 1.7% | 0hPa | 2.5V | 00:00:00 | 02:17:12 | 08:30:00 | |
| OE5DRO-10 | 2026-09-02 01:00:35 | 49.44986 | 18.06941 | 108° | 26km/h | 35434m | 5.4m/s | -33.7°C | 1.6% | 0hPa | 2.6V | 00:00:00 | 00:00:00 | 00:00:00 | |
| PG1ADW-2 | 2026-09-02 01:00:34 | 49.44988 | 18.06928 | 98° | 24km/h | 35427m | 7.4m/s | -33.7°C | 1.7% | 0hPa | 2.6V | 00:00:00 | 00:00:00 | 00:00:00 | |
| SP9KGR-15 | 2026-09-02 01:00:30 | 49.44983 | 18.06915 | 298° | 2km/h | 35400m | 5.4m/s | 0°C | 0% | 0hPa | 2.6V | 00:00:00 | 00:00:00 | 00:00:00 | |
| SP3BTT-10 | 2026-09-02 01:00:28 | 49.44987 | 18.06913 | 152° | 29km/h | 35388m | 6.0m/s | 0°C | 0% | 0hPa | 2.6V | 00:00:00 | 00:00:00 | 00:00:00 | |
| OE5MMP-10 | 2026-09-02 01:00:26 | 49.44997 | 18.06900 | 131° | 33km/h | 35376m | 6.3m/s | -33.7°C | 1.7% | 0hPa | 2.6V | 00:00:00 | 02:17:02 | 00:00:00 | |
| OE5MMP-10 | 2026-09-02 01:00:17 | 49.45004 | 18.06784 | 167° | 20km/h | 35310m | 7.2m/s | -33.4°C | 1.6% | 0hPa | 2.6V | 00:00:00 | 02:16:52 | 00:00:00 | |
| SONDE2-11 | 2026-09-02 01:00:16 | 49.45007 | 18.06784 | 187° | 13km/h | 35304m | 6.4m/s | 0°C | -1.0% | -1.0hPa | 2.6V | 00:00:00 | 00:00:00 | 00:00:00 | |
| PG1ADW-2 | 2026-09-02 01:00:14 | 49.45010 | 18.06786 | 194° | 24km/h | 35298m | 5.6m/s | -33.3°C | 1.6% | 0hPa | 2.6V | 00:00:00 | 00:00:00 | 00:00:00 | |
| OK1SLM-15 | 2026-09-02 01:00:12 | 49.45013 | 18.06786 | 186° | 9km/h | 35292m | 5.7m/s | -33.3°C | 0.3% | 0hPa | 2.5V | 00:00:00 | 00:00:00 | 00:00:00 | |
| PETON7-10 | 2026-09-02 01:00:10 | 49.45017 | 18.06775 | 93° | 24km/h | 35273m | 6.1m/s | -33.2°C | 1.6% | 0hPa | 2.5V | 00:00:00 | 02:16:46 | 00:00:00 | |
| OE3OSB-13 | 2026-09-02 01:00:09 | 49.45017 | 18.06764 | 91° | 31km/h | 35267m | 7.0m/s | -33.2°C | 0.3% | -1.0hPa | 2.5V | 00:00:00 | 00:00:00 | 00:00:00 | |
| OE5MMP-10 | 2026-09-02 01:00:06 | 49.45021 | 18.06718 | 103° | 18km/h | 35246m | 4.5m/s | -33.0°C | 1.6% | 0hPa | 2.5V | 00:00:00 | 02:16:42 | 00:00:00 | |
| SP3WXH-11 | 2026-09-02 00:59:59 | 49.45024 | 18.06708 | 259° | 18km/h | 35203m | 3.6m/s | -32.9°C | 0.3% | -1.0hPa | 2.5V | 00:00:00 | 00:00:00 | 00:00:00 | |
| SP3BTT-10 | 2026-09-02 00:59:58 | 49.45026 | 18.06714 | 234° | 22km/h | 35200m | 4.6m/s | 0°C | 0% | 0hPa | 2.5V | 00:00:00 | 00:00:00 | 00:00:00 | |
| OE5DRO-10 | 2026-09-02 00:59:57 | 49.45029 | 18.06716 | 185° | 29km/h | 35194m | 5.9m/s | -32.8°C | 1.6% | 0hPa | 2.5V | 00:00:00 | 00:00:00 | 00:00:00 | |
| OE5DXL-15 | 2026-09-02 00:59:56 | 49.45033 | 18.06714 | 149° | 27km/h | 35187m | 7.3m/s | -32.7°C | 1.6% | 0hPa | 2.5V | 00:00:00 | 00:00:00 | 00:00:00 | |
| PETON7-10 | 2026-09-02 00:59:55 | 49.45038 | 18.06707 | 130° | 29km/h | 35180m | 7.1m/s | -32.7°C | 1.6% | 0hPa | 2.5V | 00:00:00 | 00:00:00 | 00:00:00 | |
| PG1ADW-2 | 2026-09-02 00:59:54 | 49.45043 | 18.06694 | 115° | 29km/h | 35173m | 6.2m/s | -32.7°C | 1.6% | 0hPa | 2.6V | 00:00:00 | 02:16:30 | 00:00:00 | |
| OE5MMP-10 | 2026-09-02 00:59:46 | 49.45035 | 18.06647 | 248° | 29km/h | 35126m | 6.5m/s | -32.6°C | 1.5% | 0hPa | 2.6V | 00:00:00 | 02:16:22 | 00:00:00 | |
| NBG1-10 | 2026-09-02 00:59:44 | 49.45045 | 18.06662 | 202° | 26km/h | 35114m | 5.3m/s | -32.6°C | 1.5% | 0hPa | 2.6V | 00:00:00 | 02:16:20 | 00:00:00 | |
| PETON7-10 | 2026-09-02 00:59:40 | 49.45069 | 18.06645 | 102° | 22km/h | 35090m | 6.8m/s | -32.7°C | 1.5% | 0hPa | 2.5V | 00:00:00 | 00:00:00 | 00:00:00 | |
| OE5DRO-10 | 2026-09-02 00:59:38 | 49.45066 | 18.06624 | 56° | 20km/h | 35077m | 5.6m/s | -32.7°C | 1.6% | 0hPa | 2.5V | 00:00:00 | 00:00:00 | 08:30:00 | |
| OE5MMP-10 | 2026-09-02 00:59:36 | 49.45056 | 18.06612 | 16° | 22km/h | 35067m | 5.1m/s | -32.8°C | 1.5% | 0hPa | 2.6V | 00:00:00 | 02:16:12 | 00:00:00 | |
| DB0UT-7 | 2026-09-02 00:59:34 | 49.45050 | 18.06616 | 282° | 24km/h | 35055m | 6.8m/s | -32.8°C | 1.6% | 0hPa | 2.6V | 00:00:00 | 00:00:00 | 00:00:00 | |
| SP3WXH-11 | 2026-09-02 00:59:28 | 49.45080 | 18.06639 | 168° | 20km/h | 35018m | 5.8m/s | -33.0°C | 0.3% | -1.0hPa | 2.6V | 00:00:00 | 00:00:00 | 00:00:00 | |
| OE5MMP-10 | 2026-09-02 00:59:26 | 49.45087 | 18.06634 | 120° | 18km/h | 35004m | 6.9m/s | -33.0°C | 1.6% | 0hPa | 2.6V | 00:00:00 | 02:16:02 | 00:00:00 | |
| PETON7-10 | 2026-09-02 00:59:25 | 49.45088 | 18.06630 | 93° | 22km/h | 34997m | 6.6m/s | -33.0°C | 1.5% | 0hPa | 2.6V | 00:00:00 | 02:16:01 | 00:00:00 | |
| HA6NAB-11 | 2026-09-02 00:59:23 | 49.45087 | 18.06625 | 80° | 11km/h | 34991m | 5.9m/s | -33.1°C | 0.3% | 0hPa | 2.6V | 00:00:00 | 00:00:00 | 00:00:00 | |
| SP9KGR-15 | 2026-09-02 00:59:21 | 49.45088 | 18.06617 | 116° | 13km/h | 34980m | 5.9m/s | -33.1°C | 0.3% | 0hPa | 2.6V | 00:00:00 | 00:00:00 | 00:00:00 | |
| HA6NAB-11 | 2026-09-02 00:59:19 | 49.45099 | 18.06604 | 161° | 26km/h | 34961m | 6.3m/s | -33.2°C | 0.3% | 0hPa | 2.6V | 00:00:00 | 00:00:00 | 00:00:00 | |
| OE5MMP-10 | 2026-09-02 00:59:16 | 49.45120 | 18.06602 | 195° | 29km/h | 34941m | 7.2m/s | -33.2°C | 1.5% | 0hPa | 2.6V | 00:00:00 | 02:15:52 | 00:00:00 | |
| PG1ADW-2 | 2026-09-02 00:59:14 | 49.45132 | 18.06611 | 213° | 26km/h | 34928m | 6.0m/s | -33.3°C | 1.5% | 0hPa | 2.6V | 00:00:00 | 00:00:00 | 08:30:00 | |
| HA6NAB-11 | 2026-09-02 00:59:13 | 49.45132 | 18.06611 | 214° | 29km/h | 34928m | 6.1m/s | -33.4°C | 0.3% | 0hPa | 2.5V | 00:00:00 | 00:00:00 | 00:00:00 | |
| PETON7-10 | 2026-09-02 00:59:10 | 49.45158 | 18.06627 | 179° | 26km/h | 34905m | 6.4m/s | -33.6°C | 1.6% | 0hPa | 2.5V | 00:00:00 | 00:00:00 | 00:00:00 | |
| OE3OSB-13 | 2026-09-02 00:59:07 | 49.45178 | 18.06614 | 136° | 27km/h | 34887m | 5.7m/s | -33.8°C | 0.3% | -1.0hPa | 2.5V | 00:00:00 | 00:00:00 | 00:00:00 | |
| OE5MMP-10 | 2026-09-02 00:59:06 | 49.45182 | 18.06606 | 127° | 22km/h | 34881m | 6.0m/s | -33.8°C | 1.6% | 0hPa | 2.5V | 00:00:00 | 02:15:42 | 08:30:00 | |
| SP9KGR-15 | 2026-09-02 00:59:05 | 49.45182 | 18.06606 | 127° | 24km/h | 34881m | 6.1m/s | -33.8°C | 0.3% | 0hPa | 2.6V | 00:00:00 | 00:00:00 | 00:00:00 | |
| DB0UT-7 | 2026-09-02 00:59:04 | 49.45186 | 18.06593 | 106° | 24km/h | 34868m | 6.6m/s | -33.9°C | 1.6% | 0hPa | 2.6V | 00:00:00 | 02:15:40 | 00:00:00 | |
| HA6NAB-11 | 2026-09-02 00:59:02 | 49.45187 | 18.06590 | 109° | 7km/h | 34862m | 5.8m/s | -34.0°C | 0.3% | 0hPa | 2.6V | 00:00:00 | 00:00:00 | 00:00:00 | |
| SP3WXH-11 | 2026-09-02 00:58:57 | 49.45220 | 18.06576 | 161° | 44km/h | 34824m | 5.9m/s | -34.4°C | 0.3% | -1.0hPa | 2.6V | 00:00:00 | 00:00:00 | 00:00:00 | |
| OE5MMP-10 | 2026-09-02 00:58:56 | 49.45230 | 18.06570 | 157° | 26km/h | 34819m | 4.9m/s | -34.4°C | 1.7% | 0hPa | 2.6V | 00:00:00 | 02:15:32 | 00:00:00 | |
| PETON7-10 | 2026-09-02 00:58:55 | 49.45240 | 18.06563 | 149° | 29km/h | 34814m | 4.6m/s | -34.4°C | 1.7% | 0hPa | 2.6V | 00:00:00 | 00:00:00 | 00:00:00 | |
| PG1ADW-2 | 2026-09-02 00:58:54 | 49.45246 | 18.06555 | 139° | 29km/h | 34808m | 6.6m/s | -34.4°C | 1.7% | 0hPa | 2.6V | 00:00:00 | 00:00:00 | 00:00:00 | |
| SP9KGR-15 | 2026-09-02 00:58:49 | 49.45251 | 18.06527 | 80° | 18km/h | 34783m | 4.6m/s | -34.6°C | 0.3% | 0hPa | 2.6V | 00:00:00 | 00:00:00 | 00:00:00 | |
| OE5MMP-10 | 2026-09-02 00:58:46 | 49.45265 | 18.06500 | 158° | 33km/h | 34759m | 6.7m/s | -34.9°C | 1.7% | 0hPa | 2.6V | 00:00:00 | 02:15:22 | 00:00:00 | |
| NBG1-10 | 2026-09-02 00:58:44 | 49.45285 | 18.06491 | 169° | 29km/h | 34747m | 6.0m/s | -35.0°C | 1.7% | 0hPa | 2.6V | 00:00:00 | 02:15:20 | 00:00:00 | |
| OE5DRO-10 | 2026-09-02 00:58:41 | 49.45310 | 18.06482 | 151° | 31km/h | 34730m | 5.4m/s | -35.0°C | 1.8% | 0hPa | 2.6V | 00:00:00 | 00:00:00 | 00:00:00 | |
| PETON7-10 | 2026-09-02 00:58:40 | 49.45314 | 18.06476 | 125° | 27km/h | 34724m | 5.9m/s | -35.0°C | 1.8% | 0hPa | 2.5V | 00:00:00 | 02:15:16 | 00:00:00 | |
| OE5MMP-10 | 2026-09-02 00:58:36 | 49.45317 | 18.06430 | 85° | 27km/h | 34697m | 5.1m/s | -35.1°C | 1.7% | 0hPa | 2.5V | 00:00:00 | 02:15:12 | 00:00:00 | |
| PG1ADW-2 | 2026-09-02 00:58:34 | 49.45315 | 18.06405 | 86° | 31km/h | 34687m | 6.0m/s | -35.1°C | 1.8% | 0hPa | 2.6V | 00:00:00 | 02:15:10 | 00:00:00 | |
| SP9KGR-15 | 2026-09-02 00:58:33 | 49.45316 | 18.06405 | 86° | 27km/h | 34687m | 6.0m/s | -35.1°C | 0.3% | 0hPa | 2.6V | 00:00:00 | 00:00:00 | 00:00:00 | |
| SP3BTT-10 | 2026-09-02 00:58:31 | 49.45318 | 18.06388 | 155° | 33km/h | 34668m | 5.2m/s | 0°C | 0% | 0hPa | 2.6V | 00:00:00 | 00:00:00 | 00:00:00 | |
| OE5MMP-10 | 2026-09-02 00:58:26 | 49.45349 | 18.06353 | 124° | 35km/h | 34638m | 5.7m/s | -35.2°C | 1.8% | 0hPa | 2.6V | 00:00:00 | 02:15:02 | 00:00:00 | |
| PETON7-10 | 2026-09-02 00:58:25 | 49.45354 | 18.06337 | 114° | 31km/h | 34632m | 5.4m/s | -35.1°C | 1.8% | 0hPa | 2.6V | 00:00:00 | 00:00:00 | 08:30:00 | |
| OE5DRO-10 | 2026-09-02 00:58:22 | 49.45359 | 18.06290 | 79° | 27km/h | 34613m | 6.8m/s | -35.0°C | 1.8% | 0hPa | 2.5V | 00:00:00 | 00:00:00 | 00:00:00 | |
| OK1SLM-15 | 2026-09-02 00:58:21 | 49.45358 | 18.06290 | 79° | 37km/h | 34613m | 6.8m/s | -35.1°C | 0.4% | 0hPa | 2.5V | 00:00:00 | 00:00:00 | 00:00:00 | |
| SP9KGR-15 | 2026-09-02 00:58:17 | 49.45347 | 18.06248 | 73° | 26km/h | 34589m | 6.6m/s | -35.0°C | 0.3% | 0hPa | 2.5V | 00:00:00 | 00:00:00 | 00:00:00 | |
| OE5MMP-10 | 2026-09-02 00:58:16 | 49.45346 | 18.06228 | 103° | 26km/h | 34576m | 6.3m/s | -34.8°C | 1.8% | 0hPa | 2.5V | 00:00:00 | 02:14:52 | 00:00:00 | |
| PG1ADW-2 | 2026-09-02 00:58:14 | 49.45351 | 18.06208 | 119° | 26km/h | 34563m | 6.1m/s | -34.8°C | 1.8% | 0hPa | 2.5V | 00:00:00 | 00:00:00 | 00:00:00 | |
| PETON7-10 | 2026-09-02 00:58:10 | 49.45361 | 18.06177 | 99° | 26km/h | 34538m | 5.4m/s | -34.6°C | 1.8% | 0hPa | 2.6V | 00:00:00 | 00:00:00 | 00:00:00 | |
| OE5MMP-10 | 2026-09-02 00:58:06 | 49.45359 | 18.06133 | 77° | 26km/h | 34512m | 5.1m/s | -34.4°C | 1.8% | 0hPa | 2.6V | 00:00:00 | 02:14:42 | 00:00:00 | |
| OE3OSB-13 | 2026-09-02 00:58:05 | 49.45357 | 18.06121 | 72° | 27km/h | 34506m | 5.8m/s | -34.5°C | 0.3% | -1.0hPa | 2.6V | 00:00:00 | 00:00:00 | 00:00:00 | |
| OE5DRO-10 | 2026-09-02 00:58:03 | 49.45352 | 18.06103 | 62° | 22km/h | 34493m | 6.4m/s | -34.3°C | 1.7% | 0hPa | 2.6V | 00:00:00 | 00:00:00 | 00:00:00 | |
| SP3WXH-11 | 2026-09-02 00:57:55 | 49.45361 | 18.06022 | 78° | 22km/h | 34438m | 6.9m/s | -33.9°C | 0.3% | -1.0hPa | 2.6V | 00:00:00 | 00:00:00 | 00:00:00 | |
| PG1ADW-2 | 2026-09-02 00:57:54 | 49.45361 | 18.06021 | 79° | 20km/h | 34438m | 6.8m/s | -33.9°C | 1.7% | 0hPa | 2.6V | 00:00:00 | 00:00:00 | 00:00:00 | |
| DB0UT-7 | 2026-09-02 00:57:52 | 49.45356 | 18.06007 | 46° | 20km/h | 34426m | 5.7m/s | -33.7°C | 1.7% | 0hPa | 2.6V | 00:00:00 | 00:00:00 | 00:00:00 | |
| OE5MMP-10 | 2026-09-02 00:57:46 | 49.45350 | 18.05966 | 109° | 22km/h | 34389m | 5.4m/s | -33.5°C | 1.6% | 0hPa | 2.6V | 00:00:00 | 02:14:22 | 00:00:00 | |
| HA6NAB-11 | 2026-09-02 00:57:45 | 49.45350 | 18.05966 | 110° | 22km/h | 34389m | 5.4m/s | -33.5°C | 0.3% | 0hPa | 2.6V | 00:00:00 | 00:00:00 | 00:00:00 | |
| OE5DRO-10 | 2026-09-02 00:57:44 | 49.45353 | 18.05950 | 98° | 20km/h | 34377m | 6.8m/s | -33.4°C | 1.6% | 0hPa | 2.6V | 00:00:00 | 00:00:00 | 00:00:00 | |
| PETON7-10 | 2026-09-02 00:57:40 | 49.45351 | 18.05920 | 81° | 20km/h | 34350m | 7.0m/s | -33.4°C | 1.6% | 0hPa | 2.5V | 00:00:00 | 00:00:00 | 00:00:00 | |
| OE5MMP-10 | 2026-09-02 00:57:36 | 49.45345 | 18.05887 | 53° | 18km/h | 34326m | 6.7m/s | -33.3°C | 1.6% | 0hPa | 2.6V | 00:00:00 | 02:14:12 | 08:30:00 | |
| PG1ADW-2 | 2026-09-02 00:57:34 | 49.45338 | 18.05879 | 30° | 20km/h | 34313m | 5.6m/s | -33.2°C | 1.6% | 0hPa | 2.5V | 00:00:00 | 00:00:00 | 00:00:00 | |
| OK1SLM-15 | 2026-09-02 00:57:32 | 49.45336 | 18.05876 | 42° | 9km/h | 34308m | 4.8m/s | -33.2°C | 0.3% | 0hPa | 2.5V | 00:00:00 | 00:00:00 | 00:00:00 | |
| SP9KGR-15 | 2026-09-02 00:57:30 | 49.45334 | 18.05869 | 103° | 13km/h | 34297m | 7.4m/s | -33.2°C | 0.3% | 0hPa | 2.5V | 00:00:00 | 00:00:00 | 00:00:00 | |
| HA6NAB-11 | 2026-09-02 00:57:29 | 49.45336 | 18.05863 | 112° | 20km/h | 34289m | 7.4m/s | -33.2°C | 0.3% | 0hPa | 2.5V | 00:00:00 | 00:00:00 | 00:00:00 | |
| OK1SLM-15 | 2026-09-02 00:57:27 | 49.45340 | 18.05835 | 86° | 26km/h | 34272m | 5.0m/s | -33.2°C | 0.3% | 0hPa | 2.5V | 00:00:00 | 00:00:00 | 00:00:00 | |
| OE5MMP-10 | 2026-09-02 00:57:26 | 49.45338 | 18.05826 | 67° | 22km/h | 34266m | 6.8m/s | -33.1°C | 1.5% | 0hPa | 2.5V | 00:00:00 | 02:14:02 | 00:00:00 | |
| PETON7-10 | 2026-09-02 00:57:25 | 49.45334 | 18.05818 | 45° | 18km/h | 34259m | 7.1m/s | -33.1°C | 1.5% | 0hPa | 2.5V | 00:00:00 | 00:00:00 | 00:00:00 | |
| SP3WXH-11 | 2026-09-02 00:57:24 | 49.45322 | 18.05807 | 20° | 29km/h | 34245m | 5.4m/s | -33.2°C | 0.3% | -1.0hPa | 2.5V | 00:00:00 | 00:00:00 | 00:00:00 | |
| DB0UT-7 | 2026-09-02 00:57:22 | 49.45315 | 18.05803 | 22° | 18km/h | 34240m | 5.3m/s | 0°C | 0% | 0hPa | 2.5V | 00:00:00 | 02:13:58 | 00:00:00 | |
| HA6NAB-11 | 2026-09-02 00:57:19 | 49.45303 | 18.05789 | 73° | 15km/h | 34222m | 6.9m/s | -33.5°C | 0.3% | 0hPa | 2.5V | 00:00:00 | 00:00:00 | 00:00:00 | |
| OE5MMP-10 | 2026-09-02 00:57:16 | 49.45304 | 18.05774 | 111° | 18km/h | 34203m | 5.9m/s | -33.8°C | 1.6% | 0hPa | 2.5V | 00:00:00 | 02:13:52 | 00:00:00 | |
| PG1ADW-2 | 2026-09-02 00:57:14 | 49.45304 | 18.05769 | 36° | 24km/h | 34190m | 6.5m/s | -33.9°C | 1.6% | 0hPa | 2.5V | 00:00:00 | 02:13:50 | 00:00:00 | |
| SP9KGR-15 | 2026-09-02 00:57:12 | 49.45301 | 18.05768 | 20° | 13km/h | 34184m | 5.8m/s | -34.1°C | 0.3% | 0hPa | 2.6V | 00:00:00 | 00:00:00 | 00:00:00 | |
| HA6NAB-11 | 2026-09-02 00:57:11 | 49.45298 | 18.05766 | 23° | 16km/h | 34178m | 6.0m/s | -34.2°C | 0.3% | 0hPa | 2.6V | 00:00:00 | 00:00:00 | 00:00:00 | |
| PETON7-10 | 2026-09-02 00:57:10 | 49.45290 | 18.05758 | 41° | 26km/h | 34164m | 6.8m/s | -34.4°C | 1.6% | 0hPa | 2.6V | 00:00:00 | 02:13:46 | 00:00:00 | |
| OE5DRO-10 | 2026-09-02 00:57:06 | 49.45272 | 18.05727 | 46° | 35km/h | 34140m | 6.8m/s | -34.7°C | 1.7% | 0hPa | 2.6V | 00:00:00 | 00:00:00 | 00:00:00 | |
| OE3OSB-13 | 2026-09-02 00:57:03 | 49.45254 | 18.05705 | 36° | 27km/h | 34121m | 5.1m/s | -35.0°C | 0.3% | -1.0hPa | 2.6V | 00:00:00 | 00:00:00 | 00:00:00 | |
| SP3WXH-11 | 2026-09-02 00:56:53 | 49.45218 | 18.05611 | 27° | 53km/h | 34053m | 6.3m/s | -35.7°C | 0.4% | -1.0hPa | 2.6V | 00:00:00 | 00:00:00 | 00:00:00 | |
| OE5DRO-10 | 2026-09-02 00:56:47 | 49.45168 | 18.05542 | 68° | 35km/h | 34025m | 6.4m/s | -36.0°C | 1.8% | 0hPa | 2.6V | 00:00:00 | 00:00:00 | 08:30:00 | |
| OE5MMP-10 | 2026-09-02 00:56:46 | 49.45165 | 18.05527 | 78° | 27km/h | 34019m | 5.7m/s | -36.1°C | 1.9% | 0hPa | 2.5V | 00:00:00 | 02:13:22 | 00:00:00 | |
| HA6NAB-11 | 2026-09-02 00:56:43 | 49.45163 | 18.05506 | 76° | 18km/h | 34007m | 6.8m/s | -36.2°C | 0.4% | 0hPa | 2.5V | 00:00:00 | 00:00:00 | 00:00:00 | |
| PETON7-10 | 2026-09-02 00:56:40 | 49.45147 | 18.05504 | 350° | 33km/h | 33981m | 5.7m/s | -36.0°C | 1.9% | 0hPa | 2.5V | 00:00:00 | 00:00:00 | 00:00:00 | |
| HA6NAB-11 | 2026-09-02 00:56:37 | 49.45131 | 18.05503 | 15° | 38km/h | 33969m | 6.5m/s | -36.0°C | 0.4% | 0hPa | 2.5V | 00:00:00 | 00:00:00 | 00:00:00 | |
| OE5MMP-10 | 2026-09-02 00:56:36 | 49.45111 | 18.05490 | 31° | 35km/h | 33956m | 6.5m/s | -36.0°C | 1.8% | 0hPa | 2.5V | 00:00:00 | 02:13:12 | 00:00:00 | |
| PG1ADW-2 | 2026-09-02 00:56:34 | 49.45089 | 18.05467 | 36° | 35km/h | 33942m | 6.7m/s | -35.9°C | 1.8% | 0hPa | 2.6V | 00:00:00 | 00:00:00 | 00:00:00 | |
| OE3OSB-13 | 2026-09-02 00:56:32 | 49.45069 | 18.05443 | 41° | 42km/h | 33932m | 4.2m/s | -35.9°C | 0.4% | -1.0hPa | 2.6V | 00:00:00 | 00:00:00 | 00:00:00 | |
| OK1SLM-15 | 2026-09-02 00:56:29 | 49.45056 | 18.05416 | 84° | 18km/h | 33912m | 8.1m/s | -35.9°C | 0.3% | 0hPa | 2.6V | 00:00:00 | 00:00:00 | 00:00:00 | |
| OE5DRO-10 | 2026-09-02 00:56:28 | 49.45056 | 18.05411 | 104° | 31km/h | 33905m | 6.2m/s | -35.9°C | 1.8% | 0hPa | 2.6V | 00:00:00 | 00:00:00 | 00:00:00 | |
| OE5MMP-10 | 2026-09-02 00:56:26 | 49.45056 | 18.05406 | 10° | 38km/h | 33896m | 3.9m/s | -35.9°C | 1.8% | 0hPa | 2.6V | 00:00:00 | 02:13:02 | 00:00:00 | |
| PETON7-10 | 2026-09-02 00:56:25 | 49.45052 | 18.05406 | 357° | 35km/h | 33891m | 6.3m/s | -36.0°C | 1.8% | 0hPa | 2.6V | 00:00:00 | 02:13:01 | 00:00:00 | |
| DB0UT-7 | 2026-09-02 00:56:23 | 49.45036 | 18.05406 | 4° | 38km/h | 33875m | 7.1m/s | 0°C | 0% | 0hPa | 2.6V | 00:00:00 | 00:00:00 | 00:00:00 | |
| SP3WXH-11 | 2026-09-02 00:56:22 | 49.45010 | 18.05400 | 16° | 57km/h | 33864m | 4.3m/s | -36.1°C | 0.3% | -1.0hPa | 2.6V | 00:00:00 | 00:00:00 | 00:00:00 | |
| SP3BTT-10 | 2026-09-02 00:56:17 | 49.44972 | 18.05360 | 63° | 26km/h | 33840m | 6.3m/s | 0°C | 0% | 0hPa | 2.6V | 00:00:00 | 00:00:00 | 00:00:00 | |
| OE5MMP-10 | 2026-09-02 00:56:16 | 49.44969 | 18.05350 | 75° | 31km/h | 33834m | 5.9m/s | -36.1°C | 1.8% | 0hPa | 2.6V | 00:00:00 | 02:12:52 | 00:00:00 | |
| PG1ADW-2 | 2026-09-02 00:56:14 | 49.44966 | 18.05336 | 53° | 35km/h | 33822m | 5.9m/s | -36.1°C | 1.8% | 0hPa | 2.6V | 00:00:00 | 00:00:00 | 08:30:00 | |
| PETON7-10 | 2026-09-02 00:56:10 | 49.44941 | 18.05332 | 2° | 38km/h | 33797m | 6.1m/s | -36.1°C | 1.8% | 0hPa | 2.5V | 00:00:00 | 00:00:00 | 08:30:00 | |
| OE5DRO-10 | 2026-09-02 00:56:09 | 49.44930 | 18.05330 | 8° | 42km/h | 33791m | 6.0m/s | -36.1°C | 1.8% | 0hPa | 2.6V | 00:00:00 | 00:00:00 | 00:00:00 | |
| OE5MMP-10 | 2026-09-02 00:56:06 | 49.44897 | 18.05314 | 29° | 37km/h | 33771m | 5.9m/s | -36.3°C | 1.9% | 0hPa | 2.6V | 00:00:00 | 02:12:42 | 08:30:00 | |
| OE3OSB-13 | 2026-09-02 00:56:01 | 49.44852 | 18.05279 | 11° | 35km/h | 33740m | 5.9m/s | -36.4°C | 0.3% | -1.0hPa | 2.5V | 00:00:00 | 00:00:00 | 00:00:00 | |
| SP3WXH-11 | 2026-09-02 00:55:51 | 49.44738 | 18.05260 | 3° | 55km/h | 33672m | 4.3m/s | -36.6°C | 0.4% | -1.0hPa | 2.5V | 00:00:00 | 00:00:00 | 00:00:00 | |
| OE5DRO-10 | 2026-09-02 00:55:50 | 49.44738 | 18.05260 | 4° | 37km/h | 33672m | 4.3m/s | -36.6°C | 1.9% | 0hPa | 2.5V | 00:00:00 | 00:00:00 | 00:00:00 | |
| OE5MMP-10 | 2026-09-02 00:55:46 | 49.44700 | 18.05254 | 4° | 29km/h | 33647m | 5.7m/s | -36.6°C | 1.9% | 0hPa | 2.5V | 00:00:00 | 02:12:22 | 00:00:00 | |
| SP3BTT-10 | 2026-09-02 00:55:43 | 49.44686 | 18.05259 | 338° | 33km/h | 33629m | 6.3m/s | 0°C | 0% | 0hPa | 2.5V | 00:00:00 | 00:00:00 | 00:00:00 | |
| PETON7-10 | 2026-09-02 00:55:40 | 49.44663 | 18.05271 | 348° | 31km/h | 33612m | 6.2m/s | -36.6°C | 1.8% | 0hPa | 2.5V | 00:00:00 | 02:12:16 | 00:00:00 | |
| OE5MMP-10 | 2026-09-02 00:55:36 | 49.44625 | 18.05266 | 19° | 31km/h | 33586m | 5.7m/s | -36.7°C | 1.8% | 0hPa | 2.5V | 00:00:00 | 02:12:12 | 00:00:00 | |
| SP9KGR-15 | 2026-09-02 00:55:35 | 49.44625 | 18.05266 | 19° | 42km/h | 33586m | 5.7m/s | -36.7°C | 0.4% | 0hPa | 2.6V | 00:00:00 | 00:00:00 | 00:00:00 | |
| PG1ADW-2 | 2026-09-02 00:55:34 | 49.44605 | 18.05255 | 19° | 26km/h | 33574m | 6.4m/s | -36.8°C | 1.8% | 0hPa | 2.6V | 00:00:00 | 00:00:00 | 00:00:00 | |
| OE5DRO-10 | 2026-09-02 00:55:31 | 49.44574 | 18.05242 | 14° | 20km/h | 33558m | 4.6m/s | -36.8°C | 1.9% | 0hPa | 2.6V | 00:00:00 | 00:00:00 | 00:00:00 | |
| OK1SLM-15 | 2026-09-02 00:55:29 | 49.44567 | 18.05239 | 17° | 26km/h | 33552m | 5.9m/s | -36.9°C | 0.4% | 0hPa | 2.6V | 00:00:00 | 00:00:00 | 00:00:00 | |
| OE5MMP-10 | 2026-09-02 00:55:26 | 49.44557 | 18.05231 | 345° | 24km/h | 33523m | 5.3m/s | -37.7°C | 2.0% | 0hPa | 2.6V | 00:00:00 | 02:12:02 | 00:00:00 | |
| PETON7-10 | 2026-09-02 00:55:25 | 49.44556 | 18.05232 | 328° | 20km/h | 33517m | 5.9m/s | -37.8°C | 2.0% | 0hPa | 2.6V | 00:00:00 | 00:00:00 | 00:00:00 | |
| OK1SLM-15 | 2026-09-02 00:55:23 | 49.44553 | 18.05235 | 335° | 16km/h | 33510m | 7.1m/s | -38.0°C | 0.4% | 0hPa | 2.6V | 00:00:00 | 00:00:00 | 00:00:00 | |
| HA6NAB-11 | 2026-09-02 00:55:21 | 49.44542 | 18.05240 | 353° | 29km/h | 33497m | 5.6m/s | -38.1°C | 0.4% | 0hPa | 2.6V | 00:00:00 | 00:00:00 | 00:00:00 | |
| SP9KGR-15 | 2026-09-02 00:55:20 | 49.44534 | 18.05240 | 5° | 31km/h | 33491m | 6.2m/s | -38.1°C | 0.4% | 0hPa | 2.6V | 00:00:00 | 00:00:00 | 00:00:00 | |
| SP3WXH-11 | 2026-09-02 00:55:19 | 49.44519 | 18.05233 | 29° | 31km/h | 33477m | 7.4m/s | -38.1°C | 0.4% | -1.0hPa | 2.6V | 00:00:00 | 00:00:00 | 00:00:00 | |
| OE5MMP-10 | 2026-09-02 00:55:16 | 49.44502 | 18.05209 | 52° | 11km/h | 33458m | 6.6m/s | -38.1°C | 2.0% | 0hPa | 2.6V | 00:00:00 | 02:11:52 | 00:00:00 | |
| HA6NAB-11 | 2026-09-02 00:55:15 | 49.44502 | 18.05209 | 52° | 26km/h | 33458m | 6.6m/s | -38.1°C | 0.4% | 0hPa | 2.6V | 00:00:00 | 00:00:00 | 00:00:00 | |
| PG1ADW-2 | 2026-09-02 00:55:14 | 49.44497 | 18.05197 | 62° | 20km/h | 33444m | 6.6m/s | -38.0°C | 2.0% | 0hPa | 2.6V | 00:00:00 | 00:00:00 | 00:00:00 | |
| OE5DRO-10 | 2026-09-02 00:55:12 | 49.44497 | 18.05192 | 155° | 22km/h | 33430m | 7.9m/s | -38.0°C | 2.0% | 0hPa | 2.5V | 00:00:00 | 00:00:00 | 00:00:00 | |
| HA6NAB-11 | 2026-09-02 00:55:10 | 49.44499 | 18.05191 | 168° | 11km/h | 33422m | 7.5m/s | -38.0°C | 0.4% | 0hPa | 2.5V | 00:00:00 | 00:00:00 | 00:00:00 | |
| PETON7-10 | 2026-09-02 00:55:09 | 49.44504 | 18.05189 | 147° | 26km/h | 33411m | 4.3m/s | -37.9°C | 2.0% | 0hPa | 2.5V | 00:00:00 | 00:00:00 | 00:00:00 | |
| OE5MMP-10 | 2026-09-02 00:55:06 | 49.44499 | 18.05182 | 24° | 31km/h | 33392m | 8.3m/s | -37.9°C | 2.0% | 0hPa | 2.5V | 00:00:00 | 02:11:42 | 00:00:00 | |
| HA6NAB-11 | 2026-09-02 00:55:04 | 49.44493 | 18.05177 | 25° | 33km/h | 33385m | 6.8m/s | -37.9°C | 0.4% | 0hPa | 2.5V | 00:00:00 | 00:00:00 | 00:00:00 | |
| SP9KGR-15 | 2026-09-02 00:55:02 | 49.44478 | 18.05162 | 45° | 37km/h | 33374m | 4.2m/s | -37.9°C | 0.4% | 0hPa | 2.5V | 00:00:00 | 00:00:00 | 00:00:00 | |
| OE3OSB-13 | 2026-09-02 00:54:59 | 49.44479 | 18.05109 | 149° | 29km/h | 33342m | 6.3m/s | -37.8°C | 0.4% | -1.0hPa | 2.5V | 00:00:00 | 00:00:00 | 00:00:00 | |
| SP3WXH-11 | 2026-09-02 00:54:49 | 49.44478 | 18.05081 | 75° | 31km/h | 33278m | 5.6m/s | -37.7°C | 0.4% | -1.0hPa | 2.5V | 00:00:00 | 00:00:00 | 00:00:00 | |
| OE5MMP-10 | 2026-09-02 00:54:46 | 49.44476 | 18.05059 | 87° | 15km/h | 33266m | 6.5m/s | -37.6°C | 2.0% | 0hPa | 2.5V | 00:00:00 | 02:11:22 | 00:00:00 | |
| SP9KGR-15 | 2026-09-02 00:54:45 | 49.44475 | 18.05059 | 88° | 22km/h | 33266m | 6.6m/s | -37.6°C | 0.4% | 0hPa | 2.5V | 00:00:00 | 00:00:00 | 00:00:00 | |
| PETON7-10 | 2026-09-02 00:54:39 | 49.44488 | 18.05040 | 114° | 16km/h | 33221m | 6.7m/s | -37.4°C | 2.0% | 0hPa | 2.5V | 00:00:00 | 00:00:00 | 00:00:00 | |
| OE5MMP-10 | 2026-09-02 00:54:36 | 49.44488 | 18.05014 | 66° | 16km/h | 33203m | 6.1m/s | -37.3°C | 2.0% | 0hPa | 2.5V | 00:00:00 | 02:11:12 | 08:30:00 | |
| PG1ADW-2 | 2026-09-02 00:54:34 | 49.44480 | 18.05000 | 36° | 13km/h | 33189m | 6.7m/s | -37.2°C | 2.0% | 0hPa | 2.6V | 00:00:00 | 02:11:10 | 00:00:00 | |
| OK1SLM-15 | 2026-09-02 00:54:30 | 49.44469 | 18.04993 | 28° | 11km/h | 33172m | 5.9m/s | -37.3°C | 0.4% | 0hPa | 2.6V | 00:00:00 | 00:00:00 | 00:00:00 | |
| OE3OSB-13 | 2026-09-02 00:54:28 | 49.44466 | 18.04975 | 84° | 15km/h | 33146m | 5.3m/s | -37.1°C | 0.4% | -1.0hPa | 2.6V | 00:00:00 | 00:00:00 | 00:00:00 | |
| OE5DXL-15 | 2026-09-02 00:54:26 | 49.44465 | 18.04969 | 80° | 15km/h | 33140m | 6.2m/s | -37.1°C | 1.9% | 0hPa | 2.6V | 00:00:00 | 00:00:00 | 08:30:00 | |
| OK1SLM-15 | 2026-09-02 00:54:25 | 49.44465 | 18.04969 | 81° | 13km/h | 33140m | 6.2m/s | -37.1°C | 0.4% | 0hPa | 2.5V | 00:00:00 | 00:00:00 | 00:00:00 | |
| PETON7-10 | 2026-09-02 00:54:24 | 49.44462 | 18.04964 | 17° | 11km/h | 33126m | 7.0m/s | -37.0°C | 1.9% | 0hPa | 2.5V | 00:00:00 | 00:00:00 | 00:00:00 | |
| SP3WXH-11 | 2026-09-02 00:54:18 | 49.44442 | 18.04947 | 93° | 7km/h | 33083m | 6.0m/s | -37.0°C | 0.4% | -1.0hPa | 2.5V | 00:00:00 | 00:00:00 | 00:00:00 | |
| OE5MMP-10 | 2026-09-02 00:54:16 | 49.44442 | 18.04944 | 137° | 15km/h | 33077m | 7.4m/s | -37.0°C | 1.9% | 0hPa | 2.5V | 00:00:00 | 02:10:52 | 00:00:00 | |
| OE5DRO-10 | 2026-09-02 00:54:15 | 49.44444 | 18.04943 | 180° | 16km/h | 33069m | 7.1m/s | -37.0°C | 1.9% | 0hPa | 2.5V | 00:00:00 | 00:00:00 | 00:00:00 | |
| PG1ADW-2 | 2026-09-02 00:54:14 | 49.44446 | 18.04943 | 190° | 16km/h | 33063m | 5.3m/s | -37.0°C | 1.9% | 0hPa | 2.5V | 00:00:00 | 00:00:00 | 00:00:00 | |
| SP9KGR-15 | 2026-09-02 00:54:12 | 49.44448 | 18.04944 | 180° | 5km/h | 33056m | 5.2m/s | -37.1°C | 0.4% | 0hPa | 2.6V | 00:00:00 | 00:00:00 | 00:00:00 | |
| PETON7-10 | 2026-09-02 00:54:09 | 49.44439 | 18.04935 | 21° | 18km/h | 33031m | 6.1m/s | -37.1°C | 1.9% | 0hPa | 2.6V | 00:00:00 | 02:10:45 | 00:00:00 | |
| OE5MMP-10 | 2026-09-02 00:54:06 | 49.44419 | 18.04930 | 359° | 16km/h | 33010m | 5.4m/s | -37.1°C | 1.9% | 0hPa | 2.6V | 00:00:00 | 02:10:42 | 00:00:00 | |
| OE3OSB-13 | 2026-09-02 00:53:56 | 49.44415 | 18.04891 | 316° | 9km/h | 32950m | 7.6m/s | -37.9°C | 0.4% | -1.0hPa | 2.6V | 00:00:00 | 00:00:00 | 00:00:00 | |
| SP3WXH-11 | 2026-09-02 00:53:47 | 49.44371 | 18.04856 | 139° | 16km/h | 32887m | 6.9m/s | -38.2°C | 0.4% | -1.0hPa | 2.6V | 00:00:00 | 00:00:00 | 00:00:00 | |
| OE5MMP-10 | 2026-09-02 00:53:46 | 49.44371 | 18.04856 | 140° | 18km/h | 32887m | 6.9m/s | -38.1°C | 1.9% | 0hPa | 2.6V | 00:00:00 | 02:10:22 | 00:00:00 | |
| SP9KGR-15 | 2026-09-02 00:53:40 | 49.44377 | 18.04873 | 318° | 16km/h | 32857m | 6.5m/s | -38.5°C | 0.4% | 0hPa | 2.6V | 00:00:00 | 00:00:00 | 00:00:00 | |
| PETON7-10 | 2026-09-02 00:53:39 | 49.44369 | 18.04875 | 13° | 13km/h | 32844m | 6.3m/s | -38.7°C | 2.0% | 0hPa | 2.6V | 00:00:00 | 00:00:00 | 00:00:00 | |
| OE5DRO-10 | 2026-09-02 00:53:37 | 49.44360 | 18.04868 | 42° | 15km/h | 32833m | 5.4m/s | -38.9°C | 2.0% | 0hPa | 2.6V | 00:00:00 | 00:00:00 | 00:00:00 | |
| OE5MMP-10 | 2026-09-02 00:53:36 | 49.44357 | 18.04863 | 57° | 11km/h | 32827m | 6.5m/s | -39.0°C | 2.1% | 0hPa | 2.6V | 00:00:00 | 02:10:12 | 00:00:00 | |
| HA6NAB-11 | 2026-09-02 00:53:35 | 49.44357 | 18.04863 | 58° | 15km/h | 32827m | 6.6m/s | -39.0°C | 0.4% | 0hPa | 2.5V | 00:00:00 | 00:00:00 | 00:00:00 | |
| PG1ADW-2 | 2026-09-02 00:53:34 | 49.44356 | 18.04857 | 144° | 13km/h | 32814m | 5.7m/s | -39.0°C | 2.0% | 0hPa | 2.5V | 00:00:00 | 00:00:00 | 00:00:00 | |
| HA6NAB-11 | 2026-09-02 00:53:30 | 49.44364 | 18.04859 | 228° | 11km/h | 32787m | 6.0m/s | -39.2°C | 0.5% | 0hPa | 2.5V | 00:00:00 | 00:00:00 | 00:00:00 | |
| OK1SLM-15 | 2026-09-02 00:53:29 | 49.44364 | 18.04859 | 228° | 11km/h | 32787m | 6.0m/s | -39.2°C | 0.5% | 0hPa | 2.5V | 00:00:00 | 00:00:00 | 00:00:00 | |
| SP9KGR-15 | 2026-09-02 00:53:26 | 49.44370 | 18.04880 | 262° | 13km/h | 32764m | 4.1m/s | -39.4°C | 0.4% | 0hPa | 2.5V | 00:00:00 | 00:00:00 | 00:00:00 | |
| PETON7-10 | 2026-09-02 00:53:24 | 49.44369 | 18.04884 | 24° | 13km/h | 32752m | 7.8m/s | -39.5°C | 2.1% | 0hPa | 2.5V | 00:00:00 | 02:10:00 | 00:00:00 | |
| HA6NAB-11 | 2026-09-02 00:53:23 | 49.44369 | 18.04884 | 25° | 7km/h | 32752m | 7.9m/s | -39.6°C | 0.5% | 0hPa | 2.5V | 00:00:00 | 00:00:00 | 00:00:00 | |
| OE5DRO-10 | 2026-09-02 00:53:18 | 49.44358 | 18.04844 | 129° | 15km/h | 32711m | 6.7m/s | -39.9°C | 2.2% | 0hPa | 2.5V | 00:00:00 | 00:00:00 | 00:00:00 | |
| HA6NAB-11 | 2026-09-02 00:53:17 | 49.44358 | 18.04844 | 129° | 11km/h | 32711m | 6.8m/s | -40.0°C | 0.5% | 0hPa | 2.5V | 00:00:00 | 00:00:00 | 00:00:00 | |
| OE5MMP-10 | 2026-09-02 00:53:16 | 49.44363 | 18.04842 | 183° | 13km/h | 32698m | 7.2m/s | -39.9°C | 2.2% | 0hPa | 2.5V | 00:00:00 | 02:09:52 | 00:00:00 | |
| SP3WXH-11 | 2026-09-02 00:53:15 | 49.44366 | 18.04842 | 196° | 9km/h | 32690m | 6.7m/s | -40.0°C | 0.5% | -1.0hPa | 2.5V | 00:00:00 | 00:00:00 | 00:00:00 | |
| PG1ADW-2 | 2026-09-02 00:53:14 | 49.44369 | 18.04844 | 207° | 15km/h | 32683m | 5.8m/s | -40.0°C | 2.2% | 0hPa | 2.5V | 00:00:00 | 02:09:50 | 08:30:00 | |
| PETON7-10 | 2026-09-02 00:53:08 | 49.44374 | 18.04841 | 62° | 18km/h | 32649m | 7.7m/s | -40.2°C | 2.2% | 0hPa | 2.5V | 00:00:00 | 00:00:00 | 00:00:00 | |
| OE5MMP-10 | 2026-09-02 00:53:06 | 49.44367 | 18.04824 | 58° | 18km/h | 32635m | 5.3m/s | -40.2°C | 2.2% | 0hPa | 2.6V | 00:00:00 | 02:09:42 | 08:30:00 | |
| SP9KGR-15 | 2026-09-02 00:53:05 | 49.44367 | 18.04824 | 59° | 31km/h | 32635m | 5.3m/s | -40.2°C | 0.5% | 0hPa | 2.6V | 00:00:00 | 00:00:00 | 00:00:00 | |
| OE5DRO-10 | 2026-09-02 00:52:59 | 49.44372 | 18.04809 | 214° | 13km/h | 32595m | 4.9m/s | -40.2°C | 2.2% | 0hPa | 2.6V | 00:00:00 | 00:00:00 | 00:00:00 | |
| OE5MMP-10 | 2026-09-02 00:52:56 | 49.44378 | 18.04813 | 57° | 15km/h | 32577m | 5.9m/s | -40.2°C | 2.2% | 0hPa | 2.5V | 00:00:00 | 02:09:32 | 00:00:00 | |
| PG1ADW-2 | 2026-09-02 00:52:54 | 49.44373 | 18.04804 | 45° | 15km/h | 32565m | 6.2m/s | -40.2°C | 2.2% | 0hPa | 2.5V | 00:00:00 | 00:00:00 | 00:00:00 | |
| PETON7-10 | 2026-09-02 00:52:53 | 49.44369 | 18.04799 | 39° | 13km/h | 32558m | 6.3m/s | -40.3°C | 2.3% | 0hPa | 2.5V | 00:00:00 | 00:00:00 | 00:00:00 | |
| DO3MHA-11 | 2026-09-02 00:52:51 | 49.44360 | 18.04791 | 16° | 15km/h | 32546m | 5.8m/s | -40.3°C | 2.2% | 0hPa | 2.5V | 00:00:00 | 02:09:27 | 00:00:00 | |
| SP9KGR-15 | 2026-09-02 00:52:48 | 49.44354 | 18.04792 | 341° | 11km/h | 32534m | 6.0m/s | -40.3°C | 0.5% | 0hPa | 2.5V | 00:00:00 | 00:00:00 | 00:00:00 | |
| OE5MMP-10 | 2026-09-02 00:52:46 | 49.44347 | 18.04798 | 311° | 11km/h | 32515m | 5.4m/s | -40.2°C | 2.2% | 0hPa | 2.5V | 00:00:00 | 02:09:22 | 00:00:00 | |
| SP3WXH-11 | 2026-09-02 00:52:44 | 49.44346 | 18.04805 | 254° | 9km/h | 32504m | 6.0m/s | -40.3°C | 0.5% | -1.0hPa | 2.5V | 00:00:00 | 00:00:00 | 00:00:00 | |
| DO3MHA-11 | 2026-09-02 00:52:41 | 49.44352 | 18.04814 | 198° | 13km/h | 32486m | 5.0m/s | -40.2°C | 2.2% | 0hPa | 2.5V | 00:00:00 | 02:09:17 | 00:00:00 | |
| OE5DRO-10 | 2026-09-02 00:52:40 | 49.44353 | 18.04814 | 140° | 15km/h | 32480m | 4.9m/s | -40.2°C | 2.2% | 0hPa | 2.6V | 00:00:00 | 00:00:00 | 00:00:00 | |
| OM5KV | 2026-09-02 00:52:39 | 49.44353 | 18.04814 | 140° | 5km/h | 32480m | 4.9m/s | -40.3°C | 0.5% | 0hPa | 2.6V | 00:00:00 | 00:00:00 | 00:00:00 | |
| PETON7-10 | 2026-09-02 00:52:38 | 49.44353 | 18.04806 | 62° | 16km/h | 32467m | 7.3m/s | -40.2°C | 2.2% | 0hPa | 2.6V | 00:00:00 | 02:09:14 | 00:00:00 | |
| OE5MMP-10 | 2026-09-02 00:52:36 | 49.44346 | 18.04796 | 23° | 20km/h | 32455m | 4.7m/s | -40.2°C | 2.2% | 0hPa | 2.6V | 00:00:00 | 02:09:12 | 00:00:00 | |
| PG1ADW-2 | 2026-09-02 00:52:34 | 49.44336 | 18.04798 | 327° | 16km/h | 32443m | 7.2m/s | -40.3°C | 2.3% | 0hPa | 2.6V | 00:00:00 | 00:00:00 | 00:00:00 | |
| OK1SLM-15 | 2026-09-02 00:52:33 | 49.44336 | 18.04798 | 327° | 22km/h | 32443m | 7.2m/s | -40.3°C | 0.5% | 0hPa | 2.6V | 00:00:00 | 00:00:00 | 00:00:00 | |
| OK1SLM-15 | 2026-09-02 00:52:28 | 49.44327 | 18.04845 | 271° | 18km/h | 32413m | 6.2m/s | -40.4°C | 0.5% | 0hPa | 2.6V | 00:00:00 | 00:00:00 | 00:00:00 | |
| OE5MMP-10 | 2026-09-02 00:52:26 | 49.44329 | 18.04853 | 158° | 11km/h | 32395m | 5.9m/s | -40.3°C | 2.2% | 0hPa | 2.6V | 00:00:00 | 02:09:02 | 00:00:00 | |
| PETON7-10 | 2026-09-02 00:52:23 | 49.44331 | 18.04853 | 242° | 16km/h | 32376m | 6.3m/s | -40.2°C | 2.2% | 0hPa | 2.6V | 00:00:00 | 00:00:00 | 00:00:00 | |
| OM5KV | 2026-09-02 00:52:22 | 49.44331 | 18.04853 | 242° | 5km/h | 32376m | 6.4m/s | -40.3°C | 0.5% | 0hPa | 2.5V | 00:00:00 | 00:00:00 | 00:00:00 | |
| OE5DRO-10 | 2026-09-02 00:52:21 | 49.44330 | 18.04860 | 297° | 16km/h | 32364m | 5.8m/s | -40.2°C | 2.2% | 0hPa | 2.5V | 00:00:00 | 00:00:00 | 00:00:00 | |
| SP9KGR-15 | 2026-09-02 00:52:18 | 49.44324 | 18.04869 | 326° | 20km/h | 32351m | 7.8m/s | -40.3°C | 0.5% | 0hPa | 2.5V | 00:00:00 | 00:00:00 | 00:00:00 | |
| OE5MMP-10 | 2026-09-02 00:52:16 | 49.44312 | 18.04883 | 309° | 16km/h | 32333m | 4.7m/s | -40.3°C | 2.2% | 0hPa | 2.5V | 00:00:00 | 02:08:52 | 00:00:00 | |
| PG1ADW-2 | 2026-09-02 00:52:14 | 49.44310 | 18.04895 | 253° | 13km/h | 32320m | 7.3m/s | -40.3°C | 2.2% | 0hPa | 2.5V | 00:00:00 | 00:00:00 | 00:00:00 | |
| NBG1-10 | 2026-09-02 00:52:13 | 49.44313 | 18.04902 | 229° | 15km/h | 32313m | 6.2m/s | -40.4°C | 2.2% | 0hPa | 2.6V | 00:00:00 | 02:08:49 | 00:00:00 | |
| OM5KV | 2026-09-02 00:52:11 | 49.44317 | 18.04908 | 213° | 24km/h | 32308m | 5.4m/s | -40.5°C | 0.5% | 0hPa | 2.6V | 00:00:00 | 00:00:00 | 00:00:00 | |
| PETON7-10 | 2026-09-02 00:52:08 | 49.44333 | 18.04911 | 149° | 11km/h | 32283m | 5.1m/s | -40.7°C | 2.3% | 0hPa | 2.6V | 00:00:00 | 00:00:00 | 00:00:00 | |
| OE5MMP-10 | 2026-09-02 00:52:06 | 49.44334 | 18.04912 | 277° | 11km/h | 32272m | 6.7m/s | -40.8°C | 2.3% | 0hPa | 2.6V | 00:00:00 | 02:08:42 | 00:00:00 | |
| SP9KGR-15 | 2026-09-02 00:52:02 | 49.44334 | 18.04926 | 263° | 18km/h | 32252m | 5.3m/s | -40.9°C | 0.5% | 0hPa | 2.6V | 00:00:00 | 00:00:00 | 00:00:00 | |
| OE3OSB-13 | 2026-09-02 00:51:52 | 49.44363 | 18.04960 | 187° | 18km/h | 32187m | 6.8m/s | -41.1°C | 0.5% | -1.0hPa | 2.6V | 00:00:00 | 00:00:00 | 00:00:00 | |
| OM5KV | 2026-09-02 00:51:48 | 49.44373 | 18.04957 | 162° | 9km/h | 32167m | 5.6m/s | -41.1°C | 0.6% | 0hPa | 2.6V | 00:00:00 | 00:00:00 | 00:00:00 | |
| SP9KGR-15 | 2026-09-02 00:51:47 | 49.44376 | 18.04959 | 225° | 11km/h | 32155m | 7.2m/s | -41.1°C | 0.5% | 0hPa | 2.6V | 00:00:00 | 00:00:00 | 00:00:00 | |
| OE5MMP-10 | 2026-09-02 00:51:46 | 49.44379 | 18.04962 | 234° | 16km/h | 32148m | 6.5m/s | -41.0°C | 2.4% | 0hPa | 2.6V | 00:00:00 | 02:08:22 | 00:00:00 | |
| OE5DRO-10 | 2026-09-02 00:51:43 | 49.44387 | 18.04978 | 222° | 15km/h | 32129m | 7.3m/s | -41.0°C | 2.4% | 0hPa | 2.6V | 00:00:00 | 00:00:00 | 00:00:00 | |
| SP3WXH-11 | 2026-09-02 00:51:42 | 49.44390 | 18.04981 | 207° | 11km/h | 32121m | 7.0m/s | -41.0°C | 0.5% | -1.0hPa | 2.6V | 00:00:00 | 00:00:00 | 00:00:00 | |
| OM5KV | 2026-09-02 00:51:41 | 49.44390 | 18.04980 | 209° | 13km/h | 32121m | 7.0m/s | -41.0°C | 0.5% | 0hPa | 2.6V | 00:00:00 | 00:00:00 | 00:00:00 | |
| PETON7-10 | 2026-09-02 00:51:38 | 49.44403 | 18.04987 | 201° | 16km/h | 32096m | 6.1m/s | -40.9°C | 2.4% | 0hPa | 2.6V | 00:00:00 | 00:00:00 | 08:30:00 | |
| DO3MHA-11 | 2026-09-02 00:51:37 | 49.44408 | 18.04990 | 199° | 18km/h | 32090m | 4.8m/s | -40.9°C | 2.4% | 0hPa | 2.5V | 00:00:00 | 02:08:13 | 00:00:00 | |
| OE5MMP-10 | 2026-09-02 00:51:36 | 49.44411 | 18.04991 | 188° | 13km/h | 32085m | 5.3m/s | -40.9°C | 2.4% | 0hPa | 2.5V | 00:00:00 | 02:08:12 | 08:30:00 | |
| OK1SLM-15 | 2026-09-02 00:51:34 | 49.44414 | 18.04991 | 173° | 11km/h | 32078m | 7.5m/s | -41.0°C | 0.5% | 0hPa | 2.5V | 00:00:00 | 00:00:00 | 00:00:00 | |
| SP9KGR-15 | 2026-09-02 00:51:32 | 49.44420 | 18.04988 | 188° | 7km/h | 32059m | 5.5m/s | -40.8°C | 0.5% | 0hPa | 2.5V | 00:00:00 | 00:00:00 | 00:00:00 | |
| OM5KV | 2026-09-02 00:51:30 | 49.44422 | 18.04990 | 212° | 11km/h | 32052m | 7.5m/s | -40.8°C | 0.5% | 0hPa | 2.5V | 00:00:00 | 00:00:00 | 00:00:00 | |
| OK1SLM-15 | 2026-09-02 00:51:28 | 49.44429 | 18.04997 | 218° | 20km/h | 32039m | 5.1m/s | -40.7°C | 0.5% | 0hPa | 2.5V | 00:00:00 | 00:00:00 | 00:00:00 | |
| OE5MMP-10 | 2026-09-02 00:51:26 | 49.44443 | 18.05006 | 182° | 18km/h | 32020m | 6.5m/s | -40.6°C | 2.3% | 0hPa | 2.5V | 00:00:00 | 02:08:02 | 00:00:00 | |
| HA6NAB-11 | 2026-09-02 00:51:25 | 49.44443 | 18.05006 | 183° | 20km/h | 32020m | 6.5m/s | -40.6°C | 0.5% | 0hPa | 2.5V | 00:00:00 | 00:00:00 | 00:00:00 | |
| PG1ADW-2 | 2026-09-02 00:51:23 | 49.44459 | 18.05004 | 176° | 18km/h | 32000m | 7.2m/s | -40.5°C | 2.3% | 0hPa | 2.5V | 00:00:00 | 00:00:00 | 00:00:00 | |
| OE3OSB-13 | 2026-09-02 00:51:21 | 49.44469 | 18.05002 | 165° | 16km/h | 31988m | 5.5m/s | -40.5°C | 0.5% | -1.0hPa | 2.5V | 00:00:00 | 00:00:00 | 00:00:00 | |
| HA6NAB-11 | 2026-09-02 00:51:20 | 49.44469 | 18.05002 | 166° | 18km/h | 31988m | 5.5m/s | -40.5°C | 0.5% | 0hPa | 2.5V | 00:00:00 | 00:00:00 | 00:00:00 | |
| OM5KV | 2026-09-02 00:51:19 | 49.44473 | 18.05000 | 151° | 16km/h | 31982m | 7.0m/s | -40.5°C | 0.5% | 0hPa | 2.5V | 00:00:00 | 00:00:00 | 00:00:00 | |
| OE5MMP-10 | 2026-09-02 00:51:16 | 49.44481 | 18.04986 | 161° | 18km/h | 31956m | 7.0m/s | -40.6°C | 2.3% | 0hPa | 2.5V | 00:00:00 | 02:07:52 | 00:00:00 | |
| OM5KV | 2026-09-02 00:51:14 | 49.44486 | 18.04990 | 222° | 16km/h | 31942m | 5.9m/s | -40.7°C | 0.5% | 0hPa | 2.5V | 00:00:00 | 00:00:00 | 00:00:00 | |
| SP9KGR-15 | 2026-09-02 00:51:13 | 49.44486 | 18.04990 | 222° | 16km/h | 31942m | 5.9m/s | -40.7°C | 0.5% | 0hPa | 2.5V | 00:00:00 | 00:00:00 | 00:00:00 | |
| NBG1-10 | 2026-09-02 00:51:12 | 49.44493 | 18.04996 | 202° | 20km/h | 31931m | 6.8m/s | -40.7°C | 2.3% | 0hPa | 2.5V | 00:00:00 | 02:07:48 | 08:30:00 | |
| SP3WXH-11 | 2026-09-02 00:51:11 | 49.44498 | 18.04998 | 185° | 18km/h | 31924m | 7.5m/s | -40.7°C | 0.5% | -1.0hPa | 2.5V | 00:00:00 | 00:00:00 | 00:00:00 | |
| HA6NAB-11 | 2026-09-02 00:51:09 | 49.44503 | 18.04998 | 172° | 20km/h | 31917m | 6.3m/s | -40.7°C | 0.5% | 0hPa | 2.5V | 00:00:00 | 00:00:00 | 00:00:00 | |
| PETON7-10 | 2026-09-02 00:51:08 | 49.44514 | 18.04995 | 169° | 18km/h | 31905m | 6.3m/s | -40.6°C | 2.3% | 0hPa | 2.5V | 00:00:00 | 02:07:44 | 00:00:00 | |
| OM5KV | 2026-09-02 00:51:07 | 49.44514 | 18.04995 | 170° | 24km/h | 31905m | 6.3m/s | -40.6°C | 0.5% | 0hPa | 2.5V | 00:00:00 | 00:00:00 | 00:00:00 | |
| DO3MHA-11 | 2026-09-02 00:51:06 | 49.44526 | 18.04992 | 175° | 16km/h | 31892m | 5.5m/s | -40.5°C | 2.3% | 0hPa | 2.5V | 00:00:00 | 02:07:42 | 00:00:00 | |
| OE5DRO-10 | 2026-09-02 00:51:05 | 49.44532 | 18.04991 | 170° | 18km/h | 31886m | 5.1m/s | -40.5°C | 2.2% | 0hPa | 2.5V | 00:00:00 | 00:00:00 | 08:30:00 | |
| PG1ADW-2 | 2026-09-02 00:51:03 | 49.44540 | 18.04986 | 139° | 18km/h | 31873m | 7.8m/s | -40.5°C | 2.2% | 0hPa | 2.6V | 00:00:00 | 00:00:00 | 00:00:00 | |
| OM5KV | 2026-09-02 00:51:02 | 49.44540 | 18.04986 | 139° | 15km/h | 31873m | 7.9m/s | -40.5°C | 0.5% | 0hPa | 2.5V | 00:00:00 | 00:00:00 | 00:00:00 | |
| OE3OSB-13 | 2026-09-02 00:50:50 | 49.44593 | 18.04954 | 143° | 15km/h | 31788m | 6.0m/s | -40.8°C | 0.5% | -1.0hPa | 2.5V | 00:00:00 | 00:00:00 | 00:00:00 | |
| OM5KV | 2026-09-02 00:50:49 | 49.44593 | 18.04954 | 144° | 16km/h | 31789m | 6.0m/s | -40.8°C | 0.5% | 0hPa | 2.5V | 00:00:00 | 00:00:00 | 00:00:00 | |
| OE5MMP-10 | 2026-09-02 00:50:46 | 49.44597 | 18.04938 | 71° | 16km/h | 31764m | 7.9m/s | -40.9°C | 2.3% | 0hPa | 2.5V | 00:00:00 | 02:07:22 | 00:00:00 | |
| OM5KV | 2026-09-02 00:50:44 | 49.44595 | 18.04931 | 69° | 18km/h | 31757m | 6.6m/s | -40.9°C | 0.5% | 0hPa | 2.5V | 00:00:00 | 00:00:00 | 00:00:00 | |
| PG1ADW-2 | 2026-09-02 00:50:43 | 49.44593 | 18.04919 | 95° | 22km/h | 31745m | 5.8m/s | -40.9°C | 2.3% | 0hPa | 2.5V | 00:00:00 | 00:00:00 | 00:00:00 | |
| SP9KGR-15 | 2026-09-02 00:50:42 | 49.44594 | 18.04919 | 95° | 13km/h | 31745m | 5.8m/s | -41.0°C | 0.5% | 0hPa | 2.5V | 00:00:00 | 00:00:00 | 00:00:00 | |
| SP3WXH-11 | 2026-09-02 00:50:40 | 49.44601 | 18.04911 | 160° | 16km/h | 31724m | 5.3m/s | -41.1°C | 0.5% | -1.0hPa | 2.5V | 00:00:00 | 00:00:00 | 00:00:00 | |
| OM5KV | 2026-09-02 00:50:38 | 49.44605 | 18.04908 | 151° | 20km/h | 31719m | 5.6m/s | -41.1°C | 0.5% | 0hPa | 2.5V | 00:00:00 | 00:00:00 | 00:00:00 | |
| PETON7-10 | 2026-09-02 00:50:37 | 49.44612 | 18.04895 | 112° | 24km/h | 31707m | 6.9m/s | -41.2°C | 2.4% | 0hPa | 2.5V | 00:00:00 | 00:00:00 | 00:00:00 | |
| DO3MHA-11 | 2026-09-02 00:50:36 | 49.44613 | 18.04886 | 95° | 20km/h | 31700m | 6.1m/s | -41.1°C | 2.4% | 0hPa | 2.5V | 00:00:00 | 02:07:12 | 00:00:00 | |
| OK1SLM-15 | 2026-09-02 00:50:35 | 49.44613 | 18.04886 | 96° | 27km/h | 31700m | 6.2m/s | -41.2°C | 0.5% | 0hPa | 2.5V | 00:00:00 | 00:00:00 | 00:00:00 | |
| OM5KV | 2026-09-02 00:50:33 | 49.44611 | 18.04864 | 71° | 27km/h | 31689m | 5.4m/s | -41.1°C | 0.5% | 0hPa | 2.5V | 00:00:00 | 00:00:00 | 00:00:00 | |
| OK1SLM-15 | 2026-09-02 00:50:29 | 49.44600 | 18.04841 | 41° | 13km/h | 31663m | 5.4m/s | -40.9°C | 0.5% | 0hPa | 2.5V | 00:00:00 | 00:00:00 | 00:00:00 | |
| OE5DRO-10 | 2026-09-02 00:50:27 | 49.44594 | 18.04825 | 72° | 20km/h | 31644m | 6.8m/s | -40.8°C | 2.3% | 0hPa | 2.5V | 00:00:00 | 00:00:00 | 00:00:00 | |
| DO3MHA-11 | 2026-09-02 00:50:26 | 49.44592 | 18.04815 | 79° | 22km/h | 31637m | 6.2m/s | -40.8°C | 2.3% | 0hPa | 2.5V | 00:00:00 | 02:07:02 | 00:00:00 | |
| OM5KV | 2026-09-02 00:50:24 | 49.44591 | 18.04803 | 87° | 31km/h | 31632m | 5.2m/s | -40.9°C | 0.5% | 0hPa | 2.6V | 00:00:00 | 00:00:00 | 00:00:00 | |
| PETON7-10 | 2026-09-02 00:50:22 | 49.44593 | 18.04771 | 109° | 18km/h | 31613m | 7.0m/s | -41.0°C | 2.3% | 0hPa | 2.6V | 00:00:00 | 02:06:58 | 00:00:00 | |
| NBG1-10 | 2026-09-02 00:50:20 | 49.44596 | 18.04759 | 101° | 16km/h | 31601m | 5.1m/s | -41.0°C | 2.4% | 0hPa | 2.6V | 00:00:00 | 02:06:56 | 00:00:00 | |
| OE3OSB-13 | 2026-09-02 00:50:19 | 49.44596 | 18.04754 | 74° | 11km/h | 31596m | 5.8m/s | -41.1°C | 0.5% | -1.0hPa | 2.6V | 00:00:00 | 00:00:00 | 00:00:00 | |
| OM5KV | 2026-09-02 00:50:18 | 49.44596 | 18.04754 | 75° | 13km/h | 31596m | 5.8m/s | -41.1°C | 0.5% | 0hPa | 2.6V | 00:00:00 | 00:00:00 | 00:00:00 | |
| DO3MHA-11 | 2026-09-02 00:50:16 | 49.44587 | 18.04738 | 41° | 20km/h | 31576m | 5.6m/s | -40.9°C | 2.4% | 0hPa | 2.6V | 00:00:00 | 02:06:52 | 00:00:00 | |
| OM5KV | 2026-09-02 00:50:13 | 49.44577 | 18.04725 | 41° | 22km/h | 31564m | 6.7m/s | -40.9°C | 0.5% | 0hPa | 2.6V | 00:00:00 | 00:00:00 | 00:00:00 | |
| SP3WXH-11 | 2026-09-02 00:50:09 | 49.44573 | 18.04699 | 97° | 20km/h | 31531m | 7.2m/s | -40.8°C | 0.5% | -1.0hPa | 2.6V | 00:00:00 | 00:00:00 | 00:00:00 | |
| OE5DRO-10 | 2026-09-02 00:50:08 | 49.44573 | 18.04690 | 89° | 22km/h | 31524m | 6.2m/s | -40.7°C | 2.4% | 0hPa | 2.6V | 00:00:00 | 00:00:00 | 00:00:00 | |
| PETON7-10 | 2026-09-02 00:50:07 | 49.44572 | 18.04681 | 75° | 22km/h | 31518m | 5.2m/s | -40.7°C | 2.4% | 0hPa | 2.6V | 00:00:00 | 00:00:00 | 00:00:00 | |
| OE5MMP-10 | 2026-09-02 00:50:06 | 49.44570 | 18.04673 | 60° | 24km/h | 31513m | 5.4m/s | -40.6°C | 2.3% | 0hPa | 2.5V | 00:00:00 | 02:06:42 | 08:30:00 | |
| OE3OSB-13 | 2026-09-02 00:49:48 | 49.44514 | 18.04572 | 17° | 15km/h | 31395m | 7.9m/s | -40.5°C | 0.5% | -1.0hPa | 2.5V | 00:00:00 | 00:00:00 | 00:00:00 | |
| DO3MHA-11 | 2026-09-02 00:49:46 | 49.44505 | 18.04571 | 9° | 20km/h | 31381m | 5.6m/s | -40.5°C | 2.3% | 0hPa | 2.5V | 00:00:00 | 02:06:22 | 00:00:00 | |
| OM5KV | 2026-09-02 00:49:45 | 49.44505 | 18.04571 | 10° | 20km/h | 31381m | 5.7m/s | -40.5°C | 0.7% | 0hPa | 2.5V | 00:00:00 | 00:00:00 | 00:00:00 | |
| SP3WXH-11 | 2026-09-02 00:49:38 | 49.44488 | 18.04516 | 109° | 11km/h | 31326m | 5.8m/s | -40.8°C | 0.5% | -1.0hPa | 2.5V | 00:00:00 | 00:00:00 | 00:00:00 | |
| PETON7-10 | 2026-09-02 00:49:37 | 49.44489 | 18.04512 | 116° | 13km/h | 31321m | 6.4m/s | -40.7°C | 2.3% | 0hPa | 2.5V | 00:00:00 | 02:06:13 | 00:00:00 | |
| OE5MMP-10 | 2026-09-02 00:49:36 | 49.44489 | 18.04509 | 103° | 11km/h | 31314m | 7.3m/s | -40.7°C | 2.3% | 0hPa | 2.5V | 00:00:00 | 02:06:12 | 00:00:00 | |
| OK1SLM-15 | 2026-09-02 00:49:33 | 49.44489 | 18.04502 | 61° | 5km/h | 31301m | 5.4m/s | -40.8°C | 0.5% | 0hPa | 2.5V | 00:00:00 | 00:00:00 | 00:00:00 | |
| OE5DRO-10 | 2026-09-02 00:49:30 | 49.44483 | 18.04501 | 16° | 15km/h | 31276m | 5.0m/s | -40.7°C | 2.3% | 0hPa | 2.5V | 00:00:00 | 00:00:00 | 00:00:00 | |
| NBG1-10 | 2026-09-02 00:49:27 | 49.44479 | 18.04487 | 82° | 27km/h | 31257m | 7.3m/s | -40.7°C | 2.3% | 0hPa | 2.5V | 00:00:00 | 02:06:03 | 00:00:00 | |
| OE5MMP-10 | 2026-09-02 00:49:26 | 49.44478 | 18.04477 | 88° | 13km/h | 31250m | 5.7m/s | -40.7°C | 2.3% | 0hPa | 2.5V | 00:00:00 | 02:06:02 | 00:00:00 | |
| PETON7-10 | 2026-09-02 00:49:22 | 49.44477 | 18.04448 | 86° | 16km/h | 31227m | 7.7m/s | -40.7°C | 2.3% | 0hPa | 2.5V | 00:00:00 | 00:00:00 | 08:30:00 | |
| SP9KGR-15 | 2026-09-02 00:49:21 | 49.44477 | 18.04448 | 0° | 0km/h | 31227m | 7.7m/s | 0°C | 0% | 0hPa | 2.6V | 00:00:00 | 00:00:00 | 00:00:00 | |
| OE3OSB-13 | 2026-09-02 00:49:17 | 49.44477 | 18.04457 | 63° | 4km/h | 31194m | 5.7m/s | -40.9°C | 0.5% | -1.0hPa | 2.6V | 00:00:00 | 00:00:00 | 00:00:00 | |
| OE5DRO-10 | 2026-09-02 00:49:11 | 49.44480 | 18.04415 | 110° | 24km/h | 31157m | 7.4m/s | -41.1°C | 2.3% | 0hPa | 2.6V | 00:00:00 | 00:00:00 | 00:00:00 | |
| OE5MMP-10 | 2026-09-02 00:49:07 | 49.44504 | 18.04379 | 196° | 22km/h | 31127m | 7.5m/s | -41.3°C | 2.4% | 0hPa | 2.6V | 00:00:00 | 02:05:42 | 00:00:00 | |
| DO3MHA-11 | 2026-09-02 00:49:06 | 49.44504 | 18.04379 | 196° | 22km/h | 31127m | 7.5m/s | -41.3°C | 2.4% | 0hPa | 2.5V | 00:00:00 | 02:05:42 | 00:00:00 | |
| SP9KGR-15 | 2026-09-02 00:49:05 | 49.44508 | 18.04382 | 232° | 16km/h | 31120m | 6.0m/s | 0°C | 0% | 0hPa | 2.5V | 00:00:00 | 00:00:00 | 00:00:00 | |
| HA6NAB-11 | 2026-09-02 00:49:02 | 49.44510 | 18.04391 | 246° | 7km/h | 31109m | 4.8m/s | -41.5°C | 0.5% | 0hPa | 2.5V | 00:00:00 | 00:00:00 | 00:00:00 | |
| HA6NAB-11 | 2026-09-02 00:48:57 | 49.44524 | 18.04356 | 128° | 38km/h | 31078m | 6.1m/s | -41.5°C | 0.6% | 0hPa | 2.5V | 00:00:00 | 00:00:00 | 00:00:00 | |
| OE5DXL-15 | 2026-09-02 00:48:56 | 49.44537 | 18.04336 | 138° | 20km/h | 31066m | 5.3m/s | -41.4°C | 2.3% | 0hPa | 2.5V | 00:00:00 | 02:05:32 | 00:00:00 | |
| PETON7-10 | 2026-09-02 00:48:52 | 49.44549 | 18.04315 | 114° | 24km/h | 31041m | 6.2m/s | -41.5°C | 2.4% | 0hPa | 2.5V | 00:00:00 | 02:05:28 | 00:00:00 | |
| SP9KGR-15 | 2026-09-02 00:48:47 | 49.44560 | 18.04309 | 171° | 22km/h | 31018m | 6.3m/s | 0°C | 0% | 0hPa | 2.5V | 00:00:00 | 00:00:00 | 00:00:00 | |
| DO3MHA-11 | 2026-09-02 00:48:46 | 49.44571 | 18.04303 | 153° | 29km/h | 31007m | 5.1m/s | -41.7°C | 2.4% | 0hPa | 2.5V | 00:00:00 | 02:05:22 | 00:00:00 | |
| PG1ADW-2 | 2026-09-02 00:48:44 | 49.44582 | 18.04290 | 127° | 22km/h | 30993m | 6.9m/s | -41.7°C | 2.4% | 0hPa | 2.5V | 00:00:00 | 00:00:00 | 00:00:00 | |
| HA6NAB-11 | 2026-09-02 00:48:41 | 49.44590 | 18.04268 | 117° | 35km/h | 30980m | 6.5m/s | -41.8°C | 0.5% | 0hPa | 2.5V | 00:00:00 | 00:00:00 | 00:00:00 | |
| OK1SLM-15 | 2026-09-02 00:48:39 | 49.44603 | 18.04233 | 120° | 29km/h | 30962m | 4.6m/s | -41.8°C | 0.6% | 0hPa | 2.5V | 00:00:00 | 00:00:00 | 00:00:00 | |
| PETON7-10 | 2026-09-02 00:48:37 | 49.44607 | 18.04218 | 108° | 18km/h | 30951m | 7.6m/s | -41.8°C | 2.4% | 0hPa | 2.5V | 00:00:00 | 00:00:00 | 00:00:00 | |
| DO3MHA-11 | 2026-09-02 00:48:36 | 49.44608 | 18.04213 | 89° | 15km/h | 30943m | 7.0m/s | -41.7°C | 2.4% | 0hPa | 2.6V | 00:00:00 | 02:05:12 | 00:00:00 | |
| HA6NAB-11 | 2026-09-02 00:48:35 | 49.44608 | 18.04213 | 90° | 9km/h | 30943m | 7.1m/s | -41.8°C | 0.5% | 0hPa | 2.6V | 00:00:00 | 00:00:00 | 00:00:00 | |
| NBG1-10 | 2026-09-02 00:48:34 | 49.44608 | 18.04208 | 131° | 18km/h | 30930m | 5.7m/s | -41.7°C | 2.4% | 0hPa | 2.6V | 00:00:00 | 02:05:10 | 00:00:00 | |
| OE5DRO-10 | 2026-09-02 00:48:33 | 49.44609 | 18.04207 | 161° | 18km/h | 30924m | 6.7m/s | -41.8°C | 2.4% | 0hPa | 2.5V | 00:00:00 | 00:00:00 | 00:00:00 | |
| SP9KGR-15 | 2026-09-02 00:48:32 | 49.44609 | 18.04207 | 161° | 9km/h | 30924m | 6.7m/s | 0°C | 0% | 0hPa | 2.5V | 00:00:00 | 00:00:00 | 00:00:00 | |
| DO3MHA-11 | 2026-09-02 00:48:26 | 49.44623 | 18.04171 | 77° | 20km/h | 30883m | 5.7m/s | -41.9°C | 2.4% | 0hPa | 2.5V | 00:00:00 | 02:05:02 | 00:00:00 | |
| PG1ADW-2 | 2026-09-02 00:48:24 | 49.44620 | 18.04149 | 83° | 22km/h | 30869m | 6.9m/s | -41.9°C | 2.4% | 0hPa | 2.5V | 00:00:00 | 02:05:00 | 00:00:00 | |
| PETON7-10 | 2026-09-02 00:48:22 | 49.44619 | 18.04129 | 82° | 22km/h | 30857m | 5.1m/s | -42.0°C | 2.4% | 0hPa | 2.5V | 00:00:00 | 00:00:00 | 00:00:00 | |
| DO3MHA-11 | 2026-09-02 00:48:16 | 49.44614 | 18.04100 | 135° | 27km/h | 30821m | 7.2m/s | -42.2°C | 2.5% | 0hPa | 2.5V | 00:00:00 | 02:04:52 | 00:00:00 | |
| OE3OSB-13 | 2026-09-02 00:48:15 | 49.44621 | 18.04089 | 123° | 22km/h | 30808m | 5.2m/s | -42.3°C | 0.5% | -1.0hPa | 2.5V | 00:00:00 | 00:00:00 | 00:00:00 | |
| OE5DRO-10 | 2026-09-02 00:48:14 | 49.44621 | 18.04089 | 124° | 24km/h | 30809m | 5.2m/s | -42.2°C | 2.5% | 0hPa | 2.5V | 00:00:00 | 00:00:00 | 08:30:00 | |
| PETON7-10 | 2026-09-02 00:48:07 | 49.44621 | 18.04009 | 92° | 24km/h | 30764m | 5.5m/s | -42.3°C | 2.5% | 0hPa | 2.5V | 00:00:00 | 02:04:43 | 00:00:00 | |
| OE5MMP-10 | 2026-09-02 00:48:06 | 49.44621 | 18.03999 | 94° | 18km/h | 30758m | 5.1m/s | -42.3°C | 2.5% | 0hPa | 2.5V | 00:00:00 | 02:04:42 | 00:00:00 | |
| SP3WXH-11 | 2026-09-02 00:48:05 | 49.44622 | 18.03991 | 89° | 18km/h | 30752m | 6.0m/s | -42.4°C | 0.5% | -1.0hPa | 2.5V | 00:00:00 | 00:00:00 | 00:00:00 | |
| PG1ADW-2 | 2026-09-02 00:48:04 | 49.44621 | 18.03985 | 79° | 22km/h | 30746m | 7.8m/s | -42.3°C | 2.5% | 0hPa | 2.5V | 00:00:00 | 00:00:00 | 00:00:00 | |
| SP9KGR-15 | 2026-09-02 00:47:59 | 49.44617 | 18.03965 | 90° | 16km/h | 30719m | 6.9m/s | 0°C | 0% | 0hPa | 2.5V | 00:00:00 | 00:00:00 | 00:00:00 | |
| OE5MMP-10 | 2026-09-02 00:47:56 | 49.44612 | 18.03929 | 63° | 26km/h | 30694m | 7.5m/s | -42.2°C | 2.4% | 0hPa | 2.5V | 00:00:00 | 02:04:32 | 00:00:00 | |
| OE5DRO-10 | 2026-09-02 00:47:55 | 49.44608 | 18.03918 | 58° | 27km/h | 30687m | 5.4m/s | -42.2°C | 2.4% | 0hPa | 2.5V | 00:00:00 | 00:00:00 | 00:00:00 | |
| PETON7-10 | 2026-09-02 00:47:52 | 49.44596 | 18.03884 | 70° | 26km/h | 30669m | 6.1m/s | -42.3°C | 2.4% | 0hPa | 2.5V | 00:00:00 | 00:00:00 | 00:00:00 | |
| OE5MMP-10 | 2026-09-02 00:47:46 | 49.44581 | 18.03853 | 29° | 29km/h | 30633m | 5.5m/s | -42.7°C | 2.5% | 0hPa | 2.6V | 00:00:00 | 02:04:22 | 00:00:00 | |
| OE3OSB-13 | 2026-09-02 00:47:44 | 49.44575 | 18.03841 | 62° | 20km/h | 30615m | 5.2m/s | -42.8°C | 0.6% | -1.0hPa | 2.6V | 00:00:00 | 00:00:00 | 00:00:00 | |
| PETON7-10 | 2026-09-02 00:47:37 | 49.44538 | 18.03775 | 53° | 29km/h | 30578m | 6.2m/s | -42.9°C | 2.6% | 0hPa | 2.6V | 00:00:00 | 00:00:00 | 00:00:00 | |
| OE5MMP-10 | 2026-09-02 00:47:36 | 49.44532 | 18.03762 | 57° | 26km/h | 30572m | 5.3m/s | -42.9°C | 2.6% | 0hPa | 2.6V | 00:00:00 | 02:04:12 | 00:00:00 | |
| DO3MHA-11 | 2026-09-02 00:47:34 | 49.44523 | 18.03742 | 46° | 24km/h | 30562m | 5.6m/s | -43.0°C | 2.6% | 0hPa | 2.5V | 00:00:00 | 02:04:10 | 00:00:00 | |
| OK1SLM-15 | 2026-09-02 00:47:31 | 49.44512 | 18.03733 | 16° | 22km/h | 30548m | 6.8m/s | -43.0°C | 0.6% | 0hPa | 2.5V | 00:00:00 | 00:00:00 | 00:00:00 | |
| HA6NAB-11 | 2026-09-02 00:47:27 | 49.44495 | 18.03720 | 52° | 24km/h | 30523m | 6.6m/s | -43.0°C | 0.6% | 0hPa | 2.5V | 00:00:00 | 00:00:00 | 00:00:00 | |
| OE5DXL-15 | 2026-09-02 00:47:26 | 49.44487 | 18.03703 | 55° | 24km/h | 30511m | 6.1m/s | -42.9°C | 2.6% | 0hPa | 2.5V | 00:00:00 | 00:00:00 | 00:00:00 | |
| DO3MHA-11 | 2026-09-02 00:47:24 | 49.44476 | 18.03684 | 47° | 26km/h | 30498m | 6.0m/s | -42.9°C | 2.6% | 0hPa | 2.5V | 00:00:00 | 02:04:00 | 00:00:00 | |
| PETON7-10 | 2026-09-02 00:47:22 | 49.44465 | 18.03665 | 49° | 26km/h | 30486m | 6.4m/s | -43.0°C | 2.6% | 0hPa | 2.5V | 00:00:00 | 02:03:58 | 00:00:00 | |
| HA6NAB-11 | 2026-09-02 00:47:21 | 49.44465 | 18.03665 | 50° | 31km/h | 30486m | 6.4m/s | -43.1°C | 0.6% | 0hPa | 2.5V | 00:00:00 | 00:00:00 | 00:00:00 | |
| OE5DRO-10 | 2026-09-02 00:47:17 | 49.44443 | 18.03634 | 13° | 22km/h | 30455m | 7.2m/s | -43.1°C | 2.6% | 0hPa | 2.5V | 00:00:00 | 00:00:00 | 00:00:00 | |
| OE5MMP-10 | 2026-09-02 00:47:16 | 49.44437 | 18.03633 | 7° | 26km/h | 30448m | 6.1m/s | -43.1°C | 2.6% | 0hPa | 2.6V | 00:00:00 | 02:03:52 | 00:00:00 | |
| DO3MHA-11 | 2026-09-02 00:47:14 | 49.44425 | 18.03629 | 23° | 24km/h | 30437m | 6.3m/s | -43.1°C | 2.6% | 0hPa | 2.6V | 00:00:00 | 02:03:50 | 00:00:00 | |
| OE3OSB-13 | 2026-09-02 00:47:13 | 49.44416 | 18.03618 | 52° | 26km/h | 30423m | 6.8m/s | -43.2°C | 0.6% | -1.0hPa | 2.5V | 00:00:00 | 00:00:00 | 00:00:00 | |
| HA6NAB-11 | 2026-09-02 00:47:11 | 49.44416 | 18.03618 | 53° | 27km/h | 30423m | 6.8m/s | -43.2°C | 0.6% | 0hPa | 2.5V | 00:00:00 | 00:00:00 | 00:00:00 | |
| PETON7-10 | 2026-09-02 00:47:07 | 49.44395 | 18.03578 | 44° | 20km/h | 30393m | 5.2m/s | -43.1°C | 2.6% | 0hPa | 2.5V | 00:00:00 | 00:00:00 | 08:30:00 | |
| PG1ADW-2 | 2026-09-02 00:47:06 | 49.44391 | 18.03573 | 45° | 18km/h | 30387m | 7.0m/s | -43.1°C | 2.6% | 0hPa | 2.5V | 00:00:00 | 00:00:00 | 00:00:00 | |
| DO3MHA-11 | 2026-09-02 00:47:05 | 49.44386 | 18.03564 | 40° | 20km/h | 30373m | 5.8m/s | -43.1°C | 2.6% | 0hPa | 2.5V | 00:00:00 | 02:03:40 | 00:00:00 | |
| SP3WXH-11 | 2026-09-02 00:47:03 | 49.44383 | 18.03562 | 23° | 13km/h | 30367m | 5.7m/s | -43.1°C | 0.6% | -1.0hPa | 2.5V | 00:00:00 | 00:00:00 | 00:00:00 | |
| HA6NAB-11 | 2026-09-02 00:46:59 | 49.44370 | 18.03556 | 18° | 22km/h | 30348m | 4.8m/s | -43.1°C | 0.6% | 0hPa | 2.5V | 00:00:00 | 00:00:00 | 00:00:00 | |
| OE5DRO-10 | 2026-09-02 00:46:58 | 49.44361 | 18.03548 | 48° | 18km/h | 30336m | 7.6m/s | -43.0°C | 2.6% | 0hPa | 2.5V | 00:00:00 | 00:00:00 | 00:00:00 | |
| OE5DXL-15 | 2026-09-02 00:46:56 | 49.44355 | 18.03531 | 72° | 18km/h | 30322m | 5.9m/s | -43.1°C | 2.6% | 0hPa | 2.5V | 00:00:00 | 00:00:00 | 00:00:00 | |
| DO3MHA-11 | 2026-09-02 00:46:54 | 49.44351 | 18.03512 | 67° | 16km/h | 30309m | 7.0m/s | -43.0°C | 2.6% | 0hPa | 2.5V | 00:00:00 | 02:03:30 | 00:00:00 | |
| PETON7-10 | 2026-09-02 00:46:52 | 49.44345 | 18.03497 | 55° | 18km/h | 30296m | 5.8m/s | -43.0°C | 2.6% | 0hPa | 2.5V | 00:00:00 | 00:00:00 | 00:00:00 | |
| PG1ADW-2 | 2026-09-02 00:46:46 | 49.44332 | 18.03482 | 6° | 20km/h | 30259m | 7.3m/s | -43.1°C | 2.6% | 0hPa | 2.5V | 00:00:00 | 00:00:00 | 00:00:00 | |
| DO3MHA-11 | 2026-09-02 00:46:44 | 49.44321 | 18.03479 | 18° | 22km/h | 30247m | 4.8m/s | -43.1°C | 2.6% | 0hPa | 2.6V | 00:00:00 | 02:03:20 | 00:00:00 | |
| OE3OSB-13 | 2026-09-02 00:46:41 | 49.44311 | 18.03465 | 68° | 20km/h | 30227m | 6.7m/s | -43.2°C | 0.6% | -1.0hPa | 2.5V | 00:00:00 | 00:00:00 | 00:00:00 | |
| OE5DRO-10 | 2026-09-02 00:46:39 | 49.44307 | 18.03448 | 70° | 18km/h | 30215m | 7.2m/s | -43.1°C | 2.5% | 0hPa | 2.5V | 00:00:00 | 00:00:00 | 00:00:00 | |
| OK1SLM-15 | 2026-09-02 00:46:38 | 49.44307 | 18.03448 | 70° | 26km/h | 30215m | 7.3m/s | -43.2°C | 0.6% | 0hPa | 2.5V | 00:00:00 | 00:00:00 | 00:00:00 | |
| PETON7-10 | 2026-09-02 00:46:37 | 49.44301 | 18.03430 | 61° | 16km/h | 30202m | 5.0m/s | -43.1°C | 2.6% | 0hPa | 2.5V | 00:00:00 | 02:03:13 | 00:00:00 | |
| OE5MMP-10 | 2026-09-02 00:46:36 | 49.44298 | 18.03422 | 62° | 13km/h | 30197m | 5.2m/s | -43.2°C | 2.6% | 0hPa | 2.5V | 00:00:00 | 02:03:12 | 00:00:00 | |
| DO3MHA-11 | 2026-09-02 00:46:34 | 49.44294 | 18.03408 | 71° | 13km/h | 30183m | 6.9m/s | -43.2°C | 2.6% | 0hPa | 2.5V | 00:00:00 | 02:03:10 | 00:00:00 | |
| OK1SLM-15 | 2026-09-02 00:46:33 | 49.44292 | 18.03403 | 62° | 11km/h | 30177m | 6.1m/s | -43.3°C | 0.6% | 0hPa | 2.5V | 00:00:00 | 00:00:00 | 00:00:00 | |
| SP3WXH-11 | 2026-09-02 00:46:32 | 49.44291 | 18.03401 | 27° | 9km/h | 30170m | 6.4m/s | -43.3°C | 0.6% | -1.0hPa | 2.5V | 00:00:00 | 00:00:00 | 00:00:00 | |
| PG1ADW-2 | 2026-09-02 00:46:26 | 49.44277 | 18.03394 | 94° | 16km/h | 30130m | 6.4m/s | -43.3°C | 2.6% | 0hPa | 2.5V | 00:00:00 | 02:03:02 | 00:00:00 | |
| DO3MHA-11 | 2026-09-02 00:46:24 | 49.44277 | 18.03380 | 87° | 20km/h | 30118m | 7.3m/s | -43.3°C | 2.6% | 0hPa | 2.5V | 00:00:00 | 02:03:00 | 00:00:00 | |
| PETON7-10 | 2026-09-02 00:46:22 | 49.44275 | 18.03362 | 77° | 15km/h | 30104m | 5.3m/s | -43.3°C | 2.6% | 0hPa | 2.5V | 00:00:00 | 00:00:00 | 00:00:00 | |
| OE5DRO-10 | 2026-09-02 00:46:20 | 49.44273 | 18.03347 | 86° | 16km/h | 30092m | 7.5m/s | -43.3°C | 2.6% | 0hPa | 2.5V | 00:00:00 | 00:00:00 | 00:00:00 | |
| OE5MMP-10 | 2026-09-02 00:46:16 | 49.44272 | 18.03331 | 45° | 15km/h | 30066m | 7.5m/s | -43.3°C | 2.6% | 0hPa | 2.6V | 00:00:00 | 02:02:52 | 00:00:00 | |
| DO3MHA-11 | 2026-09-02 00:46:14 | 49.44268 | 18.03327 | 42° | 16km/h | 30052m | 5.6m/s | -43.4°C | 2.6% | 0hPa | 2.6V | 00:00:00 | 02:02:50 | 08:30:00 | |
| HA6NAB-11 | 2026-09-02 00:46:12 | 49.44266 | 18.03323 | 61° | 11km/h | 30047m | 5.9m/s | -43.4°C | 0.6% | 0hPa | 2.5V | 00:00:00 | 00:00:00 | 00:00:00 | |
| OE3OSB-13 | 2026-09-02 00:46:11 | 49.44268 | 18.03309 | 125° | 18km/h | 30026m | 5.7m/s | -43.4°C | 0.6% | -1.0hPa | 2.5V | 00:00:00 | 00:00:00 | 00:00:00 | |
| PETON7-10 | 2026-09-02 00:46:07 | 49.44276 | 18.03287 | 105° | 20km/h | 30008m | 7.0m/s | -43.3°C | 2.6% | 0hPa | 2.5V | 00:00:00 | 00:00:00 | 00:00:00 | |
| OE5MMP-10 | 2026-09-02 00:46:06 | 49.44277 | 18.03278 | 96° | 18km/h | 30001m | 6.4m/s | -43.3°C | 2.6% | 0hPa | 2.5V | 00:00:00 | 02:02:42 | 00:00:00 | |
| OE5DRO-10 | 2026-09-02 00:46:01 | 49.44281 | 18.03240 | 101° | 16km/h | 29970m | 4.9m/s | -43.6°C | 2.6% | 0hPa | 2.6V | 00:00:00 | 00:00:00 | 00:00:00 | |
| HA6NAB-11 | 2026-09-02 00:46:00 | 49.44281 | 18.03240 | 101° | 15km/h | 29970m | 4.9m/s | -43.6°C | 0.6% | 0hPa | 2.6V | 00:00:00 | 00:00:00 | 00:00:00 | |
| DO3MHA-11 | 2026-09-02 00:45:58 | 49.44279 | 18.03224 | 64° | 18km/h | 29950m | 6.3m/s | -43.5°C | 2.6% | 0hPa | 2.6V | 00:00:00 | 02:02:34 | 00:00:00 | |
| OE5MMP-10 | 2026-09-02 00:45:56 | 49.44276 | 18.03210 | 87° | 16km/h | 29938m | 6.7m/s | -43.5°C | 2.6% | 0hPa | 2.6V | 00:00:00 | 02:02:32 | 00:00:00 | |
| HA6NAB-11 | 2026-09-02 00:45:54 | 49.44276 | 18.03202 | 104° | 22km/h | 29931m | 7.8m/s | -43.5°C | 0.6% | 0hPa | 2.6V | 00:00:00 | 00:00:00 | 00:00:00 | |
| PETON7-10 | 2026-09-02 00:45:52 | 49.44285 | 18.03177 | 124° | 16km/h | 29912m | 6.3m/s | -43.5°C | 2.6% | 0hPa | 2.6V | 00:00:00 | 02:02:28 | 00:00:00 | |
| HA6NAB-11 | 2026-09-02 00:45:49 | 49.44289 | 18.03166 | 115° | 13km/h | 29899m | 6.0m/s | -43.5°C | 0.6% | 0hPa | 2.6V | 00:00:00 | 00:00:00 | 00:00:00 | |
| DO3MHA-11 | 2026-09-02 00:45:48 | 49.44291 | 18.03159 | 130° | 16km/h | 29888m | 5.1m/s | -43.5°C | 2.6% | 0hPa | 2.6V | 00:00:00 | 02:02:24 | 00:00:00 | |
| NBG1-10 | 2026-09-02 00:45:47 | 49.44293 | 18.03157 | 144° | 16km/h | 29882m | 6.9m/s | -43.5°C | 2.6% | 0hPa | 2.6V | 00:00:00 | 02:02:23 | 00:00:00 | |
| OK1SLM-15 | 2026-09-02 00:45:46 | 49.44293 | 18.03157 | 144° | 9km/h | 29882m | 7.0m/s | -43.6°C | 0.6% | 0hPa | 2.6V | 00:00:00 | 00:00:00 | 00:00:00 | |
| HA6NAB-11 | 2026-09-02 00:45:43 | 49.44300 | 18.03147 | 128° | 16km/h | 29863m | 5.4m/s | -43.7°C | 0.7% | 0hPa | 2.6V | 00:00:00 | 00:00:00 | 00:00:00 | |
| OE5DRO-10 | 2026-09-02 00:45:42 | 49.44303 | 18.03134 | 92° | 24km/h | 29851m | 6.9m/s | -43.7°C | 2.7% | 0hPa | 2.6V | 00:00:00 | 00:00:00 | 00:00:00 | |
| OK1SLM-15 | 2026-09-02 00:45:41 | 49.44303 | 18.03134 | 93° | 18km/h | 29851m | 6.9m/s | -43.7°C | 0.7% | 0hPa | 2.6V | 00:00:00 | 00:00:00 | 00:00:00 | |
| OE3OSB-13 | 2026-09-02 00:45:39 | 49.44300 | 18.03110 | 78° | 22km/h | 29834m | 4.6m/s | -43.8°C | 0.6% | -1.0hPa | 2.6V | 00:00:00 | 00:00:00 | 00:00:00 | |
| DO3MHA-11 | 2026-09-02 00:45:38 | 49.44299 | 18.03101 | 90° | 26km/h | 29828m | 6.2m/s | -43.8°C | 2.7% | 0hPa | 2.6V | 00:00:00 | 02:02:14 | 00:00:00 | |
| PETON7-10 | 2026-09-02 00:45:37 | 49.44300 | 18.03093 | 107° | 24km/h | 29821m | 7.3m/s | -43.8°C | 2.7% | 0hPa | 2.5V | 00:00:00 | 00:00:00 | 00:00:00 | |
| PG1ADW-2 | 2026-09-02 00:45:36 | 49.44302 | 18.03084 | 118° | 26km/h | 29814m | 7.0m/s | -43.8°C | 2.6% | 0hPa | 2.5V | 00:00:00 | 00:00:00 | 08:30:00 | |
| SP3WXH-11 | 2026-09-02 00:45:31 | 49.44318 | 18.03025 | 105° | 22km/h | 29776m | 6.8m/s | -43.8°C | 0.6% | -1.0hPa | 2.5V | 00:00:00 | 00:00:00 | 00:00:00 | |
| DO3MHA-11 | 2026-09-02 00:45:28 | 49.44321 | 18.03009 | 110° | 24km/h | 29762m | 6.4m/s | -43.8°C | 2.7% | 0hPa | 2.5V | 00:00:00 | 02:02:04 | 00:00:00 | |
| OE5DXL-15 | 2026-09-02 00:45:26 | 49.44323 | 18.02994 | 91° | 18km/h | 29748m | 7.6m/s | -43.8°C | 2.7% | 0hPa | 2.5V | 00:00:00 | 00:00:00 | 08:30:00 | |
| OE5DRO-10 | 2026-09-02 00:45:23 | 49.44323 | 18.02970 | 100° | 20km/h | 29732m | 4.9m/s | -43.9°C | 2.7% | 0hPa | 2.6V | 00:00:00 | 00:00:00 | 08:30:00 | |
| PETON7-10 | 2026-09-02 00:45:22 | 49.44324 | 18.02961 | 112° | 20km/h | 29725m | 7.3m/s | -43.9°C | 2.7% | 0hPa | 2.6V | 00:00:00 | 00:00:00 | 00:00:00 | |
| DO3MHA-11 | 2026-09-02 00:45:18 | 49.44341 | 18.02923 | 118° | 16km/h | 29700m | 5.8m/s | -43.9°C | 2.7% | 0hPa | 2.6V | 00:00:00 | 02:01:54 | 00:00:00 | |
| OE5MMP-10 | 2026-09-02 00:45:16 | 49.44345 | 18.02901 | 92° | 13km/h | 29687m | 6.5m/s | -43.9°C | 2.7% | 0hPa | 2.6V | 00:00:00 | 02:01:52 | 00:00:00 | |
| DO3MHA-11 | 2026-09-02 00:45:08 | 49.44341 | 18.02866 | 95° | 15km/h | 29636m | 6.3m/s | -43.8°C | 2.8% | 0hPa | 2.6V | 00:00:00 | 02:01:44 | 00:00:00 | |
| PETON7-10 | 2026-09-02 00:45:07 | 49.44342 | 18.02860 | 101° | 15km/h | 29630m | 5.6m/s | -43.8°C | 2.7% | 0hPa | 2.5V | 00:00:00 | 02:01:43 | 00:00:00 | |
| OE5MMP-10 | 2026-09-02 00:45:06 | 49.44343 | 18.02853 | 111° | 15km/h | 29624m | 5.8m/s | -43.7°C | 2.7% | 0hPa | 2.5V | 00:00:00 | 02:01:42 | 00:00:00 | |
| OE5DRO-10 | 2026-09-02 00:45:04 | 49.44347 | 18.02842 | 134° | 16km/h | 29611m | 6.4m/s | -43.7°C | 2.7% | 0hPa | 2.5V | 00:00:00 | 00:00:00 | 00:00:00 | |
| SP3WXH-11 | 2026-09-02 00:45:00 | 49.44350 | 18.02813 | 78° | 11km/h | 29572m | 7.0m/s | -43.6°C | 0.6% | -1.0hPa | 2.5V | 00:00:00 | 00:00:00 | 00:00:00 | |
| DO3MHA-11 | 2026-09-02 00:44:58 | 49.44350 | 18.02813 | 79° | 18km/h | 29573m | 6.9m/s | -43.6°C | 2.6% | 0hPa | 2.5V | 00:00:00 | 02:01:34 | 00:00:00 | |
| OE5DXL-15 | 2026-09-02 00:44:56 | 49.44351 | 18.02805 | 122° | 22km/h | 29559m | 5.6m/s | -43.6°C | 2.6% | 0hPa | 2.5V | 00:00:00 | 00:00:00 | 00:00:00 | |
| OK1SLM-15 | 2026-09-02 00:44:53 | 49.44355 | 18.02795 | 118° | 20km/h | 29547m | 7.1m/s | -43.6°C | 0.6% | 0hPa | 2.5V | 00:00:00 | 00:00:00 | 00:00:00 | |
| PETON7-10 | 2026-09-02 00:44:52 | 49.44360 | 18.02778 | 111° | 22km/h | 29533m | 5.7m/s | -43.6°C | 2.6% | 0hPa | 2.5V | 00:00:00 | 00:00:00 | 08:30:00 | |
| NBG1-10 | 2026-09-02 00:44:50 | 49.44365 | 18.02758 | 116° | 26km/h | 29521m | 7.3m/s | -43.6°C | 2.6% | 0hPa | 2.6V | 00:00:00 | 02:01:26 | 00:00:00 | |
| DO3MHA-11 | 2026-09-02 00:44:48 | 49.44369 | 18.02746 | 108° | 18km/h | 29508m | 5.6m/s | -43.6°C | 2.6% | 0hPa | 2.6V | 00:00:00 | 02:01:24 | 00:00:00 | |
| OE5MMP-10 | 2026-09-02 00:44:46 | 49.44368 | 18.02736 | 63° | 24km/h | 29495m | 8.0m/s | 0°C | 0% | 0hPa | 2.6V | 00:00:00 | 02:01:22 | 00:00:00 | |
| OE5DRO-10 | 2026-09-02 00:44:45 | 49.44366 | 18.02730 | 56° | 22km/h | 29487m | 6.7m/s | -43.6°C | 2.6% | 0hPa | 2.6V | 00:00:00 | 00:00:00 | 00:00:00 | |
| DO3MHA-11 | 2026-09-02 00:44:38 | 49.44368 | 18.02675 | 115° | 22km/h | 29443m | 6.5m/s | -44.0°C | 2.7% | 0hPa | 2.6V | 00:00:00 | 02:01:14 | 08:30:00 | |
| PETON7-10 | 2026-09-02 00:44:37 | 49.44372 | 18.02664 | 116° | 26km/h | 29437m | 4.8m/s | -44.0°C | 2.7% | 0hPa | 2.5V | 00:00:00 | 00:00:00 | 00:00:00 | |
| DO3MHA-11 | 2026-09-02 00:44:28 | 49.44378 | 18.02596 | 98° | 22km/h | 29380m | 7.0m/s | -44.1°C | 2.7% | 0hPa | 2.5V | 00:00:00 | 02:01:04 | 00:00:00 | |
| OE5MMP-10 | 2026-09-02 00:44:26 | 49.44382 | 18.02575 | 117° | 24km/h | 29367m | 5.4m/s | -44.0°C | 2.7% | 0hPa | 2.5V | 00:00:00 | 02:01:02 | 00:00:00 | |
| PETON7-10 | 2026-09-02 00:44:22 | 49.44395 | 18.02529 | 105° | 22km/h | 29343m | 5.5m/s | -44.0°C | 2.7% | 0hPa | 2.5V | 00:00:00 | 02:00:58 | 00:00:00 | |
| OE5MMP-10 | 2026-09-02 00:44:16 | 49.44396 | 18.02492 | 67° | 26km/h | 29305m | 6.4m/s | -44.0°C | 2.7% | 0hPa | 2.5V | 00:00:00 | 02:00:52 | 00:00:00 | |
| DO3MHA-11 | 2026-09-02 00:44:14 | 49.44392 | 18.02477 | 77° | 27km/h | 29292m | 6.0m/s | -44.1°C | 2.7% | 0hPa | 2.5V | 00:00:00 | 02:00:50 | 00:00:00 | |
| PETON7-10 | 2026-09-02 00:44:07 | 49.44399 | 18.02406 | 100° | 27km/h | 29250m | 6.8m/s | -43.9°C | 2.7% | 0hPa | 2.5V | 00:00:00 | 00:00:00 | 00:00:00 | |
| OE5MMP-10 | 2026-09-02 00:44:06 | 49.44400 | 18.02396 | 90° | 26km/h | 29243m | 6.4m/s | -43.9°C | 2.7% | 0hPa | 2.5V | 00:00:00 | 02:00:42 | 08:30:00 | |
| DO3MHA-11 | 2026-09-02 00:44:04 | 49.44399 | 18.02375 | 82° | 27km/h | 29231m | 5.5m/s | -43.9°C | 2.7% | 0hPa | 2.6V | 00:00:00 | 02:00:40 | 00:00:00 | |
| OK1SLM-15 | 2026-09-02 00:43:57 | 49.44395 | 18.02324 | 73° | 27km/h | 29193m | 7.6m/s | -44.1°C | 0.7% | 0hPa | 2.5V | 00:00:00 | 00:00:00 | 00:00:00 | |
| OE5MMP-10 | 2026-09-02 00:43:56 | 49.44388 | 18.02300 | 65° | 27km/h | 29180m | 4.8m/s | -44.0°C | 2.7% | 0hPa | 2.5V | 00:00:00 | 02:00:32 | 00:00:00 | |
| DO3MHA-11 | 2026-09-02 00:43:54 | 49.44381 | 18.02274 | 69° | 22km/h | 29170m | 6.2m/s | -44.0°C | 2.6% | 0hPa | 2.5V | 00:00:00 | 02:00:30 | 00:00:00 | |
| PETON7-10 | 2026-09-02 00:43:52 | 49.44377 | 18.02253 | 83° | 22km/h | 29156m | 7.0m/s | -44.0°C | 2.6% | 0hPa | 2.5V | 00:00:00 | 00:00:00 | 00:00:00 | |
| OE5DRO-10 | 2026-09-02 00:43:48 | 49.44375 | 18.02221 | 73° | 20km/h | 29130m | 5.9m/s | -44.1°C | 2.6% | 0hPa | 2.5V | 00:00:00 | 00:00:00 | 00:00:00 | |
| NBG1-10 | 2026-09-02 00:43:47 | 49.44373 | 18.02213 | 63° | 22km/h | 29124m | 5.2m/s | -44.1°C | 2.6% | 0hPa | 2.5V | 00:00:00 | 02:00:23 | 00:00:00 | |
| OE5MMP-10 | 2026-09-02 00:43:46 | 49.44371 | 18.02206 | 55° | 22km/h | 29118m | 5.7m/s | -44.1°C | 2.7% | 0hPa | 2.5V | 00:00:00 | 02:00:22 | 00:00:00 | |
| DO3MHA-11 | 2026-09-02 00:43:44 | 49.44364 | 18.02196 | 42° | 22km/h | 29105m | 6.8m/s | -44.2°C | 2.7% | 0hPa | 2.5V | 00:00:00 | 02:00:20 | 00:00:00 | |
| PETON7-10 | 2026-09-02 00:43:37 | 49.44350 | 18.02136 | 86° | 20km/h | 29061m | 7.2m/s | -44.4°C | 2.7% | 0hPa | 2.5V | 00:00:00 | 02:00:13 | 00:00:00 | |
| OE5MMP-10 | 2026-09-02 00:43:36 | 49.44349 | 18.02128 | 92° | 16km/h | 29054m | 7.1m/s | -44.4°C | 2.7% | 0hPa | 2.5V | 00:00:00 | 02:00:12 | 00:00:00 | |
| OE3OSB-13 | 2026-09-02 00:43:35 | 49.44350 | 18.02121 | 96° | 15km/h | 29047m | 5.9m/s | -44.5°C | 0.6% | -1.0hPa | 2.6V | 00:00:00 | 00:00:00 | 00:00:00 | |
| DO3MHA-11 | 2026-09-02 00:43:34 | 49.44350 | 18.02116 | 96° | 18km/h | 29042m | 5.4m/s | -44.5°C | 2.7% | 0hPa | 2.6V | 00:00:00 | 02:00:10 | 00:00:00 | |
| OE5DRO-10 | 2026-09-02 00:43:29 | 49.44346 | 18.02083 | 68° | 22km/h | 29009m | 7.7m/s | -44.5°C | 2.7% | 0hPa | 2.6V | 00:00:00 | 00:00:00 | 00:00:00 | |
| OE5MMP-10 | 2026-09-02 00:43:26 | 49.44340 | 18.02064 | 68° | 20km/h | 28990m | 6.3m/s | -44.7°C | 2.7% | 0hPa | 2.5V | 00:00:00 | 02:00:02 | 00:00:00 | |
| DO3MHA-11 | 2026-09-02 00:43:24 | 49.44336 | 18.02044 | 79° | 20km/h | 28976m | 5.7m/s | -44.8°C | 2.7% | 0hPa | 2.5V | 00:00:00 | 02:00:00 | 00:00:00 | |
| PETON7-10 | 2026-09-02 00:43:22 | 49.44334 | 18.02022 | 88° | 20km/h | 28965m | 6.3m/s | -44.9°C | 2.8% | 0hPa | 2.5V | 00:00:00 | 00:00:00 | 00:00:00 | |
| OE5MMP-10 | 2026-09-02 00:43:16 | 49.44331 | 18.01986 | 74° | 24km/h | 28926m | 6.2m/s | -45.2°C | 2.8% | 0hPa | 2.5V | 00:00:00 | 01:59:52 | 00:00:00 | |
| DO3MHA-11 | 2026-09-02 00:43:14 | 49.44328 | 18.01967 | 83° | 22km/h | 28914m | 5.9m/s | -45.3°C | 2.8% | 0hPa | 2.5V | 00:00:00 | 01:59:50 | 00:00:00 | |
| HA6NAB-11 | 2026-09-02 00:43:11 | 49.44328 | 18.01948 | 104° | 22km/h | 28901m | 6.7m/s | -45.5°C | 0.7% | 0hPa | 2.5V | 00:00:00 | 00:00:00 | 00:00:00 | |
| OE5DRO-10 | 2026-09-02 00:43:10 | 49.44333 | 18.01932 | 121° | 15km/h | 28888m | 6.4m/s | -45.5°C | 2.8% | 0hPa | 2.5V | 00:00:00 | 00:00:00 | 00:00:00 | |
| NBG1-10 | 2026-09-02 00:43:09 | 49.44336 | 18.01924 | 120° | 15km/h | 28881m | 7.2m/s | -45.6°C | 2.8% | 0hPa | 2.5V | 00:00:00 | 01:59:45 | 00:00:00 | |
| PETON7-10 | 2026-09-02 00:43:07 | 49.44342 | 18.01908 | 117° | 15km/h | 28869m | 4.2m/s | -45.7°C | 2.9% | 0hPa | 2.5V | 00:00:00 | 00:00:00 | 00:00:00 | |
| OE5MMP-10 | 2026-09-02 00:43:06 | 49.44343 | 18.01902 | 117° | 13km/h | 28865m | 4.7m/s | -45.7°C | 2.9% | 0hPa | 2.5V | 00:00:00 | 01:59:42 | 00:00:00 | |
| HA6NAB-11 | 2026-09-02 00:43:05 | 49.44343 | 18.01902 | 117° | 15km/h | 28865m | 4.7m/s | -45.8°C | 0.7% | 0hPa | 2.6V | 00:00:00 | 00:00:00 | 00:00:00 | |
| DO3MHA-11 | 2026-09-02 00:43:04 | 49.44346 | 18.01895 | 104° | 13km/h | 28852m | 7.1m/s | -45.8°C | 2.9% | 0hPa | 2.6V | 00:00:00 | 01:59:40 | 08:30:00 | |
| SP3WXH-11 | 2026-09-02 00:42:55 | 49.44331 | 18.01854 | 101° | 11km/h | 28788m | 7.5m/s | -46.1°C | 0.7% | -1.0hPa | 2.5V | 00:00:00 | 00:00:00 | 00:00:00 | |
| DO3MHA-11 | 2026-09-02 00:42:54 | 49.44331 | 18.01853 | 102° | 9km/h | 28788m | 7.4m/s | -46.1°C | 2.9% | 0hPa | 2.5V | 00:00:00 | 01:59:30 | 00:00:00 | |
| PETON7-10 | 2026-09-02 00:42:52 | 49.44332 | 18.01843 | 100° | 13km/h | 28776m | 5.1m/s | -46.1°C | 3.0% | 0hPa | 2.5V | 00:00:00 | 01:59:28 | 00:00:00 | |
| OE5DRO-10 | 2026-09-02 00:42:51 | 49.44333 | 18.01838 | 94° | 11km/h | 28770m | 6.2m/s | -46.1°C | 3.0% | 0hPa | 2.5V | 00:00:00 | 00:00:00 | 00:00:00 | |
| HA6NAB-11 | 2026-09-02 00:42:49 | 49.44333 | 18.01835 | 77° | 5km/h | 28763m | 7.9m/s | -46.2°C | 0.7% | 0hPa | 2.5V | 00:00:00 | 00:00:00 | 00:00:00 | |
| OE5MMP-10 | 2026-09-02 00:42:46 | 49.44322 | 18.01829 | 25° | 13km/h | 28735m | 6.4m/s | -46.1°C | 2.9% | 0hPa | 2.5V | 00:00:00 | 01:59:22 | 00:00:00 | |
| HA6NAB-11 | 2026-09-02 00:42:43 | 49.44314 | 18.01823 | 26° | 16km/h | 28725m | 5.9m/s | -46.1°C | 0.7% | 0hPa | 2.5V | 00:00:00 | 00:00:00 | 00:00:00 | |
| PETON7-10 | 2026-09-02 00:42:37 | 49.44308 | 18.01798 | 89° | 11km/h | 28681m | 5.3m/s | -46.2°C | 3.0% | 0hPa | 2.5V | 00:00:00 | 00:00:00 | 08:30:00 | |
| OE5MMP-10 | 2026-09-02 00:42:36 | 49.44308 | 18.01795 | 66° | 13km/h | 28675m | 7.3m/s | -46.2°C | 3.0% | 0hPa | 2.5V | 00:00:00 | 01:59:12 | 08:30:00 | |
| DO3MHA-11 | 2026-09-02 00:42:34 | 49.44305 | 18.01796 | 331° | 13km/h | 28662m | 5.5m/s | -46.2°C | 3.0% | 0hPa | 2.5V | 00:00:00 | 01:59:10 | 00:00:00 | |
| OE3OSB-13 | 2026-09-02 00:42:33 | 49.44302 | 18.01799 | 333° | 15km/h | 28656m | 6.1m/s | -46.3°C | 0.7% | -1.0hPa | 2.5V | 00:00:00 | 00:00:00 | 00:00:00 | |
| OE5DRO-10 | 2026-09-02 00:42:32 | 49.44298 | 18.01801 | 343° | 9km/h | 28649m | 7.1m/s | -46.3°C | 3.0% | 0hPa | 2.5V | 00:00:00 | 00:00:00 | 08:30:00 | |
| OE5MMP-10 | 2026-09-02 00:42:26 | 49.44280 | 18.01812 | 278° | 5km/h | 28612m | 5.6m/s | -46.3°C | 3.0% | 0hPa | 2.5V | 00:00:00 | 01:59:02 | 00:00:00 | |
| SP3WXH-11 | 2026-09-02 00:42:24 | 49.44279 | 18.01815 | 68° | 5km/h | 28593m | 6.9m/s | -46.3°C | 0.7% | -1.0hPa | 2.5V | 00:00:00 | 00:00:00 | 00:00:00 | |
| PETON7-10 | 2026-09-02 00:42:22 | 49.44278 | 18.01813 | 75° | 5km/h | 28587m | 5.5m/s | -46.3°C | 3.0% | 0hPa | 2.5V | 00:00:00 | 00:00:00 | 00:00:00 | |
| PG1ADW-2 | 2026-09-02 00:42:17 | 49.44277 | 18.01806 | 34° | 5km/h | 28555m | 7.0m/s | -46.2°C | 3.0% | 0hPa | 2.5V | 00:00:00 | 00:00:00 | 00:00:00 | |
| OE5MMP-10 | 2026-09-02 00:42:16 | 49.44275 | 18.01804 | 35° | 5km/h | 28548m | 7.0m/s | -46.2°C | 3.0% | 0hPa | 2.5V | 00:00:00 | 01:58:52 | 00:00:00 | |
| DO3MHA-11 | 2026-09-02 00:42:14 | 49.44271 | 18.01802 | 9° | 5km/h | 28535m | 6.5m/s | -46.2°C | 3.0% | 0hPa | 2.5V | 00:00:00 | 01:58:50 | 00:00:00 | |
| OE5DRO-10 | 2026-09-02 00:42:13 | 49.44270 | 18.01802 | 335° | 5km/h | 28528m | 8.0m/s | -46.3°C | 3.0% | 0hPa | 2.5V | 00:00:00 | 00:00:00 | 00:00:00 | |
| PETON7-10 | 2026-09-02 00:42:07 | 49.44265 | 18.01804 | 105° | 5km/h | 28489m | 6.1m/s | -46.1°C | 3.0% | 0hPa | 2.5V | 00:00:00 | 01:58:43 | 00:00:00 | |
| OE5MMP-10 | 2026-09-02 00:42:06 | 49.44266 | 18.01803 | 170° | 5km/h | 28483m | 7.6m/s | -46.1°C | 3.1% | 0hPa | 2.5V | 00:00:00 | 01:58:42 | 00:00:00 | |
| DO3MHA-11 | 2026-09-02 00:42:04 | 49.44267 | 18.01804 | 193° | 5km/h | 28470m | 5.4m/s | -46.1°C | 3.1% | 0hPa | 2.5V | 00:00:00 | 01:58:40 | 00:00:00 | |
| OE3OSB-13 | 2026-09-02 00:42:02 | 49.44267 | 18.01801 | 48° | 5km/h | 28450m | 6.0m/s | -46.1°C | 0.7% | -1.0hPa | 2.5V | 00:00:00 | 00:00:00 | 00:00:00 | |
| SP3WXH-11 | 2026-09-02 00:41:53 | 49.44268 | 18.01805 | 151° | 9km/h | 28395m | 5.4m/s | -45.8°C | 0.7% | -1.0hPa | 2.5V | 00:00:00 | 00:00:00 | 00:00:00 | |
| PG1ADW-2 | 2026-09-02 00:41:52 | 49.44268 | 18.01805 | 152° | 11km/h | 28395m | 5.3m/s | -45.7°C | 3.0% | 0hPa | 2.5V | 00:00:00 | 00:00:00 | 00:00:00 | |
| PETON7-10 | 2026-09-02 00:41:51 | 49.44270 | 18.01803 | 170° | 7km/h | 28389m | 7.3m/s | -45.7°C | 2.9% | 0hPa | 2.5V | 00:00:00 | 00:00:00 | 00:00:00 | |
| OE5MMP-10 | 2026-09-02 00:41:46 | 49.44280 | 18.01809 | 333° | 7km/h | 28356m | 6.9m/s | -45.7°C | 2.9% | 0hPa | 2.5V | 00:00:00 | 01:58:22 | 00:00:00 | |
| DO3MHA-11 | 2026-09-02 00:41:44 | 49.44277 | 18.01811 | 327° | 9km/h | 28344m | 6.4m/s | -45.6°C | 2.9% | 0hPa | 2.5V | 00:00:00 | 01:58:20 | 00:00:00 | |
| PETON7-10 | 2026-09-02 00:41:36 | 49.44280 | 18.01816 | 151° | 5km/h | 28292m | 7.3m/s | -45.6°C | 2.9% | 0hPa | 2.5V | 00:00:00 | 00:00:00 | 00:00:00 | |
| OE5DRO-10 | 2026-09-02 00:41:35 | 49.44282 | 18.01814 | 169° | 7km/h | 28286m | 5.8m/s | -45.6°C | 2.9% | 0hPa | 2.5V | 00:00:00 | 00:00:00 | 00:00:00 | |
| DO3MHA-11 | 2026-09-02 00:41:34 | 49.44284 | 18.01814 | 175° | 5km/h | 28281m | 4.3m/s | -45.6°C | 2.9% | 0hPa | 2.5V | 00:00:00 | 01:58:10 | 00:00:00 | |
| OE3OSB-13 | 2026-09-02 00:41:31 | 49.44288 | 18.01807 | 103° | 5km/h | 28257m | 5.2m/s | -45.7°C | 0.7% | -1.0hPa | 2.5V | 00:00:00 | 00:00:00 | 00:00:00 | |
| NBG1-10 | 2026-09-02 00:41:29 | 49.44288 | 18.01806 | 119° | 7km/h | 28252m | 5.8m/s | -45.6°C | 2.9% | 0hPa | 2.5V | 00:00:00 | 01:58:05 | 00:00:00 | |
| OE5DXL-15 | 2026-09-02 00:41:26 | 49.44290 | 18.01809 | 234° | 7km/h | 28231m | 5.2m/s | -45.6°C | 2.9% | 0hPa | 2.5V | 00:00:00 | 00:00:00 | 00:00:00 | |
| DO3MHA-11 | 2026-09-02 00:41:24 | 49.44292 | 18.01810 | 144° | 9km/h | 28219m | 7.3m/s | -45.6°C | 2.9% | 0hPa | 2.5V | 00:00:00 | 01:58:00 | 08:30:00 | |
| SP3WXH-11 | 2026-09-02 00:41:22 | 49.44295 | 18.01804 | 140° | 7km/h | 28199m | 7.3m/s | -45.7°C | 0.7% | -1.0hPa | 2.6V | 00:00:00 | 00:00:00 | 00:00:00 | |
| PETON7-10 | 2026-09-02 00:41:21 | 49.44295 | 18.01804 | 141° | 7km/h | 28199m | 7.2m/s | -45.6°C | 2.9% | 0hPa | 2.6V | 00:00:00 | 01:57:57 | 00:00:00 | |
| OE5MMP-10 | 2026-09-02 00:41:16 | 49.44301 | 18.01790 | 77° | 7km/h | 28166m | 5.4m/s | -45.6°C | 2.9% | 0hPa | 2.6V | 00:00:00 | 01:57:52 | 00:00:00 | |
| DO3MHA-11 | 2026-09-02 00:41:14 | 49.44299 | 18.01786 | 3° | 7km/h | 28154m | 7.6m/s | -45.6°C | 2.9% | 0hPa | 2.6V | 00:00:00 | 01:57:50 | 00:00:00 | |
| HA6NAB-11 | 2026-09-02 00:41:10 | 49.44295 | 18.01792 | 302° | 4km/h | 28135m | 5.5m/s | -45.7°C | 0.7% | 0hPa | 2.6V | 00:00:00 | 00:00:00 | 00:00:00 | |
| OE5MMP-10 | 2026-09-02 00:41:06 | 49.44302 | 18.01782 | 156° | 9km/h | 28102m | 6.9m/s | -45.7°C | 2.9% | 0hPa | 2.6V | 00:00:00 | 01:57:42 | 08:30:00 | |
| DO3MHA-11 | 2026-09-02 00:41:04 | 49.44307 | 18.01779 | 141° | 9km/h | 28090m | 4.9m/s | -45.7°C | 2.9% | 0hPa | 2.5V | 00:00:00 | 01:57:40 | 00:00:00 | |
| OK1SLM-15 | 2026-09-02 00:41:02 | 49.44308 | 18.01776 | 114° | 9km/h | 28084m | 7.5m/s | -45.8°C | 0.7% | 0hPa | 2.5V | 00:00:00 | 00:00:00 | 00:00:00 | |
| OE3OSB-13 | 2026-09-02 00:41:00 | 49.44304 | 18.01765 | 11° | 7km/h | 28057m | 7.5m/s | -45.7°C | 0.7% | -1.0hPa | 2.5V | 00:00:00 | 00:00:00 | 00:00:00 | |
| SP3WXH-11 | 2026-09-02 00:40:51 | 49.44300 | 18.01740 | 86° | 5km/h | 28000m | 5.3m/s | -46.2°C | 0.7% | -1.0hPa | 2.5V | 00:00:00 | 00:00:00 | 00:00:00 | |
| OE5MMP-10 | 2026-09-02 00:40:46 | 49.44291 | 18.01723 | 41° | 20km/h | 27975m | 5.9m/s | -46.2°C | 3.0% | 0hPa | 2.5V | 00:00:00 | 01:57:22 | 00:00:00 | |
| DO3MHA-11 | 2026-09-02 00:40:44 | 49.44281 | 18.01712 | 26° | 15km/h | 27962m | 7.1m/s | -46.2°C | 3.0% | 0hPa | 2.5V | 00:00:00 | 01:57:20 | 00:00:00 | |
| OE5DRO-10 | 2026-09-02 00:40:38 | 49.44252 | 18.01702 | 35° | 16km/h | 27926m | 6.2m/s | -46.2°C | 3.0% | 0hPa | 2.5V | 00:00:00 | 00:00:00 | 00:00:00 | |
| OE5MMP-10 | 2026-09-02 00:40:36 | 49.44248 | 18.01696 | 51° | 16km/h | 27914m | 6.5m/s | -46.2°C | 2.9% | 0hPa | 2.6V | 00:00:00 | 01:57:12 | 00:00:00 | |
| DO3MHA-11 | 2026-09-02 00:40:34 | 49.44246 | 18.01694 | 8° | 22km/h | 27900m | 6.1m/s | -46.3°C | 3.0% | 0hPa | 2.5V | 00:00:00 | 01:57:10 | 00:00:00 | |
| PG1ADW-2 | 2026-09-02 00:40:33 | 49.44244 | 18.01693 | 16° | 16km/h | 27894m | 5.8m/s | -46.4°C | 3.0% | 0hPa | 2.5V | 00:00:00 | 00:00:00 | 00:00:00 | |
| OE3OSB-13 | 2026-09-02 00:40:29 | 49.44218 | 18.01684 | 1° | 29km/h | 27861m | 8.2m/s | -46.6°C | 0.7% | -1.0hPa | 2.5V | 00:00:00 | 00:00:00 | 00:00:00 | |
| OE5MMP-10 | 2026-09-02 00:40:26 | 49.44203 | 18.01686 | 353° | 13km/h | 27847m | 5.6m/s | -46.5°C | 3.0% | 0hPa | 2.5V | 00:00:00 | 01:57:02 | 00:00:00 | |
| DO3MHA-11 | 2026-09-02 00:40:24 | 49.44190 | 18.01686 | 4° | 13km/h | 27834m | 6.6m/s | -46.5°C | 3.0% | 0hPa | 2.5V | 00:00:00 | 01:57:00 | 00:00:00 | |
| PETON7-10 | 2026-09-02 00:40:21 | 49.44181 | 18.01687 | 321° | 16km/h | 27815m | 8.3m/s | -46.5°C | 3.0% | 0hPa | 2.5V | 00:00:00 | 00:00:00 | 08:30:00 | |
| SP3WXH-11 | 2026-09-02 00:40:20 | 49.44180 | 18.01692 | 287° | 5km/h | 27801m | 5.4m/s | -46.6°C | 0.7% | -1.0hPa | 2.5V | 00:00:00 | 00:00:00 | 00:00:00 | |
| OE5DRO-10 | 2026-09-02 00:40:19 | 49.44180 | 18.01692 | 288° | 16km/h | 27801m | 5.3m/s | -46.5°C | 3.0% | 0hPa | 2.5V | 00:00:00 | 00:00:00 | 00:00:00 | |
| OE5MMP-10 | 2026-09-02 00:40:16 | 49.44174 | 18.01697 | 350° | 20km/h | 27783m | 5.4m/s | -46.6°C | 3.0% | 0hPa | 2.5V | 00:00:00 | 01:56:52 | 00:00:00 | |
| DO3MHA-11 | 2026-09-02 00:40:14 | 49.44163 | 18.01701 | 339° | 18km/h | 27770m | 7.9m/s | -46.6°C | 3.0% | 0hPa | 2.5V | 00:00:00 | 01:56:50 | 00:00:00 | |
| PETON7-10 | 2026-09-02 00:40:06 | 49.44130 | 18.01730 | 242° | 16km/h | 27718m | 7.7m/s | -46.9°C | 3.1% | 0hPa | 2.5V | 00:00:00 | 00:00:00 | 00:00:00 | |
| DO3MHA-11 | 2026-09-02 00:40:04 | 49.44134 | 18.01738 | 242° | 18km/h | 27705m | 5.4m/s | -46.9°C | 3.0% | 0hPa | 2.5V | 00:00:00 | 01:56:40 | 00:00:00 | |
| OE3OSB-13 | 2026-09-02 00:39:58 | 49.44120 | 18.01774 | 302° | 26km/h | 27659m | 5.2m/s | -47.0°C | 0.7% | -1.0hPa | 2.5V | 00:00:00 | 00:00:00 | 00:00:00 | |
| SP3WXH-11 | 2026-09-02 00:39:49 | 49.44122 | 18.01822 | 256° | 15km/h | 27604m | 5.2m/s | -47.3°C | 0.7% | -1.0hPa | 2.5V | 00:00:00 | 00:00:00 | 00:00:00 | |
| PG1ADW-2 | 2026-09-02 00:39:48 | 49.44122 | 18.01822 | 257° | 11km/h | 27604m | 5.1m/s | -47.2°C | 3.1% | 0hPa | 2.5V | 00:00:00 | 01:56:24 | 00:00:00 | |
| OE5MMP-10 | 2026-09-02 00:39:46 | 49.44122 | 18.01832 | 287° | 11km/h | 27592m | 7.4m/s | -47.3°C | 3.1% | 0hPa | 2.5V | 00:00:00 | 01:56:22 | 00:00:00 | |
| DO3MHA-11 | 2026-09-02 00:39:44 | 49.44119 | 18.01836 | 324° | 13km/h | 27579m | 5.7m/s | -47.3°C | 3.2% | 0hPa | 2.5V | 00:00:00 | 01:56:20 | 00:00:00 | |
| OE5DRO-10 | 2026-09-02 00:39:41 | 49.44116 | 18.01846 | 256° | 11km/h | 27560m | 4.9m/s | -47.4°C | 3.2% | 0hPa | 2.5V | 00:00:00 | 00:00:00 | 08:30:00 | |
| HA6NAB-11 | 2026-09-02 00:39:38 | 49.44120 | 18.01851 | 197° | 13km/h | 27548m | 7.8m/s | -47.5°C | 0.8% | 0hPa | 2.5V | 00:00:00 | 00:00:00 | 00:00:00 | |
| OE5MMP-10 | 2026-09-02 00:39:36 | 49.44132 | 18.01850 | 175° | 7km/h | 27528m | 5.5m/s | -47.4°C | 3.2% | 0hPa | 2.5V | 00:00:00 | 01:56:12 | 08:30:00 | |
| DO3MHA-11 | 2026-09-02 00:39:34 | 49.44138 | 18.01851 | 217° | 7km/h | 27515m | 6.4m/s | -47.4°C | 3.2% | 0hPa | 2.5V | 00:00:00 | 01:56:10 | 00:00:00 | |
| HA6NAB-11 | 2026-09-02 00:39:32 | 49.44139 | 18.01854 | 246° | 7km/h | 27509m | 5.7m/s | -47.4°C | 0.8% | 0hPa | 2.5V | 00:00:00 | 00:00:00 | 00:00:00 | |
| PG1ADW-2 | 2026-09-02 00:39:28 | 49.44142 | 18.01858 | 184° | 11km/h | 27477m | 5.9m/s | -47.3°C | 3.1% | 0hPa | 2.5V | 00:00:00 | 00:00:00 | 00:00:00 | |
| OE5DXL-15 | 2026-09-02 00:39:26 | 49.44146 | 18.01861 | 207° | 13km/h | 27463m | 6.4m/s | -47.3°C | 3.1% | 0hPa | 2.5V | 00:00:00 | 00:00:00 | 00:00:00 | |
| DO3MHA-11 | 2026-09-02 00:39:24 | 49.44152 | 18.01863 | 180° | 13km/h | 27452m | 6.4m/s | -47.3°C | 3.1% | 0hPa | 2.6V | 00:00:00 | 01:56:00 | 00:00:00 | |
| OE5DRO-10 | 2026-09-02 00:39:22 | 49.44158 | 18.01859 | 131° | 11km/h | 27438m | 6.1m/s | -47.3°C | 3.1% | 0hPa | 2.6V | 00:00:00 | 00:00:00 | 00:00:00 | |
| PETON7-10 | 2026-09-02 00:39:21 | 49.44159 | 18.01856 | 108° | 11km/h | 27432m | 6.2m/s | -47.3°C | 3.1% | 0hPa | 2.6V | 00:00:00 | 00:00:00 | 00:00:00 | |
| HA6NAB-11 | 2026-09-02 00:39:20 | 49.44159 | 18.01856 | 108° | 9km/h | 27432m | 6.3m/s | -47.4°C | 0.8% | 0hPa | 2.6V | 00:00:00 | 00:00:00 | 00:00:00 | |
| SP3WXH-11 | 2026-09-02 00:39:18 | 49.44152 | 18.01845 | 29° | 15km/h | 27406m | 6.0m/s | -47.4°C | 0.7% | -1.0hPa | 2.6V | 00:00:00 | 00:00:00 | 00:00:00 | |
| OE5MMP-10 | 2026-09-02 00:39:16 | 49.44149 | 18.01842 | 40° | 9km/h | 27400m | 6.9m/s | -47.4°C | 3.1% | 0hPa | 2.6V | 00:00:00 | 01:55:52 | 00:00:00 | |
| DO3MHA-11 | 2026-09-02 00:39:14 | 49.44145 | 18.01834 | 68° | 9km/h | 27388m | 5.7m/s | -47.5°C | 3.1% | 0hPa | 2.6V | 00:00:00 | 01:55:50 | 00:00:00 | |
| OE5MMP-10 | 2026-09-02 00:39:06 | 49.44153 | 18.01818 | 48° | 15km/h | 27338m | 6.5m/s | -47.5°C | 3.2% | 0hPa | 2.6V | 00:00:00 | 01:55:42 | 00:00:00 | |
| DO3MHA-11 | 2026-09-02 00:39:04 | 49.44146 | 18.01814 | 8° | 15km/h | 27324m | 5.8m/s | -47.5°C | 3.1% | 0hPa | 2.6V | 00:00:00 | 01:55:40 | 00:00:00 | |
| OE5DRO-10 | 2026-09-02 00:39:03 | 49.44141 | 18.01813 | 8° | 18km/h | 27318m | 5.6m/s | -47.5°C | 3.1% | 0hPa | 2.6V | 00:00:00 | 00:00:00 | 00:00:00 | |
| OE3OSB-13 | 2026-09-02 00:38:55 | 49.44114 | 18.01808 | 29° | 9km/h | 27266m | 6.9m/s | -47.9°C | 0.7% | -1.0hPa | 2.6V | 00:00:00 | 00:00:00 | 00:00:00 | |
| SP3WXH-11 | 2026-09-02 00:38:47 | 49.44070 | 18.01805 | 352° | 26km/h | 27211m | 4.8m/s | -48.0°C | 0.8% | -1.0hPa | 2.6V | 00:00:00 | 00:00:00 | 00:00:00 | |
| PG1ADW-2 | 2026-09-02 00:38:46 | 49.44070 | 18.01805 | 353° | 13km/h | 27211m | 4.8m/s | -48.0°C | 3.2% | 0hPa | 2.6V | 00:00:00 | 00:00:00 | 08:30:00 | |
| HA6NAB-11 | 2026-09-02 00:38:45 | 49.44070 | 18.01805 | 354° | 26km/h | 27211m | 4.8m/s | -48.0°C | 0.8% | 0hPa | 2.5V | 00:00:00 | 00:00:00 | 00:00:00 | |
| DO3MHA-11 | 2026-09-02 00:38:44 | 49.44058 | 18.01810 | 333° | 15km/h | 27199m | 6.5m/s | -48.1°C | 3.2% | 0hPa | 2.5V | 00:00:00 | 01:55:20 | 00:00:00 | |
| HA6NAB-11 | 2026-09-02 00:38:39 | 49.44044 | 18.01823 | 357° | 9km/h | 27176m | 6.7m/s | -48.2°C | 0.8% | 0hPa | 2.5V | 00:00:00 | 00:00:00 | 00:00:00 | |
| OE5MMP-10 | 2026-09-02 00:38:36 | 49.44034 | 18.01824 | 332° | 20km/h | 27153m | 6.8m/s | -48.3°C | 3.2% | 0hPa | 2.5V | 00:00:00 | 01:55:12 | 00:00:00 | |
| DO3MHA-11 | 2026-09-02 00:38:34 | 49.44024 | 18.01834 | 326° | 16km/h | 27140m | 6.1m/s | -48.4°C | 3.2% | 0hPa | 2.6V | 00:00:00 | 01:55:10 | 00:00:00 | |
| NBG1-10 | 2026-09-02 00:38:32 | 49.44012 | 18.01844 | 337° | 13km/h | 27128m | 5.3m/s | -48.4°C | 3.3% | 0hPa | 2.6V | 00:00:00 | 01:55:08 | 00:00:00 | |
| HA6NAB-11 | 2026-09-02 00:38:29 | 49.44002 | 18.01851 | 337° | 16km/h | 27118m | 4.5m/s | -48.5°C | 0.9% | 0hPa | 2.6V | 00:00:00 | 00:00:00 | 00:00:00 | |
| OE5MMP-10 | 2026-09-02 00:38:26 | 49.43999 | 18.01863 | 216° | 7km/h | 27095m | 5.3m/s | -48.4°C | 3.2% | 0hPa | 2.6V | 00:00:00 | 01:55:02 | 00:00:00 | |
| OE5DRO-10 | 2026-09-02 00:38:25 | 49.44001 | 18.01864 | 184° | 9km/h | 27088m | 6.4m/s | -48.4°C | 3.3% | 0hPa | 2.6V | 00:00:00 | 00:00:00 | 00:00:00 | |
| DO3MHA-11 | 2026-09-02 00:38:24 | 49.44003 | 18.01863 | 148° | 7km/h | 27082m | 7.1m/s | -48.4°C | 3.2% | 0hPa | 2.6V | 00:00:00 | 01:55:00 | 08:30:00 | |
| HA6NAB-11 | 2026-09-02 00:38:23 | 49.44003 | 18.01863 | 149° | 7km/h | 27082m | 7.1m/s | -48.5°C | 0.8% | 0hPa | 2.6V | 00:00:00 | 00:00:00 | 00:00:00 | |
| PETON7-10 | 2026-09-02 00:38:21 | 49.44003 | 18.01859 | 355° | 9km/h | 27063m | 6.7m/s | -48.5°C | 3.3% | 0hPa | 2.6V | 00:00:00 | 01:54:57 | 00:00:00 | |
| HA6NAB-11 | 2026-09-02 00:38:17 | 49.43998 | 18.01866 | 322° | 13km/h | 27047m | 4.8m/s | -48.6°C | 0.8% | 0hPa | 2.6V | 00:00:00 | 00:00:00 | 00:00:00 | |
| SP3WXH-11 | 2026-09-02 00:38:16 | 49.43993 | 18.01870 | 41° | 0km/h | 27029m | 5.1m/s | -48.8°C | 0.8% | -1.0hPa | 2.6V | 00:00:00 | 00:00:00 | 00:00:00 | |
| PG1ADW-2 | 2026-09-02 00:38:15 | 49.43993 | 18.01869 | 42° | 11km/h | 27029m | 5.1m/s | -48.8°C | 3.3% | 0hPa | 2.6V | 00:00:00 | 01:54:51 | 00:00:00 | |
| DO3MHA-11 | 2026-09-02 00:38:13 | 49.43995 | 18.01869 | 188° | 11km/h | 27018m | 6.6m/s | -48.8°C | 3.3% | 0hPa | 2.6V | 00:00:00 | 01:54:49 | 00:00:00 | |
| PETON7-10 | 2026-09-02 00:38:06 | 49.44017 | 18.01869 | 159° | 9km/h | 26978m | 4.9m/s | -48.9°C | 3.3% | 0hPa | 2.6V | 00:00:00 | 00:00:00 | 08:30:00 | |
| DO3MHA-11 | 2026-09-02 00:38:03 | 49.44023 | 18.01872 | 209° | 11km/h | 26960m | 5.7m/s | -48.9°C | 3.3% | 0hPa | 2.5V | 00:00:00 | 01:54:39 | 00:00:00 | |
| OE5MMP-10 | 2026-09-02 00:37:56 | 49.44042 | 18.01865 | 166° | 7km/h | 26918m | 6.1m/s | -49.2°C | 3.3% | 0hPa | 2.5V | 00:00:00 | 01:54:32 | 00:00:00 | |
| PG1ADW-2 | 2026-09-02 00:37:55 | 49.44045 | 18.01864 | 166° | 5km/h | 26913m | 5.2m/s | -49.2°C | 3.3% | 0hPa | 2.5V | 00:00:00 | 00:00:00 | 00:00:00 | |
| DO3MHA-11 | 2026-09-02 00:37:53 | 49.44049 | 18.01862 | 138° | 5km/h | 26901m | 6.8m/s | -49.3°C | 3.3% | 0hPa | 2.5V | 00:00:00 | 01:54:29 | 00:00:00 | |
| PETON7-10 | 2026-09-02 00:37:51 | 49.44050 | 18.01859 | 173° | 5km/h | 26889m | 5.0m/s | -49.4°C | 3.4% | 0hPa | 2.5V | 00:00:00 | 00:00:00 | 00:00:00 | |
| OE5DRO-10 | 2026-09-02 00:37:47 | 49.44054 | 18.01868 | 248° | 7km/h | 26867m | 5.6m/s | -49.6°C | 3.4% | 0hPa | 2.5V | 00:00:00 | 00:00:00 | 00:00:00 | |
| OE5MMP-10 | 2026-09-02 00:37:46 | 49.44055 | 18.01869 | 231° | 5km/h | 26861m | 6.3m/s | -49.7°C | 3.4% | 0hPa | 2.6V | 00:00:00 | 01:54:22 | 00:00:00 | |
| SP3WXH-11 | 2026-09-02 00:37:45 | 49.44055 | 18.01867 | 114° | 5km/h | 26849m | 5.5m/s | -49.8°C | 0.8% | -1.0hPa | 2.6V | 00:00:00 | 00:00:00 | 00:00:00 | |
| DO3MHA-11 | 2026-09-02 00:37:43 | 49.44056 | 18.01865 | 135° | 7km/h | 26844m | 5.8m/s | -49.8°C | 3.4% | 0hPa | 2.6V | 00:00:00 | 01:54:19 | 00:00:00 | |
| HA6NAB-11 | 2026-09-02 00:37:42 | 49.44058 | 18.01864 | 155° | 7km/h | 26837m | 6.4m/s | -50.0°C | 0.9% | 0hPa | 2.6V | 00:00:00 | 00:00:00 | 00:00:00 | |
| NBG1-10 | 2026-09-02 00:37:37 | 49.44063 | 18.01860 | 356° | 7km/h | 26810m | 4.8m/s | -50.1°C | 3.6% | 0hPa | 2.6V | 00:00:00 | 01:54:13 | 00:00:00 | |
| PETON7-10 | 2026-09-02 00:37:36 | 49.44062 | 18.01861 | 319° | 9km/h | 26805m | 5.0m/s | -50.1°C | 3.5% | 0hPa | 2.5V | 00:00:00 | 01:54:12 | 00:00:00 | |
| PG1ADW-2 | 2026-09-02 00:37:35 | 49.44060 | 18.01864 | 295° | 7km/h | 26800m | 6.3m/s | -50.2°C | 3.5% | 0hPa | 2.5V | 00:00:00 | 00:00:00 | 00:00:00 | |
| DO3MHA-11 | 2026-09-02 00:37:33 | 49.44059 | 18.01874 | 270° | 11km/h | 26787m | 5.3m/s | -50.2°C | 3.6% | 0hPa | 2.5V | 00:00:00 | 01:54:09 | 00:00:00 | |
| HA6NAB-11 | 2026-09-02 00:37:30 | 49.44059 | 18.01884 | 287° | 11km/h | 26777m | 5.3m/s | -50.3°C | 0.9% | 0hPa | 2.5V | 00:00:00 | 00:00:00 | 00:00:00 | |
| OE5DRO-10 | 2026-09-02 00:37:28 | 49.44052 | 18.01890 | 358° | 5km/h | 26760m | 4.8m/s | -50.3°C | 3.6% | 0hPa | 2.5V | 00:00:00 | 00:00:00 | 00:00:00 | |
| OE5MMP-10 | 2026-09-02 00:37:26 | 49.44047 | 18.01891 | 350° | 5km/h | 26749m | 6.3m/s | -50.3°C | 3.6% | 0hPa | 2.5V | 00:00:00 | 01:54:02 | 00:00:00 | |
| HA6NAB-11 | 2026-09-02 00:37:25 | 49.44047 | 18.01891 | 350° | 9km/h | 26749m | 6.3m/s | -50.4°C | 0.9% | 0hPa | 2.5V | 00:00:00 | 00:00:00 | 00:00:00 | |
| DO3MHA-11 | 2026-09-02 00:37:23 | 49.44044 | 18.01892 | 107° | 5km/h | 26732m | 5.4m/s | -50.3°C | 3.6% | 0hPa | 2.5V | 00:00:00 | 01:53:59 | 00:00:00 | |
| OE3OSB-13 | 2026-09-02 00:37:22 | 49.44044 | 18.01891 | 77° | 4km/h | 26726m | 5.8m/s | -50.4°C | 0.8% | -1.0hPa | 2.6V | 00:00:00 | 00:00:00 | 00:00:00 | |
| PETON7-10 | 2026-09-02 00:37:21 | 49.44043 | 18.01889 | 60° | 7km/h | 26720m | 6.2m/s | -50.4°C | 3.6% | 0hPa | 2.6V | 00:00:00 | 00:00:00 | 00:00:00 | |
| HA6NAB-11 | 2026-09-02 00:37:20 | 49.44044 | 18.01889 | 61° | 7km/h | 26720m | 6.3m/s | -50.4°C | 0.9% | 0hPa | 2.5V | 00:00:00 | 00:00:00 | 00:00:00 | |
| OE5MMP-10 | 2026-09-02 00:37:16 | 49.44038 | 18.01888 | 274° | 7km/h | 26690m | 5.2m/s | -50.4°C | 3.6% | 0hPa | 2.5V | 00:00:00 | 01:53:52 | 00:00:00 | |
| PG1ADW-2 | 2026-09-02 00:37:15 | 49.44038 | 18.01890 | 276° | 7km/h | 26685m | 5.4m/s | -50.4°C | 3.6% | 0hPa | 2.5V | 00:00:00 | 00:00:00 | 00:00:00 | |
| HA6NAB-11 | 2026-09-02 00:37:14 | 49.44038 | 18.01890 | 277° | 5km/h | 26685m | 5.4m/s | -50.4°C | 0.9% | 0hPa | 2.5V | 00:00:00 | 00:00:00 | 00:00:00 | |
| DO3MHA-11 | 2026-09-02 00:37:13 | 49.44038 | 18.01891 | 55° | 7km/h | 26672m | 5.6m/s | -50.3°C | 3.6% | 0hPa | 2.5V | 00:00:00 | 01:53:49 | 00:00:00 | |
| OE5DRO-10 | 2026-09-02 00:37:09 | 49.44040 | 18.01882 | 123° | 7km/h | 26648m | 5.7m/s | -50.4°C | 3.6% | 0hPa | 2.5V | 00:00:00 | 00:00:00 | 00:00:00 | |
| OK1SLM-15 | 2026-09-02 00:37:08 | 49.44041 | 18.01878 | 108° | 9km/h | 26643m | 5.9m/s | -50.5°C | 0% | 0hPa | 2.5V | 00:00:00 | 00:00:00 | 00:00:00 | |
| OE5MMP-10 | 2026-09-02 00:37:06 | 49.44040 | 18.01871 | 70° | 5km/h | 26630m | 5.5m/s | -50.5°C | 3.6% | 0hPa | 2.5V | 00:00:00 | 01:53:42 | 00:00:00 | |
| DO3MHA-11 | 2026-09-02 00:37:03 | 49.44039 | 18.01865 | 221° | 5km/h | 26614m | 7.1m/s | -50.6°C | 3.6% | 0hPa | 2.5V | 00:00:00 | 01:53:39 | 00:00:00 | |
| OK1SLM-15 | 2026-09-02 00:37:02 | 49.44039 | 18.01865 | 0° | 0km/h | 26614m | 7.1m/s | -50.6°C | 0% | 0hPa | 2.5V | 00:00:00 | 00:00:00 | 00:00:00 | |
| OE5DXL-15 | 2026-09-02 00:36:56 | 49.44039 | 18.01873 | 96° | 7km/h | 26571m | 6.8m/s | -50.7°C | 3.6% | 0hPa | 2.5V | 00:00:00 | 00:00:00 | 00:00:00 | |
| PG1ADW-2 | 2026-09-02 00:36:55 | 49.44040 | 18.01870 | 118° | 5km/h | 26565m | 6.1m/s | -50.7°C | 3.6% | 0hPa | 2.5V | 00:00:00 | 01:53:31 | 00:00:00 | |
| DO3MHA-11 | 2026-09-02 00:36:53 | 49.44042 | 18.01865 | 109° | 7km/h | 26554m | 5.2m/s | -50.8°C | 3.7% | 0hPa | 2.5V | 00:00:00 | 01:53:29 | 08:30:00 | |
| PETON7-10 | 2026-09-02 00:36:51 | 49.44041 | 18.01859 | 66° | 7km/h | 26541m | 6.0m/s | -50.8°C | 3.6% | 0hPa | 2.5V | 00:00:00 | 01:53:27 | 00:00:00 | |
| OE5DRO-10 | 2026-09-02 00:36:50 | 49.44040 | 18.01856 | 64° | 7km/h | 26536m | 4.7m/s | -50.8°C | 3.6% | 0hPa | 2.5V | 00:00:00 | 00:00:00 | 08:30:00 | |
| NBG1-10 | 2026-09-02 00:36:46 | 49.44044 | 18.01849 | 151° | 11km/h | 26512m | 5.0m/s | -50.8°C | 3.6% | 0hPa | 2.5V | 00:00:00 | 01:53:22 | 00:00:00 | |
| DO3MHA-11 | 2026-09-02 00:36:43 | 49.44046 | 18.01844 | 89° | 9km/h | 26493m | 4.9m/s | -50.7°C | 3.6% | 0hPa | 2.5V | 00:00:00 | 01:53:19 | 00:00:00 | |
| SP3WXH-11 | 2026-09-02 00:36:42 | 49.44046 | 18.01842 | 98° | 2km/h | 26487m | 6.7m/s | -50.7°C | 0.9% | -1.0hPa | 2.5V | 00:00:00 | 00:00:00 | 00:00:00 | |
| DO3MHA-11 | 2026-09-02 00:36:32 | 49.44023 | 18.01839 | 348° | 9km/h | 26423m | 6.1m/s | -51.0°C | 3.7% | 0hPa | 2.5V | 00:00:00 | 01:53:08 | 00:00:00 | |
| OE5DRO-10 | 2026-09-02 00:36:31 | 49.44021 | 18.01839 | 349° | 15km/h | 26416m | 7.0m/s | -51.0°C | 3.7% | 0hPa | 2.5V | 00:00:00 | 00:00:00 | 00:00:00 | |
| OE5MMP-10 | 2026-09-02 00:36:26 | 49.44018 | 18.01844 | 294° | 18km/h | 26385m | 4.4m/s | -51.2°C | 3.7% | 0hPa | 2.5V | 00:00:00 | 01:53:02 | 00:00:00 | |
| DO3MHA-11 | 2026-09-02 00:36:22 | 49.44005 | 18.01857 | 332° | 22km/h | 26361m | 5.7m/s | -51.5°C | 3.8% | 0hPa | 2.5V | 00:00:00 | 01:52:58 | 00:00:00 | |
| PETON7-10 | 2026-09-02 00:36:21 | 49.43999 | 18.01862 | 325° | 20km/h | 26354m | 7.1m/s | -51.5°C | 3.9% | 0hPa | 2.5V | 00:00:00 | 00:00:00 | 00:00:00 | |
| OE3OSB-13 | 2026-09-02 00:36:20 | 49.43996 | 18.01868 | 309° | 18km/h | 26347m | 6.6m/s | -51.5°C | 1.0% | -1.0hPa | 2.5V | 00:00:00 | 00:00:00 | 00:00:00 | |
| OE5MMP-10 | 2026-09-02 00:36:16 | 49.43991 | 18.01895 | 275° | 22km/h | 26322m | 6.4m/s | -51.3°C | 3.9% | 0hPa | 2.5V | 00:00:00 | 01:52:52 | 00:00:00 | |
| DO3MHA-11 | 2026-09-02 00:36:12 | 49.43994 | 18.01932 | 253° | 24km/h | 26298m | 5.9m/s | -51.2°C | 3.9% | 0hPa | 2.5V | 00:00:00 | 01:52:48 | 00:00:00 | |
| SP3WXH-11 | 2026-09-02 00:36:11 | 49.43995 | 18.01940 | 255° | 20km/h | 26292m | 4.4m/s | -51.2°C | 0.9% | -1.0hPa | 2.5V | 00:00:00 | 00:00:00 | 00:00:00 | |
| OK1SLM-15 | 2026-09-02 00:36:08 | 49.43995 | 18.01953 | 296° | 16km/h | 26280m | 7.8m/s | -51.1°C | 0% | 0hPa | 2.5V | 00:00:00 | 00:00:00 | 00:00:00 | |
| OE5MMP-10 | 2026-09-02 00:36:06 | 49.43985 | 18.01969 | 311° | 24km/h | 26261m | 7.2m/s | -51.0°C | 3.8% | 0hPa | 2.5V | 00:00:00 | 01:52:42 | 00:00:00 | |
| PG1ADW-2 | 2026-09-02 00:36:02 | 49.43978 | 18.02004 | 277° | 22km/h | 26235m | 6.9m/s | -50.8°C | 3.8% | 0hPa | 2.5V | 00:00:00 | 00:00:00 | 00:00:00 | |
| DO3MHA-11 | 2026-09-02 00:35:59 | 49.43982 | 18.02031 | 239° | 22km/h | 26216m | 7.9m/s | -50.6°C | 3.7% | 0hPa | 2.5V | 00:00:00 | 01:52:35 | 00:00:00 | |
| HA6NAB-11 | 2026-09-02 00:35:57 | 49.43986 | 18.02039 | 230° | 26km/h | 26209m | 5.9m/s | -50.7°C | 1.0% | 0hPa | 2.5V | 00:00:00 | 00:00:00 | 00:00:00 | |
| OE5MMP-10 | 2026-09-02 00:35:56 | 49.43993 | 18.02052 | 238° | 20km/h | 26198m | 6.4m/s | -50.6°C | 3.7% | 0hPa | 2.5V | 00:00:00 | 01:52:32 | 00:00:00 | |
| OE5DRO-10 | 2026-09-02 00:35:53 | 49.43991 | 18.02069 | 300° | 18km/h | 26180m | 5.9m/s | -50.5°C | 3.7% | 0hPa | 2.5V | 00:00:00 | 00:00:00 | 00:00:00 | |
| PETON7-10 | 2026-09-02 00:35:51 | 49.43986 | 18.02085 | 287° | 18km/h | 26167m | 6.4m/s | -50.4°C | 3.7% | 0hPa | 2.6V | 00:00:00 | 00:00:00 | 08:30:00 | |
| DO3MHA-11 | 2026-09-02 00:35:49 | 49.43985 | 18.02103 | 265° | 18km/h | 26154m | 6.0m/s | -50.4°C | 3.7% | 0hPa | 2.5V | 00:00:00 | 01:52:25 | 00:00:00 | |
| OE5MMP-10 | 2026-09-02 00:35:46 | 49.43988 | 18.02125 | 258° | 16km/h | 26136m | 6.1m/s | -50.2°C | 3.7% | 0hPa | 2.6V | 00:00:00 | 01:52:22 | 00:00:00 | |
| PG1ADW-2 | 2026-09-02 00:35:42 | 49.43993 | 18.02152 | 256° | 15km/h | 26111m | 4.1m/s | -50.1°C | 3.6% | 0hPa | 2.6V | 00:00:00 | 00:00:00 | 00:00:00 | |
| SP3WXH-11 | 2026-09-02 00:35:40 | 49.43994 | 18.02165 | 282° | 13km/h | 26100m | 7.6m/s | -50.0°C | 0.9% | -1.0hPa | 2.6V | 00:00:00 | 00:00:00 | 00:00:00 | |
| DO3MHA-11 | 2026-09-02 00:35:39 | 49.43992 | 18.02170 | 302° | 15km/h | 26093m | 6.3m/s | -49.9°C | 3.6% | 0hPa | 2.6V | 00:00:00 | 01:52:15 | 00:00:00 | |
| PETON7-10 | 2026-09-02 00:35:36 | 49.43987 | 18.02186 | 281° | 13km/h | 26074m | 6.5m/s | -49.8°C | 3.5% | 0hPa | 2.6V | 00:00:00 | 00:00:00 | 00:00:00 | |
| OE5DRO-10 | 2026-09-02 00:35:34 | 49.43988 | 18.02197 | 252° | 13km/h | 26061m | 6.9m/s | -49.7°C | 3.5% | 0hPa | 2.6V | 00:00:00 | 00:00:00 | 00:00:00 | |
| DO3MHA-11 | 2026-09-02 00:35:29 | 49.44000 | 18.02216 | 224° | 13km/h | 26028m | 6.6m/s | -49.6°C | 3.5% | 0hPa | 2.6V | 00:00:00 | 01:52:05 | 00:00:00 | |
| OE5DXL-15 | 2026-09-02 00:35:26 | 49.44007 | 18.02231 | 260° | 11km/h | 26012m | 6.7m/s | -49.6°C | 3.5% | 0hPa | 2.6V | 00:00:00 | 00:00:00 | 00:00:00 | |
| PG1ADW-2 | 2026-09-02 00:35:22 | 49.43999 | 18.02236 | 339° | 11km/h | 25986m | 6.8m/s | -49.7°C | 3.5% | 0hPa | 2.6V | 00:00:00 | 01:51:58 | 08:30:00 | |
| PETON7-10 | 2026-09-02 00:35:21 | 49.43996 | 18.02239 | 315° | 11km/h | 25979m | 6.7m/s | -49.7°C | 3.5% | 0hPa | 2.5V | 00:00:00 | 01:51:57 | 00:00:00 | |
| DO3MHA-11 | 2026-09-02 00:35:19 | 49.43994 | 18.02247 | 271° | 9km/h | 25967m | 6.4m/s | -49.7°C | 3.5% | 0hPa | 2.5V | 00:00:00 | 01:51:55 | 08:30:00 | |
| OE3OSB-13 | 2026-09-02 00:35:18 | 49.43996 | 18.02255 | 226° | 9km/h | 25953m | 5.8m/s | -49.7°C | 0.9% | -1.0hPa | 2.6V | 00:00:00 | 00:00:00 | 00:00:00 | |
| OE5MMP-10 | 2026-09-02 00:35:16 | 49.43998 | 18.02258 | 222° | 9km/h | 25948m | 5.3m/s | -49.6°C | 3.5% | 0hPa | 2.6V | 00:00:00 | 01:51:52 | 00:00:00 | |
| OE5DRO-10 | 2026-09-02 00:35:15 | 49.44000 | 18.02261 | 224° | 11km/h | 25941m | 7.1m/s | -49.6°C | 3.5% | 0hPa | 2.6V | 00:00:00 | 00:00:00 | 00:00:00 | |
| DO3MHA-11 | 2026-09-02 00:35:09 | 49.44001 | 18.02257 | 51° | 11km/h | 25905m | 5.4m/s | -49.5°C | 3.5% | 0hPa | 2.6V | 00:00:00 | 01:51:45 | 00:00:00 | |
| OE5MMP-10 | 2026-09-02 00:35:06 | 49.43996 | 18.02251 | 345° | 13km/h | 25886m | 5.3m/s | -49.6°C | 3.5% | 0hPa | 2.6V | 00:00:00 | 01:51:42 | 08:30:00 | |
| OK1SLM-15 | 2026-09-02 00:35:03 | 49.43998 | 18.02251 | 168° | 9km/h | 25873m | 7.3m/s | -49.6°C | 0% | 0hPa | 2.6V | 00:00:00 | 00:00:00 | 00:00:00 | |
| OE3OSB-13 | 2026-09-02 00:34:48 | 49.44044 | 18.02218 | 202° | 13km/h | 25764m | 7.1m/s | -49.9°C | 0.9% | -1.0hPa | 2.6V | 00:00:00 | 00:00:00 | 00:00:00 | |
| OE5MMP-10 | 2026-09-02 00:34:47 | 49.44044 | 18.02218 | 203° | 13km/h | 25764m | 7.0m/s | -49.9°C | 3.5% | 0hPa | 2.6V | 00:00:00 | 01:51:22 | 00:00:00 | |
| PG1ADW-2 | 2026-09-02 00:34:42 | 49.44053 | 18.02215 | 111° | 11km/h | 25740m | 7.2m/s | -50.1°C | 3.5% | 0hPa | 2.6V | 00:00:00 | 00:00:00 | 00:00:00 | |
| DO3MHA-11 | 2026-09-02 00:34:39 | 49.44056 | 18.02195 | 107° | 7km/h | 25722m | 6.5m/s | -50.1°C | 3.5% | 0hPa | 2.6V | 00:00:00 | 01:51:15 | 00:00:00 | |
| SP3WXH-11 | 2026-09-02 00:34:38 | 49.44058 | 18.02190 | 124° | 11km/h | 25716m | 5.6m/s | -50.1°C | 0.9% | -1.0hPa | 2.6V | 00:00:00 | 00:00:00 | 00:00:00 | |
| OE5DRO-10 | 2026-09-02 00:34:37 | 49.44060 | 18.02187 | 152° | 9km/h | 25711m | 4.7m/s | -50.1°C | 3.5% | 0hPa | 2.6V | 00:00:00 | 00:00:00 | 00:00:00 | |
| OE5MMP-10 | 2026-09-02 00:34:36 | 49.44063 | 18.02186 | 163° | 7km/h | 25706m | 5.6m/s | -50.1°C | 3.6% | 0hPa | 2.6V | 00:00:00 | 01:51:12 | 00:00:00 | |
| DO3MHA-11 | 2026-09-02 00:34:29 | 49.44071 | 18.02185 | 353° | 9km/h | 25665m | 6.2m/s | -50.1°C | 3.5% | 0hPa | 2.5V | 00:00:00 | 01:51:05 | 00:00:00 | |
| OE5DXL-15 | 2026-09-02 00:34:26 | 49.44069 | 18.02178 | 77° | 9km/h | 25649m | 4.6m/s | -50.1°C | 3.5% | 0hPa | 2.5V | 00:00:00 | 00:00:00 | 00:00:00 | |
| HA6NAB-11 | 2026-09-02 00:34:23 | 49.44067 | 18.02170 | 62° | 13km/h | 25637m | 6.0m/s | -50.2°C | 0.9% | 0hPa | 2.5V | 00:00:00 | 00:00:00 | 00:00:00 | |
| PG1ADW-2 | 2026-09-02 00:34:22 | 49.44064 | 18.02162 | 68° | 9km/h | 25625m | 5.0m/s | -50.2°C | 3.5% | 0hPa | 2.5V | 00:00:00 | 00:00:00 | 00:00:00 | |
| PETON7-10 | 2026-09-02 00:34:21 | 49.44064 | 18.02158 | 83° | 11km/h | 25620m | 6.6m/s | -50.2°C | 3.5% | 0hPa | 2.6V | 00:00:00 | 00:00:00 | 00:00:00 | |
| DO3MHA-11 | 2026-09-02 00:34:19 | 49.44064 | 18.02149 | 90° | 13km/h | 25608m | 4.6m/s | -50.3°C | 3.6% | 0hPa | 2.6V | 00:00:00 | 01:50:55 | 00:00:00 | |
| OE5DRO-10 | 2026-09-02 00:34:18 | 49.44064 | 18.02145 | 69° | 9km/h | 25604m | 5.2m/s | -50.3°C | 3.5% | 0hPa | 2.5V | 00:00:00 | 00:00:00 | 00:00:00 | |
| HA6NAB-11 | 2026-09-02 00:34:17 | 49.44064 | 18.02145 | 70° | 9km/h | 25604m | 5.3m/s | -50.4°C | 0.9% | 0hPa | 2.5V | 00:00:00 | 00:00:00 | 00:00:00 | |
| OE3OSB-13 | 2026-09-02 00:34:16 | 49.44055 | 18.02140 | 356° | 16km/h | 25585m | 4.7m/s | -50.4°C | 0.9% | -1.0hPa | 2.5V | 00:00:00 | 00:00:00 | 00:00:00 | |
| HA6NAB-11 | 2026-09-02 00:34:11 | 49.44044 | 18.02142 | 345° | 9km/h | 25567m | 5.6m/s | -50.5°C | 0.9% | 0hPa | 2.5V | 00:00:00 | 00:00:00 | 00:00:00 | |
| DO3MHA-11 | 2026-09-02 00:34:09 | 49.44038 | 18.02145 | 354° | 7km/h | 25549m | 5.8m/s | -50.6°C | 3.6% | 0hPa | 2.5V | 00:00:00 | 01:50:45 | 00:00:00 | |
| SP3WXH-11 | 2026-09-02 00:34:07 | 49.44034 | 18.02144 | 47° | 5km/h | 25537m | 7.2m/s | -50.7°C | 0.9% | -1.0hPa | 2.5V | 00:00:00 | 00:00:00 | 00:00:00 | |
| PETON7-10 | 2026-09-02 00:34:06 | 49.44034 | 18.02141 | 79° | 7km/h | 25530m | 5.6m/s | -50.7°C | 3.6% | 0hPa | 2.5V | 00:00:00 | 00:00:00 | 00:00:00 | |
| HA6NAB-11 | 2026-09-02 00:34:05 | 49.44034 | 18.02141 | 80° | 7km/h | 25530m | 5.6m/s | -50.7°C | 1.0% | 0hPa | 2.5V | 00:00:00 | 00:00:00 | 00:00:00 | |
| HA6NAB-11 | 2026-09-02 00:34:00 | 49.44027 | 18.02140 | 328° | 11km/h | 25504m | 4.8m/s | -50.7°C | 1.0% | 0hPa | 2.5V | 00:00:00 | 00:00:00 | 00:00:00 | |
| DO3MHA-11 | 2026-09-02 00:33:59 | 49.44024 | 18.02144 | 324° | 5km/h | 25493m | 6.5m/s | -50.7°C | 3.6% | 0hPa | 2.5V | 00:00:00 | 01:50:35 | 00:00:00 | |
| OE5DXL-15 | 2026-09-02 00:33:56 | 49.44026 | 18.02145 | 193° | 9km/h | 25476m | 5.6m/s | -50.7°C | 3.7% | 0hPa | 2.5V | 00:00:00 | 00:00:00 | 00:00:00 | |
| OK1SLM-15 | 2026-09-02 00:33:55 | 49.44026 | 18.02145 | 194° | 7km/h | 25476m | 5.7m/s | 0°C | 0% | 0hPa | 2.5V | 00:00:00 | 00:00:00 | 00:00:00 | |
| HA6NAB-11 | 2026-09-02 00:33:54 | 49.44027 | 18.02146 | 221° | 7km/h | 25470m | 6.2m/s | -50.7°C | 1.0% | 0hPa | 2.5V | 00:00:00 | 00:00:00 | 00:00:00 | |
| DO3MHA-11 | 2026-09-02 00:33:49 | 49.44034 | 18.02157 | 219° | 9km/h | 25436m | 5.1m/s | -50.6°C | 3.7% | 0hPa | 2.5V | 00:00:00 | 01:50:25 | 08:30:00 | |
| OE5MMP-10 | 2026-09-02 00:33:46 | 49.44036 | 18.02167 | 270° | 9km/h | 25418m | 4.8m/s | -50.6°C | 3.7% | 0hPa | 2.5V | 00:00:00 | 01:50:22 | 00:00:00 | |
| OE3OSB-13 | 2026-09-02 00:33:45 | 49.44037 | 18.02175 | 248° | 9km/h | 25406m | 6.4m/s | -50.6°C | 0.9% | -1.0hPa | 2.5V | 00:00:00 | 00:00:00 | 00:00:00 | |
| PG1ADW-2 | 2026-09-02 00:33:42 | 49.44039 | 18.02182 | 243° | 9km/h | 25395m | 5.0m/s | -50.6°C | 3.6% | 0hPa | 2.5V | 00:00:00 | 00:00:00 | 00:00:00 | |
| OE5DRO-10 | 2026-09-02 00:33:40 | 49.44041 | 18.02189 | 259° | 9km/h | 25383m | 5.8m/s | -50.5°C | 3.6% | 0hPa | 2.5V | 00:00:00 | 00:00:00 | 00:00:00 | |
| DO3MHA-11 | 2026-09-02 00:33:39 | 49.44041 | 18.02193 | 257° | 11km/h | 25378m | 5.8m/s | -50.6°C | 3.6% | 0hPa | 2.5V | 00:00:00 | 01:50:15 | 00:00:00 | |
| SP3WXH-11 | 2026-09-02 00:33:37 | 49.44045 | 18.02199 | 205° | 5km/h | 25359m | 4.0m/s | -50.7°C | 0.9% | -1.0hPa | 2.5V | 00:00:00 | 00:00:00 | 00:00:00 | |
| PETON7-10 | 2026-09-02 00:33:36 | 49.44045 | 18.02199 | 206° | 11km/h | 25359m | 4.0m/s | -50.6°C | 3.6% | 0hPa | 2.5V | 00:00:00 | 00:00:00 | 08:30:00 | |
| DO3MHA-11 | 2026-09-02 00:33:29 | 49.44055 | 18.02228 | 227° | 7km/h | 25321m | 4.8m/s | -50.6°C | 3.6% | 0hPa | 2.6V | 00:00:00 | 01:50:05 | 00:00:00 | |
| PG1ADW-2 | 2026-09-02 00:33:22 | 49.44065 | 18.02234 | 146° | 7km/h | 25282m | 4.1m/s | -50.7°C | 3.6% | 0hPa | 2.6V | 00:00:00 | 00:00:00 | 00:00:00 | |
| OE5DRO-10 | 2026-09-02 00:33:21 | 49.44067 | 18.02233 | 167° | 9km/h | 25277m | 5.5m/s | -50.7°C | 3.6% | 0hPa | 2.5V | 00:00:00 | 00:00:00 | 00:00:00 | |
| DO3MHA-11 | 2026-09-02 00:33:19 | 49.44067 | 18.02236 | 284° | 7km/h | 25265m | 5.6m/s | -50.8°C | 3.6% | 0hPa | 2.5V | 00:00:00 | 01:49:55 | 00:00:00 | |
| OE5MMP-10 | 2026-09-02 00:33:16 | 49.44065 | 18.02247 | 279° | 7km/h | 25249m | 6.1m/s | -50.8°C | 3.6% | 0hPa | 2.5V | 00:00:00 | 01:49:52 | 00:00:00 | |
| OE3OSB-13 | 2026-09-02 00:33:13 | 49.44065 | 18.02253 | 321° | 2km/h | 25232m | 6.7m/s | -50.9°C | 0.9% | -1.0hPa | 2.5V | 00:00:00 | 00:00:00 | 00:00:00 | |
| DO3MHA-11 | 2026-09-02 00:33:09 | 49.44068 | 18.02248 | 154° | 11km/h | 25209m | 6.0m/s | -51.0°C | 3.7% | 0hPa | 2.5V | 00:00:00 | 01:49:45 | 00:00:00 | |
| PETON7-10 | 2026-09-02 00:33:06 | 49.44079 | 18.02245 | 188° | 11km/h | 25194m | 6.2m/s | -51.0°C | 3.7% | 0hPa | 2.5V | 00:00:00 | 01:49:42 | 00:00:00 | |
| SP3WXH-11 | 2026-09-02 00:33:05 | 49.44082 | 18.02246 | 203° | 9km/h | 25187m | 5.3m/s | -51.0°C | 0.9% | -1.0hPa | 2.5V | 00:00:00 | 00:00:00 | 00:00:00 | |
| OE5DRO-10 | 2026-09-02 00:33:02 | 49.44088 | 18.02248 | 179° | 11km/h | 25170m | 6.2m/s | -51.0°C | 3.6% | 0hPa | 2.5V | 00:00:00 | 00:00:00 | 00:00:00 | |
| PG1ADW-2 | 2026-09-02 00:33:01 | 49.44089 | 18.02248 | 167° | 11km/h | 25164m | 4.9m/s | -51.1°C | 3.7% | 0hPa | 2.5V | 00:00:00 | 00:00:00 | 00:00:00 | |
| DO3MHA-11 | 2026-09-02 00:32:59 | 49.44092 | 18.02247 | 182° | 13km/h | 25152m | 5.8m/s | -51.2°C | 3.7% | 0hPa | 2.5V | 00:00:00 | 01:49:35 | 00:00:00 | |
| OE5MMP-10 | 2026-09-02 00:32:56 | 49.44099 | 18.02246 | 172° | 13km/h | 25135m | 6.7m/s | -51.2°C | 3.7% | 0hPa | 2.5V | 00:00:00 | 01:49:32 | 00:00:00 | |
| PETON7-10 | 2026-09-02 00:32:51 | 49.44120 | 18.02247 | 182° | 11km/h | 25107m | 5.8m/s | -51.3°C | 3.7% | 0hPa | 2.5V | 00:00:00 | 00:00:00 | 00:00:00 | |
| DO3MHA-11 | 2026-09-02 00:32:49 | 49.44127 | 18.02245 | 153° | 9km/h | 25095m | 4.4m/s | -51.5°C | 3.7% | 0hPa | 2.6V | 00:00:00 | 01:49:25 | 00:00:00 | |
| NBG1-10 | 2026-09-02 00:32:47 | 49.44128 | 18.02242 | 64° | 7km/h | 25085m | 7.0m/s | -51.5°C | 3.8% | 0hPa | 2.5V | 00:00:00 | 01:49:23 | 08:30:00 | |
| OE5MMP-10 | 2026-09-02 00:32:46 | 49.44127 | 18.02240 | 37° | 11km/h | 25078m | 5.4m/s | -51.6°C | 3.7% | 0hPa | 2.6V | 00:00:00 | 01:49:22 | 00:00:00 | |
| HA6NAB-11 | 2026-09-02 00:32:44 | 49.44126 | 18.02238 | 48° | 7km/h | 25073m | 4.3m/s | -51.7°C | 1.0% | 0hPa | 2.6V | 00:00:00 | 00:00:00 | 00:00:00 | |
| OE5DRO-10 | 2026-09-02 00:32:43 | 49.44125 | 18.02234 | 124° | 11km/h | 25062m | 6.0m/s | -51.7°C | 3.8% | 0hPa | 2.6V | 00:00:00 | 00:00:00 | 00:00:00 | |
| OE3OSB-13 | 2026-09-02 00:32:42 | 49.44127 | 18.02231 | 144° | 11km/h | 25056m | 4.8m/s | -51.8°C | 1.0% | -1.0hPa | 2.6V | 00:00:00 | 00:00:00 | 00:00:00 | |
| DO3MHA-11 | 2026-09-02 00:32:39 | 49.44136 | 18.02228 | 186° | 9km/h | 25039m | 4.7m/s | -51.9°C | 3.9% | 0hPa | 2.6V | 00:00:00 | 01:49:15 | 00:00:00 | |
| PG1ADW-2 | 2026-09-02 00:32:38 | 49.44140 | 18.02228 | 189° | 11km/h | 25034m | 4.8m/s | -51.9°C | 3.9% | 0hPa | 2.6V | 00:00:00 | 01:49:14 | 00:00:00 | |
| OE5MMP-10 | 2026-09-02 00:32:36 | 49.44147 | 18.02230 | 188° | 11km/h | 25023m | 4.9m/s | -51.9°C | 3.8% | 0hPa | 2.6V | 00:00:00 | 01:49:12 | 00:00:00 | |
| SP3WXH-11 | 2026-09-02 00:32:34 | 49.44151 | 18.02232 | 259° | 4km/h | 25013m | 5.4m/s | -51.9°C | 1.0% | -1.0hPa | 2.5V | 00:00:00 | 00:00:00 | 00:00:00 | |
| HA6NAB-11 | 2026-09-02 00:32:32 | 49.44150 | 18.02234 | 323° | 9km/h | 25007m | 6.9m/s | -51.9°C | 1.0% | 0hPa | 2.5V | 00:00:00 | 00:00:00 | 00:00:00 | |
| OE5MMP-10 | 2026-09-02 00:32:26 | 49.44135 | 18.02223 | 118° | 9km/h | 24969m | 6.0m/s | -51.9°C | 3.9% | 0hPa | 2.5V | 00:00:00 | 01:49:02 | 00:00:00 | |
| OE5DRO-10 | 2026-09-02 00:32:24 | 49.44137 | 18.02222 | 192° | 9km/h | 24958m | 5.3m/s | -51.9°C | 3.8% | 0hPa | 2.5V | 00:00:00 | 00:00:00 | 00:00:00 | |
| PETON7-10 | 2026-09-02 00:32:21 | 49.44143 | 18.02225 | 215° | 9km/h | 24941m | 4.6m/s | -51.9°C | 3.9% | 0hPa | 2.5V | 00:00:00 | 01:48:57 | 00:00:00 | |
| PG1ADW-2 | 2026-09-02 00:32:18 | 49.44144 | 18.02234 | 287° | 11km/h | 24924m | 4.7m/s | -51.9°C | 3.9% | 0hPa | 2.5V | 00:00:00 | 00:00:00 | 08:30:00 | |
| OE5MMP-10 | 2026-09-02 00:32:16 | 49.44142 | 18.02242 | 314° | 9km/h | 24915m | 5.5m/s | -51.9°C | 3.9% | 0hPa | 2.5V | 00:00:00 | 01:48:52 | 00:00:00 | |
| HA6NAB-11 | 2026-09-02 00:32:15 | 49.44142 | 18.02242 | 315° | 9km/h | 24915m | 5.6m/s | -52.0°C | 1.1% | 0hPa | 2.5V | 00:00:00 | 00:00:00 | 00:00:00 | |
| NBG1-10 | 2026-09-02 00:32:13 | 49.44139 | 18.02240 | 89° | 15km/h | 24898m | 5.1m/s | -51.9°C | 3.9% | 0hPa | 2.5V | 00:00:00 | 01:48:49 | 00:00:00 | |
| DO3MHA-11 | 2026-09-02 00:32:12 | 49.44139 | 18.02237 | 104° | 13km/h | 24892m | 5.9m/s | -51.9°C | 3.9% | 0hPa | 2.5V | 00:00:00 | 01:48:48 | 00:00:00 | |
| OE3OSB-13 | 2026-09-02 00:32:11 | 49.44140 | 18.02235 | 149° | 4km/h | 24886m | 6.1m/s | -51.9°C | 1.0% | -1.0hPa | 2.5V | 00:00:00 | 00:00:00 | 00:00:00 | |
| PETON7-10 | 2026-09-02 00:32:06 | 49.44156 | 18.02235 | 192° | 13km/h | 24857m | 5.6m/s | -51.7°C | 3.9% | 0hPa | 2.5V | 00:00:00 | 00:00:00 | 00:00:00 | |
| OE5DRO-10 | 2026-09-02 00:32:05 | 49.44160 | 18.02237 | 204° | 15km/h | 24851m | 6.6m/s | -51.7°C | 3.9% | 0hPa | 2.5V | 00:00:00 | 00:00:00 | 00:00:00 | |
| SP3WXH-11 | 2026-09-02 00:32:03 | 49.44166 | 18.02242 | 200° | 9km/h | 24842m | 4.2m/s | -51.7°C | 1.0% | -1.0hPa | 2.5V | 00:00:00 | 00:00:00 | 00:00:00 | |
| DO3MHA-11 | 2026-09-02 00:32:02 | 49.44169 | 18.02242 | 174° | 11km/h | 24836m | 6.5m/s | -51.7°C | 3.8% | 0hPa | 2.5V | 00:00:00 | 01:48:38 | 08:30:00 | |
| PG1ADW-2 | 2026-09-02 00:31:58 | 49.44173 | 18.02229 | 97° | 18km/h | 24812m | 6.4m/s | -51.7°C | 3.8% | 0hPa | 2.5V | 00:00:00 | 00:00:00 | 00:00:00 | |
| OE5MMP-10 | 2026-09-02 00:31:54 | 49.44179 | 18.02215 | 153° | 20km/h | 24790m | 4.8m/s | -51.7°C | 3.9% | 0hPa | 2.5V | 00:00:00 | 01:48:30 | 00:00:00 | |
| DO3MHA-11 | 2026-09-02 00:31:52 | 49.44185 | 18.02213 | 191° | 20km/h | 24778m | 6.9m/s | -51.6°C | 3.8% | 0hPa | 2.5V | 00:00:00 | 01:48:28 | 00:00:00 | |
| PETON7-10 | 2026-09-02 00:31:51 | 49.44190 | 18.02215 | 202° | 22km/h | 24772m | 5.9m/s | -51.6°C | 3.8% | 0hPa | 2.5V | 00:00:00 | 00:00:00 | 00:00:00 | |
| OE5DRO-10 | 2026-09-02 00:31:46 | 49.44215 | 18.02213 | 142° | 24km/h | 24745m | 5.0m/s | -51.5°C | 3.8% | 0hPa | 2.5V | 00:00:00 | 00:00:00 | 00:00:00 | |
| OE5MMP-10 | 2026-09-02 00:31:44 | 49.44223 | 18.02202 | 128° | 24km/h | 24733m | 5.3m/s | -51.5°C | 3.8% | 0hPa | 2.5V | 00:00:00 | 01:48:20 | 00:00:00 | |
| DO3MHA-11 | 2026-09-02 00:31:42 | 49.44229 | 18.02192 | 144° | 24km/h | 24724m | 4.9m/s | -51.5°C | 3.7% | 0hPa | 2.5V | 00:00:00 | 01:48:18 | 00:00:00 | |
| NBG1-10 | 2026-09-02 00:31:40 | 49.44239 | 18.02184 | 163° | 20km/h | 24712m | 5.8m/s | -51.5°C | 3.7% | 0hPa | 2.5V | 00:00:00 | 01:48:16 | 00:00:00 | |
| PG1ADW-2 | 2026-09-02 00:31:38 | 49.44253 | 18.02180 | 177° | 20km/h | 24701m | 6.6m/s | -51.5°C | 3.8% | 0hPa | 2.5V | 00:00:00 | 00:00:00 | 00:00:00 | |
| PETON7-10 | 2026-09-02 00:31:36 | 49.44265 | 18.02179 | 177° | 22km/h | 24690m | 3.8m/s | -51.6°C | 3.8% | 0hPa | 2.5V | 00:00:00 | 01:48:12 | 00:00:00 | |
| OE5MMP-10 | 2026-09-02 00:31:34 | 49.44277 | 18.02175 | 157° | 24km/h | 24680m | 6.2m/s | -51.7°C | 3.9% | 0hPa | 2.5V | 00:00:00 | 01:48:10 | 00:00:00 | |
| DO3MHA-11 | 2026-09-02 00:31:32 | 49.44287 | 18.02164 | 139° | 22km/h | 24669m | 4.8m/s | -51.7°C | 3.8% | 0hPa | 2.5V | 00:00:00 | 01:48:08 | 00:00:00 | |
| OE5DRO-10 | 2026-09-02 00:31:27 | 49.44305 | 18.02132 | 129° | 18km/h | 24639m | 6.0m/s | -51.7°C | 3.9% | 0hPa | 2.5V | 00:00:00 | 00:00:00 | 00:00:00 | |
| OE5DXL-15 | 2026-09-02 00:31:26 | 49.44309 | 18.02125 | 132° | 16km/h | 24634m | 4.6m/s | -51.7°C | 3.8% | 0hPa | 2.5V | 00:00:00 | 00:00:00 | 00:00:00 | |
| OE5MMP-10 | 2026-09-02 00:31:24 | 49.44317 | 18.02112 | 141° | 20km/h | 24623m | 6.4m/s | -51.7°C | 3.8% | 0hPa | 2.5V | 00:00:00 | 01:48:00 | 00:00:00 | |
| DO3MHA-11 | 2026-09-02 00:31:22 | 49.44324 | 18.02104 | 136° | 20km/h | 24612m | 5.1m/s | -51.6°C | 3.8% | 0hPa | 2.5V | 00:00:00 | 01:47:58 | 00:00:00 | |
| PETON7-10 | 2026-09-02 00:31:21 | 49.44326 | 18.02099 | 128° | 18km/h | 24607m | 5.4m/s | -51.6°C | 3.7% | 0hPa | 2.5V | 00:00:00 | 00:00:00 | 08:30:00 | |
| OE5MMP-10 | 2026-09-02 00:31:14 | 49.44349 | 18.02055 | 140° | 15km/h | 24567m | 5.7m/s | -51.6°C | 3.7% | 0hPa | 2.6V | 00:00:00 | 01:47:50 | 00:00:00 | |
| DO3MHA-11 | 2026-09-02 00:31:12 | 49.44356 | 18.02047 | 149° | 15km/h | 24555m | 4.7m/s | -51.7°C | 3.8% | 0hPa | 2.6V | 00:00:00 | 01:47:48 | 00:00:00 | |
| OE3OSB-13 | 2026-09-02 00:31:09 | 49.44366 | 18.02045 | 196° | 13km/h | 24537m | 6.3m/s | -51.8°C | 0.9% | -1.0hPa | 2.6V | 00:00:00 | 00:00:00 | 00:00:00 | |
| OE5DRO-10 | 2026-09-02 00:31:08 | 49.44369 | 18.02047 | 194° | 13km/h | 24532m | 4.8m/s | -51.8°C | 3.8% | 0hPa | 2.6V | 00:00:00 | 00:00:00 | 08:30:00 | |
| PETON7-10 | 2026-09-02 00:31:06 | 49.44377 | 18.02046 | 156° | 13km/h | 24520m | 5.6m/s | -51.9°C | 3.8% | 0hPa | 2.5V | 00:00:00 | 00:00:00 | 00:00:00 | |
| OE5MMP-10 | 2026-09-02 00:31:04 | 49.44382 | 18.02039 | 126° | 13km/h | 24509m | 6.5m/s | -52.0°C | 3.8% | 0hPa | 2.5V | 00:00:00 | 01:47:40 | 00:00:00 | |
| SP3WXH-11 | 2026-09-02 00:31:01 | 49.44384 | 18.02026 | 92° | 13km/h | 24491m | 5.9m/s | -52.1°C | 1.0% | -1.0hPa | 2.6V | 00:00:00 | 00:00:00 | 00:00:00 | |
| HA6NAB-11 | 2026-09-02 00:30:58 | 49.44385 | 18.02014 | 103° | 16km/h | 24478m | 5.6m/s | -52.2°C | 1.1% | 0hPa | 2.6V | 00:00:00 | 00:00:00 | 00:00:00 | |
| OE5DXL-15 | 2026-09-02 00:30:56 | 49.44390 | 18.02002 | 154° | 15km/h | 24459m | 5.8m/s | -52.3°C | 3.9% | 0hPa | 2.6V | 00:00:00 | 00:00:00 | 00:00:00 | |
| OE5MMP-10 | 2026-09-02 00:30:54 | 49.44395 | 18.01998 | 153° | 16km/h | 24449m | 6.0m/s | -52.3°C | 3.9% | 0hPa | 2.6V | 00:00:00 | 01:47:30 | 00:00:00 | |
| DO3MHA-11 | 2026-09-02 00:30:52 | 49.44400 | 18.01991 | 119° | 16km/h | 24438m | 4.8m/s | -52.4°C | 3.9% | 0hPa | 2.6V | 00:00:00 | 01:47:28 | 00:00:00 | |
| PETON7-10 | 2026-09-02 00:30:51 | 49.44401 | 18.01986 | 104° | 15km/h | 24432m | 5.4m/s | -52.4°C | 4.0% | 0hPa | 2.6V | 00:00:00 | 01:47:27 | 00:00:00 | |
| OE5DRO-10 | 2026-09-02 00:30:49 | 49.44401 | 18.01976 | 67° | 16km/h | 24420m | 5.7m/s | -52.4°C | 3.9% | 0hPa | 2.6V | 00:00:00 | 00:00:00 | 00:00:00 | |
| HA6NAB-11 | 2026-09-02 00:30:46 | 49.44398 | 18.01964 | 76° | 18km/h | 24409m | 6.7m/s | -52.4°C | 1.1% | 0hPa | 2.6V | 00:00:00 | 00:00:00 | 00:00:00 | |
| OE5MMP-10 | 2026-09-02 00:30:44 | 49.44398 | 18.01940 | 99° | 13km/h | 24392m | 5.8m/s | -52.3°C | 3.9% | 0hPa | 2.6V | 00:00:00 | 01:47:20 | 00:00:00 | |
| DO3MHA-11 | 2026-09-02 00:30:42 | 49.44399 | 18.01928 | 108° | 13km/h | 24379m | 5.8m/s | -52.3°C | 3.8% | 0hPa | 2.6V | 00:00:00 | 01:47:18 | 00:00:00 | |
| HA6NAB-11 | 2026-09-02 00:30:41 | 49.44399 | 18.01928 | 108° | 13km/h | 24379m | 5.8m/s | -52.4°C | 1.0% | 0hPa | 2.6V | 00:00:00 | 00:00:00 | 00:00:00 | |
| OE3OSB-13 | 2026-09-02 00:30:38 | 49.44404 | 18.01911 | 99° | 11km/h | 24355m | 5.2m/s | -52.4°C | 1.0% | -1.0hPa | 2.6V | 00:00:00 | 00:00:00 | 00:00:00 | |
| HA6NAB-11 | 2026-09-02 00:30:36 | 49.44403 | 18.01904 | 49° | 9km/h | 24343m | 6.5m/s | -52.6°C | 1.1% | 0hPa | 2.6V | 00:00:00 | 00:00:00 | 00:00:00 | |
| OE5MMP-10 | 2026-09-02 00:30:34 | 49.44398 | 18.01897 | 44° | 16km/h | 24332m | 5.4m/s | -52.7°C | 4.0% | 0hPa | 2.6V | 00:00:00 | 01:47:10 | 08:30:00 | |
| DO3MHA-11 | 2026-09-02 00:30:32 | 49.44393 | 18.01885 | 65° | 15km/h | 24320m | 5.3m/s | -52.7°C | 4.0% | 0hPa | 2.5V | 00:00:00 | 01:47:08 | 08:30:00 | |
| PG1ADW-2 | 2026-09-02 00:30:31 | 49.44391 | 18.01877 | 69° | 11km/h | 24315m | 4.2m/s | -52.7°C | 4.0% | 0hPa | 2.5V | 00:00:00 | 01:47:07 | 00:00:00 | |
| OE5DRO-10 | 2026-09-02 00:30:30 | 49.44389 | 18.01870 | 66° | 13km/h | 24310m | 5.5m/s | -52.8°C | 4.0% | 0hPa | 2.5V | 00:00:00 | 00:00:00 | 00:00:00 | |
| OE5DXL-15 | 2026-09-02 00:30:26 | 49.44379 | 18.01854 | 37° | 15km/h | 24286m | 5.7m/s | -52.7°C | 4.0% | 0hPa | 2.5V | 00:00:00 | 00:00:00 | 00:00:00 | |
| OE5MMP-10 | 2026-09-02 00:30:23 | 49.44373 | 18.01845 | 39° | 13km/h | 24269m | 4.9m/s | -52.7°C | 4.0% | 0hPa | 2.6V | 00:00:00 | 01:46:59 | 00:00:00 | |
| DO3MHA-11 | 2026-09-02 00:30:22 | 49.44371 | 18.01844 | 20° | 11km/h | 24264m | 6.3m/s | -52.7°C | 4.0% | 0hPa | 2.6V | 00:00:00 | 01:46:58 | 00:00:00 | |
| PETON7-10 | 2026-09-02 00:30:21 | 49.44369 | 18.01843 | 354° | 13km/h | 24257m | 6.5m/s | -52.7°C | 4.0% | 0hPa | 2.6V | 00:00:00 | 00:00:00 | 00:00:00 | |
| DO3MHA-11 | 2026-09-02 00:30:12 | 49.44342 | 18.01847 | 337° | 13km/h | 24208m | 5.1m/s | -52.8°C | 4.0% | 0hPa | 2.6V | 00:00:00 | 01:46:48 | 00:00:00 | |
| OE5DRO-10 | 2026-09-02 00:30:11 | 49.44340 | 18.01849 | 338° | 18km/h | 24202m | 5.8m/s | -52.8°C | 4.0% | 0hPa | 2.6V | 00:00:00 | 00:00:00 | 00:00:00 | |
| OE5MMP-10 | 2026-09-02 00:30:09 | 49.44335 | 18.01850 | 2° | 15km/h | 24191m | 5.4m/s | -52.8°C | 4.0% | 0hPa | 2.6V | 00:00:00 | 01:46:45 | 00:00:00 | |
| OE3OSB-13 | 2026-09-02 00:30:07 | 49.44328 | 18.01849 | 9° | 16km/h | 24178m | 6.1m/s | -52.8°C | 1.0% | -1.0hPa | 2.6V | 00:00:00 | 00:00:00 | 00:00:00 | |
| PETON7-10 | 2026-09-02 00:30:06 | 49.44324 | 18.01847 | 10° | 20km/h | 24173m | 5.0m/s | -52.8°C | 3.9% | 0hPa | 2.6V | 00:00:00 | 01:46:42 | 00:00:00 | |
| DO3MHA-11 | 2026-09-02 00:30:02 | 49.44310 | 18.01849 | 332° | 22km/h | 24151m | 5.4m/s | -52.9°C | 4.0% | 0hPa | 2.6V | 00:00:00 | 01:46:38 | 00:00:00 | |
| OE5MMP-10 | 2026-09-02 00:29:59 | 49.44298 | 18.01866 | 306° | 15km/h | 24133m | 4.7m/s | -53.1°C | 4.0% | 0hPa | 2.5V | 00:00:00 | 01:46:35 | 00:00:00 | |
| NBG1-10 | 2026-09-02 00:29:57 | 49.44292 | 18.01884 | 289° | 13km/h | 24121m | 5.8m/s | -53.2°C | 4.1% | 0hPa | 2.5V | 00:00:00 | 01:46:33 | 00:00:00 | |
| OE5DXL-15 | 2026-09-02 00:29:56 | 49.44290 | 18.01892 | 287° | 13km/h | 24115m | 4.6m/s | -53.2°C | 4.1% | 0hPa | 2.5V | 00:00:00 | 00:00:00 | 00:00:00 | |
| OE5DRO-10 | 2026-09-02 00:29:52 | 49.44280 | 18.01917 | 326° | 13km/h | 24093m | 4.8m/s | -53.2°C | 4.3% | 0hPa | 2.5V | 00:00:00 | 00:00:00 | 00:00:00 | |
| PETON7-10 | 2026-09-02 00:29:51 | 49.44277 | 18.01919 | 328° | 15km/h | 24088m | 6.4m/s | -53.3°C | 4.2% | 0hPa | 2.5V | 00:00:00 | 00:00:00 | 00:00:00 | |
| PG1ADW-2 | 2026-09-02 00:29:49 | 49.44274 | 18.01923 | 316° | 13km/h | 24076m | 5.1m/s | -53.2°C | 4.2% | 0hPa | 2.5V | 00:00:00 | 00:00:00 | 00:00:00 | |
| OE5MMP-10 | 2026-09-02 00:29:44 | 49.44265 | 18.01947 | 283° | 13km/h | 24047m | 6.8m/s | -53.1°C | 4.2% | 0hPa | 2.5V | 00:00:00 | 01:46:20 | 00:00:00 | |
| DO3MHA-11 | 2026-09-02 00:29:42 | 49.44263 | 18.01964 | 280° | 13km/h | 24036m | 4.0m/s | -53.0°C | 4.2% | 0hPa | 2.5V | 00:00:00 | 01:46:18 | 00:00:00 | |
| PETON7-10 | 2026-09-02 00:29:36 | 49.44251 | 18.01979 | 87° | 9km/h | 24001m | 6.3m/s | -52.8°C | 4.1% | 0hPa | 2.5V | 00:00:00 | 00:00:00 | 00:00:00 | |
| OE5MMP-10 | 2026-09-02 00:29:34 | 49.44252 | 18.01972 | 113° | 11km/h | 23990m | 6.1m/s | -52.8°C | 4.1% | 0hPa | 2.5V | 00:00:00 | 01:46:10 | 00:00:00 | |
| OE5DRO-10 | 2026-09-02 00:29:33 | 49.44253 | 18.01969 | 117° | 9km/h | 23984m | 5.9m/s | -52.8°C | 4.1% | 0hPa | 2.5V | 00:00:00 | 00:00:00 | 00:00:00 | |
| DO3MHA-11 | 2026-09-02 00:29:32 | 49.44254 | 18.01968 | 154° | 11km/h | 23979m | 4.8m/s | 0°C | 0% | 0hPa | 2.5V | 00:00:00 | 01:46:08 | 00:00:00 | |
| PG1ADW-2 | 2026-09-02 00:29:29 | 49.44258 | 18.01973 | 243° | 11km/h | 23962m | 5.6m/s | -52.7°C | 4.0% | 0hPa | 2.7V | 00:00:00 | 00:00:00 | 00:00:00 | |
| DB0DAN | 2026-09-02 00:29:25 | 49.44256 | 18.01993 | 299° | 13km/h | 23940m | 3.9m/s | -52.7°C | 1% | 0hPa | 2.5V | 00:00:00 | 00:00:00 | 00:00:00 | |
| OE5MMP-10 | 2026-09-02 00:29:24 | 49.44255 | 18.01997 | 289° | 9km/h | 23935m | 6.0m/s | -52.6°C | 4.1% | 0hPa | 2.6V | 00:00:00 | 01:46:00 | 00:00:00 | |
| NBG1-10 | 2026-09-02 00:29:23 | 49.44255 | 18.02000 | 254° | 11km/h | 23929m | 6.3m/s | -52.6°C | 4.1% | 0hPa | 2.6V | 00:00:00 | 01:45:59 | 00:00:00 | |
| DO3MHA-11 | 2026-09-02 00:29:22 | 49.44256 | 18.02001 | 193° | 9km/h | 23923m | 5.4m/s | -52.6°C | 4.1% | 0hPa | 2.6V | 00:00:00 | 01:45:58 | 00:00:00 | |
| PETON7-10 | 2026-09-02 00:29:21 | 49.44257 | 18.02001 | 161° | 9km/h | 23917m | 6.0m/s | -52.5°C | 4.1% | 0hPa | 2.6V | 00:00:00 | 01:45:57 | 00:00:00 | |
| HA6NAB-11 | 2026-09-02 00:29:17 | 49.44263 | 18.01995 | 148° | 11km/h | 23899m | 5.6m/s | -52.5°C | 1.1% | 0hPa | 2.6V | 00:00:00 | 00:00:00 | 00:00:00 | |
| OE5MMP-10 | 2026-09-02 00:29:14 | 49.44272 | 18.01994 | 228° | 9km/h | 23876m | 6.8m/s | -52.4°C | 3.9% | 0hPa | 2.6V | 00:00:00 | 01:45:50 | 00:00:00 | |
| DB0DAN | 2026-09-02 00:29:10 | 49.44275 | 18.02008 | 227° | 9km/h | 23852m | 5.5m/s | -52.6°C | 1% | 0hPa | 2.6V | 00:00:00 | 00:00:00 | 00:00:00 | |
| PG1ADW-2 | 2026-09-02 00:29:09 | 49.44277 | 18.02009 | 186° | 13km/h | 23847m | 4.3m/s | -52.5°C | 4.0% | 0hPa | 2.7V | 00:00:00 | 01:45:45 | 00:00:00 | |
| PETON7-10 | 2026-09-02 00:29:06 | 49.44282 | 18.02002 | 113° | 13km/h | 23830m | 5.7m/s | -52.5°C | 3.9% | 0hPa | 2.7V | 00:00:00 | 00:00:00 | 08:30:00 | |
| OE3OSB-13 | 2026-09-02 00:29:05 | 49.44286 | 18.01991 | 126° | 18km/h | 23819m | 6.2m/s | -52.5°C | 1.0% | -1.0hPa | 2.6V | 00:00:00 | 00:00:00 | 00:00:00 | |
| OE5MMP-10 | 2026-09-02 00:29:04 | 49.44286 | 18.01991 | 127° | 11km/h | 23819m | 6.1m/s | -52.5°C | 4.0% | 0hPa | 2.6V | 00:00:00 | 01:45:40 | 00:00:00 | |
| SP3WXH-11 | 2026-09-02 00:28:57 | 49.44310 | 18.01970 | 164° | 11km/h | 23772m | 6.5m/s | -52.6°C | 1.0% | -1.0hPa | 2.6V | 00:00:00 | 00:00:00 | 00:00:00 | |
| DB0DAN | 2026-09-02 00:28:55 | 49.44313 | 18.01969 | 163° | 13km/h | 23766m | 4.9m/s | -52.7°C | 1% | 0hPa | 2.6V | 00:00:00 | 00:00:00 | 00:00:00 | |
| OE5DRO-10 | 2026-09-02 00:28:55 | 49.44313 | 18.01969 | 164° | 11km/h | 23766m | 4.8m/s | -52.6°C | 4.0% | 0hPa | 2.6V | 00:00:00 | 00:00:00 | 00:00:00 | |
| DO3MHA-11 | 2026-09-02 00:28:52 | 49.44320 | 18.01963 | 130° | 13km/h | 23750m | 5.8m/s | -52.7°C | 4.0% | 0hPa | 2.6V | 00:00:00 | 01:45:28 | 00:00:00 | |
| PETON7-10 | 2026-09-02 00:28:51 | 49.44321 | 18.01960 | 113° | 11km/h | 23744m | 4.7m/s | -52.7°C | 4.0% | 0hPa | 2.6V | 00:00:00 | 00:00:00 | 00:00:00 | |
| NBG1-10 | 2026-09-02 00:28:50 | 49.44322 | 18.01957 | 115° | 7km/h | 23739m | 6.4m/s | -52.7°C | 4.0% | 0hPa | 2.6V | 00:00:00 | 01:45:26 | 00:00:00 | |
| PG1ADW-2 | 2026-09-02 00:28:49 | 49.44323 | 18.01953 | 117° | 9km/h | 23733m | 5.7m/s | -52.6°C | 4.0% | 0hPa | 2.6V | 00:00:00 | 00:00:00 | 00:00:00 | |
| SQ9EZE-14 | 2026-09-02 00:28:48 | 49.44323 | 18.01953 | 117° | 13km/h | 23733m | 5.8m/s | -52.7°C | 0% | 0hPa | 2.6V | 00:00:00 | 00:00:00 | 00:00:00 | |
| DB0DAN | 2026-09-02 00:28:40 | 49.44324 | 18.01906 | 104° | 11km/h | 23681m | 6.8m/s | -52.6°C | 1% | 0hPa | 2.6V | 00:00:00 | 00:00:00 | 00:00:00 | |
| PETON7-10 | 2026-09-02 00:28:36 | 49.44327 | 18.01898 | 143° | 5km/h | 23658m | 6.1m/s | -52.5°C | 3.9% | 0hPa | 2.5V | 00:00:00 | 01:45:12 | 00:00:00 | |
| OE3OSB-13 | 2026-09-02 00:28:34 | 49.44329 | 18.01893 | 74° | 4km/h | 23642m | 6.4m/s | -52.6°C | 1.0% | -1.0hPa | 2.5V | 00:00:00 | 00:00:00 | 00:00:00 | |
| DO3MHA-11 | 2026-09-02 00:28:32 | 49.44328 | 18.01891 | 47° | 5km/h | 23637m | 5.7m/s | -52.6°C | 3.9% | 0hPa | 2.5V | 00:00:00 | 01:45:08 | 00:00:00 | |
| OE5MMP-10 | 2026-09-02 00:28:29 | 49.44326 | 18.01885 | 95° | 4km/h | 23620m | 5.9m/s | -52.7°C | 3.9% | 0hPa | 2.5V | 00:00:00 | 01:45:05 | 00:00:00 | |
| SP3WXH-11 | 2026-09-02 00:28:26 | 49.44327 | 18.01877 | 18° | 2km/h | 23599m | 6.0m/s | -52.9°C | 1.0% | -1.0hPa | 2.5V | 00:00:00 | 00:00:00 | 00:00:00 | |
| DO3MHA-11 | 2026-09-02 00:28:22 | 49.44326 | 18.01876 | 132° | 2km/h | 23582m | 6.5m/s | -53.1°C | 4.0% | 0hPa | 2.5V | 00:00:00 | 01:44:58 | 00:00:00 | |
| PETON7-10 | 2026-09-02 00:28:21 | 49.44327 | 18.01875 | 134° | 4km/h | 23576m | 5.3m/s | -53.2°C | 4.1% | 0hPa | 2.5V | 00:00:00 | 00:00:00 | 00:00:00 | |
| OE5MMP-10 | 2026-09-02 00:28:19 | 49.44328 | 18.01874 | 143° | 4km/h | 23565m | 6.7m/s | -53.4°C | 4.1% | 0hPa | 2.6V | 00:00:00 | 01:44:55 | 00:00:00 | |
| OE5DRO-10 | 2026-09-02 00:28:17 | 49.44328 | 18.01875 | 276° | 5km/h | 23553m | 5.0m/s | -53.5°C | 4.2% | 0hPa | 2.6V | 00:00:00 | 00:00:00 | 08:30:00 | |
| DB0DAN | 2026-09-02 00:28:10 | 49.44328 | 18.01884 | 301° | 5km/h | 23516m | 3.9m/s | -53.7°C | 0% | 0hPa | 2.5V | 00:00:00 | 00:00:00 | 00:00:00 | |
| OE5MMP-10 | 2026-09-02 00:28:09 | 49.44327 | 18.01886 | 295° | 7km/h | 23511m | 6.3m/s | -53.6°C | 4.2% | 0hPa | 2.5V | 00:00:00 | 01:44:45 | 00:00:00 | |
| PETON7-10 | 2026-09-02 00:28:06 | 49.44329 | 18.01886 | 180° | 5km/h | 23493m | 6.4m/s | -53.5°C | 4.2% | 0hPa | 2.6V | 00:00:00 | 00:00:00 | 00:00:00 | |
| OE3OSB-13 | 2026-09-02 00:28:03 | 49.44336 | 18.01889 | 191° | 11km/h | 23470m | 6.4m/s | -53.6°C | 1.1% | -1.0hPa | 2.6V | 00:00:00 | 00:00:00 | 00:00:00 | |
| DO3MHA-11 | 2026-09-02 00:28:02 | 49.44336 | 18.01889 | 192° | 7km/h | 23470m | 6.4m/s | -53.6°C | 4.2% | 0hPa | 2.6V | 00:00:00 | 01:44:38 | 00:00:00 | |
| OE5MMP-10 | 2026-09-02 00:27:59 | 49.44344 | 18.01893 | 216° | 4km/h | 23454m | 6.4m/s | -53.6°C | 4.2% | 0hPa | 2.5V | 00:00:00 | 01:44:35 | 00:00:00 | |
| OE5DRO-10 | 2026-09-02 00:27:58 | 49.44346 | 18.01895 | 234° | 7km/h | 23448m | 5.3m/s | -53.6°C | 4.2% | 0hPa | 2.5V | 00:00:00 | 00:00:00 | 00:00:00 | |
| DB0DAN | 2026-09-02 00:27:55 | 49.44349 | 18.01898 | 175° | 4km/h | 23430m | 5m/s | 0°C | 0% | 0hPa | 2.5V | 00:00:00 | 00:00:00 | 00:00:00 | |
| SP3WXH-11 | 2026-09-02 00:27:55 | 49.44350 | 18.01898 | 155° | 2km/h | 23425m | 5.0m/s | -53.6°C | 1.1% | -1.0hPa | 2.7V | 00:00:00 | 00:00:00 | 00:00:00 | |
| DO3MHA-11 | 2026-09-02 00:27:52 | 49.44350 | 18.01897 | 74° | 9km/h | 23414m | 5.2m/s | -53.6°C | 4.1% | 0hPa | 2.7V | 00:00:00 | 01:44:28 | 00:00:00 | |
| PETON7-10 | 2026-09-02 00:27:51 | 49.44350 | 18.01897 | 130° | 11km/h | 23409m | 4.1m/s | -53.6°C | 4.1% | 0hPa | 2.7V | 00:00:00 | 01:44:27 | 00:00:00 | |
| OE5MMP-10 | 2026-09-02 00:27:49 | 49.44353 | 18.01894 | 155° | 11km/h | 23397m | 5.8m/s | -53.6°C | 4.2% | 0hPa | 2.7V | 00:00:00 | 01:44:25 | 00:00:00 | |
| HA6NAB-11 | 2026-09-02 00:27:43 | 49.44368 | 18.01893 | 176° | 11km/h | 23368m | 6.3m/s | -53.5°C | 1.2% | 0hPa | 2.7V | 00:00:00 | 00:00:00 | 00:00:00 | |
| DB0DAN | 2026-09-02 00:27:40 | 49.44372 | 18.01883 | 70° | 11km/h | 23345m | 5.7m/s | 0°C | 0% | 0hPa | 2.7V | 00:00:00 | 00:00:00 | 00:00:00 | |
| PG1ADW-2 | 2026-09-02 00:27:40 | 49.44372 | 18.01883 | 71° | 11km/h | 23346m | 5.7m/s | -53.5°C | 4.2% | 0hPa | 2.6V | 00:00:00 | 00:00:00 | 00:00:00 | |
| OE5MMP-10 | 2026-09-02 00:27:39 | 49.44371 | 18.01879 | 69° | 9km/h | 23340m | 4.4m/s | -53.6°C | 4.2% | 0hPa | 2.6V | 00:00:00 | 01:44:15 | 00:00:00 | |
| NBG1-10 | 2026-09-02 00:27:38 | 49.44370 | 18.01874 | 80° | 9km/h | 23335m | 5.2m/s | 0°C | 0% | 0hPa | 2.5V | 00:00:00 | 01:44:14 | 08:30:00 | |
| HA6NAB-11 | 2026-09-02 00:27:37 | 49.44370 | 18.01874 | 80° | 13km/h | 23335m | 5.3m/s | -53.7°C | 1.2% | 0hPa | 2.5V | 00:00:00 | 00:00:00 | 00:00:00 | |
| PETON7-10 | 2026-09-02 00:27:36 | 49.44371 | 18.01864 | 119° | 11km/h | 23325m | 4.7m/s | -53.7°C | 4.3% | 0hPa | 2.5V | 00:00:00 | 00:00:00 | 00:00:00 | |
| OE3OSB-13 | 2026-09-02 00:27:33 | 49.44378 | 18.01861 | 332° | 2km/h | 23299m | 5.2m/s | -53.7°C | 1.1% | -1.0hPa | 2.5V | 00:00:00 | 00:00:00 | 00:00:00 | |
| OE5MMP-10 | 2026-09-02 00:27:29 | 49.44376 | 18.01859 | 49° | 13km/h | 23289m | 5.4m/s | -53.6°C | 4.2% | 0hPa | 2.5V | 00:00:00 | 01:44:05 | 00:00:00 | |
| HA6NAB-11 | 2026-09-02 00:27:27 | 49.44375 | 18.01856 | 71° | 11km/h | 23283m | 5.3m/s | -53.6°C | 1.2% | 0hPa | 2.5V | 00:00:00 | 00:00:00 | 00:00:00 | |
| OE5DXL-15 | 2026-09-02 00:27:26 | 49.44373 | 18.01846 | 73° | 11km/h | 23274m | 4.4m/s | -53.5°C | 4.2% | 0hPa | 2.5V | 00:00:00 | 00:00:00 | 08:30:00 | |
| SP3WXH-11 | 2026-09-02 00:27:24 | 49.44366 | 18.01832 | 43° | 15km/h | 23258m | 4.6m/s | -53.6°C | 1.1% | -1.0hPa | 2.6V | 00:00:00 | 00:00:00 | 00:00:00 | |
| DO3MHA-11 | 2026-09-02 00:27:22 | 49.44364 | 18.01828 | 51° | 9km/h | 23253m | 4.2m/s | -53.5°C | 4.2% | 0hPa | 2.6V | 00:00:00 | 01:43:58 | 00:00:00 | |
| PETON7-10 | 2026-09-02 00:27:21 | 49.44362 | 18.01824 | 72° | 9km/h | 23249m | 5.6m/s | -53.5°C | 4.2% | 0hPa | 2.6V | 00:00:00 | 00:00:00 | 00:00:00 | |
| PG1ADW-2 | 2026-09-02 00:27:20 | 49.44362 | 18.01819 | 103° | 9km/h | 23243m | 5.8m/s | -53.5°C | 4.2% | 0hPa | 2.6V | 00:00:00 | 01:43:56 | 00:00:00 | |
| OE5MMP-10 | 2026-09-02 00:27:19 | 49.44364 | 18.01816 | 125° | 9km/h | 23237m | 5.4m/s | -53.5°C | 4.2% | 0hPa | 2.6V | 00:00:00 | 01:43:55 | 00:00:00 | |
| HA6NAB-11 | 2026-09-02 00:27:15 | 49.44369 | 18.01807 | 139° | 7km/h | 23220m | 5.3m/s | -53.5°C | 1.2% | 0hPa | 2.6V | 00:00:00 | 00:00:00 | 00:00:00 | |
| DO3MHA-11 | 2026-09-02 00:27:12 | 49.44376 | 18.01803 | 169° | 9km/h | 23198m | 5.2m/s | -53.4°C | 4.2% | 0hPa | 2.6V | 00:00:00 | 01:43:48 | 00:00:00 | |
| OE5MMP-10 | 2026-09-02 00:27:09 | 49.44381 | 18.01799 | 135° | 9km/h | 23181m | 4.3m/s | -53.3°C | 4.2% | 0hPa | 2.6V | 00:00:00 | 01:43:45 | 08:30:00 | |
| PETON7-10 | 2026-09-02 00:27:06 | 49.44387 | 18.01797 | 179° | 9km/h | 23166m | 5.5m/s | -53.2°C | 4.2% | 0hPa | 2.6V | 00:00:00 | 01:43:42 | 00:00:00 | |
| OE3OSB-13 | 2026-09-02 00:27:01 | 49.44403 | 18.01800 | 182° | 9km/h | 23131m | 6.1m/s | -53.1°C | 1.1% | -1.0hPa | 2.6V | 00:00:00 | 00:00:00 | 00:00:00 | |
| SP3WXH-11 | 2026-09-02 00:26:53 | 49.44419 | 18.01793 | 169° | 9km/h | 23088m | 4.5m/s | -53.2°C | 1.1% | -1.0hPa | 2.6V | 00:00:00 | 00:00:00 | 00:00:00 | |
| DO3MHA-11 | 2026-09-02 00:26:52 | 49.44419 | 18.01792 | 170° | 9km/h | 23088m | 4.4m/s | -53.1°C | 4.1% | 0hPa | 2.6V | 00:00:00 | 01:43:28 | 00:00:00 | |
| PETON7-10 | 2026-09-02 00:26:51 | 49.44421 | 18.01792 | 174° | 9km/h | 23083m | 6.1m/s | -53.1°C | 4.0% | 0hPa | 2.6V | 00:00:00 | 00:00:00 | 08:30:00 | |
| OE5MMP-10 | 2026-09-02 00:26:49 | 49.44423 | 18.01792 | 191° | 11km/h | 23071m | 5.0m/s | -53.2°C | 4.0% | 0hPa | 2.5V | 00:00:00 | 01:43:25 | 00:00:00 | |
| NBG1-10 | 2026-09-02 00:26:47 | 49.44426 | 18.01792 | 176° | 9km/h | 23060m | 5.6m/s | 0°C | 0% | 0hPa | 2.5V | 00:00:00 | 01:43:23 | 00:00:00 | |
| OE3JTB-15 | 2026-09-02 00:26:46 | 49.44432 | 18.01780 | 96° | 7km/h | 23036m | 4.8m/s | -53.3°C | 4.1% | 0hPa | 2.5V | 00:00:00 | 00:00:00 | 00:00:00 | |
| OE5DRO-10 | 2026-09-02 00:26:42 | 49.44432 | 18.01774 | 97° | 11km/h | 23031m | 5.6m/s | -53.3°C | 4.1% | 0hPa | 2.5V | 00:00:00 | 00:00:00 | 00:00:00 | |
| PG1ADW-2 | 2026-09-02 00:26:40 | 49.44433 | 18.01762 | 96° | 11km/h | 23020m | 4.6m/s | -53.3°C | 4.1% | 0hPa | 2.5V | 00:00:00 | 00:00:00 | 00:00:00 | |
| OE5MMP-10 | 2026-09-02 00:26:39 | 49.44433 | 18.01758 | 79° | 11km/h | 23015m | 5.1m/s | -53.3°C | 4.1% | 0hPa | 2.5V | 00:00:00 | 01:43:15 | 00:00:00 | |
| PETON7-10 | 2026-09-02 00:26:36 | 49.44428 | 18.01751 | 24° | 11km/h | 22997m | 5.5m/s | -53.2°C | 4.1% | 0hPa | 2.7V | 00:00:00 | 00:00:00 | 00:00:00 | |
| DO3MHA-11 | 2026-09-02 00:26:32 | 49.44422 | 18.01742 | 63° | 13km/h | 22975m | 6.6m/s | -53.2°C | 4.1% | 0hPa | 2.7V | 00:00:00 | 01:43:08 | 00:00:00 | |
| OE5MMP-10 | 2026-09-02 00:26:29 | 49.44418 | 18.01724 | 82° | 9km/h | 22958m | 6.0m/s | -53.4°C | 4.1% | 0hPa | 2.5V | 00:00:00 | 01:43:05 | 00:00:00 | |
| OE5DXL-15 | 2026-09-02 00:26:26 | 49.44417 | 18.01710 | 69° | 5km/h | 22942m | 5.7m/s | -53.5°C | 4.2% | 0hPa | 2.5V | 00:00:00 | 00:00:00 | 00:00:00 | |
| OE5DRO-10 | 2026-09-02 00:26:23 | 49.44412 | 18.01701 | 36° | 7km/h | 22925m | 5.2m/s | -53.5°C | 4.2% | 0hPa | 2.5V | 00:00:00 | 00:00:00 | 00:00:00 | |
| SP3WXH-11 | 2026-09-02 00:26:22 | 49.44410 | 18.01699 | 46° | 4km/h | 22913m | 5.3m/s | -53.6°C | 1.1% | -1.0hPa | 2.6V | 00:00:00 | 00:00:00 | 00:00:00 | |
| PETON7-10 | 2026-09-02 00:26:21 | 49.44410 | 18.01699 | 47° | 7km/h | 22913m | 5.2m/s | -53.5°C | 4.2% | 0hPa | 2.6V | 00:00:00 | 01:42:57 | 00:00:00 | |
| PG1ADW-2 | 2026-09-02 00:26:20 | 49.44409 | 18.01697 | 48° | 5km/h | 22908m | 5.3m/s | -53.5°C | 4.1% | 0hPa | 2.6V | 00:00:00 | 00:00:00 | 00:00:00 | |
| OE5MMP-10 | 2026-09-02 00:26:19 | 49.44408 | 18.01695 | 49° | 9km/h | 22902m | 6.6m/s | -53.5°C | 4.2% | 0hPa | 2.6V | 00:00:00 | 01:42:55 | 00:00:00 | |
| DO3MHA-11 | 2026-09-02 00:26:12 | 49.44402 | 18.01677 | 35° | 5km/h | 22863m | 5.9m/s | -53.5°C | 4.2% | 0hPa | 2.6V | 00:00:00 | 01:42:48 | 00:00:00 | |
| OE5MMP-10 | 2026-09-02 00:26:09 | 49.44401 | 18.01679 | 261° | 5km/h | 22846m | 6.5m/s | -53.5°C | 4.2% | 0hPa | 2.6V | 00:00:00 | 01:42:45 | 00:00:00 | |
| PETON7-10 | 2026-09-02 00:26:06 | 49.44401 | 18.01686 | 298° | 5km/h | 22829m | 6.0m/s | -53.4°C | 4.3% | 0hPa | 2.5V | 00:00:00 | 00:00:00 | 00:00:00 | |
| OE5DRO-10 | 2026-09-02 00:26:04 | 49.44399 | 18.01690 | 304° | 7km/h | 22819m | 4.3m/s | -53.4°C | 4.2% | 0hPa | 2.7V | 00:00:00 | 00:00:00 | 00:00:00 | |
| OE3OSB-13 | 2026-09-02 00:25:58 | 49.44399 | 18.01690 | 92° | 5km/h | 22786m | 5.1m/s | -53.2°C | 1.1% | -1.0hPa | 2.7V | 00:00:00 | 00:00:00 | 00:00:00 | |
| SP3WXH-11 | 2026-09-02 00:25:51 | 49.44403 | 18.01701 | 256° | 13km/h | 22740m | 6.1m/s | -53.0°C | 1.1% | -1.0hPa | 2.7V | 00:00:00 | 00:00:00 | 00:00:00 | |
| DO3MHA-11 | 2026-09-02 00:25:50 | 49.44403 | 18.01701 | 257° | 11km/h | 22740m | 6.0m/s | -53.0°C | 4.1% | 0hPa | 2.7V | 00:00:00 | 01:42:26 | 00:00:00 | |
| OE5MMP-10 | 2026-09-02 00:25:49 | 49.44404 | 18.01707 | 257° | 11km/h | 22734m | 4.5m/s | -52.9°C | 4.1% | 0hPa | 2.7V | 00:00:00 | 01:42:25 | 00:00:00 | |
| NBG1-10 | 2026-09-02 00:25:47 | 49.44405 | 18.01717 | 270° | 15km/h | 22723m | 5.9m/s | 0°C | 0% | 0hPa | 2.7V | 00:00:00 | 01:42:23 | 00:00:00 | |
| OE5DRO-10 | 2026-09-02 00:25:45 | 49.44406 | 18.01724 | 236° | 13km/h | 22713m | 5.0m/s | -52.9°C | 4.0% | 0hPa | 2.7V | 00:00:00 | 00:00:00 | 00:00:00 | |
| HA6NAB-11 | 2026-09-02 00:25:42 | 49.44410 | 18.01727 | 185° | 13km/h | 22701m | 5.4m/s | -53.0°C | 1.2% | 0hPa | 2.7V | 00:00:00 | 00:00:00 | 00:00:00 | |
| DO3MHA-11 | 2026-09-02 00:25:40 | 49.44418 | 18.01725 | 170° | 13km/h | 22684m | 5.1m/s | -52.9°C | 4.1% | 0hPa | 2.7V | 00:00:00 | 01:42:16 | 00:00:00 | |
| OE5MMP-10 | 2026-09-02 00:25:39 | 49.44420 | 18.01725 | 190° | 13km/h | 22679m | 4.6m/s | -52.9°C | 4.1% | 0hPa | 2.7V | 00:00:00 | 01:42:15 | 08:30:00 | |
| PETON7-10 | 2026-09-02 00:25:36 | 49.44427 | 18.01732 | 229° | 13km/h | 22662m | 4.9m/s | -53.0°C | 4.1% | 0hPa | 2.5V | 00:00:00 | 01:42:12 | 00:00:00 | |
| DO3MHA-11 | 2026-09-02 00:25:30 | 49.44440 | 18.01758 | 216° | 13km/h | 22629m | 4.6m/s | -53.0°C | 4.0% | 0hPa | 2.5V | 00:00:00 | 01:42:06 | 00:00:00 | |
| OE3OSB-13 | 2026-09-02 00:25:27 | 49.44449 | 18.01767 | 211° | 11km/h | 22612m | 5.7m/s | -53.1°C | 1.1% | -1.0hPa | 2.5V | 00:00:00 | 00:00:00 | 00:00:00 | |
| OE5DXL-15 | 2026-09-02 00:25:26 | 49.44451 | 18.01769 | 209° | 15km/h | 22607m | 5.1m/s | -53.1°C | 4.1% | 0hPa | 2.5V | 00:00:00 | 00:00:00 | 00:00:00 | |
| PETON7-10 | 2026-09-02 00:25:21 | 49.44465 | 18.01768 | 131° | 13km/h | 22577m | 5.2m/s | -53.1°C | 4.1% | 0hPa | 2.5V | 00:00:00 | 00:00:00 | 00:00:00 | |
| DO3MHA-11 | 2026-09-02 00:25:20 | 49.44467 | 18.01764 | 133° | 13km/h | 22573m | 4.6m/s | -53.1°C | 4.1% | 0hPa | 2.5V | 00:00:00 | 01:41:56 | 00:00:00 | |
| SP3WXH-11 | 2026-09-02 00:25:19 | 49.44470 | 18.01760 | 140° | 15km/h | 22567m | 6.3m/s | -53.2°C | 1.1% | -1.0hPa | 2.5V | 00:00:00 | 00:00:00 | 00:00:00 | |
| PG1ADW-2 | 2026-09-02 00:25:18 | 49.44473 | 18.01756 | 149° | 16km/h | 22561m | 4.9m/s | -53.1°C | 4.2% | 0hPa | 2.5V | 00:00:00 | 00:00:00 | 00:00:00 | |
| OE5MMP-10 | 2026-09-02 00:25:16 | 49.44479 | 18.01751 | 161° | 13km/h | 22551m | 6.4m/s | -53.1°C | 4.2% | 0hPa | 2.5V | 00:00:00 | 01:41:52 | 00:00:00 | |
| DO3MHA-11 | 2026-09-02 00:25:10 | 49.44496 | 18.01758 | 183° | 18km/h | 22517m | 5.8m/s | -52.8°C | 4.1% | 0hPa | 2.5V | 00:00:00 | 01:41:46 | 00:00:00 | |
| OE5DRO-10 | 2026-09-02 00:25:07 | 49.44506 | 18.01750 | 139° | 22km/h | 22500m | 5.4m/s | -52.7°C | 4.2% | 0hPa | 2.5V | 00:00:00 | 00:00:00 | 00:00:00 | |
| OE5MMP-10 | 2026-09-02 00:25:06 | 49.44510 | 18.01745 | 142° | 20km/h | 22495m | 6.1m/s | -52.7°C | 4.2% | 0hPa | 2.5V | 00:00:00 | 01:41:42 | 00:00:00 | |
| NBG1-10 | 2026-09-02 00:25:04 | 49.44518 | 18.01735 | 141° | 24km/h | 22484m | 5.2m/s | 0°C | 0% | 0hPa | 2.5V | 00:00:00 | 01:41:40 | 00:00:00 | |
| OE3OSB-13 | 2026-09-02 00:24:56 | 49.44554 | 18.01721 | 184° | 18km/h | 22437m | 5.2m/s | -52.4°C | 1.1% | -1.0hPa | 2.5V | 00:00:00 | 00:00:00 | 00:00:00 | |
| PETON7-10 | 2026-09-02 00:24:51 | 49.44583 | 18.01714 | 152° | 24km/h | 22410m | 6.7m/s | -52.1°C | 4.0% | 0hPa | 2.5V | 00:00:00 | 01:41:27 | 00:00:00 | |
| DO3MHA-11 | 2026-09-02 00:24:50 | 49.44588 | 18.01709 | 142° | 24km/h | 22404m | 5.9m/s | -52.1°C | 4.0% | 0hPa | 2.5V | 00:00:00 | 01:41:26 | 00:00:00 | |
| OE5DRO-10 | 2026-09-02 00:24:48 | 49.44598 | 18.01697 | 144° | 26km/h | 22392m | 6.8m/s | -52.0°C | 3.9% | 0hPa | 2.5V | 00:00:00 | 00:00:00 | 00:00:00 | |
| OE5MMP-10 | 2026-09-02 00:24:46 | 49.44608 | 18.01688 | 155° | 24km/h | 22381m | 4.9m/s | -51.9°C | 3.9% | 0hPa | 2.5V | 00:00:00 | 01:41:22 | 00:00:00 | |
| DO3MHA-11 | 2026-09-02 00:24:40 | 49.44641 | 18.01677 | 176° | 27km/h | 22346m | 3.9m/s | -52.0°C | 3.9% | 0hPa | 2.5V | 00:00:00 | 01:41:16 | 00:00:00 | |
| PG1ADW-2 | 2026-09-02 00:24:38 | 49.44654 | 18.01672 | 154° | 20km/h | 22336m | 6.1m/s | -52.1°C | 3.9% | 0hPa | 2.5V | 00:00:00 | 01:41:14 | 00:00:00 | |
| OE5MMP-10 | 2026-09-02 00:24:36 | 49.44665 | 18.01659 | 133° | 24km/h | 22325m | 4.8m/s | -52.1°C | 3.8% | 0hPa | 2.5V | 00:00:00 | 01:41:12 | 00:00:00 | |
| NBG1-10 | 2026-09-02 00:24:31 | 49.44690 | 18.01620 | 130° | 20km/h | 22298m | 6.4m/s | 0°C | 0% | 0hPa | 2.5V | 00:00:00 | 01:41:07 | 00:00:00 | |
| DO3MHA-11 | 2026-09-02 00:24:30 | 49.44693 | 18.01613 | 121° | 15km/h | 22292m | 6.7m/s | -52.0°C | 3.8% | 0hPa | 2.5V | 00:00:00 | 01:41:06 | 08:30:00 | |
| OE5DRO-10 | 2026-09-02 00:24:29 | 49.44695 | 18.01607 | 116° | 16km/h | 22285m | 5.1m/s | -52.0°C | 3.9% | 0hPa | 2.7V | 00:00:00 | 00:00:00 | 00:00:00 | |
| OE5DXL-15 | 2026-09-02 00:24:26 | 49.44701 | 18.01594 | 137° | 18km/h | 22270m | 4.4m/s | -52.1°C | 3.9% | 0hPa | 2.5V | 00:00:00 | 00:00:00 | 00:00:00 | |
| OE3OSB-13 | 2026-09-02 00:24:25 | 49.44703 | 18.01591 | 128° | 13km/h | 22265m | 4.5m/s | -52.2°C | 1.0% | -1.0hPa | 2.5V | 00:00:00 | 00:00:00 | 00:00:00 | |
| PETON7-10 | 2026-09-02 00:24:21 | 49.44709 | 18.01568 | 107° | 18km/h | 22244m | 5.7m/s | -52.2°C | 4.0% | 0hPa | 2.5V | 00:00:00 | 00:00:00 | 00:00:00 | |
| HA6NAB-11 | 2026-09-02 00:24:19 | 49.44710 | 18.01562 | 114° | 15km/h | 22238m | 6.0m/s | -52.3°C | 1.1% | 0hPa | 2.5V | 00:00:00 | 00:00:00 | 00:00:00 | |
| PG1ADW-2 | 2026-09-02 00:24:18 | 49.44713 | 18.01552 | 112° | 20km/h | 22228m | 5.1m/s | -52.3°C | 4.0% | 0hPa | 2.5V | 00:00:00 | 00:00:00 | 00:00:00 | |
| SP3WXH-11 | 2026-09-02 00:24:17 | 49.44714 | 18.01546 | 107° | 16km/h | 22222m | 6.3m/s | -52.4°C | 1.1% | -1.0hPa | 2.5V | 00:00:00 | 00:00:00 | 00:00:00 | |
| OE5MMP-10 | 2026-09-02 00:24:16 | 49.44716 | 18.01539 | 110° | 20km/h | 22216m | 4.8m/s | -52.3°C | 4.0% | 0hPa | 2.5V | 00:00:00 | 01:40:52 | 00:00:00 | |
| HA6NAB-11 | 2026-09-02 00:24:13 | 49.44720 | 18.01525 | 123° | 20km/h | 22206m | 6.2m/s | -52.3°C | 1.1% | 0hPa | 2.5V | 00:00:00 | 00:00:00 | 00:00:00 | |
| OE5DRO-10 | 2026-09-02 00:24:10 | 49.44729 | 18.01498 | 99° | 20km/h | 22184m | 5.6m/s | -52.2°C | 4.0% | 0hPa | 2.5V | 00:00:00 | 00:00:00 | 00:00:00 | |
| DO3MHA-11 | 2026-09-02 00:24:07 | 49.44730 | 18.01474 | 91° | 22km/h | 22168m | 5.1m/s | -52.2°C | 4.0% | 0hPa | 2.5V | 00:00:00 | 01:40:43 | 00:00:00 | |
| PETON7-10 | 2026-09-02 00:24:06 | 49.44730 | 18.01467 | 91° | 22km/h | 22163m | 4.0m/s | -52.2°C | 4.0% | 0hPa | 2.5V | 00:00:00 | 01:40:42 | 00:00:00 | |
| OE3OSB-13 | 2026-09-02 00:23:54 | 49.44730 | 18.01370 | 69° | 16km/h | 22097m | 4.7m/s | -51.9°C | 1.0% | -1.0hPa | 2.5V | 00:00:00 | 00:00:00 | 00:00:00 | |
| HA6NAB-11 | 2026-09-02 00:23:51 | 49.44724 | 18.01345 | 72° | 27km/h | 22081m | 5.2m/s | -51.8°C | 1.1% | 0hPa | 2.5V | 00:00:00 | 00:00:00 | 00:00:00 | |
| DO3MHA-11 | 2026-09-02 00:23:47 | 49.44719 | 18.01307 | 91° | 20km/h | 22059m | 4.5m/s | -51.6°C | 3.8% | 0hPa | 2.5V | 00:00:00 | 01:40:23 | 00:00:00 | |
| OE5MMP-10 | 2026-09-02 00:23:46 | 49.44719 | 18.01299 | 90° | 20km/h | 22054m | 5.4m/s | -51.6°C | 3.8% | 0hPa | 2.5V | 00:00:00 | 01:40:22 | 00:00:00 | |
| PG1ADW-2 | 2026-09-02 00:23:38 | 49.44699 | 18.01256 | 40° | 24km/h | 22010m | 4.8m/s | -51.6°C | 3.7% | 0hPa | 2.5V | 00:00:00 | 00:00:00 | 00:00:00 | |
| DO3MHA-11 | 2026-09-02 00:23:37 | 49.44694 | 18.01249 | 44° | 22km/h | 22005m | 4.5m/s | -51.6°C | 3.7% | 0hPa | 2.5V | 00:00:00 | 01:40:13 | 00:00:00 | |
| PETON7-10 | 2026-09-02 00:23:36 | 49.44690 | 18.01243 | 50° | 22km/h | 22000m | 6.0m/s | -51.6°C | 3.7% | 0hPa | 2.5V | 00:00:00 | 00:00:00 | 00:00:00 | |
| OE5DRO-10 | 2026-09-02 00:23:32 | 49.44681 | 18.01215 | 69° | 26km/h | 21978m | 6.0m/s | -51.9°C | 3.8% | 0hPa | 2.5V | 00:00:00 | 00:00:00 | 00:00:00 | |
| DO3MHA-11 | 2026-09-02 00:23:27 | 49.44668 | 18.01180 | 40° | 26km/h | 21950m | 7.0m/s | -52.3°C | 3.9% | 0hPa | 2.5V | 00:00:00 | 01:40:03 | 00:00:00 | |
| OE5DXL-15 | 2026-09-02 00:23:26 | 49.44663 | 18.01175 | 32° | 24km/h | 21943m | 6.0m/s | -52.4°C | 3.8% | 0hPa | 2.7V | 00:00:00 | 00:00:00 | 00:00:00 | |
| OE3OSB-13 | 2026-09-02 00:23:23 | 49.44645 | 18.01164 | 18° | 24km/h | 21926m | 5.1m/s | -52.5°C | 1.0% | -1.0hPa | 2.7V | 00:00:00 | 00:00:00 | 00:00:00 | |
| PETON7-10 | 2026-09-02 00:23:21 | 49.44634 | 18.01156 | 28° | 26km/h | 21916m | 6.6m/s | -52.4°C | 3.9% | 0hPa | 2.7V | 00:00:00 | 01:39:57 | 00:00:00 | |
| PG1ADW-2 | 2026-09-02 00:23:18 | 49.44616 | 18.01140 | 28° | 24km/h | 21898m | 6.5m/s | -52.5°C | 3.9% | 0hPa | 2.7V | 00:00:00 | 01:39:54 | 00:00:00 | |
| DO3MHA-11 | 2026-09-02 00:23:17 | 49.44610 | 18.01136 | 26° | 26km/h | 21893m | 5.0m/s | -52.5°C | 3.9% | 0hPa | 2.7V | 00:00:00 | 01:39:53 | 00:00:00 | |
| OE5MMP-10 | 2026-09-02 00:23:16 | 49.44604 | 18.01132 | 26° | 26km/h | 21888m | 4.9m/s | -52.6°C | 3.9% | 0hPa | 2.7V | 00:00:00 | 01:39:52 | 00:00:00 | |
| SP3WXH-11 | 2026-09-02 00:23:15 | 49.44598 | 18.01127 | 28° | 27km/h | 21882m | 6.4m/s | -52.8°C | 1.0% | -1.0hPa | 2.7V | 00:00:00 | 00:00:00 | 00:00:00 | |
| OE5DRO-10 | 2026-09-02 00:23:13 | 49.44586 | 18.01115 | 36° | 22km/h | 21871m | 5.0m/s | -52.8°C | 4.0% | 0hPa | 2.7V | 00:00:00 | 00:00:00 | 00:00:00 | |
| DO3MHA-11 | 2026-09-02 00:23:07 | 49.44561 | 18.01077 | 55° | 22km/h | 21838m | 4.5m/s | -53.2°C | 4.2% | 0hPa | 2.7V | 00:00:00 | 01:39:43 | 00:00:00 | |
| OE5MMP-10 | 2026-09-02 00:23:06 | 49.44558 | 18.01070 | 54° | 22km/h | 21833m | 5.5m/s | -53.2°C | 4.2% | 0hPa | 2.7V | 00:00:00 | 01:39:42 | 00:00:00 | |
| OE3OSB-13 | 2026-09-02 00:22:52 | 49.44500 | 18.00997 | 31° | 16km/h | 21755m | 6.2m/s | -53.0°C | 1.1% | -1.0hPa | 2.7V | 00:00:00 | 00:00:00 | 00:00:00 | |
| PETON7-10 | 2026-09-02 00:22:51 | 49.44496 | 18.00993 | 37° | 16km/h | 21750m | 5.0m/s | -52.9°C | 4.1% | 0hPa | 2.7V | 00:00:00 | 00:00:00 | 00:00:00 | |
| OE5MMP-10 | 2026-09-02 00:22:46 | 49.44485 | 18.00965 | 76° | 16km/h | 21721m | 6.1m/s | -52.8°C | 4.1% | 0hPa | 2.7V | 00:00:00 | 01:39:22 | 00:00:00 | |
| SP3WXH-11 | 2026-09-02 00:22:44 | 49.44484 | 18.00955 | 72° | 13km/h | 21711m | 5.5m/s | -52.9°C | 1.1% | -1.0hPa | 2.7V | 00:00:00 | 00:00:00 | 00:00:00 | |
| OE3JTB-15 | 2026-09-02 00:22:42 | 49.44477 | 18.00932 | 62° | 22km/h | 21688m | 6.3m/s | -52.9°C | 4.1% | 0hPa | 2.7V | 00:00:00 | 01:39:16 | 00:00:00 | |
| DO3MHA-11 | 2026-09-02 00:22:37 | 49.44472 | 18.00915 | 73° | 20km/h | 21671m | 6.4m/s | -52.8°C | 4.1% | 0hPa | 2.7V | 00:00:00 | 01:39:13 | 00:00:00 | |
| OE5MMP-10 | 2026-09-02 00:22:36 | 49.44471 | 18.00907 | 76° | 20km/h | 21666m | 4.5m/s | -52.8°C | 4.1% | 0hPa | 2.7V | 00:00:00 | 01:39:12 | 08:30:00 | |
| OE5DRO-10 | 2026-09-02 00:22:35 | 49.44470 | 18.00900 | 79° | 20km/h | 21661m | 5.3m/s | -52.8°C | 4.1% | 0hPa | 2.7V | 00:00:00 | 00:00:00 | 08:30:00 | |
| DO3MHA-11 | 2026-09-02 00:22:27 | 49.44471 | 18.00838 | 102° | 20km/h | 21616m | 4.5m/s | -52.6°C | 4.0% | 0hPa | 2.5V | 00:00:00 | 01:39:03 | 00:00:00 | |
| OE5DXL-15 | 2026-09-02 00:22:26 | 49.44472 | 18.00832 | 100° | 26km/h | 21611m | 5.8m/s | -52.6°C | 3.9% | 0hPa | 2.7V | 00:00:00 | 00:00:00 | 00:00:00 | |
| PETON7-10 | 2026-09-02 00:22:21 | 49.44476 | 18.00795 | 108° | 27km/h | 21583m | 4.7m/s | -52.7°C | 4.0% | 0hPa | 2.7V | 00:00:00 | 00:00:00 | 08:30:00 | |
| PG1ADW-2 | 2026-09-02 00:22:18 | 49.44480 | 18.00771 | 104° | 27km/h | 21567m | 5.0m/s | -52.8°C | 4.1% | 0hPa | 2.7V | 00:00:00 | 00:00:00 | 00:00:00 | |
| DO3MHA-11 | 2026-09-02 00:22:17 | 49.44482 | 18.00760 | 102° | 29km/h | 21561m | 5.7m/s | -52.8°C | 4.1% | 0hPa | 2.7V | 00:00:00 | 01:38:53 | 00:00:00 | |
| OE5MMP-10 | 2026-09-02 00:22:16 | 49.44483 | 18.00751 | 99° | 29km/h | 21555m | 5.5m/s | -52.8°C | 4.0% | 0hPa | 2.7V | 00:00:00 | 01:38:52 | 00:00:00 | |
| SP3WXH-11 | 2026-09-02 00:22:13 | 49.44485 | 18.00719 | 93° | 31km/h | 21539m | 6.6m/s | -52.8°C | 1.1% | -1.0hPa | 2.7V | 00:00:00 | 00:00:00 | 00:00:00 | |
| DO3MHA-11 | 2026-09-02 00:22:07 | 49.44489 | 18.00650 | 101° | 26km/h | 21505m | 6.0m/s | -52.6°C | 4.0% | 0hPa | 2.7V | 00:00:00 | 01:38:43 | 00:00:00 | |
| PETON7-10 | 2026-09-02 00:22:06 | 49.44491 | 18.00639 | 103° | 24km/h | 21500m | 4.6m/s | -52.6°C | 4.0% | 0hPa | 2.7V | 00:00:00 | 00:00:00 | 00:00:00 | |
| OE3OSB-13 | 2026-09-02 00:21:51 | 49.44497 | 18.00484 | 99° | 20km/h | 21410m | 4.8m/s | -52.7°C | 1.0% | -1.0hPa | 2.7V | 00:00:00 | 00:00:00 | 00:00:00 | |
| PETON7-10 | 2026-09-02 00:21:50 | 49.44497 | 18.00492 | 99° | 20km/h | 21415m | 5.9m/s | -52.6°C | 3.9% | 0hPa | 2.7V | 00:00:00 | 01:38:26 | 00:00:00 | |
| DO3MHA-11 | 2026-09-02 00:21:47 | 49.44499 | 18.00467 | 91° | 20km/h | 21398m | 6.0m/s | -52.8°C | 4.0% | 0hPa | 2.7V | 00:00:00 | 01:38:23 | 00:00:00 | |
| SQ9EZE-14 | 2026-09-02 00:21:45 | 49.44498 | 18.00458 | 88° | 24km/h | 21393m | 4.5m/s | -52.9°C | 0% | 0hPa | 2.7V | 00:00:00 | 00:00:00 | 00:00:00 | |
| OE5MMP-10 | 2026-09-02 00:21:43 | 49.44497 | 18.00435 | 81° | 20km/h | 21377m | 4.3m/s | -52.9°C | 4.0% | 0hPa | 2.7V | 00:00:00 | 01:38:19 | 00:00:00 | |
| SP3WXH-11 | 2026-09-02 00:21:42 | 49.44496 | 18.00428 | 77° | 20km/h | 21372m | 6.1m/s | -52.9°C | 1.1% | -1.0hPa | 2.7V | 00:00:00 | 00:00:00 | 00:00:00 | |
| PG1ADW-2 | 2026-09-02 00:21:38 | 49.44490 | 18.00396 | 78° | 22km/h | 21349m | 5.4m/s | -53.0°C | 4.2% | 0hPa | 2.7V | 00:00:00 | 00:00:00 | 00:00:00 | |
| DO3MHA-11 | 2026-09-02 00:21:37 | 49.44489 | 18.00388 | 77° | 20km/h | 21344m | 5.1m/s | -53.0°C | 4.1% | 0hPa | 2.7V | 00:00:00 | 01:38:13 | 00:00:00 | |
| PETON7-10 | 2026-09-02 00:21:35 | 49.44486 | 18.00373 | 64° | 22km/h | 21332m | 5.5m/s | -53.0°C | 4.2% | 0hPa | 2.7V | 00:00:00 | 00:00:00 | 00:00:00 | |
| OE5MMP-10 | 2026-09-02 00:21:33 | 49.44480 | 18.00360 | 48° | 20km/h | 21322m | 5.8m/s | -53.0°C | 4.1% | 0hPa | 2.5V | 00:00:00 | 01:38:09 | 00:00:00 | |
| DO3MHA-11 | 2026-09-02 00:21:27 | 49.44452 | 18.00340 | 29° | 22km/h | 21291m | 5.0m/s | -52.9°C | 4.0% | 0hPa | 2.5V | 00:00:00 | 01:38:03 | 08:30:00 | |
| OE5DXL-15 | 2026-09-02 00:21:26 | 49.44447 | 18.00335 | 34° | 24km/h | 21286m | 4.7m/s | -53.0°C | 4.0% | 0hPa | 2.7V | 00:00:00 | 00:00:00 | 00:00:00 | |
| OE5MMP-10 | 2026-09-02 00:21:21 | 49.44432 | 18.00303 | 75° | 26km/h | 21259m | 5.8m/s | -52.9°C | 4.0% | 0hPa | 2.7V | 00:00:00 | 01:37:57 | 00:00:00 | |
| PETON7-10 | 2026-09-02 00:21:20 | 49.44431 | 18.00294 | 75° | 26km/h | 21254m | 4.6m/s | -52.9°C | 4.0% | 0hPa | 2.7V | 00:00:00 | 00:00:00 | 00:00:00 | |
| OE5DRO-10 | 2026-09-02 00:21:19 | 49.44429 | 18.00285 | 73° | 26km/h | 21249m | 5.5m/s | -52.9°C | 4.0% | 0hPa | 2.7V | 00:00:00 | 00:00:00 | 00:00:00 | |
| PG1ADW-2 | 2026-09-02 00:21:18 | 49.44427 | 18.00277 | 67° | 26km/h | 21243m | 5.5m/s | -52.8°C | 4.0% | 0hPa | 2.7V | 00:00:00 | 00:00:00 | 00:00:00 | |
| DO3MHA-11 | 2026-09-02 00:21:17 | 49.44425 | 18.00269 | 62° | 26km/h | 21238m | 4.1m/s | -52.8°C | 4.0% | 0hPa | 2.7V | 00:00:00 | 01:37:53 | 00:00:00 | |
| NBG1-10 | 2026-09-02 00:21:13 | 49.44411 | 18.00234 | 58° | 22km/h | 21217m | 4.8m/s | 0°C | 0% | 0hPa | 2.7V | 00:00:00 | 01:37:49 | 00:00:00 | |
| SP3WXH-11 | 2026-09-02 00:21:11 | 49.44404 | 18.00217 | 55° | 24km/h | 21206m | 4.8m/s | -53.0°C | 1.1% | -1.0hPa | 2.7V | 00:00:00 | 00:00:00 | 00:00:00 | |
| OE5MMP-10 | 2026-09-02 00:21:08 | 49.44392 | 18.00192 | 56° | 22km/h | 21189m | 5.4m/s | -53.0°C | 4.1% | 0hPa | 2.7V | 00:00:00 | 01:37:44 | 00:00:00 | |
| DO3MHA-11 | 2026-09-02 00:21:07 | 49.44388 | 18.00182 | 55° | 24km/h | 21184m | 4.8m/s | -53.0°C | 4.1% | 0hPa | 2.7V | 00:00:00 | 01:37:43 | 00:00:00 | |
| PETON7-10 | 2026-09-02 00:21:05 | 49.44379 | 18.00167 | 41° | 22km/h | 21174m | 5.3m/s | -52.9°C | 4.1% | 0hPa | 2.7V | 00:00:00 | 01:37:41 | 00:00:00 | |
| HA6NAB-11 | 2026-09-02 00:21:02 | 49.44370 | 18.00158 | 31° | 22km/h | 21164m | 4.4m/s | -53.0°C | 1.2% | 0hPa | 2.7V | 00:00:00 | 00:00:00 | 00:00:00 | |
| OE3OSB-13 | 2026-09-02 00:20:48 | 49.44306 | 18.00087 | 15° | 24km/h | 21082m | 3.4m/s | -53.1°C | 1.1% | -1.0hPa | 2.7V | 00:00:00 | 00:00:00 | 00:00:00 | |
| OE5MMP-10 | 2026-09-02 00:20:47 | 49.44300 | 18.00084 | 14° | 13km/h | 21078m | 4.9m/s | -53.0°C | 4.1% | 0hPa | 2.7V | 00:00:00 | 01:37:23 | 00:00:00 | |
| HA6NAB-11 | 2026-09-02 00:20:45 | 49.44295 | 18.00083 | 8° | 16km/h | 21072m | 6.7m/s | -53.1°C | 1.2% | 0hPa | 2.7V | 00:00:00 | 00:00:00 | 00:00:00 | |
| OE5DRO-10 | 2026-09-02 00:20:41 | 49.44283 | 18.00080 | 13° | 18km/h | 21045m | 4.7m/s | -53.3°C | 4.2% | 0hPa | 2.7V | 00:00:00 | 00:00:00 | 00:00:00 | |
| SP3WXH-11 | 2026-09-02 00:20:40 | 49.44281 | 18.00079 | 1° | 9km/h | 21040m | 6.0m/s | -53.4°C | 1.2% | -1.0hPa | 2.7V | 00:00:00 | 00:00:00 | 00:00:00 | |
| HA6NAB-11 | 2026-09-02 00:20:39 | 49.44280 | 18.00080 | 3° | 11km/h | 21040m | 6.0m/s | -53.4°C | 1.3% | 0hPa | 2.7V | 00:00:00 | 00:00:00 | 00:00:00 | |
| PG1ADW-2 | 2026-09-02 00:20:38 | 49.44273 | 18.00079 | 7° | 20km/h | 21029m | 5.9m/s | -53.4°C | 4.2% | 0hPa | 2.7V | 00:00:00 | 01:37:14 | 00:00:00 | |
| OE5MMP-10 | 2026-09-02 00:20:37 | 49.44268 | 18.00077 | 12° | 20km/h | 21023m | 6.3m/s | -53.4°C | 4.2% | 0hPa | 2.7V | 00:00:00 | 01:37:13 | 00:00:00 | |
| PETON7-10 | 2026-09-02 00:20:35 | 49.44254 | 18.00073 | 9° | 18km/h | 21013m | 5.0m/s | -53.4°C | 4.2% | 0hPa | 2.7V | 00:00:00 | 00:00:00 | 00:00:00 | |
| OE3JTB-15 | 2026-09-02 00:20:33 | 49.44228 | 18.00072 | 3° | 15km/h | 20991m | 6.1m/s | -53.2°C | 4.2% | 0hPa | 2.7V | 00:00:00 | 00:00:00 | 00:00:00 | |
| DO3MHA-11 | 2026-09-02 00:20:27 | 49.44219 | 18.00067 | 49° | 18km/h | 20968m | 4.4m/s | -53.1°C | 4.2% | 0hPa | 2.5V | 00:00:00 | 01:37:03 | 00:00:00 | |
| OE5DXL-15 | 2026-09-02 00:20:26 | 49.44218 | 18.00065 | 45° | 16km/h | 20964m | 3.7m/s | -53.1°C | 4.1% | 0hPa | 2.7V | 00:00:00 | 00:00:00 | 00:00:00 | |
| OE5DRO-10 | 2026-09-02 00:20:22 | 49.44201 | 18.00053 | 9° | 16km/h | 20944m | 5.3m/s | -53.0°C | 4.1% | 0hPa | 2.7V | 00:00:00 | 00:00:00 | 00:00:00 | |
| PETON7-10 | 2026-09-02 00:20:20 | 49.44188 | 18.00053 | 349° | 16km/h | 20933m | 5.0m/s | -52.9°C | 4.1% | 0hPa | 2.7V | 00:00:00 | 01:36:56 | 00:00:00 | |
| PG1ADW-2 | 2026-09-02 00:20:18 | 49.44179 | 18.00058 | 340° | 15km/h | 20922m | 5.4m/s | -52.8°C | 4.1% | 0hPa | 2.7V | 00:00:00 | 00:00:00 | 00:00:00 | |
| DO3MHA-11 | 2026-09-02 00:20:17 | 49.44175 | 18.00060 | 332° | 15km/h | 20917m | 5.6m/s | -52.8°C | 4.1% | 0hPa | 2.7V | 00:00:00 | 01:36:53 | 00:00:00 | |
| SP3WXH-11 | 2026-09-02 00:20:09 | 49.44156 | 18.00046 | 26° | 24km/h | 20873m | 5.7m/s | -52.7°C | -1.0% | -1.0hPa | 2.7V | 00:00:00 | 00:00:00 | 00:00:00 | |
| DO3MHA-11 | 2026-09-02 00:20:07 | 49.44145 | 18.00042 | 360° | 15km/h | 20863m | 5.0m/s | -52.8°C | 4.0% | 0hPa | 2.7V | 00:00:00 | 01:36:43 | 00:00:00 | |
| PETON7-10 | 2026-09-02 00:20:05 | 49.44137 | 18.00045 | 333° | 15km/h | 20852m | 5.6m/s | -52.8°C | 4.0% | 0hPa | 2.7V | 00:00:00 | 00:00:00 | 08:30:00 | |
| OE5DRO-10 | 2026-09-02 00:20:03 | 49.44134 | 18.00048 | 344° | 16km/h | 20841m | 4.3m/s | -53.0°C | 4.1% | 0hPa | 2.5V | 00:00:00 | 00:00:00 | 00:00:00 | |
| OE3OSB-13 | 2026-09-02 00:19:46 | 49.44095 | 17.99963 | 72° | 22km/h | 20748m | 4.8m/s | -52.4°C | 1.1% | -1.0hPa | 2.5V | 00:00:00 | 00:00:00 | 00:00:00 | |
| OE5DRO-10 | 2026-09-02 00:19:44 | 49.44092 | 17.99947 | 80° | 18km/h | 20738m | 6.2m/s | -52.3°C | 4.0% | 0hPa | 2.5V | 00:00:00 | 00:00:00 | 08:30:00 | |
| PG1ADW-2 | 2026-09-02 00:19:38 | 49.44084 | 17.99915 | 69° | 16km/h | 20705m | 5.8m/s | -52.2°C | 3.8% | 0hPa | 2.5V | 00:00:00 | 00:00:00 | 00:00:00 | |
| OE5MMP-10 | 2026-09-02 00:19:37 | 49.44083 | 17.99910 | 76° | 20km/h | 20700m | 4.5m/s | -52.2°C | 3.8% | 0hPa | 2.5V | 00:00:00 | 01:36:13 | 00:00:00 | |
| PETON7-10 | 2026-09-02 00:19:35 | 49.44080 | 17.99897 | 71° | 16km/h | 20689m | 6.0m/s | -52.2°C | 3.9% | 0hPa | 2.5V | 00:00:00 | 01:36:11 | 00:00:00 | |
| DO3MHA-11 | 2026-09-02 00:19:27 | 49.44075 | 17.99834 | 84° | 16km/h | 20647m | 6.1m/s | -52.7°C | 4.0% | 0hPa | 2.5V | 00:00:00 | 01:36:03 | 00:00:00 | |
| OE5DXL-15 | 2026-09-02 00:19:26 | 49.44075 | 17.99830 | 89° | 16km/h | 20641m | 5.1m/s | -52.7°C | 4.0% | 0hPa | 2.7V | 00:00:00 | 00:00:00 | 00:00:00 | |
| OE5DRO-10 | 2026-09-02 00:19:25 | 49.44075 | 17.99825 | 86° | 16km/h | 20636m | 4.9m/s | -52.7°C | 4.0% | 0hPa | 2.7V | 00:00:00 | 00:00:00 | 00:00:00 | |
| PETON7-10 | 2026-09-02 00:19:20 | 49.44073 | 17.99799 | 100° | 16km/h | 20610m | 4.5m/s | -52.7°C | 4.0% | 0hPa | 2.7V | 00:00:00 | 00:00:00 | 00:00:00 | |
| PG1ADW-2 | 2026-09-02 00:19:18 | 49.44074 | 17.99786 | 92° | 16km/h | 20600m | 6.0m/s | -52.8°C | 4.0% | 0hPa | 2.5V | 00:00:00 | 01:35:54 | 00:00:00 | |
| OE5MMP-10 | 2026-09-02 00:19:17 | 49.44074 | 17.99779 | 87° | 16km/h | 20594m | 5.3m/s | -52.8°C | 4.0% | 0hPa | 2.5V | 00:00:00 | 01:35:53 | 00:00:00 | |
| OE3OSB-13 | 2026-09-02 00:19:15 | 49.44074 | 17.99761 | 95° | 15km/h | 20579m | 4.5m/s | -52.8°C | 1.1% | -1.0hPa | 2.5V | 00:00:00 | 00:00:00 | 00:00:00 | |
| DO3MHA-11 | 2026-09-02 00:19:09 | 49.44070 | 17.99730 | 77° | 16km/h | 20554m | 6.0m/s | -52.7°C | 4.0% | 0hPa | 2.5V | 00:00:00 | 01:35:45 | 00:00:00 | |
| OE5MMP-10 | 2026-09-02 00:19:08 | 49.44068 | 17.99716 | 77° | 16km/h | 20543m | 5.6m/s | -52.6°C | 4.0% | 0hPa | 2.5V | 00:00:00 | 01:35:43 | 00:00:00 | |
| OE5DRO-10 | 2026-09-02 00:19:06 | 49.44067 | 17.99708 | 73° | 20km/h | 20537m | 6.4m/s | -52.6°C | 4.0% | 0hPa | 2.5V | 00:00:00 | 00:00:00 | 00:00:00 | |
| PETON7-10 | 2026-09-02 00:19:05 | 49.44065 | 17.99701 | 71° | 18km/h | 20532m | 4.3m/s | -52.6°C | 4.0% | 0hPa | 2.5V | 00:00:00 | 00:00:00 | 00:00:00 | |
| DO3MHA-11 | 2026-09-02 00:18:59 | 49.44057 | 17.99669 | 47° | 20km/h | 20501m | 5.0m/s | -52.7°C | 4.0% | 0hPa | 2.5V | 00:00:00 | 01:35:35 | 00:00:00 | |
| PG1ADW-2 | 2026-09-02 00:18:58 | 49.44054 | 17.99665 | 54° | 18km/h | 20495m | 5.8m/s | -52.7°C | 4.0% | 0hPa | 2.5V | 00:00:00 | 00:00:00 | 08:30:00 | |
| OE5MMP-10 | 2026-09-02 00:18:57 | 49.44052 | 17.99660 | 63° | 22km/h | 20489m | 5.1m/s | -52.7°C | 4.0% | 0hPa | 2.5V | 00:00:00 | 01:35:33 | 00:00:00 | |
| OE5DXL-15 | 2026-09-02 00:18:56 | 49.44050 | 17.99654 | 64° | 18km/h | 20485m | 3.5m/s | -52.8°C | 4.0% | 0hPa | 2.5V | 00:00:00 | 00:00:00 | 00:00:00 | |
| DO3MHA-11 | 2026-09-02 00:18:49 | 49.44031 | 17.99597 | 65° | 16km/h | 20449m | 5.5m/s | -52.6°C | 3.8% | 0hPa | 2.5V | 00:00:00 | 01:35:25 | 00:00:00 | |
| OE5MMP-10 | 2026-09-02 00:18:47 | 49.44025 | 17.99584 | 44° | 16km/h | 20438m | 4.9m/s | -52.6°C | 3.8% | 0hPa | 2.5V | 00:00:00 | 01:35:23 | 00:00:00 | |
| OE3OSB-13 | 2026-09-02 00:18:44 | 49.44013 | 17.99573 | 24° | 13km/h | 20416m | 6.1m/s | -52.8°C | 1.0% | -1.0hPa | 2.5V | 00:00:00 | 00:00:00 | 00:00:00 | |
| DO3MHA-11 | 2026-09-02 00:18:39 | 49.44001 | 17.99556 | 65° | 16km/h | 20395m | 5.5m/s | -53.3°C | 4.0% | 0hPa | 2.5V | 00:00:00 | 01:35:15 | 00:00:00 | |
| PG1ADW-2 | 2026-09-02 00:18:38 | 49.44000 | 17.99550 | 73° | 13km/h | 20391m | 3.3m/s | -53.4°C | 4.0% | 0hPa | 2.5V | 00:00:00 | 00:00:00 | 00:00:00 | |
| OE5MMP-10 | 2026-09-02 00:18:37 | 49.43998 | 17.99542 | 72° | 13km/h | 20387m | 4.7m/s | -53.5°C | 4.0% | 0hPa | 2.5V | 00:00:00 | 01:35:13 | 00:00:00 | |
| PETON7-10 | 2026-09-02 00:18:34 | 49.43992 | 17.99520 | 59° | 11km/h | 20372m | 4.4m/s | -53.9°C | 4.2% | 0hPa | 2.5V | 00:00:00 | 00:00:00 | 00:00:00 | |
| DO3MHA-11 | 2026-09-02 00:18:29 | 49.43980 | 17.99516 | 350° | 13km/h | 20344m | 5.0m/s | -54.3°C | 4.4% | 0hPa | 2.7V | 00:00:00 | 01:35:05 | 00:00:00 | |
| OE5DRO-10 | 2026-09-02 00:18:28 | 49.43976 | 17.99516 | 355° | 9km/h | 20340m | 4.1m/s | -54.2°C | 4.4% | 0hPa | 2.7V | 00:00:00 | 00:00:00 | 00:00:00 | |
| OE5DXL-15 | 2026-09-02 00:18:26 | 49.43970 | 17.99516 | 18° | 7km/h | 20330m | 5.8m/s | -54.2°C | 4.4% | 0hPa | 2.7V | 00:00:00 | 00:00:00 | 08:30:00 | |
| DO3MHA-11 | 2026-09-02 00:18:19 | 49.43957 | 17.99494 | 40° | 7km/h | 20296m | 5.4m/s | -54.1°C | 4.3% | 0hPa | 2.5V | 00:00:00 | 01:34:55 | 08:30:00 | |
| PG1ADW-2 | 2026-09-02 00:18:18 | 49.43955 | 17.99492 | 37° | 7km/h | 20291m | 4.8m/s | -54.1°C | 4.3% | 0hPa | 2.5V | 00:00:00 | 00:00:00 | 00:00:00 | |
| OE3OSB-13 | 2026-09-02 00:18:13 | 49.43943 | 17.99492 | 342° | 4km/h | 20259m | 5.2m/s | -53.9°C | 1.2% | -1.0hPa | 2.5V | 00:00:00 | 00:00:00 | 00:00:00 | |
| DO3MHA-11 | 2026-09-02 00:18:09 | 49.43940 | 17.99490 | 36° | 5km/h | 20243m | 5.2m/s | -53.7°C | 4.2% | 0hPa | 2.5V | 00:00:00 | 01:34:45 | 00:00:00 | |
| OE5MMP-10 | 2026-09-02 00:18:08 | 49.43938 | 17.99488 | 41° | 5km/h | 20238m | 4.9m/s | -53.7°C | 4.2% | 0hPa | 2.5V | 00:00:00 | 01:34:44 | 00:00:00 | |
| PETON7-10 | 2026-09-02 00:18:04 | 49.43934 | 17.99481 | 15° | 7km/h | 20216m | 6.4m/s | -53.6°C | 4.2% | 0hPa | 2.5V | 00:00:00 | 01:34:40 | 00:00:00 | |
| DO3MHA-11 | 2026-09-02 00:17:59 | 49.43927 | 17.99480 | 29° | 7km/h | 20191m | 4.2m/s | -53.7°C | 4.2% | 0hPa | 2.5V | 00:00:00 | 01:34:35 | 00:00:00 | |
| PG1ADW-2 | 2026-09-02 00:17:58 | 49.43927 | 17.99480 | 12° | 9km/h | 20185m | 6.1m/s | -53.7°C | 4.1% | 0hPa | 2.5V | 00:00:00 | 01:34:34 | 00:00:00 | |
| OE5DXL-15 | 2026-09-02 00:17:56 | 49.43924 | 17.99479 | 9° | 9km/h | 20174m | 5.2m/s | -53.9°C | 4.2% | 0hPa | 2.7V | 00:00:00 | 00:00:00 | 00:00:00 | |
| OE5DRO-10 | 2026-09-02 00:17:50 | 49.43915 | 17.99463 | 64° | 9km/h | 20141m | 4.6m/s | -53.9°C | 4.2% | 0hPa | 2.7V | 00:00:00 | 00:00:00 | 00:00:00 | |
| DO3MHA-11 | 2026-09-02 00:17:49 | 49.43914 | 17.99458 | 77° | 11km/h | 20135m | 6.3m/s | -53.9°C | 4.3% | 0hPa | 2.5V | 00:00:00 | 01:34:25 | 00:00:00 | |
| OE5MMP-10 | 2026-09-02 00:17:47 | 49.43913 | 17.99447 | 84° | 9km/h | 20124m | 5.1m/s | -53.8°C | 4.2% | 0hPa | 2.5V | 00:00:00 | 01:34:23 | 08:30:00 | |
| OE3OSB-13 | 2026-09-02 00:17:42 | 49.43913 | 17.99425 | 104° | 7km/h | 20092m | 5.0m/s | -53.8°C | 1.1% | -1.0hPa | 2.5V | 00:00:00 | 00:00:00 | 00:00:00 | |
| DO3MHA-11 | 2026-09-02 00:17:39 | 49.43912 | 17.99419 | 72° | 7km/h | 20082m | 4.9m/s | -53.7°C | 4.2% | 0hPa | 2.5V | 00:00:00 | 01:34:15 | 00:00:00 | |
| PG1ADW-2 | 2026-09-02 00:17:38 | 49.43912 | 17.99416 | 75° | 11km/h | 20077m | 4.8m/s | -53.7°C | 4.2% | 0hPa | 2.5V | 00:00:00 | 00:00:00 | 00:00:00 | |
| OE5MMP-10 | 2026-09-02 00:17:34 | 49.43912 | 17.99404 | 79° | 11km/h | 20055m | 6.3m/s | -53.6°C | 4.1% | 0hPa | 2.5V | 00:00:00 | 01:34:10 | 00:00:00 | |
| OE5DRO-10 | 2026-09-02 00:17:31 | 49.43912 | 17.99396 | 116° | 11km/h | 20039m | 6.3m/s | -53.9°C | 4.2% | 0hPa | 2.5V | 00:00:00 | 00:00:00 | 00:00:00 | |
| DO3MHA-11 | 2026-09-02 00:17:29 | 49.43914 | 17.99389 | 116° | 13km/h | 20028m | 5.7m/s | -54.0°C | 4.3% | 0hPa | 2.5V | 00:00:00 | 01:34:05 | 00:00:00 | |
| OE5DXL-15 | 2026-09-02 00:17:26 | 49.43917 | 17.99375 | 113° | 15km/h | 20011m | 6.1m/s | -54.0°C | 4.3% | 0hPa | 2.5V | 00:00:00 | 00:00:00 | 00:00:00 | |
| OE5MMP-10 | 2026-09-02 00:17:24 | 49.43920 | 17.99364 | 112° | 11km/h | 20001m | 4.5m/s | -53.9°C | 4.3% | 0hPa | 2.5V | 00:00:00 | 01:34:00 | 00:00:00 | |
| DO3MHA-11 | 2026-09-02 00:17:19 | 49.43925 | 17.99342 | 122° | 11km/h | 19974m | 3.9m/s | -53.7°C | 4.2% | 0hPa | 2.5V | 00:00:00 | 01:33:55 | 00:00:00 | |
| OE5MMP-10 | 2026-09-02 00:17:13 | 49.43928 | 17.99322 | 102° | 18km/h | 19943m | 4.1m/s | -53.7°C | 4.1% | 0hPa | 2.5V | 00:00:00 | 01:33:49 | 00:00:00 | |
| OE5DRO-10 | 2026-09-02 00:17:12 | 49.43928 | 17.99315 | 96° | 16km/h | 19938m | 6.5m/s | -53.7°C | 4.1% | 0hPa | 2.5V | 00:00:00 | 00:00:00 | 00:00:00 | |
| OE3OSB-13 | 2026-09-02 00:17:11 | 49.43928 | 17.99300 | 87° | 20km/h | 19926m | 4.4m/s | -53.7°C | 1.1% | -1.0hPa | 2.5V | 00:00:00 | 00:00:00 | 00:00:00 | |
| PETON7-10 | 2026-09-02 00:17:04 | 49.43930 | 17.99261 | 66° | 18km/h | 19895m | 4.6m/s | -53.9°C | 4.2% | 0hPa | 2.5V | 00:00:00 | 00:00:00 | 00:00:00 | |
| OE5MMP-10 | 2026-09-02 00:17:03 | 49.43928 | 17.99256 | 56° | 16km/h | 19890m | 4.1m/s | -54.0°C | 4.2% | 0hPa | 2.5V | 00:00:00 | 01:33:39 | 00:00:00 | |
| PG1ADW-2 | 2026-09-02 00:16:58 | 49.43920 | 17.99234 | 58° | 20km/h | 19865m | 6.5m/s | -54.0°C | 4.2% | 0hPa | 2.5V | 00:00:00 | 00:00:00 | 00:00:00 | |
| OE5DXL-15 | 2026-09-02 00:16:56 | 49.43916 | 17.99222 | 70° | 18km/h | 19855m | 4.9m/s | -54.1°C | 4.2% | 0hPa | 2.7V | 00:00:00 | 00:00:00 | 00:00:00 | |
| DO3MHA-11 | 2026-09-02 00:16:55 | 49.43915 | 17.99214 | 80° | 20km/h | 19849m | 5.8m/s | -54.1°C | 4.2% | 0hPa | 2.5V | 00:00:00 | 01:33:31 | 00:00:00 | |
| OE5MMP-10 | 2026-09-02 00:16:53 | 49.43913 | 17.99196 | 81° | 18km/h | 19839m | 5.8m/s | -54.2°C | 4.3% | 0hPa | 2.5V | 00:00:00 | 01:33:29 | 00:00:00 | |
| HA6NAB-11 | 2026-09-02 00:16:51 | 49.43912 | 17.99186 | 78° | 26km/h | 19833m | 5.2m/s | -54.3°C | 1.3% | 0hPa | 2.5V | 00:00:00 | 00:00:00 | 00:00:00 | |
| PETON7-10 | 2026-09-02 00:16:49 | 49.43908 | 17.99162 | 79° | 18km/h | 19818m | 5.6m/s | -54.4°C | 4.4% | 0hPa | 2.5V | 00:00:00 | 00:00:00 | 00:00:00 | |
| HA6NAB-11 | 2026-09-02 00:16:46 | 49.43906 | 17.99152 | 61° | 13km/h | 19807m | 5.5m/s | -54.5°C | 1.4% | 0hPa | 2.5V | 00:00:00 | 00:00:00 | 00:00:00 | |
| DO3MHA-11 | 2026-09-02 00:16:45 | 49.43901 | 17.99143 | 48° | 20km/h | 19797m | 4.6m/s | -54.5°C | 4.4% | 0hPa | 2.5V | 00:00:00 | 01:33:21 | 00:00:00 | |
| OE5MMP-10 | 2026-09-02 00:16:43 | 49.43895 | 17.99131 | 66° | 18km/h | 19787m | 6.2m/s | -54.4°C | 4.4% | 0hPa | 2.5V | 00:00:00 | 01:33:19 | 00:00:00 | |
| HA6NAB-11 | 2026-09-02 00:16:41 | 49.43894 | 17.99123 | 75° | 20km/h | 19781m | 5.1m/s | -54.4°C | 1.4% | 0hPa | 2.5V | 00:00:00 | 00:00:00 | 00:00:00 | |
| OE3OSB-13 | 2026-09-02 00:16:40 | 49.43889 | 17.99098 | 76° | 22km/h | 19765m | 4.3m/s | -54.3°C | 1.2% | -1.0hPa | 2.5V | 00:00:00 | 00:00:00 | 00:00:00 | |
| PG1ADW-2 | 2026-09-02 00:16:38 | 49.43888 | 17.99090 | 82° | 15km/h | 19760m | 5.2m/s | -54.2°C | 4.4% | 0hPa | 2.5V | 00:00:00 | 01:33:14 | 00:00:00 | |
| SQ9EZE-14 | 2026-09-02 00:16:37 | 49.43888 | 17.99090 | 82° | 20km/h | 19760m | 5.3m/s | -54.3°C | 0% | 0hPa | 2.5V | 00:00:00 | 00:00:00 | 00:00:00 | |
| HA6NAB-11 | 2026-09-02 00:16:35 | 49.43888 | 17.99076 | 85° | 15km/h | 19750m | 4.4m/s | -54.2°C | 1.3% | 0hPa | 2.5V | 00:00:00 | 00:00:00 | 00:00:00 | |
| PETON7-10 | 2026-09-02 00:16:34 | 49.43886 | 17.99067 | 58° | 15km/h | 19739m | 5.6m/s | -54.1°C | 4.3% | 0hPa | 2.5V | 00:00:00 | 01:33:10 | 00:00:00 | |
| OE5MMP-10 | 2026-09-02 00:16:33 | 49.43884 | 17.99063 | 51° | 16km/h | 19734m | 4.4m/s | -54.1°C | 4.3% | 0hPa | 2.5V | 00:00:00 | 01:33:09 | 00:00:00 | |
| HA6NAB-11 | 2026-09-02 00:16:30 | 49.43880 | 17.99056 | 57° | 11km/h | 19723m | 4.9m/s | -54.2°C | 1.3% | 0hPa | 2.5V | 00:00:00 | 00:00:00 | 00:00:00 | |
| OE5DXL-15 | 2026-09-02 00:16:26 | 49.43873 | 17.99029 | 93° | 9km/h | 19697m | 5.9m/s | -54.2°C | 4.3% | 0hPa | 2.5V | 00:00:00 | 00:00:00 | 00:00:00 | |
| HA6NAB-11 | 2026-09-02 00:16:24 | 49.43873 | 17.99021 | 103° | 20km/h | 19692m | 4.6m/s | -54.3°C | 1.3% | 0hPa | 2.5V | 00:00:00 | 00:00:00 | 00:00:00 | |
| OE5MMP-10 | 2026-09-02 00:16:23 | 49.43876 | 17.99007 | 100° | 9km/h | 19681m | 6.0m/s | -54.2°C | 4.3% | 0hPa | 2.5V | 00:00:00 | 01:32:59 | 00:00:00 | |
| SQ9EZE-14 | 2026-09-02 00:16:21 | 49.43876 | 17.98997 | 94° | 9km/h | 19671m | 4.7m/s | -54.3°C | 0% | 0hPa | 2.5V | 00:00:00 | 00:00:00 | 00:00:00 | |
| PETON7-10 | 2026-09-02 00:16:19 | 49.43877 | 17.98993 | 126° | 7km/h | 19661m | 4.7m/s | -54.1°C | 4.4% | 0hPa | 2.5V | 00:00:00 | 00:00:00 | 00:00:00 | |
| PG1ADW-2 | 2026-09-02 00:16:18 | 49.43877 | 17.98992 | 111° | 7km/h | 19656m | 3.9m/s | -54.1°C | 4.3% | 0hPa | 2.5V | 00:00:00 | 00:00:00 | 00:00:00 | |
| OE5DRO-10 | 2026-09-02 00:16:15 | 49.43875 | 17.98986 | 49° | 9km/h | 19640m | 4.7m/s | -54.0°C | 4.4% | 0hPa | 2.5V | 00:00:00 | 00:00:00 | 00:00:00 | |
| OE5MMP-10 | 2026-09-02 00:16:13 | 49.43872 | 17.98980 | 69° | 7km/h | 19630m | 5.8m/s | -53.9°C | 4.3% | 0hPa | 2.5V | 00:00:00 | 01:32:49 | 08:30:00 | |
| OE3OSB-13 | 2026-09-02 00:16:08 | 49.43873 | 17.98965 | 95° | 7km/h | 19605m | 4.3m/s | -53.8°C | 1.2% | -1.0hPa | 2.5V | 00:00:00 | 00:00:00 | 00:00:00 | |
| PETON7-10 | 2026-09-02 00:16:04 | 49.43875 | 17.98957 | 78° | 11km/h | 19583m | 6.5m/s | -53.7°C | 4.3% | 0hPa | 2.5V | 00:00:00 | 00:00:00 | 00:00:00 | |
| OE5MMP-10 | 2026-09-02 00:16:03 | 49.43874 | 17.98955 | 50° | 11km/h | 19577m | 5.3m/s | 0°C | 0% | 0hPa | 2.5V | 00:00:00 | 01:32:39 | 00:00:00 | |
| PG1ADW-2 | 2026-09-02 00:15:58 | 49.43868 | 17.98942 | 67° | 13km/h | 19552m | 5.7m/s | -53.6°C | 4.2% | 0hPa | 2.5V | 00:00:00 | 00:00:00 | 08:30:00 | |
| OE5DXL-15 | 2026-09-02 00:15:56 | 49.43865 | 17.98932 | 73° | 15km/h | 19542m | 4.1m/s | -53.5°C | 4.2% | 0hPa | 2.5V | 00:00:00 | 00:00:00 | 00:00:00 | |
| DO3MHA-11 | 2026-09-02 00:15:53 | 49.43866 | 17.98918 | 117° | 13km/h | 19528m | 3.6m/s | -53.4°C | 4.2% | 0hPa | 2.5V | 00:00:00 | 01:32:29 | 00:00:00 | |
| PETON7-10 | 2026-09-02 00:15:49 | 49.43868 | 17.98900 | 80° | 15km/h | 19508m | 4.3m/s | -53.4°C | 4.1% | 0hPa | 2.5V | 00:00:00 | 01:32:25 | 00:00:00 | |
| OE5MMP-10 | 2026-09-02 00:15:43 | 49.43860 | 17.98869 | 68° | 13km/h | 19478m | 3.9m/s | 0°C | 0% | 0hPa | 2.5V | 00:00:00 | 01:32:19 | 00:00:00 | |
| PG1ADW-2 | 2026-09-02 00:15:38 | 49.43853 | 17.98848 | 45° | 16km/h | 19454m | 4.5m/s | -53.1°C | 4.1% | 0hPa | 2.5V | 00:00:00 | 00:00:00 | 00:00:00 | |
| OE5DRO-10 | 2026-09-02 00:15:37 | 49.43851 | 17.98844 | 55° | 16km/h | 19450m | 3.9m/s | -53.1°C | 4.1% | 0hPa | 2.5V | 00:00:00 | 00:00:00 | 00:00:00 | |
| PETON7-10 | 2026-09-02 00:15:34 | 49.43847 | 17.98826 | 73° | 16km/h | 19435m | 4.4m/s | -53.0°C | 4.1% | 0hPa | 2.5V | 00:00:00 | 00:00:00 | 08:30:00 | |
| DO3MHA-11 | 2026-09-02 00:15:33 | 49.43845 | 17.98819 | 67° | 18km/h | 19429m | 5.8m/s | -52.9°C | 4.1% | 0hPa | 2.5V | 00:00:00 | 01:32:09 | 00:00:00 | |
| OE3JTB-15 | 2026-09-02 00:15:31 | 49.43832 | 17.98786 | 61° | 16km/h | 19405m | 4.4m/s | -52.8°C | 4.0% | 0hPa | 2.6V | 00:00:00 | 00:00:00 | 00:00:00 | |
| OE5DXL-15 | 2026-09-02 00:15:26 | 49.43827 | 17.98777 | 42° | 16km/h | 19395m | 6.0m/s | -52.8°C | 3.9% | 0hPa | 2.6V | 00:00:00 | 00:00:00 | 00:00:00 | |
| DO3MHA-11 | 2026-09-02 00:15:23 | 49.43819 | 17.98766 | 53° | 15km/h | 19380m | 5.8m/s | -52.9°C | 4.0% | 0hPa | 2.7V | 00:00:00 | 01:31:59 | 00:00:00 | |
| PETON7-10 | 2026-09-02 00:15:19 | 49.43812 | 17.98745 | 62° | 15km/h | 19360m | 4.8m/s | -53.0°C | 4.0% | 0hPa | 2.7V | 00:00:00 | 00:00:00 | 00:00:00 | |
| PG1ADW-2 | 2026-09-02 00:15:18 | 49.43810 | 17.98740 | 68° | 16km/h | 19356m | 4.6m/s | -53.0°C | 4.0% | 0hPa | 2.7V | 00:00:00 | 01:31:54 | 00:00:00 | |
| DO3MHA-11 | 2026-09-02 00:15:13 | 49.43806 | 17.98712 | 67° | 16km/h | 19332m | 4.2m/s | -53.1°C | 4.0% | 0hPa | 2.7V | 00:00:00 | 01:31:49 | 00:00:00 | |
| OE5MMP-10 | 2026-09-02 00:15:07 | 49.43794 | 17.98682 | 41° | 18km/h | 19301m | 5.3m/s | 0°C | 0% | 0hPa | 2.7V | 00:00:00 | 01:31:43 | 00:00:00 | |
| OE3OSB-13 | 2026-09-02 00:15:06 | 49.43791 | 17.98678 | 32° | 16km/h | 19296m | 4.2m/s | -53.3°C | 1.1% | -1.0hPa | 2.7V | 00:00:00 | 00:00:00 | 00:00:00 | |
| PETON7-10 | 2026-09-02 00:15:04 | 49.43783 | 17.98672 | 26° | 15km/h | 19286m | 5.6m/s | -53.3°C | 4.1% | 0hPa | 2.7V | 00:00:00 | 01:31:40 | 00:00:00 | |
| OE5DRO-10 | 2026-09-02 00:14:59 | 49.43763 | 17.98655 | 28° | 13km/h | 19260m | 6.2m/s | -53.4°C | 4.1% | 0hPa | 2.7V | 00:00:00 | 00:00:00 | 00:00:00 | |
| PG1ADW-2 | 2026-09-02 00:14:58 | 49.43760 | 17.98652 | 25° | 11km/h | 19254m | 4.9m/s | -53.4°C | 4.1% | 0hPa | 2.7V | 00:00:00 | 00:00:00 | 00:00:00 | |
| OE5MMP-10 | 2026-09-02 00:14:57 | 49.43756 | 17.98650 | 24° | 11km/h | 19249m | 4.5m/s | 0°C | 0% | 0hPa | 2.7V | 00:00:00 | 01:31:33 | 00:00:00 | |
| OE5DXL-15 | 2026-09-02 00:14:56 | 49.43753 | 17.98647 | 24° | 11km/h | 19244m | 5.7m/s | -53.4°C | 4.1% | 0hPa | 2.7V | 00:00:00 | 00:00:00 | 00:00:00 | |
| DO3MHA-11 | 2026-09-02 00:14:53 | 49.43742 | 17.98642 | 9° | 9km/h | 19228m | 6.1m/s | -53.5°C | 4.1% | 0hPa | 2.7V | 00:00:00 | 01:31:29 | 00:00:00 | |
| PETON7-10 | 2026-09-02 00:14:49 | 49.43734 | 17.98637 | 49° | 9km/h | 19207m | 4.2m/s | -53.6°C | 4.2% | 0hPa | 2.7V | 00:00:00 | 00:00:00 | 00:00:00 | |
| OE5MMP-10 | 2026-09-02 00:14:47 | 49.43731 | 17.98632 | 61° | 11km/h | 19196m | 5.0m/s | 0°C | 0% | 0hPa | 2.6V | 00:00:00 | 01:31:23 | 00:00:00 | |
| OE5DRO-10 | 2026-09-02 00:14:40 | 49.43719 | 17.98605 | 70° | 13km/h | 19161m | 4.9m/s | -53.5°C | 4.2% | 0hPa | 2.6V | 00:00:00 | 00:00:00 | 00:00:00 | |
| PG1ADW-2 | 2026-09-02 00:14:38 | 49.43718 | 17.98602 | 78° | 15km/h | 19152m | 5.1m/s | -53.5°C | 4.1% | 0hPa | 2.6V | 00:00:00 | 00:00:00 | 00:00:00 | |
| OE5MMP-10 | 2026-09-02 00:14:37 | 49.43718 | 17.98601 | 40° | 15km/h | 19147m | 5.5m/s | 0°C | 0% | 0hPa | 2.6V | 00:00:00 | 01:31:13 | 08:30:00 | |
| OE3OSB-13 | 2026-09-02 00:14:35 | 49.43716 | 17.98599 | 60° | 4km/h | 19137m | 4.5m/s | -53.5°C | 1.2% | -1.0hPa | 2.6V | 00:00:00 | 00:00:00 | 00:00:00 | |
| PETON7-10 | 2026-09-02 00:14:33 | 49.43717 | 17.98595 | 120° | 16km/h | 19127m | 5.2m/s | -53.5°C | 4.2% | 0hPa | 2.6V | 00:00:00 | 00:00:00 | 00:00:00 | |
| HA6NAB-11 | 2026-09-02 00:14:31 | 49.43718 | 17.98591 | 119° | 13km/h | 19122m | 4.7m/s | -53.6°C | 1.3% | 0hPa | 2.6V | 00:00:00 | 00:00:00 | 00:00:00 | |
| OE5DXL-15 | 2026-09-02 00:14:26 | 49.43724 | 17.98548 | 106° | 26km/h | 19088m | 4.5m/s | -53.6°C | 4.2% | 0hPa | 2.6V | 00:00:00 | 00:00:00 | 00:00:00 | |
| HA6NAB-11 | 2026-09-02 00:14:25 | 49.43724 | 17.98548 | 107° | 22km/h | 19088m | 4.6m/s | -53.6°C | 1.3% | 0hPa | 2.6V | 00:00:00 | 00:00:00 | 00:00:00 | |
| DO3MHA-11 | 2026-09-02 00:14:23 | 49.43726 | 17.98525 | 91° | 24km/h | 19073m | 4.6m/s | -53.6°C | 4.1% | 0hPa | 2.6V | 00:00:00 | 01:30:59 | 00:00:00 | |
| OE5DRO-10 | 2026-09-02 00:14:21 | 49.43727 | 17.98514 | 108° | 24km/h | 19061m | 6.0m/s | -53.5°C | 4.1% | 0hPa | 2.6V | 00:00:00 | 00:00:00 | 00:00:00 | |
| HA6NAB-11 | 2026-09-02 00:14:19 | 49.43728 | 17.98509 | 111° | 15km/h | 19056m | 4.8m/s | -53.6°C | 1.3% | 0hPa | 2.6V | 00:00:00 | 00:00:00 | 00:00:00 | |
| PG1ADW-2 | 2026-09-02 00:14:18 | 49.43730 | 17.98496 | 96° | 27km/h | 19046m | 5.7m/s | -53.5°C | 4.1% | 0hPa | 2.6V | 00:00:00 | 00:00:00 | 00:00:00 | |
| OE5MMP-10 | 2026-09-02 00:14:14 | 49.43732 | 17.98457 | 93° | 27km/h | 19026m | 4.2m/s | 0°C | 0% | 0hPa | 2.6V | 00:00:00 | 01:30:50 | 00:00:00 | |
| HA6NAB-11 | 2026-09-02 00:14:13 | 49.43732 | 17.98457 | 94° | 29km/h | 19026m | 4.3m/s | -53.5°C | 1.3% | 0hPa | 2.6V | 00:00:00 | 00:00:00 | 00:00:00 | |
| DO3MHA-11 | 2026-09-02 00:14:11 | 49.43730 | 17.98423 | 85° | 27km/h | 19010m | 5.0m/s | -53.6°C | 4.1% | 0hPa | 2.6V | 00:00:00 | 01:30:47 | 00:00:00 | |
| HA6NAB-11 | 2026-09-02 00:14:08 | 49.43730 | 17.98402 | 90° | 24km/h | 18999m | 4.3m/s | -53.7°C | 1.3% | 0hPa | 2.5V | 00:00:00 | 00:00:00 | 00:00:00 | |
| OE5MMP-10 | 2026-09-02 00:14:04 | 49.43727 | 17.98354 | 91° | 29km/h | 18974m | 5.5m/s | 0°C | 0% | 0hPa | 2.5V | 00:00:00 | 01:30:40 | 00:00:00 | |
| PETON7-10 | 2026-09-02 00:14:03 | 49.43727 | 17.98343 | 96° | 33km/h | 18969m | 4.4m/s | -54.0°C | 4.3% | 0hPa | 2.5V | 00:00:00 | 00:00:00 | 00:00:00 | |
| OE5DRO-10 | 2026-09-02 00:14:02 | 49.43728 | 17.98332 | 94° | 35km/h | 18965m | 4.5m/s | -54.0°C | 4.3% | 0hPa | 2.6V | 00:00:00 | 00:00:00 | 08:30:00 | |
| DO3MHA-11 | 2026-09-02 00:14:00 | 49.43727 | 17.98309 | 82° | 33km/h | 18953m | 5.3m/s | -53.9°C | 4.3% | 0hPa | 2.5V | 00:00:00 | 01:30:36 | 00:00:00 | |
| PG1ADW-2 | 2026-09-02 00:13:58 | 49.43724 | 17.98285 | 80° | 35km/h | 18944m | 5.9m/s | -53.8°C | 4.3% | 0hPa | 2.5V | 00:00:00 | 01:30:34 | 00:00:00 | |
| OE5DXL-15 | 2026-09-02 00:13:56 | 49.43721 | 17.98260 | 80° | 35km/h | 18933m | 4.9m/s | -53.7°C | 4.3% | 0hPa | 2.5V | 00:00:00 | 00:00:00 | 08:30:00 | |
| DO3MHA-11 | 2026-09-02 00:13:50 | 49.43708 | 17.98184 | 82° | 37km/h | 18901m | 4.7m/s | -53.9°C | 4.3% | 0hPa | 2.5V | 00:00:00 | 01:30:26 | 00:00:00 | |
| PETON7-10 | 2026-09-02 00:13:48 | 49.43705 | 17.98156 | 77° | 37km/h | 18889m | 5.2m/s | -53.9°C | 4.2% | 0hPa | 2.5V | 00:00:00 | 00:00:00 | 00:00:00 | |
| OE5DRO-10 | 2026-09-02 00:13:43 | 49.43696 | 17.98087 | 75° | 37km/h | 18864m | 5.5m/s | -53.9°C | 4.3% | 0hPa | 2.5V | 00:00:00 | 00:00:00 | 00:00:00 | |
| DO3MHA-11 | 2026-09-02 00:13:40 | 49.43685 | 17.98047 | 64° | 37km/h | 18847m | 6.3m/s | -53.8°C | 4.3% | 0hPa | 2.5V | 00:00:00 | 01:30:16 | 00:00:00 | |
| PG1ADW-2 | 2026-09-02 00:13:38 | 49.43676 | 17.98022 | 62° | 35km/h | 18836m | 5.6m/s | -53.7°C | 4.3% | 0hPa | 2.6V | 00:00:00 | 00:00:00 | 00:00:00 | |
| SQ9EZE-14 | 2026-09-02 00:13:36 | 49.43672 | 17.98010 | 61° | 38km/h | 18830m | 5.9m/s | 0°C | 0% | 0hPa | 2.6V | 00:00:00 | 00:00:00 | 00:00:00 | |
| PETON7-10 | 2026-09-02 00:13:33 | 49.43655 | 17.97960 | 67° | 33km/h | 18809m | 4.9m/s | -53.6°C | 4.3% | 0hPa | 2.6V | 00:00:00 | 01:30:09 | 00:00:00 | |
| DO3MHA-11 | 2026-09-02 00:13:30 | 49.43644 | 17.97923 | 64° | 33km/h | 18794m | 4.1m/s | -53.5°C | 4.3% | 0hPa | 2.6V | 00:00:00 | 01:30:06 | 00:00:00 | |
| OE5DXL-15 | 2026-09-02 00:13:26 | 49.43627 | 17.97876 | 58° | 27km/h | 18772m | 5.8m/s | -53.3°C | 4.2% | 0hPa | 2.6V | 00:00:00 | 00:00:00 | 00:00:00 | |
| OE5DRO-10 | 2026-09-02 00:13:24 | 49.43617 | 17.97854 | 53° | 29km/h | 18762m | 4.2m/s | -53.3°C | 4.2% | 0hPa | 2.6V | 00:00:00 | 00:00:00 | 00:00:00 | |
| DO3MHA-11 | 2026-09-02 00:13:20 | 49.43599 | 17.97814 | 58° | 29km/h | 18740m | 5.8m/s | -53.2°C | 4.2% | 0hPa | 2.6V | 00:00:00 | 01:29:56 | 00:00:00 | |
| SQ9EZE-14 | 2026-09-02 00:13:19 | 49.43599 | 17.97814 | 58° | 31km/h | 18740m | 5.9m/s | 0°C | 0% | 0hPa | 2.6V | 00:00:00 | 00:00:00 | 00:00:00 | |
| PG1ADW-2 | 2026-09-02 00:13:18 | 49.43590 | 17.97794 | 57° | 26km/h | 18730m | 4.5m/s | -53.2°C | 4.2% | 0hPa | 2.6V | 00:00:00 | 00:00:00 | 00:00:00 | |
| DO3MHA-11 | 2026-09-02 00:13:10 | 49.43558 | 17.97716 | 59° | 24km/h | 18686m | 5.1m/s | -53.0°C | 4.1% | 0hPa | 2.6V | 00:00:00 | 01:29:46 | 08:30:00 | |
| OE5DRO-10 | 2026-09-02 00:13:05 | 49.43539 | 17.97675 | 51° | 22km/h | 18659m | 6.3m/s | -52.8°C | 4.1% | 0hPa | 2.6V | 00:00:00 | 00:00:00 | 00:00:00 | |
| PETON7-10 | 2026-09-02 00:13:03 | 49.43532 | 17.97662 | 58° | 22km/h | 18649m | 5.1m/s | -52.7°C | 4.0% | 0hPa | 2.6V | 00:00:00 | 00:00:00 | 00:00:00 | |
| OE3OSB-13 | 2026-09-02 00:13:02 | 49.43530 | 17.97655 | 63° | 22km/h | 18643m | 5.2m/s | -52.7°C | 1.1% | -1.0hPa | 2.6V | 00:00:00 | 00:00:00 | 00:00:00 | |
| OE3JTB-15 | 2026-09-02 00:13:01 | 49.43524 | 17.97631 | 74° | 20km/h | 18628m | 5.9m/s | -52.6°C | 4.0% | 0hPa | 2.6V | 00:00:00 | 01:29:35 | 00:00:00 | |
| DO3MHA-11 | 2026-09-02 00:12:59 | 49.43524 | 17.97631 | 74° | 22km/h | 18628m | 5.9m/s | -52.6°C | 4.0% | 0hPa | 2.6V | 00:00:00 | 01:29:35 | 00:00:00 | |
| PG1ADW-2 | 2026-09-02 00:12:58 | 49.43522 | 17.97623 | 72° | 20km/h | 18623m | 4.3m/s | -52.5°C | 3.9% | 0hPa | 2.6V | 00:00:00 | 00:00:00 | 08:30:00 | |
| OE5DXL-15 | 2026-09-02 00:12:56 | 49.43518 | 17.97608 | 65° | 20km/h | 18614m | 5.8m/s | -52.5°C | 3.9% | 0hPa | 2.7V | 00:00:00 | 00:00:00 | 00:00:00 | |
| DO3MHA-11 | 2026-09-02 00:12:49 | 49.43490 | 17.97564 | 41° | 18km/h | 18579m | 4.5m/s | -52.7°C | 4.0% | 0hPa | 2.7V | 00:00:00 | 01:29:25 | 00:00:00 | |
| OE5MMP-10 | 2026-09-02 00:12:48 | 49.43486 | 17.97559 | 41° | 20km/h | 18574m | 4.7m/s | 0°C | 0% | 0hPa | 2.7V | 00:00:00 | 01:29:24 | 00:00:00 | |
| OE5DRO-10 | 2026-09-02 00:12:46 | 49.43481 | 17.97552 | 40° | 18km/h | 18563m | 4.3m/s | -52.8°C | 4.0% | 0hPa | 2.7V | 00:00:00 | 00:00:00 | 00:00:00 | |
| DO3MHA-11 | 2026-09-02 00:12:39 | 49.43460 | 17.97513 | 50° | 18km/h | 18528m | 5.6m/s | -52.9°C | 4.1% | 0hPa | 2.7V | 00:00:00 | 01:29:15 | 00:00:00 | |
| PG1ADW-2 | 2026-09-02 00:12:38 | 49.43456 | 17.97506 | 53° | 22km/h | 18523m | 4.5m/s | -52.9°C | 4.1% | 0hPa | 2.5V | 00:00:00 | 01:29:14 | 00:00:00 | |
| HA6NAB-11 | 2026-09-02 00:12:35 | 49.43450 | 17.97492 | 56° | 18km/h | 18514m | 6.0m/s | -53.0°C | 1.3% | 0hPa | 2.5V | 00:00:00 | 00:00:00 | 00:00:00 | |
| PETON7-10 | 2026-09-02 00:12:33 | 49.43444 | 17.97477 | 64° | 24km/h | 18498m | 6.1m/s | -53.0°C | 4.0% | 0hPa | 2.5V | 00:00:00 | 00:00:00 | 00:00:00 | |
| OE3OSB-13 | 2026-09-02 00:12:31 | 49.43440 | 17.97465 | 59° | 16km/h | 18489m | 5.4m/s | -53.0°C | 1.1% | -1.0hPa | 2.6V | 00:00:00 | 00:00:00 | 00:00:00 | |
| DO3MHA-11 | 2026-09-02 00:12:29 | 49.43436 | 17.97453 | 68° | 26km/h | 18478m | 3.9m/s | -53.1°C | 4.1% | 0hPa | 2.6V | 00:00:00 | 01:29:05 | 00:00:00 | |
| OE5MMP-10 | 2026-09-02 00:12:28 | 49.43434 | 17.97444 | 72° | 27km/h | 18473m | 6.6m/s | 0°C | 0% | 0hPa | 2.6V | 00:00:00 | 01:29:04 | 00:00:00 | |
| OE5DRO-10 | 2026-09-02 00:12:27 | 49.43432 | 17.97434 | 76° | 26km/h | 18467m | 5.8m/s | -53.2°C | 4.1% | 0hPa | 2.6V | 00:00:00 | 00:00:00 | 00:00:00 | |
| OE5DXL-15 | 2026-09-02 00:12:26 | 49.43430 | 17.97423 | 82° | 26km/h | 18461m | 5.0m/s | -53.2°C | 4.1% | 0hPa | 2.6V | 00:00:00 | 00:00:00 | 00:00:00 | |
| HA6NAB-11 | 2026-09-02 00:12:24 | 49.43430 | 17.97412 | 89° | 27km/h | 18456m | 6.3m/s | -53.3°C | 1.3% | 0hPa | 2.6V | 00:00:00 | 00:00:00 | 00:00:00 | |
| DO3MHA-11 | 2026-09-02 00:12:19 | 49.43436 | 17.97351 | 99° | 27km/h | 18424m | 4.0m/s | -53.1°C | 4.1% | 0hPa | 2.6V | 00:00:00 | 01:28:55 | 00:00:00 | |
| OE5MMP-10 | 2026-09-02 00:12:18 | 49.43438 | 17.97342 | 101° | 24km/h | 18419m | 6.2m/s | 0°C | 0% | 0hPa | 2.6V | 00:00:00 | 01:28:54 | 00:00:00 | |
| HA6NAB-11 | 2026-09-02 00:12:13 | 49.43441 | 17.97309 | 96° | 24km/h | 18399m | 4.2m/s | -53.0°C | 1.3% | 0hPa | 2.6V | 00:00:00 | 00:00:00 | 00:00:00 | |
| OE5DRO-10 | 2026-09-02 00:12:08 | 49.43447 | 17.97245 | 99° | 26km/h | 18371m | 3.4m/s | -53.1°C | 4.2% | 0hPa | 2.6V | 00:00:00 | 00:00:00 | 00:00:00 | |
| HA6NAB-11 | 2026-09-02 00:12:07 | 49.43447 | 17.97244 | 100° | 35km/h | 18371m | 3.5m/s | -53.2°C | 1.3% | 0hPa | 2.7V | 00:00:00 | 00:00:00 | 00:00:00 | |
| DO3MHA-11 | 2026-09-02 00:12:06 | 49.43449 | 17.97221 | 99° | 24km/h | 18361m | 4.3m/s | -53.1°C | 4.2% | 0hPa | 2.7V | 00:00:00 | 01:28:42 | 00:00:00 | |
| PETON7-10 | 2026-09-02 00:12:03 | 49.43450 | 17.97191 | 86° | 24km/h | 18348m | 4.0m/s | -53.0°C | 4.2% | 0hPa | 2.6V | 00:00:00 | 01:28:39 | 00:00:00 | |
| OE3OSB-13 | 2026-09-02 00:12:00 | 49.43450 | 17.97167 | 103° | 18km/h | 18334m | 4.0m/s | -52.9°C | 1.2% | -1.0hPa | 2.6V | 00:00:00 | 00:00:00 | 00:00:00 | |
| PG1ADW-2 | 2026-09-02 00:11:58 | 49.43453 | 17.97151 | 105° | 26km/h | 18325m | 5.4m/s | -52.8°C | 4.1% | 0hPa | 2.6V | 00:00:00 | 00:00:00 | 00:00:00 | |
| OE5DXL-15 | 2026-09-02 00:11:56 | 49.43456 | 17.97130 | 101° | 24km/h | 18317m | 3.0m/s | -52.8°C | 4.1% | 0hPa | 2.7V | 00:00:00 | 00:00:00 | 00:00:00 | |
| OE5DRO-10 | 2026-09-02 00:11:49 | 49.43462 | 17.97060 | 88° | 22km/h | 18285m | 3.9m/s | -52.6°C | 4.1% | 0hPa | 2.7V | 00:00:00 | 00:00:00 | 00:00:00 | |
| PETON7-10 | 2026-09-02 00:11:48 | 49.43462 | 17.97052 | 96° | 22km/h | 18280m | 5.3m/s | -52.6°C | 4.1% | 0hPa | 2.7V | 00:00:00 | 00:00:00 | 00:00:00 | |
| OM5KV | 2026-09-02 00:11:41 | 49.43477 | 17.96990 | 115° | 26km/h | 18248m | 5.5m/s | -52.4°C | 1.3% | 0hPa | 2.6V | 00:00:00 | 00:00:00 | 00:00:00 | |
| PG1ADW-2 | 2026-09-02 00:11:38 | 49.43481 | 17.96966 | 94° | 24km/h | 18234m | 4.2m/s | -52.2°C | 3.9% | 0hPa | 2.6V | 00:00:00 | 00:00:00 | 00:00:00 | |
| OM5KV | 2026-09-02 00:11:34 | 49.43482 | 17.96945 | 98° | 16km/h | 18219m | 4.3m/s | -52.2°C | 1.3% | 0hPa | 2.6V | 00:00:00 | 00:00:00 | 00:00:00 | |
| PETON7-10 | 2026-09-02 00:11:33 | 49.43483 | 17.96931 | 96° | 26km/h | 18210m | 5.4m/s | -52.3°C | 3.9% | 0hPa | 2.6V | 00:00:00 | 00:00:00 | 00:00:00 | |
| DO3MHA-11 | 2026-09-02 00:11:31 | 49.43485 | 17.96914 | 108° | 27km/h | 18201m | 5.0m/s | -52.4°C | 4.0% | 0hPa | 2.6V | 00:00:00 | 01:28:07 | 00:00:00 | |
| OE5DRO-10 | 2026-09-02 00:11:30 | 49.43488 | 17.96904 | 116° | 26km/h | 18196m | 4.9m/s | -52.4°C | 4.1% | 0hPa | 2.6V | 00:00:00 | 00:00:00 | 00:00:00 | |
| OE3OSB-13 | 2026-09-02 00:11:29 | 49.43491 | 17.96894 | 117° | 29km/h | 18191m | 3.7m/s | -52.5°C | 1.2% | -1.0hPa | 2.6V | 00:00:00 | 00:00:00 | 00:00:00 | |
| OE5DXL-15 | 2026-09-02 00:11:26 | 49.43499 | 17.96862 | 107° | 26km/h | 18178m | 3.3m/s | -52.4°C | 4.1% | 0hPa | 2.6V | 00:00:00 | 00:00:00 | 00:00:00 | |
| OE5MMP-10 | 2026-09-02 00:11:24 | 49.43503 | 17.96844 | 111° | 24km/h | 18169m | 5.1m/s | 0°C | 0% | 0hPa | 2.6V | 00:00:00 | 01:28:00 | 00:00:00 | |
| DO3MHA-11 | 2026-09-02 00:11:21 | 49.43508 | 17.96819 | 100° | 24km/h | 18155m | 5.3m/s | -52.4°C | 4.0% | 0hPa | 2.6V | 00:00:00 | 01:27:57 | 08:30:00 | |
| HA6NAB-11 | 2026-09-02 00:11:19 | 49.43509 | 17.96811 | 102° | 22km/h | 18150m | 4.3m/s | -52.4°C | 1.3% | 0hPa | 2.7V | 00:00:00 | 00:00:00 | 00:00:00 | |
| PETON7-10 | 2026-09-02 00:11:18 | 49.43512 | 17.96794 | 114° | 26km/h | 18140m | 4.6m/s | -52.2°C | 4.1% | 0hPa | 2.7V | 00:00:00 | 01:27:54 | 00:00:00 | |
| HA6NAB-11 | 2026-09-02 00:11:13 | 49.43523 | 17.96759 | 117° | 27km/h | 18123m | 3.8m/s | -52.2°C | 1.3% | 0hPa | 2.7V | 00:00:00 | 00:00:00 | 00:00:00 | |
| DO3MHA-11 | 2026-09-02 00:11:11 | 49.43534 | 17.96734 | 128° | 26km/h | 18108m | 3.6m/s | -52.0°C | 4.0% | 0hPa | 2.7V | 00:00:00 | 01:27:47 | 00:00:00 | |
| OE5MMP-10 | 2026-09-02 00:11:10 | 49.43537 | 17.96726 | 122° | 24km/h | 18104m | 4.7m/s | 0°C | 0% | 0hPa | 2.7V | 00:00:00 | 01:27:46 | 00:00:00 | |
| HA6NAB-11 | 2026-09-02 00:11:08 | 49.43540 | 17.96719 | 116° | 24km/h | 18099m | 5.1m/s | -52.0°C | 1.3% | 0hPa | 2.7V | 00:00:00 | 00:00:00 | 00:00:00 | |
| OM5KV | 2026-09-02 00:11:05 | 49.43548 | 17.96692 | 119° | 27km/h | 18084m | 5.0m/s | -51.9°C | 1.3% | 0hPa | 2.7V | 00:00:00 | 00:00:00 | 00:00:00 | |
| PETON7-10 | 2026-09-02 00:11:03 | 49.43557 | 17.96664 | 116° | 29km/h | 18069m | 4.2m/s | -51.7°C | 3.8% | 0hPa | 2.7V | 00:00:00 | 00:00:00 | 08:30:00 | |
| HA6NAB-11 | 2026-09-02 00:11:02 | 49.43557 | 17.96664 | 116° | 27km/h | 18069m | 4.3m/s | -51.8°C | 1.3% | 0hPa | 2.6V | 00:00:00 | 00:00:00 | 00:00:00 | |
| DO3MHA-11 | 2026-09-02 00:11:01 | 49.43564 | 17.96646 | 127° | 27km/h | 18061m | 5.7m/s | -51.7°C | 3.8% | 0hPa | 2.6V | 00:00:00 | 01:27:37 | 00:00:00 | |
| OM5KV | 2026-09-02 00:10:59 | 49.43568 | 17.96638 | 136° | 27km/h | 18055m | 5.0m/s | -51.7°C | 1.2% | 0hPa | 2.6V | 00:00:00 | 00:00:00 | 00:00:00 | |
| PG1ADW-2 | 2026-09-02 00:10:58 | 49.43578 | 17.96624 | 136° | 33km/h | 18046m | 5.5m/s | -51.7°C | 3.8% | 0hPa | 2.6V | 00:00:00 | 00:00:00 | 00:00:00 | |
| OE5DXL-15 | 2026-09-02 00:10:56 | 49.43586 | 17.96610 | 128° | 38km/h | 18037m | 3.7m/s | -51.7°C | 3.8% | 0hPa | 2.7V | 00:00:00 | 00:00:00 | 00:00:00 | |
| OM5KV | 2026-09-02 00:10:53 | 49.43594 | 17.96594 | 128° | 27km/h | 18026m | 5.3m/s | -51.7°C | 1.3% | 0hPa | 2.7V | 00:00:00 | 00:00:00 | 00:00:00 | |
| OE5DRO-10 | 2026-09-02 00:10:52 | 49.43601 | 17.96573 | 113° | 37km/h | 18017m | 6.2m/s | -51.7°C | 3.8% | 0hPa | 2.7V | 00:00:00 | 00:00:00 | 00:00:00 | |
| DO3MHA-11 | 2026-09-02 00:10:51 | 49.43605 | 17.96561 | 106° | 35km/h | 18012m | 4.8m/s | -51.7°C | 3.8% | 0hPa | 2.7V | 00:00:00 | 01:27:27 | 00:00:00 | |
| PETON7-10 | 2026-09-02 00:10:48 | 49.43614 | 17.96519 | 116° | 37km/h | 17997m | 4.9m/s | -51.6°C | 3.9% | 0hPa | 2.7V | 00:00:00 | 00:00:00 | 00:00:00 | |
| OM5KV | 2026-09-02 00:10:47 | 49.43614 | 17.96519 | 116° | 38km/h | 17997m | 5.0m/s | -51.7°C | 1.3% | 0hPa | 2.7V | 00:00:00 | 00:00:00 | 00:00:00 | |
| DO3MHA-11 | 2026-09-02 00:10:41 | 49.43645 | 17.96443 | 122° | 40km/h | 17962m | 5.9m/s | -51.6°C | 3.8% | 0hPa | 2.7V | 00:00:00 | 01:27:17 | 00:00:00 | |
| PG1ADW-2 | 2026-09-02 00:10:38 | 49.43660 | 17.96408 | 124° | 47km/h | 17948m | 4.5m/s | -51.8°C | 3.8% | 0hPa | 2.7V | 00:00:00 | 00:00:00 | 00:00:00 | |
| OM5KV | 2026-09-02 00:10:34 | 49.43676 | 17.96364 | 117° | 44km/h | 17932m | 3.9m/s | -52.1°C | 1.2% | 0hPa | 2.7V | 00:00:00 | 00:00:00 | 00:00:00 | |
| PETON7-10 | 2026-09-02 00:10:33 | 49.43686 | 17.96335 | 122° | 49km/h | 17922m | 5.3m/s | -52.2°C | 3.8% | 0hPa | 2.7V | 00:00:00 | 01:27:09 | 00:00:00 | |
| DO3MHA-11 | 2026-09-02 00:10:31 | 49.43697 | 17.96307 | 119° | 49km/h | 17913m | 4.8m/s | -52.4°C | 3.9% | 0hPa | 2.7V | 00:00:00 | 01:27:07 | 00:00:00 | |
| OM5KV | 2026-09-02 00:10:28 | 49.43707 | 17.96274 | 112° | 49km/h | 17901m | 5.3m/s | -52.5°C | 1.3% | 0hPa | 2.7V | 00:00:00 | 00:00:00 | 00:00:00 | |
| OE3OSB-13 | 2026-09-02 00:10:27 | 49.43719 | 17.96221 | 107° | 47km/h | 17885m | 3.6m/s | -52.5°C | 1.2% | -1.0hPa | 2.7V | 00:00:00 | 00:00:00 | 00:00:00 | |
| OE5DXL-15 | 2026-09-02 00:10:26 | 49.43719 | 17.96221 | 108° | 47km/h | 17885m | 3.5m/s | -52.4°C | 4.0% | 0hPa | 2.7V | 00:00:00 | 00:00:00 | 00:00:00 | |
| HA6NAB-11 | 2026-09-02 00:10:25 | 49.43719 | 17.96221 | 108° | 47km/h | 17885m | 3.6m/s | -52.5°C | 1.3% | 0hPa | 2.7V | 00:00:00 | 00:00:00 | 00:00:00 | |
| OM5KV | 2026-09-02 00:10:22 | 49.43729 | 17.96164 | 105° | 53km/h | 17871m | 4.2m/s | -52.4°C | 1.3% | 0hPa | 2.7V | 00:00:00 | 00:00:00 | 00:00:00 | |
| DO3MHA-11 | 2026-09-02 00:10:21 | 49.43736 | 17.96125 | 108° | 51km/h | 17862m | 5.2m/s | -52.4°C | 4.0% | 0hPa | 2.7V | 00:00:00 | 01:26:57 | 00:00:00 | |
| HA6NAB-11 | 2026-09-02 00:10:20 | 49.43736 | 17.96125 | 109° | 51km/h | 17862m | 5.2m/s | -52.4°C | 1.3% | 0hPa | 2.7V | 00:00:00 | 00:00:00 | 00:00:00 | |
| PG1ADW-2 | 2026-09-02 00:10:18 | 49.43747 | 17.96069 | 105° | 47km/h | 17847m | 4.5m/s | -52.4°C | 4.0% | 0hPa | 2.7V | 00:00:00 | 00:00:00 | 00:00:00 | |
| HA6NAB-11 | 2026-09-02 00:10:16 | 49.43753 | 17.96031 | 107° | 49km/h | 17838m | 5.7m/s | -52.6°C | 1.3% | 0hPa | 2.7V | 00:00:00 | 00:00:00 | 00:00:00 | |
| OM5KV | 2026-09-02 00:10:15 | 49.43753 | 17.96031 | 107° | 49km/h | 17838m | 5.7m/s | -52.6°C | 1.3% | 0hPa | 2.7V | 00:00:00 | 00:00:00 | 00:00:00 | |
| OE5DRO-10 | 2026-09-02 00:10:14 | 49.43760 | 17.95994 | 106° | 46km/h | 17828m | 4.7m/s | -52.8°C | 4.0% | 0hPa | 2.7V | 00:00:00 | 00:00:00 | 00:00:00 | |
| DO3MHA-11 | 2026-09-02 00:10:11 | 49.43771 | 17.95934 | 106° | 47km/h | 17813m | 5.6m/s | -52.8°C | 3.9% | 0hPa | 2.7V | 00:00:00 | 01:26:47 | 00:00:00 | |
| OM5KV | 2026-09-02 00:10:09 | 49.43774 | 17.95915 | 109° | 51km/h | 17808m | 4.9m/s | -52.9°C | 1.3% | 0hPa | 2.7V | 00:00:00 | 00:00:00 | 00:00:00 | |
| PETON7-10 | 2026-09-02 00:10:03 | 49.43798 | 17.95793 | 104° | 42km/h | 17775m | 5.5m/s | -52.7°C | 4.0% | 0hPa | 2.7V | 00:00:00 | 00:00:00 | 00:00:00 | |
| OE3OSB-13 | 2026-09-02 00:09:56 | 49.43808 | 17.95663 | 96° | 44km/h | 17736m | 3.8m/s | -52.8°C | 1.2% | -1.0hPa | 2.7V | 00:00:00 | 00:00:00 | 00:00:00 | |
| OE5DRO-10 | 2026-09-02 00:09:55 | 49.43808 | 17.95662 | 97° | 38km/h | 17736m | 3.7m/s | -52.8°C | 3.9% | 0hPa | 2.7V | 00:00:00 | 00:00:00 | 00:00:00 | |
| DO3MHA-11 | 2026-09-02 00:09:51 | 49.43816 | 17.95598 | 105° | 42km/h | 17717m | 4.9m/s | -53.3°C | 4.0% | 0hPa | 2.7V | 00:00:00 | 01:26:27 | 08:30:00 | |
| OM5KV | 2026-09-02 00:09:49 | 49.43821 | 17.95566 | 103° | 44km/h | 17706m | 4.6m/s | -53.6°C | 1.4% | 0hPa | 2.7V | 00:00:00 | 00:00:00 | 00:00:00 | |
| PETON7-10 | 2026-09-02 00:09:48 | 49.43823 | 17.95550 | 102° | 38km/h | 17701m | 5.3m/s | -53.7°C | 4.2% | 0hPa | 2.7V | 00:00:00 | 01:26:24 | 00:00:00 | |
| OM5KV | 2026-09-02 00:09:42 | 49.43828 | 17.95469 | 85° | 42km/h | 17676m | 3.6m/s | -53.9°C | 1.5% | 0hPa | 2.7V | 00:00:00 | 00:00:00 | 00:00:00 | |
| DO3MHA-11 | 2026-09-02 00:09:41 | 49.43825 | 17.95440 | 81° | 37km/h | 17667m | 6.3m/s | -53.8°C | 4.3% | 0hPa | 2.7V | 00:00:00 | 01:26:17 | 00:00:00 | |
| PG1ADW-2 | 2026-09-02 00:09:38 | 49.43824 | 17.95406 | 95° | 40km/h | 17652m | 5.2m/s | -53.8°C | 4.3% | 0hPa | 2.7V | 00:00:00 | 00:00:00 | 00:00:00 | |
| OE5DRO-10 | 2026-09-02 00:09:36 | 49.43826 | 17.95380 | 100° | 42km/h | 17642m | 4.1m/s | -53.7°C | 4.3% | 0hPa | 2.7V | 00:00:00 | 00:00:00 | 00:00:00 | |
| PETON7-10 | 2026-09-02 00:09:33 | 49.43831 | 17.95333 | 100° | 40km/h | 17623m | 7.6m/s | -53.7°C | 4.2% | 0hPa | 2.7V | 00:00:00 | 00:00:00 | 00:00:00 | |
| DO3MHA-11 | 2026-09-02 00:09:31 | 49.43833 | 17.95301 | 95° | 40km/h | 17611m | 6.3m/s | -53.7°C | 4.2% | 0hPa | 2.7V | 00:00:00 | 01:26:07 | 00:00:00 | |
| OM5KV | 2026-09-02 00:09:30 | 49.43834 | 17.95301 | 96° | 44km/h | 17611m | 6.3m/s | -53.8°C | 1.4% | 0hPa | 2.7V | 00:00:00 | 00:00:00 | 00:00:00 | |
| OE5DXL-15 | 2026-09-02 00:09:29 | 49.43838 | 17.95224 | 106° | 51km/h | 17583m | 4.9m/s | -53.9°C | 4.2% | 0hPa | 2.7V | 00:00:00 | 00:00:00 | 08:30:00 | |
| OM5KV | 2026-09-02 00:09:28 | 49.43841 | 17.95211 | 109° | 35km/h | 17578m | 5.1m/s | -53.9°C | 1.4% | 0hPa | 2.7V | 00:00:00 | 00:00:00 | 00:00:00 | |
| HA6NAB-11 | 2026-09-02 00:09:22 | 49.43849 | 17.95167 | 108° | 44km/h | 17562m | 4.9m/s | -53.9°C | 1.4% | 0hPa | 2.7V | 00:00:00 | 00:00:00 | 00:00:00 | |
| DO3MHA-11 | 2026-09-02 00:09:21 | 49.43853 | 17.95151 | 109° | 53km/h | 17556m | 6.9m/s | -53.9°C | 4.3% | 0hPa | 2.7V | 00:00:00 | 01:25:57 | 00:00:00 | |
| PETON7-10 | 2026-09-02 00:09:18 | 49.43864 | 17.95101 | 109° | 53km/h | 17540m | 6.0m/s | -53.8°C | 4.3% | 0hPa | 2.6V | 00:00:00 | 00:00:00 | 00:00:00 | |
| OE5DRO-10 | 2026-09-02 00:09:17 | 49.43868 | 17.95082 | 108° | 57km/h | 17535m | 5.1m/s | -53.8°C | 4.3% | 0hPa | 2.6V | 00:00:00 | 00:00:00 | 00:00:00 | |
| HA6NAB-11 | 2026-09-02 00:09:16 | 49.43868 | 17.95082 | 108° | 51km/h | 17535m | 5.2m/s | -53.9°C | 1.4% | 0hPa | 2.6V | 00:00:00 | 00:00:00 | 00:00:00 | |
| OM5KV | 2026-09-02 00:09:13 | 49.43885 | 17.95006 | 113° | 53km/h | 17514m | 4.1m/s | -54.0°C | 1.5% | 0hPa | 2.6V | 00:00:00 | 00:00:00 | 00:00:00 | |
| HA6NAB-11 | 2026-09-02 00:09:10 | 49.43896 | 17.94966 | 112° | 57km/h | 17503m | 4.1m/s | -53.9°C | 1.4% | 0hPa | 2.6V | 00:00:00 | 00:00:00 | 00:00:00 | |
| OM5KV | 2026-09-02 00:09:07 | 49.43916 | 17.94886 | 111° | 55km/h | 17483m | 5.1m/s | -53.8°C | 1.4% | 0hPa | 2.6V | 00:00:00 | 00:00:00 | 00:00:00 | |
| HA6NAB-11 | 2026-09-02 00:09:06 | 49.43921 | 17.94866 | 110° | 55km/h | 17478m | 5.3m/s | -53.8°C | 1.4% | 0hPa | 2.6V | 00:00:00 | 00:00:00 | 00:00:00 | |
| PETON7-10 | 2026-09-02 00:09:03 | 49.43934 | 17.94806 | 110° | 60km/h | 17463m | 4.6m/s | -53.7°C | 4.3% | 0hPa | 2.6V | 00:00:00 | 01:25:39 | 00:00:00 | |
| DO3MHA-11 | 2026-09-02 00:09:02 | 49.43939 | 17.94785 | 111° | 60km/h | 17458m | 5.1m/s | -53.7°C | 4.2% | 0hPa | 2.6V | 00:00:00 | 01:25:38 | 00:00:00 | |
| HA6NAB-11 | 2026-09-02 00:08:59 | 49.43950 | 17.94740 | 111° | 64km/h | 17448m | 3.8m/s | -53.7°C | 1.4% | 0hPa | 2.6V | 00:00:00 | 00:00:00 | 00:00:00 | |
| PG1ADW-2 | 2026-09-02 00:08:58 | 49.43961 | 17.94696 | 112° | 60km/h | 17438m | 5.9m/s | -53.6°C | 4.2% | 0hPa | 2.6V | 00:00:00 | 00:00:00 | 00:00:00 | |
| OE5DXL-15 | 2026-09-02 00:08:56 | 49.43972 | 17.94653 | 110° | 62km/h | 17428m | 5.1m/s | -53.6°C | 4.2% | 0hPa | 2.7V | 00:00:00 | 00:00:00 | 00:00:00 | |
| OM5KV | 2026-09-02 00:08:53 | 49.43980 | 17.94609 | 104° | 58km/h | 17418m | 5.1m/s | -53.6°C | 1.5% | 0hPa | 2.7V | 00:00:00 | 00:00:00 | 00:00:00 | |
| DO3MHA-11 | 2026-09-02 00:08:52 | 49.43985 | 17.94566 | 99° | 58km/h | 17407m | 5.2m/s | -53.6°C | 4.3% | 0hPa | 2.7V | 00:00:00 | 01:25:28 | 00:00:00 | |
| PETON7-10 | 2026-09-02 00:08:47 | 49.43999 | 17.94451 | 106° | 66km/h | 17383m | 4.6m/s | -53.7°C | 4.1% | 0hPa | 2.7V | 00:00:00 | 00:00:00 | 08:30:00 | |
| DO3MHA-11 | 2026-09-02 00:08:42 | 49.44017 | 17.94344 | 100° | 69km/h | 17357m | 5.5m/s | -54.0°C | 4.2% | 0hPa | 2.7V | 00:00:00 | 01:25:18 | 00:00:00 | |
| OM5KV | 2026-09-02 00:08:41 | 49.44017 | 17.94344 | 100° | 58km/h | 17357m | 5.5m/s | -54.1°C | 1.4% | 0hPa | 2.7V | 00:00:00 | 00:00:00 | 00:00:00 | |
| OE5DRO-10 | 2026-09-02 00:08:39 | 49.44022 | 17.94269 | 95° | 66km/h | 17343m | 5.2m/s | -54.1°C | 4.1% | 0hPa | 2.7V | 00:00:00 | 00:00:00 | 00:00:00 | |
| PG1ADW-2 | 2026-09-02 00:08:38 | 49.44023 | 17.94242 | 93° | 66km/h | 17337m | 6.0m/s | -54.1°C | 4.2% | 0hPa | 2.7V | 00:00:00 | 01:25:14 | 00:00:00 | |
| DO3MHA-11 | 2026-09-02 00:08:32 | 49.44025 | 17.94077 | 90° | 62km/h | 17307m | 4.8m/s | -54.4°C | 4.3% | 0hPa | 2.7V | 00:00:00 | 01:25:08 | 00:00:00 | |
| PETON7-10 | 2026-09-02 00:08:31 | 49.44025 | 17.94051 | 91° | 62km/h | 17302m | 4.7m/s | -54.4°C | 4.3% | 0hPa | 2.7V | 00:00:00 | 00:00:00 | 00:00:00 | |
| OM5KV | 2026-09-02 00:08:30 | 49.44026 | 17.94026 | 92° | 64km/h | 17297m | 5.5m/s | -54.5°C | 1.5% | 0hPa | 2.7V | 00:00:00 | 00:00:00 | 00:00:00 | |
| OE5DXL-15 | 2026-09-02 00:08:26 | 49.44027 | 17.93931 | 91° | 60km/h | 17278m | 4.4m/s | -54.8°C | 4.4% | 0hPa | 2.7V | 00:00:00 | 00:00:00 | 00:00:00 | |
| DO3MHA-11 | 2026-09-02 00:08:22 | 49.44028 | 17.93838 | 92° | 66km/h | 17260m | 5.1m/s | -55.4°C | 4.7% | 0hPa | 2.7V | 00:00:00 | 01:24:58 | 00:00:00 | |
| OE5DRO-10 | 2026-09-02 00:08:20 | 49.44028 | 17.93790 | 87° | 62km/h | 17250m | 3.9m/s | -55.5°C | 4.7% | 0hPa | 2.7V | 00:00:00 | 00:00:00 | 08:30:00 | |
| PG1ADW-2 | 2026-09-02 00:08:18 | 49.44025 | 17.93739 | 85° | 62km/h | 17240m | 4.3m/s | -55.5°C | 4.8% | 0hPa | 2.6V | 00:00:00 | 00:00:00 | 00:00:00 | |
| PETON7-10 | 2026-09-02 00:08:16 | 49.44020 | 17.93688 | 80° | 60km/h | 17231m | 5.8m/s | -55.4°C | 4.7% | 0hPa | 2.6V | 00:00:00 | 01:24:52 | 00:00:00 | |
| DO3MHA-11 | 2026-09-02 00:08:12 | 49.44006 | 17.93588 | 80° | 58km/h | 17211m | 3.7m/s | -55.3°C | 4.7% | 0hPa | 2.6V | 00:00:00 | 01:24:48 | 08:30:00 | |
| OM5KV | 2026-09-02 00:08:10 | 49.44003 | 17.93563 | 82° | 64km/h | 17207m | 2.9m/s | -55.3°C | 1.6% | 0hPa | 2.6V | 00:00:00 | 00:00:00 | 00:00:00 | |
| OE3JTB-15 | 2026-09-02 00:08:03 | 49.43984 | 17.93387 | 77° | 55km/h | 17168m | 5.2m/s | -54.9°C | 4.6% | 0hPa | 2.6V | 00:00:00 | 01:24:39 | 00:00:00 | |
| OE3OSB-13 | 2026-09-02 00:07:52 | 49.43954 | 17.93126 | 80° | 53km/h | 17110m | 4.3m/s | -55.0°C | 1.4% | -1.0hPa | 2.6V | 00:00:00 | 00:00:00 | 00:00:00 | |
| OM5KV | 2026-09-02 00:07:51 | 49.43956 | 17.93147 | 83° | 55km/h | 17115m | 5.9m/s | -54.9°C | 1.6% | 0hPa | 2.6V | 00:00:00 | 00:00:00 | 00:00:00 | |
| HA6NAB-11 | 2026-09-02 00:07:50 | 49.43952 | 17.93106 | 81° | 55km/h | 17105m | 5.7m/s | -55.0°C | 1.5% | 0hPa | 2.6V | 00:00:00 | 00:00:00 | 00:00:00 | |
| OM5KV | 2026-09-02 00:07:46 | 49.43942 | 17.93023 | 82° | 51km/h | 17086m | 5.0m/s | -55.3°C | 1.6% | 0hPa | 2.6V | 00:00:00 | 00:00:00 | 00:00:00 | |
| HA6NAB-11 | 2026-09-02 00:07:43 | 49.43939 | 17.92984 | 85° | 51km/h | 17077m | 5.8m/s | -55.2°C | 1.6% | 0hPa | 2.6V | 00:00:00 | 00:00:00 | 00:00:00 | |
| OE5DRO-10 | 2026-09-02 00:07:42 | 49.43937 | 17.92942 | 88° | 57km/h | 17067m | 4.1m/s | -55.1°C | 4.6% | 0hPa | 2.6V | 00:00:00 | 00:00:00 | 00:00:00 | |
| OM5KV | 2026-09-02 00:07:40 | 49.43936 | 17.92899 | 93° | 57km/h | 17058m | 4.2m/s | -55.1°C | 1.6% | 0hPa | 2.6V | 00:00:00 | 00:00:00 | 00:00:00 | |
| PG1ADW-2 | 2026-09-02 00:07:38 | 49.43937 | 17.92854 | 92° | 55km/h | 17047m | 4.9m/s | -55.0°C | 4.6% | 0hPa | 2.6V | 00:00:00 | 00:00:00 | 00:00:00 | |
| OE3JTB-15 | 2026-09-02 00:07:34 | 49.43937 | 17.92766 | 87° | 53km/h | 17029m | 4.3m/s | -55.0°C | 4.6% | 0hPa | 2.6V | 00:00:00 | 00:00:00 | 08:30:00 | |
| DO3MHA-11 | 2026-09-02 00:07:32 | 49.43934 | 17.92725 | 85° | 55km/h | 17019m | 4.9m/s | -55.0°C | 4.5% | 0hPa | 2.6V | 00:00:00 | 01:24:08 | 00:00:00 | |
| PETON7-10 | 2026-09-02 00:07:31 | 49.43933 | 17.92704 | 86° | 55km/h | 17015m | 4.5m/s | -55.1°C | 4.6% | 0hPa | 2.6V | 00:00:00 | 01:24:07 | 00:00:00 | |
| OM5KV | 2026-09-02 00:07:29 | 49.43932 | 17.92684 | 87° | 51km/h | 17009m | 5.9m/s | -55.1°C | 1.6% | 0hPa | 2.6V | 00:00:00 | 00:00:00 | 00:00:00 | |
| OE5DXL-15 | 2026-09-02 00:07:26 | 49.43930 | 17.92599 | 88° | 51km/h | 16991m | 3.9m/s | -55.2°C | 4.5% | 0hPa | 2.6V | 00:00:00 | 00:00:00 | 00:00:00 | |
| OM5KV | 2026-09-02 00:07:24 | 49.43930 | 17.92576 | 89° | 60km/h | 16988m | 3.6m/s | -55.3°C | 1.6% | 0hPa | 2.6V | 00:00:00 | 00:00:00 | 00:00:00 | |
| OE5DRO-10 | 2026-09-02 00:07:23 | 49.43929 | 17.92532 | 91° | 51km/h | 16978m | 4.7m/s | -55.3°C | 4.6% | 0hPa | 2.6V | 00:00:00 | 00:00:00 | 00:00:00 | |
| DO3MHA-11 | 2026-09-02 00:07:22 | 49.43929 | 17.92511 | 91° | 51km/h | 16974m | 3.9m/s | -55.3°C | 4.6% | 0hPa | 2.6V | 00:00:00 | 01:23:58 | 00:00:00 | |
| OE3OSB-13 | 2026-09-02 00:07:20 | 49.43928 | 17.92469 | 86° | 55km/h | 16965m | 5.5m/s | -55.4°C | 1.5% | -1.0hPa | 2.6V | 00:00:00 | 00:00:00 | 00:00:00 | |
| PG1ADW-2 | 2026-09-02 00:07:18 | 49.43924 | 17.92427 | 78° | 49km/h | 16956m | 4.3m/s | -55.3°C | 4.7% | 0hPa | 2.6V | 00:00:00 | 01:23:54 | 00:00:00 | |
| PETON7-10 | 2026-09-02 00:07:16 | 49.43918 | 17.92390 | 70° | 49km/h | 16946m | 4.5m/s | -55.3°C | 4.6% | 0hPa | 2.6V | 00:00:00 | 00:00:00 | 00:00:00 | |
| DO3MHA-11 | 2026-09-02 00:07:12 | 49.43896 | 17.92321 | 65° | 49km/h | 16927m | 3.1m/s | -55.4°C | 4.7% | 0hPa | 2.7V | 00:00:00 | 01:23:48 | 00:00:00 | |
| HA6NAB-11 | 2026-09-02 00:07:09 | 49.43887 | 17.92287 | 72° | 46km/h | 16918m | 4.3m/s | -55.4°C | 1.6% | 0hPa | 2.7V | 00:00:00 | 00:00:00 | 00:00:00 | |
| OM5KV | 2026-09-02 00:07:06 | 49.43879 | 17.92232 | 84° | 53km/h | 16904m | 4.4m/s | -55.4°C | 1.7% | 0hPa | 2.7V | 00:00:00 | 00:00:00 | 00:00:00 | |
| OE3JTB-15 | 2026-09-02 00:07:05 | 49.43876 | 17.92191 | 88° | 47km/h | 16895m | 5.4m/s | -55.2°C | 4.6% | 0hPa | 2.7V | 00:00:00 | 00:00:00 | 00:00:00 | |
| OE5DRO-10 | 2026-09-02 00:07:04 | 49.43876 | 17.92172 | 88° | 46km/h | 16890m | 3.8m/s | -55.2°C | 4.7% | 0hPa | 2.7V | 00:00:00 | 00:00:00 | 00:00:00 | |
| HA6NAB-11 | 2026-09-02 00:07:03 | 49.43876 | 17.92172 | 88° | 49km/h | 16890m | 3.9m/s | -55.3°C | 1.7% | 0hPa | 2.7V | 00:00:00 | 00:00:00 | 00:00:00 | |
| OE3OSB-13 | 2026-09-02 00:06:49 | 49.43836 | 17.91909 | 82° | 46km/h | 16819m | 4.4m/s | -55.1°C | 1.5% | -1.0hPa | 2.7V | 00:00:00 | 00:00:00 | 00:00:00 | |
| PETON7-10 | 2026-09-02 00:06:46 | 49.43832 | 17.91859 | 83° | 44km/h | 16804m | 5.7m/s | -54.9°C | 4.6% | 0hPa | 2.7V | 00:00:00 | 01:23:22 | 00:00:00 | |
| OE5DRO-10 | 2026-09-02 00:06:45 | 49.43830 | 17.91842 | 81° | 44km/h | 16798m | 5.3m/s | -54.9°C | 4.6% | 0hPa | 2.7V | 00:00:00 | 00:00:00 | 00:00:00 | |
| POL1PZ | 2026-09-02 00:06:44 | 49.43830 | 17.91842 | 82° | 44km/h | 16798m | 5.4m/s | -55.0°C | 1.6% | 0hPa | 2.7V | 00:00:00 | 00:00:00 | 00:00:00 | |
| DO3MHA-11 | 2026-09-02 00:06:42 | 49.43825 | 17.91796 | 82° | 44km/h | 16784m | 4.9m/s | 0°C | 0% | 0hPa | 2.7V | 00:00:00 | 01:23:18 | 08:30:00 | |
| OM5KV | 2026-09-02 00:06:39 | 49.43821 | 17.91748 | 84° | 44km/h | 16767m | 4.1m/s | -55.1°C | 1.7% | 0hPa | 2.7V | 00:00:00 | 00:00:00 | 00:00:00 | |
| PG1ADW-2 | 2026-09-02 00:06:38 | 49.43819 | 17.91731 | 85° | 44km/h | 16763m | 4.2m/s | -55.0°C | 4.6% | 0hPa | 2.7V | 00:00:00 | 00:00:00 | 00:00:00 | |
| OE3JTB-15 | 2026-09-02 00:06:36 | 49.43818 | 17.91698 | 89° | 46km/h | 16753m | 4.7m/s | -55.0°C | 4.6% | 0hPa | 2.7V | 00:00:00 | 01:23:12 | 00:00:00 | |
| DO3MHA-11 | 2026-09-02 00:06:32 | 49.43819 | 17.91626 | 95° | 44km/h | 16732m | 5.7m/s | 0°C | 0% | 0hPa | 2.7V | 00:00:00 | 01:23:08 | 00:00:00 | |
| PETON7-10 | 2026-09-02 00:06:31 | 49.43820 | 17.91609 | 95° | 44km/h | 16727m | 4.5m/s | -54.9°C | 4.6% | 0hPa | 2.7V | 00:00:00 | 00:00:00 | 08:30:00 | |
| OE5DRO-10 | 2026-09-02 00:06:26 | 49.43822 | 17.91524 | 92° | 44km/h | 16703m | 4.0m/s | -54.8°C | 4.6% | 0hPa | 2.7V | 00:00:00 | 00:00:00 | 00:00:00 | |
| POL1PZ | 2026-09-02 00:06:24 | 49.43822 | 17.91508 | 91° | 42km/h | 16698m | 4.3m/s | -54.9°C | 1.6% | 0hPa | 2.7V | 00:00:00 | 00:00:00 | 00:00:00 | |
| OM5KV | 2026-09-02 00:06:22 | 49.43822 | 17.91456 | 92° | 46km/h | 16683m | 5.4m/s | -54.8°C | 1.6% | 0hPa | 2.7V | 00:00:00 | 00:00:00 | 00:00:00 | |
| OE3OSB-13 | 2026-09-02 00:06:19 | 49.43823 | 17.91386 | 87° | 46km/h | 16662m | 5.2m/s | -54.8°C | 1.5% | -1.0hPa | 2.7V | 00:00:00 | 00:00:00 | 00:00:00 | |
| PG1ADW-2 | 2026-09-02 00:06:18 | 49.43823 | 17.91386 | 88° | 44km/h | 16662m | 5.1m/s | -54.8°C | 4.6% | 0hPa | 2.7V | 00:00:00 | 00:00:00 | 00:00:00 | |
| PETON7-10 | 2026-09-02 00:06:16 | 49.43821 | 17.91351 | 86° | 44km/h | 16653m | 5.4m/s | -54.8°C | 4.5% | 0hPa | 2.7V | 00:00:00 | 00:00:00 | 00:00:00 | |
| OM5KV | 2026-09-02 00:06:15 | 49.43821 | 17.91351 | 86° | 44km/h | 16653m | 5.4m/s | -54.9°C | 1.6% | 0hPa | 2.7V | 00:00:00 | 00:00:00 | 00:00:00 | |
| DO3MHA-11 | 2026-09-02 00:06:12 | 49.43818 | 17.91288 | 87° | 46km/h | 16633m | 5.6m/s | 0°C | 0% | 0hPa | 2.7V | 00:00:00 | 01:22:48 | 00:00:00 | |
| OE5DRO-10 | 2026-09-02 00:06:07 | 49.43812 | 17.91205 | 82° | 47km/h | 16609m | 5.7m/s | -54.8°C | 4.6% | 0hPa | 2.7V | 00:00:00 | 00:00:00 | 00:00:00 | |
| POL1PZ | 2026-09-02 00:06:04 | 49.43806 | 17.91152 | 80° | 46km/h | 16593m | 5.8m/s | -54.8°C | 1.7% | 0hPa | 2.7V | 00:00:00 | 00:00:00 | 00:00:00 | |
| DO3MHA-11 | 2026-09-02 00:06:02 | 49.43803 | 17.91119 | 81° | 46km/h | 16584m | 4.5m/s | 0°C | 0% | 0hPa | 2.7V | 00:00:00 | 01:22:38 | 00:00:00 | |
| PETON7-10 | 2026-09-02 00:06:01 | 49.43801 | 17.91102 | 82° | 47km/h | 16579m | 5.7m/s | -54.8°C | 4.7% | 0hPa | 2.7V | 00:00:00 | 01:22:37 | 00:00:00 | |
| PG1ADW-2 | 2026-09-02 00:05:58 | 49.43796 | 17.91052 | 81° | 49km/h | 16563m | 4.6m/s | -54.7°C | 4.7% | 0hPa | 2.7V | 00:00:00 | 01:22:34 | 00:00:00 | |
| OE5DXL-15 | 2026-09-02 00:05:56 | 49.43792 | 17.91018 | 80° | 51km/h | 16555m | 5.6m/s | -54.7°C | 4.6% | 0hPa | 2.7V | 00:00:00 | 00:00:00 | 00:00:00 | |
| DO3MHA-11 | 2026-09-02 00:05:52 | 49.43783 | 17.90941 | 81° | 51km/h | 16534m | 4.1m/s | 0°C | 0% | 0hPa | 2.7V | 00:00:00 | 01:22:28 | 00:00:00 | |
| OE5DRO-10 | 2026-09-02 00:05:48 | 49.43776 | 17.90864 | 82° | 51km/h | 16515m | 5.1m/s | -54.6°C | 4.6% | 0hPa | 2.7V | 00:00:00 | 00:00:00 | 00:00:00 | |
| PETON7-10 | 2026-09-02 00:05:47 | 49.43772 | 17.90825 | 79° | 53km/h | 16506m | 3.4m/s | -54.6°C | 4.5% | 0hPa | 2.7V | 00:00:00 | 00:00:00 | 00:00:00 | |
| POL1PZ | 2026-09-02 00:05:42 | 49.43765 | 17.90765 | 82° | 53km/h | 16491m | 4.1m/s | -54.8°C | 1.7% | 0hPa | 2.6V | 00:00:00 | 00:00:00 | 00:00:00 | |
| DO3MHA-11 | 2026-09-02 00:05:41 | 49.43761 | 17.90727 | 84° | 51km/h | 16482m | 3.8m/s | 0°C | 0% | 0hPa | 2.6V | 00:00:00 | 01:22:17 | 00:00:00 | |
| OM5KV | 2026-09-02 00:05:39 | 49.43760 | 17.90708 | 88° | 49km/h | 16477m | 4.2m/s | -54.8°C | 1.7% | 0hPa | 2.6V | 00:00:00 | 00:00:00 | 00:00:00 | |
| PG1ADW-2 | 2026-09-02 00:05:38 | 49.43760 | 17.90669 | 96° | 51km/h | 16467m | 5.5m/s | -54.8°C | 4.6% | 0hPa | 2.6V | 00:00:00 | 00:00:00 | 00:00:00 | |
| OE3JTB-15 | 2026-09-02 00:05:35 | 49.43765 | 17.90608 | 95° | 51km/h | 16451m | 3.9m/s | -54.7°C | 4.7% | 0hPa | 2.6V | 00:00:00 | 00:00:00 | 00:00:00 | |
| PETON7-10 | 2026-09-02 00:05:31 | 49.43766 | 17.90525 | 87° | 51km/h | 16430m | 6.0m/s | -54.6°C | 4.7% | 0hPa | 2.6V | 00:00:00 | 00:00:00 | 00:00:00 | |
| OE5DRO-10 | 2026-09-02 00:05:29 | 49.43763 | 17.90487 | 84° | 51km/h | 16420m | 5.0m/s | -54.5°C | 4.7% | 0hPa | 2.6V | 00:00:00 | 00:00:00 | 08:30:00 | |
| OE5DXL-15 | 2026-09-02 00:05:26 | 49.43761 | 17.90432 | 91° | 51km/h | 16405m | 3.8m/s | -54.4°C | 4.6% | 0hPa | 2.6V | 00:00:00 | 00:00:00 | 00:00:00 | |
| OM5KV | 2026-09-02 00:05:24 | 49.43762 | 17.90396 | 93° | 46km/h | 16395m | 4.3m/s | -54.4°C | 1.6% | 0hPa | 2.6V | 00:00:00 | 00:00:00 | 00:00:00 | |
| POL1PZ | 2026-09-02 00:05:23 | 49.43762 | 17.90377 | 93° | 49km/h | 16391m | 4.1m/s | -54.3°C | 1.6% | 0hPa | 2.6V | 00:00:00 | 00:00:00 | 00:00:00 | |
| DO3MHA-11 | 2026-09-02 00:05:20 | 49.43764 | 17.90314 | 93° | 51km/h | 16377m | 4.3m/s | 0°C | 0% | 0hPa | 2.6V | 00:00:00 | 01:21:56 | 00:00:00 | |
| HA6NAB-11 | 2026-09-02 00:05:18 | 49.43764 | 17.90271 | 90° | 53km/h | 16367m | 4.1m/s | -54.1°C | 1.7% | 0hPa | 2.6V | 00:00:00 | 00:00:00 | 00:00:00 | |
| OM5KV | 2026-09-02 00:05:17 | 49.43764 | 17.90271 | 90° | 53km/h | 16367m | 4.1m/s | -54.1°C | 1.6% | 0hPa | 2.6V | 00:00:00 | 00:00:00 | 00:00:00 | |
| PETON7-10 | 2026-09-02 00:05:16 | 49.43762 | 17.90229 | 82° | 51km/h | 16357m | 6.4m/s | -54.1°C | 4.4% | 0hPa | 2.6V | 00:00:00 | 01:21:52 | 00:00:00 | |
| OM5KV | 2026-09-02 00:05:12 | 49.43748 | 17.90155 | 75° | 44km/h | 16337m | 4.3m/s | -54.2°C | 1.6% | 0hPa | 2.6V | 00:00:00 | 00:00:00 | 00:00:00 | |
| OE5DRO-10 | 2026-09-02 00:05:10 | 49.43743 | 17.90122 | 80° | 51km/h | 16328m | 5.1m/s | -54.3°C | 4.5% | 0hPa | 2.6V | 00:00:00 | 00:00:00 | 00:00:00 | |
| DO3MHA-11 | 2026-09-02 00:05:09 | 49.43742 | 17.90103 | 82° | 47km/h | 16323m | 5.1m/s | 0°C | 0% | 0hPa | 2.6V | 00:00:00 | 01:21:45 | 00:00:00 | |
| OM5KV | 2026-09-02 00:05:07 | 49.43736 | 17.90044 | 80° | 55km/h | 16307m | 5.0m/s | -54.4°C | 1.6% | 0hPa | 2.6V | 00:00:00 | 00:00:00 | 00:00:00 | |
| OE3OSB-13 | 2026-09-02 00:04:45 | 49.43665 | 17.89629 | 76° | 47km/h | 16206m | 4.9m/s | -54.4°C | 1.5% | -1.0hPa | 2.6V | 00:00:00 | 00:00:00 | 00:00:00 | |
| OM5KV | 2026-09-02 00:04:40 | 49.43651 | 17.89549 | 76° | 42km/h | 16182m | 4.4m/s | -54.3°C | 1.7% | 0hPa | 2.6V | 00:00:00 | 00:00:00 | 00:00:00 | |
| PG1ADW-2 | 2026-09-02 00:04:38 | 49.43644 | 17.89518 | 72° | 38km/h | 16172m | 4.5m/s | -54.3°C | 4.6% | 0hPa | 2.6V | 00:00:00 | 01:21:14 | 00:00:00 | |
| OE3JTB-15 | 2026-09-02 00:04:37 | 49.43638 | 17.89484 | 76° | 40km/h | 16162m | 5.5m/s | -54.3°C | 4.6% | 0hPa | 2.6V | 00:00:00 | 00:00:00 | 00:00:00 | |
| OM5KV | 2026-09-02 00:04:33 | 49.43632 | 17.89453 | 73° | 42km/h | 16153m | 5.4m/s | -54.3°C | 1.6% | 0hPa | 2.7V | 00:00:00 | 00:00:00 | 00:00:00 | |
| OE5DRO-10 | 2026-09-02 00:04:32 | 49.43625 | 17.89424 | 69° | 37km/h | 16143m | 4.2m/s | -54.2°C | 4.5% | 0hPa | 2.7V | 00:00:00 | 00:00:00 | 00:00:00 | |
| PETON7-10 | 2026-09-02 00:04:31 | 49.43621 | 17.89410 | 70° | 37km/h | 16138m | 5.8m/s | -54.1°C | 4.6% | 0hPa | 2.6V | 00:00:00 | 01:21:07 | 00:00:00 | |
| OM5KV | 2026-09-02 00:04:28 | 49.43612 | 17.89373 | 67° | 35km/h | 16123m | 5.4m/s | -54.1°C | 1.6% | 0hPa | 2.6V | 00:00:00 | 00:00:00 | 00:00:00 | |
| OE5DXL-15 | 2026-09-02 00:04:26 | 49.43605 | 17.89348 | 68° | 42km/h | 16114m | 5.3m/s | -54.0°C | 4.5% | 0hPa | 2.6V | 00:00:00 | 00:00:00 | 00:00:00 | |
| POL1PZ | 2026-09-02 00:04:21 | 49.43591 | 17.89283 | 73° | 37km/h | 16090m | 3.9m/s | -53.9°C | 1.6% | 0hPa | 2.6V | 00:00:00 | 00:00:00 | 00:00:00 | |
| PG1ADW-2 | 2026-09-02 00:04:18 | 49.43583 | 17.89242 | 76° | 42km/h | 16074m | 4.9m/s | -53.8°C | 4.4% | 0hPa | 2.6V | 00:00:00 | 00:00:00 | 00:00:00 | |
| OM5KV | 2026-09-02 00:04:16 | 49.43578 | 17.89213 | 76° | 40km/h | 16064m | 4.4m/s | -53.9°C | 1.6% | 0hPa | 2.6V | 00:00:00 | 00:00:00 | 00:00:00 | |
| OE3OSB-13 | 2026-09-02 00:04:15 | 49.43573 | 17.89182 | 78° | 40km/h | 16054m | 5.1m/s | -53.9°C | 1.5% | -1.0hPa | 2.6V | 00:00:00 | 00:00:00 | 00:00:00 | |
| OE5DRO-10 | 2026-09-02 00:04:13 | 49.43571 | 17.89167 | 78° | 44km/h | 16049m | 4.8m/s | -53.9°C | 4.5% | 0hPa | 2.6V | 00:00:00 | 00:00:00 | 00:00:00 | |
| OM5KV | 2026-09-02 00:04:09 | 49.43564 | 17.89119 | 80° | 44km/h | 16034m | 4.8m/s | -53.8°C | 1.6% | 0hPa | 2.6V | 00:00:00 | 00:00:00 | 00:00:00 | |
| DO3MHA-11 | 2026-09-02 00:04:06 | 49.43556 | 17.89035 | 79° | 46km/h | 16009m | 4.1m/s | 0°C | 0% | 0hPa | 2.6V | 00:00:00 | 01:20:41 | 00:00:00 | |
| OM5KV | 2026-09-02 00:04:05 | 49.43556 | 17.89035 | 80° | 44km/h | 16009m | 4.1m/s | -53.7°C | 1.6% | 0hPa | 2.6V | 00:00:00 | 00:00:00 | 00:00:00 | |
| OE5DXL-15 | 2026-09-02 00:04:01 | 49.43534 | 17.88881 | 80° | 38km/h | 15967m | 4.4m/s | -53.8°C | 4.5% | 0hPa | 2.6V | 00:00:00 | 00:00:00 | 00:00:00 | |
| DO3MHA-11 | 2026-09-02 00:04:00 | 49.43532 | 17.88864 | 78° | 38km/h | 15962m | 5.2m/s | 0°C | 0% | 0hPa | 2.6V | 00:00:00 | 01:20:31 | 00:00:00 | |
| OE5DRO-10 | 2026-09-02 00:03:59 | 49.43530 | 17.88848 | 78° | 38km/h | 15958m | 3.7m/s | -53.8°C | 4.5% | 0hPa | 2.6V | 00:00:00 | 00:00:00 | 00:00:00 | |
| OM5KV | 2026-09-02 00:03:58 | 49.43530 | 17.88848 | 78° | 42km/h | 15958m | 3.8m/s | -53.8°C | 1.7% | 0hPa | 2.6V | 00:00:00 | 00:00:00 | 00:00:00 | |
| OM5KV | 2026-09-02 00:03:53 | 49.43516 | 17.88761 | 72° | 37km/h | 15929m | 4.2m/s | -53.6°C | 1.7% | 0hPa | 2.6V | 00:00:00 | 00:00:00 | 00:00:00 | |
| PETON7-10 | 2026-09-02 00:03:52 | 49.43510 | 17.88735 | 75° | 38km/h | 15919m | 4.1m/s | -53.5°C | 4.5% | 0hPa | 2.6V | 00:00:00 | 01:20:22 | 00:00:00 | |
| DO3MHA-11 | 2026-09-02 00:03:51 | 49.43508 | 17.88722 | 72° | 37km/h | 15915m | 4.0m/s | 0°C | 0% | 0hPa | 2.6V | 00:00:00 | 01:20:21 | 00:00:00 | |
| OE3OSB-13 | 2026-09-02 00:03:49 | 49.43497 | 17.88683 | 65° | 37km/h | 15901m | 5.4m/s | -53.4°C | 1.4% | -1.0hPa | 2.6V | 00:00:00 | 00:00:00 | 00:00:00 | |
| OM5KV | 2026-09-02 00:03:48 | 49.43497 | 17.88682 | 66° | 37km/h | 15901m | 5.4m/s | -53.4°C | 1.6% | 0hPa | 2.6V | 00:00:00 | 00:00:00 | 00:00:00 | |
| PG1ADW-2 | 2026-09-02 00:03:44 | 49.43481 | 17.88632 | 62° | 40km/h | 15881m | 4.5m/s | -53.2°C | 4.3% | 0hPa | 2.6V | 00:00:00 | 00:00:00 | 00:00:00 | |
| DO3MHA-11 | 2026-09-02 00:03:36 | 49.43468 | 17.88591 | 70° | 42km/h | 15868m | 4.7m/s | 0°C | 0% | 0hPa | 2.6V | 00:00:00 | 01:20:11 | 00:00:00 | |
| OM5KV | 2026-09-02 00:03:31 | 49.43454 | 17.88515 | 77° | 42km/h | 15844m | 5.7m/s | -53.0°C | 1.6% | 0hPa | 2.6V | 00:00:00 | 00:00:00 | 00:00:00 | |
| OE5DXL-15 | 2026-09-02 00:03:29 | 49.43442 | 17.88451 | 71° | 44km/h | 15825m | 3.9m/s | -52.8°C | 4.2% | 0hPa | 2.6V | 00:00:00 | 00:00:00 | 00:00:00 | |
| DO3MHA-11 | 2026-09-02 00:03:28 | 49.43435 | 17.88422 | 69° | 44km/h | 15815m | 4.7m/s | 0°C | 0% | 0hPa | 2.6V | 00:00:00 | 01:20:00 | 00:00:00 | |
| OM5KV | 2026-09-02 00:03:27 | 49.43431 | 17.88408 | 70° | 37km/h | 15811m | 4.0m/s | -53.0°C | 1.6% | 0hPa | 2.6V | 00:00:00 | 00:00:00 | 00:00:00 | |
| OM5KV | 2026-09-02 00:03:23 | 49.43414 | 17.88332 | 77° | 44km/h | 15788m | 4.9m/s | -52.8°C | 1.6% | 0hPa | 2.6V | 00:00:00 | 00:00:00 | 00:00:00 | |
| PETON7-10 | 2026-09-02 00:03:22 | 49.43409 | 17.88299 | 78° | 46km/h | 15779m | 5.5m/s | -52.7°C | 4.3% | 0hPa | 2.6V | 00:00:00 | 00:00:00 | 00:00:00 | |
| OM5KV | 2026-09-02 00:03:21 | 49.43399 | 17.88227 | 78° | 46km/h | 15759m | 4.1m/s | -52.6°C | 1.6% | 0hPa | 2.6V | 00:00:00 | 00:00:00 | 00:00:00 | |
| HA6NAB-11 | 2026-09-02 00:03:20 | 49.43382 | 17.88126 | 79° | 44km/h | 15732m | 3.3m/s | -52.4°C | 1.6% | 0hPa | 2.6V | 00:00:00 | 00:00:00 | 00:00:00 | |
| OM5KV | 2026-09-02 00:03:19 | 49.43382 | 17.88126 | 79° | 44km/h | 15732m | 3.3m/s | -52.4°C | 1.6% | 0hPa | 2.6V | 00:00:00 | 00:00:00 | 00:00:00 | |
| DO3MHA-11 | 2026-09-02 00:03:17 | 49.43372 | 17.88074 | 73° | 42km/h | 15719m | 4.0m/s | 0°C | 0% | 0hPa | 2.6V | 00:00:00 | 01:19:39 | 00:00:00 | |
| PETON7-10 | 2026-09-02 00:03:15 | 49.43365 | 17.88040 | 72° | 40km/h | 15710m | 5.2m/s | -52.2°C | 4.2% | 0hPa | 2.6V | 00:00:00 | 01:19:37 | 00:00:00 | |
| OM5KV | 2026-09-02 00:03:14 | 49.43362 | 17.88025 | 72° | 40km/h | 15705m | 4.4m/s | -52.2°C | 1.6% | 0hPa | 2.6V | 00:00:00 | 00:00:00 | 00:00:00 | |
| POL1PZ | 2026-09-02 00:03:12 | 49.43355 | 17.87997 | 68° | 40km/h | 15695m | 4.1m/s | -52.1°C | 1.6% | 0hPa | 2.6V | 00:00:00 | 00:00:00 | 00:00:00 | |
| OE5DRO-10 | 2026-09-02 00:03:11 | 49.43351 | 17.87983 | 68° | 38km/h | 15692m | 3.3m/s | -52.1°C | 4.1% | 0hPa | 2.6V | 00:00:00 | 00:00:00 | 00:00:00 | |
| OM5KV | 2026-09-02 00:03:10 | 49.43344 | 17.87955 | 75° | 38km/h | 15682m | 4.9m/s | -52.0°C | 1.6% | 0hPa | 2.6V | 00:00:00 | 00:00:00 | 00:00:00 | |
| DO3MHA-11 | 2026-09-02 00:03:08 | 49.43339 | 17.87926 | 74° | 42km/h | 15673m | 5.3m/s | 0°C | 0% | 0hPa | 2.6V | 00:00:00 | 01:19:29 | 00:00:00 | |
| PETON7-10 | 2026-09-02 00:02:58 | 49.43316 | 17.87822 | 68° | 38km/h | 15639m | 4.4m/s | -51.7°C | 4.0% | 0hPa | 2.6V | 00:00:00 | 00:00:00 | 00:00:00 | |
| OM5KV | 2026-09-02 00:02:52 | 49.43306 | 17.87783 | 70° | 35km/h | 15625m | 5.7m/s | -51.6°C | 1.6% | 0hPa | 2.7V | 00:00:00 | 00:00:00 | 00:00:00 | |
| OE3OSB-13 | 2026-09-02 00:02:49 | 49.43298 | 17.87742 | 79° | 38km/h | 15610m | 5.5m/s | -51.6°C | 1.4% | -1.0hPa | 2.7V | 00:00:00 | 00:00:00 | 00:00:00 | |
| POL1PZ | 2026-09-02 00:02:46 | 49.43294 | 17.87711 | 80° | 42km/h | 15601m | 5.3m/s | -51.5°C | 1.6% | 0hPa | 2.7V | 00:00:00 | 00:00:00 | 00:00:00 | |
| HA6NAB-11 | 2026-09-02 00:02:40 | 49.43278 | 17.87610 | 70° | 33km/h | 15568m | 5.1m/s | -51.8°C | 1.5% | 0hPa | 2.7V | 00:00:00 | 00:00:00 | 00:00:00 | |
| OM5KV | 2026-09-02 00:02:39 | 49.43271 | 17.87575 | 76° | 33km/h | 15554m | 4.9m/s | -51.8°C | 1.6% | 0hPa | 2.7V | 00:00:00 | 00:00:00 | 00:00:00 | |
| OE5DXL-15 | 2026-09-02 00:02:36 | 49.43268 | 17.87550 | 85° | 44km/h | 15546m | 4.4m/s | -51.8°C | 4.1% | 0hPa | 2.7V | 00:00:00 | 00:00:00 | 00:00:00 | |
| HA6NAB-11 | 2026-09-02 00:02:35 | 49.43269 | 17.87550 | 86° | 35km/h | 15546m | 4.4m/s | -51.8°C | 1.6% | 0hPa | 2.7V | 00:00:00 | 00:00:00 | 00:00:00 | |
| OM5KV | 2026-09-02 00:02:30 | 49.43269 | 17.87476 | 91° | 42km/h | 15522m | 3.8m/s | -51.8°C | 1.6% | 0hPa | 2.7V | 00:00:00 | 00:00:00 | 00:00:00 | |
| OE5DRO-10 | 2026-09-02 00:02:29 | 49.43270 | 17.87444 | 93° | 46km/h | 15512m | 4.4m/s | -51.7°C | 4.1% | 0hPa | 2.7V | 00:00:00 | 00:00:00 | 00:00:00 | |
| POL1PZ | 2026-09-02 00:02:27 | 49.43270 | 17.87428 | 91° | 40km/h | 15508m | 4.2m/s | -51.7°C | 1.6% | 0hPa | 2.7V | 00:00:00 | 00:00:00 | 00:00:00 | |
| PETON7-10 | 2026-09-02 00:02:25 | 49.43268 | 17.87396 | 84° | 47km/h | 15499m | 3.8m/s | -51.6°C | 4.1% | 0hPa | 2.7V | 00:00:00 | 01:18:52 | 00:00:00 | |
| OM5KV | 2026-09-02 00:02:24 | 49.43269 | 17.87396 | 84° | 42km/h | 15499m | 3.9m/s | -51.7°C | 1.6% | 0hPa | 2.7V | 00:00:00 | 00:00:00 | 00:00:00 | |
| HA6NAB-11 | 2026-09-02 00:02:22 | 49.43267 | 17.87380 | 85° | 40km/h | 15495m | 4.9m/s | -51.6°C | 0% | 0hPa | 2.7V | 00:00:00 | 00:00:00 | 00:00:00 | |
| OM5KV | 2026-09-02 00:02:18 | 49.43263 | 17.87317 | 87° | 44km/h | 15477m | 4.0m/s | -51.6°C | 1.6% | 0hPa | 2.7V | 00:00:00 | 00:00:00 | 00:00:00 | |
| HA6NAB-11 | 2026-09-02 00:02:17 | 49.43263 | 17.87299 | 89° | 46km/h | 15472m | 4.8m/s | -51.5°C | 0% | 0hPa | 2.7V | 00:00:00 | 00:00:00 | 00:00:00 | |
| OM5KV | 2026-09-02 00:02:13 | 49.43265 | 17.87181 | 92° | 51km/h | 15443m | 5.5m/s | -51.4°C | 1.6% | 0hPa | 2.7V | 00:00:00 | 00:00:00 | 00:00:00 | |
| PETON7-10 | 2026-09-02 00:02:09 | 49.43264 | 17.87125 | 83° | 51km/h | 15430m | 4.8m/s | -51.4°C | 4.0% | 0hPa | 2.7V | 00:00:00 | 00:00:00 | 08:30:00 | |
| OE5DRO-10 | 2026-09-02 00:02:08 | 49.43262 | 17.87107 | 83° | 53km/h | 15425m | 3.8m/s | -51.4°C | 4.0% | 0hPa | 2.6V | 00:00:00 | 00:00:00 | 00:00:00 | |
| OE3JTB-15 | 2026-09-02 00:02:07 | 49.43259 | 17.87052 | 88° | 57km/h | 15412m | 4.1m/s | -51.3°C | 4.0% | 0hPa | 2.6V | 00:00:00 | 01:18:33 | 00:00:00 | |
| PG1ADW-2 | 2026-09-02 00:02:04 | 49.43260 | 17.87071 | 87° | 55km/h | 15416m | 4.0m/s | -51.3°C | 4.0% | 0hPa | 2.6V | 00:00:00 | 01:18:34 | 00:00:00 | |
| POL1PZ | 2026-09-02 00:02:03 | 49.43260 | 17.87071 | 88° | 47km/h | 15416m | 4.0m/s | -51.4°C | 1.5% | 0hPa | 2.6V | 00:00:00 | 00:00:00 | 00:00:00 | |
| OE5DXL-15 | 2026-09-02 00:02:02 | 49.43258 | 17.87032 | 89° | 57km/h | 15407m | 4.9m/s | -51.3°C | 3.9% | 0hPa | 2.6V | 00:00:00 | 00:00:00 | 00:00:00 | |
| OM5KV | 2026-09-02 00:01:58 | 49.43258 | 17.86948 | 90° | 55km/h | 15389m | 3.5m/s | -51.6°C | 1.6% | 0hPa | 2.6V | 00:00:00 | 00:00:00 | 00:00:00 | |
| PETON7-10 | 2026-09-02 00:01:55 | 49.43248 | 17.86823 | 81° | 57km/h | 15364m | 4.0m/s | -51.6°C | 4.1% | 0hPa | 2.6V | 00:00:00 | 00:00:00 | 00:00:00 | |
| OM5KV | 2026-09-02 00:01:54 | 49.43248 | 17.86823 | 81° | 55km/h | 15364m | 4.0m/s | -51.7°C | 1.6% | 0hPa | 2.6V | 00:00:00 | 00:00:00 | 00:00:00 | |
| OE5DRO-10 | 2026-09-02 00:01:52 | 49.43234 | 17.86714 | 81° | 57km/h | 15342m | 4.5m/s | -51.5°C | 4.1% | 0hPa | 2.6V | 00:00:00 | 00:00:00 | 00:00:00 | |
| OE3OSB-13 | 2026-09-02 00:01:47 | 49.43228 | 17.86649 | 80° | 57km/h | 15328m | 3.7m/s | -51.5°C | 1.4% | -1.0hPa | 2.6V | 00:00:00 | 00:00:00 | 00:00:00 | |
| PG1ADW-2 | 2026-09-02 00:01:46 | 49.43228 | 17.86649 | 81° | 55km/h | 15328m | 3.6m/s | -51.4°C | 4.1% | 0hPa | 2.6V | 00:00:00 | 00:00:00 | 00:00:00 | |
| POL1PZ | 2026-09-02 00:01:45 | 49.43228 | 17.86649 | 82° | 58km/h | 15328m | 3.7m/s | -51.5°C | 1.6% | 0hPa | 2.6V | 00:00:00 | 00:00:00 | 00:00:00 | |
| PETON7-10 | 2026-09-02 00:01:39 | 49.43214 | 17.86496 | 81° | 55km/h | 15294m | 4.8m/s | -51.7°C | 4.2% | 0hPa | 2.6V | 00:00:00 | 01:18:07 | 00:00:00 | |
| OM5KV | 2026-09-02 00:01:36 | 49.43210 | 17.86453 | 82° | 57km/h | 15286m | 5.3m/s | -51.8°C | 1.7% | 0hPa | 2.6V | 00:00:00 | 00:00:00 | 00:00:00 | |
| HA6NAB-11 | 2026-09-02 00:01:35 | 49.43208 | 17.86431 | 83° | 58km/h | 15281m | 4.3m/s | -51.8°C | 0% | 0hPa | 2.6V | 00:00:00 | 00:00:00 | 00:00:00 | |
| OE5DXL-15 | 2026-09-02 00:01:32 | 49.43204 | 17.86387 | 85° | 57km/h | 15272m | 5.8m/s | -51.9°C | 4.1% | 0hPa | 2.6V | 00:00:00 | 00:00:00 | 00:00:00 | |
| OM5KV | 2026-09-02 00:01:28 | 49.43203 | 17.86346 | 92° | 53km/h | 15262m | 4.6m/s | -51.9°C | 1.7% | 0hPa | 2.6V | 00:00:00 | 00:00:00 | 00:00:00 | |
| HA6NAB-11 | 2026-09-02 00:01:27 | 49.43203 | 17.86325 | 94° | 53km/h | 15258m | 4.9m/s | -51.9°C | 0% | 0hPa | 2.6V | 00:00:00 | 00:00:00 | 00:00:00 | |
| OM5KV | 2026-09-02 00:01:22 | 49.43206 | 17.86225 | 93° | 53km/h | 15235m | 4.9m/s | -52.0°C | 1.6% | 0hPa | 2.6V | 00:00:00 | 00:00:00 | 00:00:00 | |
| PETON7-10 | 2026-09-02 00:01:19 | 49.43206 | 17.86184 | 91° | 58km/h | 15226m | 5.5m/s | -52.0°C | 4.1% | 0hPa | 2.6V | 00:00:00 | 00:00:00 | 00:00:00 | |
| OM5KV | 2026-09-02 00:01:14 | 49.43204 | 17.86057 | 84° | 57km/h | 15199m | 4.5m/s | -52.3°C | 1.7% | 0hPa | 2.7V | 00:00:00 | 00:00:00 | 00:00:00 | |
| OE3OSB-13 | 2026-09-02 00:01:12 | 49.43198 | 17.85989 | 84° | 62km/h | 15186m | 4.6m/s | -52.2°C | 1.5% | -1.0hPa | 2.7V | 00:00:00 | 00:00:00 | 00:00:00 | |
| HA6NAB-11 | 2026-09-02 00:01:08 | 49.43197 | 17.85965 | 84° | 62km/h | 15181m | 4.7m/s | -52.2°C | 0% | 0hPa | 2.7V | 00:00:00 | 00:00:00 | 00:00:00 | |
| PETON7-10 | 2026-09-02 00:01:01 | 49.43184 | 17.85843 | 82° | 58km/h | 15157m | 3.8m/s | -52.1°C | 4.3% | 0hPa | 2.7V | 00:00:00 | 00:00:00 | 00:00:00 | |
| OM5KV | 2026-09-02 00:00:59 | 49.43177 | 17.85773 | 84° | 58km/h | 15143m | 3.8m/s | -52.1°C | 1.7% | 0hPa | 2.7V | 00:00:00 | 00:00:00 | 00:00:00 | |
| POL1PZ | 2026-09-02 00:00:58 | 49.43175 | 17.85751 | 85° | 58km/h | 15139m | 5.2m/s | -52.0°C | 1.7% | 0hPa | 2.7V | 00:00:00 | 00:00:00 | 00:00:00 | |
| OE5DXL-15 | 2026-09-02 00:00:57 | 49.43174 | 17.85728 | 86° | 57km/h | 15134m | 3.9m/s | -52.0°C | 4.3% | 0hPa | 2.7V | 00:00:00 | 00:00:00 | 00:00:00 | |
| OE3JTB-15 | 2026-09-02 00:00:54 | 49.43169 | 17.85617 | 84° | 58km/h | 15111m | 4.4m/s | -51.8°C | 4.2% | 0hPa | 2.7V | 00:00:00 | 00:00:00 | 00:00:00 | |
| OM5KV | 2026-09-02 00:00:52 | 49.43171 | 17.85661 | 86° | 57km/h | 15121m | 4.3m/s | -51.9°C | 1.7% | 0hPa | 2.7V | 00:00:00 | 00:00:00 | 00:00:00 | |
| PETON7-10 | 2026-09-02 00:00:49 | 49.43154 | 17.85503 | 77° | 57km/h | 15088m | 4.4m/s | -51.9°C | 4.2% | 0hPa | 2.7V | 00:00:00 | 01:17:22 | 00:00:00 | |
| OE5DRO-10 | 2026-09-02 00:00:48 | 49.43147 | 17.85457 | 77° | 55km/h | 15079m | 5.7m/s | -51.8°C | 4.2% | 0hPa | 2.7V | 00:00:00 | 00:00:00 | 00:00:00 | |
| OM5KV | 2026-09-02 00:00:46 | 49.43141 | 17.85414 | 80° | 55km/h | 15069m | 5.3m/s | -51.8°C | 1.6% | 0hPa | 2.6V | 00:00:00 | 00:00:00 | 00:00:00 | |
| PG1ADW-2 | 2026-09-02 00:00:39 | 49.43132 | 17.85331 | 80° | 57km/h | 15050m | 4.6m/s | -51.8°C | 4.1% | 0hPa | 2.6V | 00:00:00 | 01:17:14 | 00:00:00 | |
| OE3OSB-13 | 2026-09-02 00:00:37 | 49.43128 | 17.85289 | 82° | 55km/h | 15040m | 4.5m/s | -51.8°C | 1.5% | -1.0hPa | 2.6V | 00:00:00 | 00:00:00 | 00:00:00 | |
| PETON7-10 | 2026-09-02 00:00:36 | 49.43119 | 17.85182 | 85° | 57km/h | 15018m | 5.6m/s | -51.8°C | 4.1% | 0hPa | 2.6V | 00:00:00 | 00:00:00 | 00:00:00 | |
| OM5KV | 2026-09-02 00:00:34 | 49.43118 | 17.85161 | 85° | 57km/h | 15013m | 3.6m/s | -51.8°C | 1.7% | 0hPa | 2.6V | 00:00:00 | 00:00:00 | 00:00:00 | |
| OE5DXL-15 | 2026-09-02 00:00:29 | 49.43109 | 17.85077 | 79° | 58km/h | 14996m | 3.8m/s | -51.9°C | 4.2% | 0hPa | 2.6V | 00:00:00 | 00:00:00 | 08:30:00 | |
| OE5DRO-10 | 2026-09-02 00:00:28 | 49.43106 | 17.85056 | 81° | 57km/h | 14992m | 5.2m/s | -51.9°C | 4.2% | 0hPa | 2.6V | 00:00:00 | 00:00:00 | 00:00:00 | |
| OE3JTB-15 | 2026-09-02 00:00:27 | 49.43098 | 17.84923 | 91° | 60km/h | 14963m | 4.1m/s | -51.9°C | 4.2% | 0hPa | 2.6V | 00:00:00 | 01:16:55 | 00:00:00 | |
| PG1ADW-2 | 2026-09-02 00:00:23 | 49.43098 | 17.84901 | 91° | 58km/h | 14958m | 5.6m/s | -51.9°C | 4.2% | 0hPa | 2.6V | 00:00:00 | 00:00:00 | 00:00:00 | |
| OM5KV | 2026-09-02 00:00:22 | 49.43098 | 17.84901 | 92° | 57km/h | 14958m | 5.7m/s | -51.9°C | 1.7% | 0hPa | 2.6V | 00:00:00 | 00:00:00 | 00:00:00 | |
| POL1PZ | 2026-09-02 00:00:21 | 49.43098 | 17.84859 | 89° | 51km/h | 14948m | 3.9m/s | -51.9°C | 1.7% | 0hPa | 2.6V | 00:00:00 | 00:00:00 | 00:00:00 | |
| OM5KV | 2026-09-02 00:00:19 | 49.43095 | 17.84800 | 84° | 53km/h | 14933m | 2.4m/s | -52.0°C | 0% | 0hPa | 2.6V | 00:00:00 | 00:00:00 | 00:00:00 | |
| OM5KV | 2026-09-02 00:00:10 | 49.43085 | 17.84694 | 87° | 60km/h | 14912m | 4.6m/s | -52.1°C | 0% | 0hPa | 2.6V | 00:00:00 | 00:00:00 | 00:00:00 | |
| OE5DRO-10 | 2026-09-02 00:00:08 | 49.43083 | 17.84646 | 87° | 68km/h | 14903m | 5.5m/s | -52.1°C | 4.2% | 0hPa | 2.6V | 00:00:00 | 00:00:00 | 00:00:00 | |
| OE3OSB-13 | 2026-09-02 00:00:07 | 49.43082 | 17.84622 | 85° | 64km/h | 14897m | 5.0m/s | -52.2°C | 1.5% | -1.0hPa | 2.6V | 00:00:00 | 00:00:00 | 00:00:00 | |
| PETON7-10 | 2026-09-02 00:00:01 | 49.43077 | 17.84519 | 85° | 68km/h | 14880m | 4.8m/s | -52.1°C | 4.3% | 0hPa | 2.6V | 00:00:00 | 01:16:37 | 00:00:00 | |
| PG1ADW-2 | 2026-09-01 23:59:58 | 49.43070 | 17.84445 | 81° | 68km/h | 14865m | 5.6m/s | -52.1°C | 4.3% | 0hPa | 2.6V | 00:00:00 | 00:00:00 | 00:00:00 | |
| OE5DXL-15 | 2026-09-01 23:59:56 | 49.43065 | 17.84396 | 81° | 68km/h | 14857m | 4.4m/s | -52.1°C | 4.3% | 0hPa | 2.7V | 00:00:00 | 00:00:00 | 00:00:00 | |
| POL1PZ | 2026-09-01 23:59:55 | 49.43065 | 17.84396 | 82° | 64km/h | 14857m | 4.5m/s | -52.1°C | 1.7% | 0hPa | 2.7V | 00:00:00 | 00:00:00 | 00:00:00 | |
| OE3JTB-15 | 2026-09-01 23:59:52 | 49.43050 | 17.84240 | 82° | 66km/h | 14828m | 5.5m/s | -52.0°C | 4.4% | 0hPa | 2.7V | 00:00:00 | 00:00:00 | 00:00:00 | |
| OM5KV | 2026-09-01 23:59:51 | 49.43055 | 17.84294 | 84° | 69km/h | 14837m | 4.5m/s | 0°C | 0% | 0hPa | 2.7V | 00:00:00 | 00:00:00 | 00:00:00 | |
| OM5KV | 2026-09-01 23:59:46 | 49.43038 | 17.84131 | 79° | 69km/h | 14810m | 4.0m/s | 0°C | 0% | 0hPa | 2.7V | 00:00:00 | 00:00:00 | 00:00:00 | |
| OE5DRO-10 | 2026-09-01 23:59:44 | 49.43030 | 17.84078 | 77° | 66km/h | 14800m | 4.6m/s | -51.9°C | 4.3% | 0hPa | 2.7V | 00:00:00 | 00:00:00 | 08:30:00 | |
| PG1ADW-2 | 2026-09-01 23:59:38 | 49.43006 | 17.83925 | 78° | 64km/h | 14772m | 4.8m/s | -51.7°C | 4.2% | 0hPa | 2.6V | 00:00:00 | 00:00:00 | 00:00:00 | |
| OE3OSB-13 | 2026-09-01 23:59:34 | 49.42992 | 17.83819 | 76° | 68km/h | 14753m | 4.6m/s | -51.7°C | 1.6% | -1.0hPa | 2.6V | 00:00:00 | 00:00:00 | 00:00:00 | |
| HA6NAB-11 | 2026-09-01 23:59:32 | 49.42988 | 17.83794 | 77° | 64km/h | 14749m | 4.0m/s | -51.6°C | 0% | 0hPa | 2.6V | 00:00:00 | 00:00:00 | 00:00:00 | |
| PETON7-10 | 2026-09-01 23:59:31 | 49.42982 | 17.83747 | 79° | 60km/h | 14739m | 4.7m/s | -51.5°C | 4.2% | 0hPa | 2.6V | 00:00:00 | 00:00:00 | 00:00:00 | |
| OM5KV | 2026-09-01 23:59:28 | 49.42976 | 17.83703 | 79° | 58km/h | 14729m | 5.6m/s | 0°C | 0% | 0hPa | 2.6V | 00:00:00 | 00:00:00 | 00:00:00 | |
| OE5DXL-15 | 2026-09-01 23:59:26 | 49.42968 | 17.83634 | 82° | 66km/h | 14715m | 5.2m/s | -51.5°C | 4.1% | 0hPa | 2.6V | 00:00:00 | 00:00:00 | 00:00:00 | |
| OE5DRO-10 | 2026-09-01 23:59:25 | 49.42966 | 17.83611 | 83° | 64km/h | 14711m | 3.9m/s | -51.6°C | 4.1% | 0hPa | 2.6V | 00:00:00 | 00:00:00 | 00:00:00 | |
| OE3JTB-15 | 2026-09-01 23:59:22 | 49.42952 | 17.83469 | 82° | 68km/h | 14681m | 5.4m/s | -51.8°C | 4.1% | 0hPa | 2.6V | 00:00:00 | 00:00:00 | 00:00:00 | |
| HA6NAB-11 | 2026-09-01 23:59:21 | 49.42958 | 17.83540 | 82° | 62km/h | 14695m | 4.9m/s | -51.6°C | 0% | 0hPa | 2.6V | 00:00:00 | 00:00:00 | 00:00:00 | |
| PG1ADW-2 | 2026-09-01 23:59:18 | 49.42950 | 17.83445 | 81° | 68km/h | 14676m | 3.9m/s | -51.8°C | 4.1% | 0hPa | 2.6V | 00:00:00 | 01:15:54 | 00:00:00 | |
| HA6NAB-11 | 2026-09-01 23:59:16 | 49.42946 | 17.83399 | 88° | 60km/h | 14667m | 4.9m/s | -52.0°C | 0% | 0hPa | 2.6V | 00:00:00 | 00:00:00 | 00:00:00 | |
| POL1PZ | 2026-09-01 23:59:13 | 49.42945 | 17.83351 | 89° | 64km/h | 14658m | 5.7m/s | -52.0°C | 1.7% | 0hPa | 2.6V | 00:00:00 | 00:00:00 | 00:00:00 | |
| OM5KV | 2026-09-01 23:59:11 | 49.42943 | 17.83299 | 87° | 69km/h | 14648m | 4.1m/s | 0°C | 0% | 0hPa | 2.6V | 00:00:00 | 00:00:00 | 00:00:00 | |
| HA6NAB-11 | 2026-09-01 23:59:10 | 49.42942 | 17.83273 | 88° | 69km/h | 14643m | 6.3m/s | -52.1°C | 0% | 0hPa | 2.6V | 00:00:00 | 00:00:00 | 00:00:00 | |
| OE5DRO-10 | 2026-09-01 23:59:06 | 49.42937 | 17.83141 | 86° | 73km/h | 14618m | 4.5m/s | -52.1°C | 4.2% | 0hPa | 2.6V | 00:00:00 | 00:00:00 | 00:00:00 | |
| HA6NAB-11 | 2026-09-01 23:59:04 | 49.42936 | 17.83114 | 89° | 69km/h | 14613m | 5.0m/s | -52.2°C | 0% | 0hPa | 2.6V | 00:00:00 | 00:00:00 | 00:00:00 | |
| OE3OSB-13 | 2026-09-01 23:59:03 | 49.42935 | 17.83059 | 87° | 73km/h | 14604m | 5.2m/s | -52.3°C | 1.6% | -1.0hPa | 2.6V | 00:00:00 | 00:00:00 | 00:00:00 | |
| PETON7-10 | 2026-09-01 23:59:01 | 49.42932 | 17.83002 | 85° | 73km/h | 14595m | 3.9m/s | -52.4°C | 4.4% | 0hPa | 2.6V | 00:00:00 | 00:00:00 | 00:00:00 | |
| PG1ADW-2 | 2026-09-01 23:58:58 | 49.42929 | 17.82920 | 90° | 77km/h | 14582m | 3.9m/s | -52.6°C | 4.4% | 0hPa | 2.7V | 00:00:00 | 00:00:00 | 00:00:00 | |
| OE5DXL-15 | 2026-09-01 23:58:56 | 49.42929 | 17.82868 | 92° | 80km/h | 14572m | 4.7m/s | -52.7°C | 4.5% | 0hPa | 2.6V | 00:00:00 | 00:00:00 | 00:00:00 | |
| OE3JTB-15 | 2026-09-01 23:58:53 | 49.42935 | 17.82701 | 88° | 86km/h | 14544m | 4.5m/s | -52.7°C | 4.5% | 0hPa | 2.6V | 00:00:00 | 01:15:26 | 00:00:00 | |
| PETON7-10 | 2026-09-01 23:58:46 | 49.42932 | 17.82572 | 91° | 82km/h | 14523m | 5.1m/s | -52.6°C | 4.4% | 0hPa | 2.6V | 00:00:00 | 00:00:00 | 00:00:00 | |
| PG1ADW-2 | 2026-09-01 23:58:38 | 49.42923 | 17.82320 | 84° | 86km/h | 14479m | 4.3m/s | -52.6°C | 4.4% | 0hPa | 2.6V | 00:00:00 | 00:00:00 | 00:00:00 | |
| OE3OSB-13 | 2026-09-01 23:58:32 | 49.42913 | 17.82131 | 86° | 82km/h | 14450m | 5.0m/s | -52.7°C | 1.6% | -1.0hPa | 2.6V | 00:00:00 | 00:00:00 | 00:00:00 | |
| PETON7-10 | 2026-09-01 23:58:31 | 49.42911 | 17.82099 | 87° | 88km/h | 14446m | 3.5m/s | -52.7°C | 4.4% | 0hPa | 2.6V | 00:00:00 | 01:15:07 | 00:00:00 | |
| OE5DRO-10 | 2026-09-01 23:58:28 | 49.42905 | 17.81998 | 83° | 86km/h | 14431m | 4.2m/s | -52.7°C | 4.4% | 0hPa | 2.6V | 00:00:00 | 00:00:00 | 00:00:00 | |
| OE5DXL-15 | 2026-09-01 23:58:26 | 49.42899 | 17.81930 | 83° | 84km/h | 14422m | 4.0m/s | -52.6°C | 4.5% | 0hPa | 2.6V | 00:00:00 | 00:00:00 | 00:00:00 | |
| OE3JTB-15 | 2026-09-01 23:58:19 | 49.42863 | 17.81662 | 77° | 82km/h | 14384m | 4.2m/s | -52.5°C | 4.4% | 0hPa | 2.6V | 00:00:00 | 00:00:00 | 00:00:00 | |
| PG1ADW-2 | 2026-09-01 23:58:18 | 49.42863 | 17.81662 | 77° | 84km/h | 14384m | 4.2m/s | -52.5°C | 4.4% | 0hPa | 2.6V | 00:00:00 | 00:00:00 | 00:00:00 | |
| PETON7-10 | 2026-09-01 23:58:16 | 49.42854 | 17.81599 | 78° | 84km/h | 14374m | 3.8m/s | -52.4°C | 4.5% | 0hPa | 2.6V | 00:00:00 | 00:00:00 | 00:00:00 | |
| POL1PZ | 2026-09-01 23:58:11 | 49.42834 | 17.81474 | 78° | 84km/h | 14355m | 5.7m/s | -52.3°C | 1.8% | 0hPa | 2.6V | 00:00:00 | 00:00:00 | 00:00:00 | |
| OE5DRO-10 | 2026-09-01 23:58:09 | 49.42820 | 17.81377 | 78° | 82km/h | 14340m | 5.3m/s | -52.1°C | 4.4% | 0hPa | 2.6V | 00:00:00 | 00:00:00 | 00:00:00 | |
| PETON7-10 | 2026-09-01 23:58:01 | 49.42789 | 17.81123 | 80° | 78km/h | 14302m | 4.6m/s | -52.0°C | 4.4% | 0hPa | 2.6V | 00:00:00 | 00:00:00 | 00:00:00 | |
| PG1ADW-2 | 2026-09-01 23:57:58 | 49.42776 | 17.81032 | 77° | 75km/h | 14288m | 4.3m/s | -52.0°C | 4.3% | 0hPa | 2.6V | 00:00:00 | 01:14:34 | 08:30:00 | |
| OE5DXL-15 | 2026-09-01 23:57:56 | 49.42767 | 17.80972 | 78° | 71km/h | 14279m | 5.3m/s | -52.0°C | 4.3% | 0hPa | 2.6V | 00:00:00 | 00:00:00 | 00:00:00 | |
| POL1PZ | 2026-09-01 23:57:51 | 49.42750 | 17.80851 | 80° | 80km/h | 14259m | 4.3m/s | -52.0°C | 1.8% | 0hPa | 2.6V | 00:00:00 | 00:00:00 | 00:00:00 | |
| OE5DRO-10 | 2026-09-01 23:57:50 | 49.42742 | 17.80791 | 81° | 71km/h | 14250m | 4.3m/s | -51.9°C | 4.2% | 0hPa | 2.6V | 00:00:00 | 00:00:00 | 00:00:00 | |
| PETON7-10 | 2026-09-01 23:57:46 | 49.42729 | 17.80679 | 80° | 71km/h | 14230m | 5.4m/s | -51.9°C | 4.3% | 0hPa | 2.6V | 00:00:00 | 01:14:22 | 00:00:00 | |
| PG1ADW-2 | 2026-09-01 23:57:38 | 49.42695 | 17.80464 | 75° | 64km/h | 14193m | 5.8m/s | -52.1°C | 4.3% | 0hPa | 2.6V | 00:00:00 | 00:00:00 | 00:00:00 | |
| PETON7-10 | 2026-09-01 23:57:31 | 49.42663 | 17.80283 | 78° | 60km/h | 14160m | 2.9m/s | -52.4°C | 4.4% | 0hPa | 2.6V | 00:00:00 | 00:00:00 | 08:30:00 | |
| OE3OSB-13 | 2026-09-01 23:57:30 | 49.42660 | 17.80258 | 78° | 66km/h | 14156m | 5.5m/s | -52.5°C | 1.7% | -1.0hPa | 2.6V | 00:00:00 | 00:00:00 | 00:00:00 | |
| OE5DXL-15 | 2026-09-01 23:57:26 | 49.42648 | 17.80161 | 79° | 62km/h | 14137m | 3.5m/s | -52.4°C | 4.4% | 0hPa | 2.6V | 00:00:00 | 00:00:00 | 00:00:00 | |
| PG1ADW-2 | 2026-09-01 23:57:18 | 49.42627 | 17.79983 | 84° | 62km/h | 14100m | 3.3m/s | -52.4°C | 4.5% | 0hPa | 2.6V | 00:00:00 | 00:00:00 | 00:00:00 | |
| PETON7-10 | 2026-09-01 23:57:16 | 49.42623 | 17.79938 | 86° | 62km/h | 14092m | 4.3m/s | -52.3°C | 4.6% | 0hPa | 2.6V | 00:00:00 | 00:00:00 | 00:00:00 | |
| OE5DRO-10 | 2026-09-01 23:57:12 | 49.42622 | 17.79842 | 91° | 64km/h | 14074m | 3.9m/s | -52.3°C | 4.5% | 0hPa | 2.6V | 00:00:00 | 00:00:00 | 00:00:00 | |
| POL1PZ | 2026-09-01 23:57:09 | 49.42622 | 17.79792 | 89° | 64km/h | 14065m | 3.4m/s | -52.4°C | 2.0% | 0hPa | 2.6V | 00:00:00 | 00:00:00 | 00:00:00 | |
| HA6NAB-11 | 2026-09-01 23:57:06 | 49.42621 | 17.79722 | 91° | 58km/h | 14052m | 3.5m/s | -52.3°C | 0% | 0hPa | 2.6V | 00:00:00 | 00:00:00 | 00:00:00 | |
| OE3OSB-13 | 2026-09-01 23:56:59 | 49.42619 | 17.79525 | 89° | 66km/h | 14016m | 4.2m/s | -52.2°C | 1.8% | -1.0hPa | 2.6V | 00:00:00 | 00:00:00 | 00:00:00 | |
| PG1ADW-2 | 2026-09-01 23:56:58 | 49.42619 | 17.79499 | 91° | 71km/h | 14010m | 6.0m/s | -52.2°C | 4.5% | 0hPa | 2.6V | 00:00:00 | 00:00:00 | 00:00:00 | |
| OE5DXL-15 | 2026-09-01 23:56:56 | 49.42619 | 17.79449 | 91° | 75km/h | 14000m | 4.8m/s | -52.1°C | 4.4% | 0hPa | 2.6V | 00:00:00 | 00:00:00 | 00:00:00 | |
| OE5DRO-10 | 2026-09-01 23:56:53 | 49.42619 | 17.79373 | 92° | 73km/h | 13987m | 5.4m/s | -52.1°C | 4.4% | 0hPa | 2.6V | 00:00:00 | 00:00:00 | 08:30:00 | |
| OE3JTB-15 | 2026-09-01 23:56:52 | 49.42620 | 17.79295 | 91° | 78km/h | 13973m | 5.1m/s | -52.1°C | 4.4% | 0hPa | 2.7V | 00:00:00 | 00:00:00 | 08:30:00 | |
| POL1PZ | 2026-09-01 23:56:49 | 49.42620 | 17.79295 | 91° | 69km/h | 13973m | 5.2m/s | -52.1°C | 2.0% | 0hPa | 2.7V | 00:00:00 | 00:00:00 | 00:00:00 | |
| PETON7-10 | 2026-09-01 23:56:46 | 49.42622 | 17.79182 | 93° | 77km/h | 13954m | 4.2m/s | -52.3°C | 4.5% | 0hPa | 2.7V | 00:00:00 | 00:00:00 | 00:00:00 | |
| PG1ADW-2 | 2026-09-01 23:56:38 | 49.42634 | 17.78953 | 93° | 80km/h | 13919m | 3.5m/s | -52.5°C | 4.7% | 0hPa | 2.7V | 00:00:00 | 01:13:14 | 00:00:00 | |
| OE5DRO-10 | 2026-09-01 23:56:34 | 49.42638 | 17.78832 | 94° | 80km/h | 13902m | 3.8m/s | -52.5°C | 4.7% | 0hPa | 2.7V | 00:00:00 | 00:00:00 | 00:00:00 | |
| PETON7-10 | 2026-09-01 23:56:31 | 49.42639 | 17.78732 | 90° | 78km/h | 13889m | 3.4m/s | -52.7°C | 4.8% | 0hPa | 2.7V | 00:00:00 | 00:00:00 | 00:00:00 | |
| OE3OSB-13 | 2026-09-01 23:56:28 | 49.42640 | 17.78635 | 90° | 82km/h | 13875m | 4.2m/s | -52.8°C | 2.0% | -1.0hPa | 2.7V | 00:00:00 | 00:00:00 | 00:00:00 | |
| OE3JTB-15 | 2026-09-01 23:56:23 | 49.42644 | 17.78390 | 90° | 80km/h | 13840m | 4.3m/s | -52.6°C | 4.7% | 0hPa | 2.7V | 00:00:00 | 00:00:00 | 00:00:00 | |
| PG1ADW-2 | 2026-09-01 23:56:18 | 49.42643 | 17.78332 | 88° | 80km/h | 13830m | 4.0m/s | -52.6°C | 4.7% | 0hPa | 2.7V | 00:00:00 | 00:00:00 | 00:00:00 | |
| PETON7-10 | 2026-09-01 23:56:16 | 49.42640 | 17.78273 | 85° | 80km/h | 13821m | 4.7m/s | -52.5°C | 4.8% | 0hPa | 2.7V | 00:00:00 | 01:12:52 | 00:00:00 | |
| OE5DRO-10 | 2026-09-01 23:56:15 | 49.42638 | 17.78243 | 85° | 80km/h | 13817m | 3.4m/s | -52.5°C | 4.8% | 0hPa | 2.7V | 00:00:00 | 00:00:00 | 00:00:00 | |
| POL1PZ | 2026-09-01 23:56:09 | 49.42635 | 17.78058 | 92° | 80km/h | 13791m | 4.2m/s | -52.4°C | 2.2% | 0hPa | 2.7V | 00:00:00 | 00:00:00 | 00:00:00 | |
| OE3OSB-13 | 2026-09-01 23:55:57 | 49.42628 | 17.77648 | 89° | 78km/h | 13732m | 3.3m/s | -52.5°C | 2.0% | -1.0hPa | 2.7V | 00:00:00 | 00:00:00 | 00:00:00 | |
| OE5DXL-15 | 2026-09-01 23:55:56 | 49.42627 | 17.77648 | 90° | 86km/h | 13732m | 3.3m/s | -52.5°C | 4.8% | 0hPa | 2.7V | 00:00:00 | 00:00:00 | 08:30:00 | |
| OE3JTB-15 | 2026-09-01 23:55:53 | 49.42628 | 17.77523 | 90° | 88km/h | 13714m | 4.6m/s | -52.5°C | 4.9% | 0hPa | 2.7V | 00:00:00 | 01:12:28 | 00:00:00 | |
| POL1PZ | 2026-09-01 23:55:48 | 49.42626 | 17.77422 | 89° | 91km/h | 13701m | 3.2m/s | -52.7°C | 2.3% | 0hPa | 2.7V | 00:00:00 | 00:00:00 | 00:00:00 | |
| PETON7-10 | 2026-09-01 23:55:46 | 49.42625 | 17.77319 | 91° | 86km/h | 13688m | 4.6m/s | -52.7°C | 4.9% | 0hPa | 2.7V | 00:00:00 | 00:00:00 | 00:00:00 | |
| PG1ADW-2 | 2026-09-01 23:55:38 | 49.42629 | 17.77059 | 90° | 91km/h | 13654m | 3.6m/s | -52.5°C | 4.8% | 0hPa | 2.7V | 00:00:00 | 00:00:00 | 00:00:00 | |
| OE5DRO-10 | 2026-09-01 23:55:37 | 49.42629 | 17.77025 | 89° | 91km/h | 13649m | 4.8m/s | -52.5°C | 4.8% | 0hPa | 2.7V | 00:00:00 | 00:00:00 | 00:00:00 | |
| PETON7-10 | 2026-09-01 23:55:31 | 49.42622 | 17.76816 | 87° | 93km/h | 13620m | 3.9m/s | -52.4°C | 4.9% | 0hPa | 2.7V | 00:00:00 | 01:12:07 | 00:00:00 | |
| POL1PZ | 2026-09-01 23:55:28 | 49.42620 | 17.76747 | 91° | 91km/h | 13611m | 5.1m/s | -52.4°C | 2.3% | 0hPa | 2.7V | 00:00:00 | 00:00:00 | 00:00:00 | |
| OE5DXL-15 | 2026-09-01 23:55:26 | 49.42621 | 17.76642 | 91° | 91km/h | 13598m | 4.5m/s | -52.5°C | 4.9% | 0hPa | 2.7V | 00:00:00 | 00:00:00 | 00:00:00 | |
| OE3JTB-15 | 2026-09-01 23:55:24 | 49.42621 | 17.76498 | 89° | 91km/h | 13579m | 5.0m/s | -52.5°C | 4.9% | 0hPa | 2.7V | 00:00:00 | 00:00:00 | 00:00:00 | |
| OE5DRO-10 | 2026-09-01 23:55:18 | 49.42618 | 17.76351 | 88° | 91km/h | 13562m | 4.2m/s | -52.5°C | 4.8% | 0hPa | 2.7V | 00:00:00 | 00:00:00 | 00:00:00 | |
| PETON7-10 | 2026-09-01 23:55:16 | 49.42615 | 17.76277 | 86° | 91km/h | 13552m | 4.4m/s | -52.5°C | 4.8% | 0hPa | 2.7V | 00:00:00 | 00:00:00 | 08:30:00 | |
| POL1PZ | 2026-09-01 23:55:08 | 49.42603 | 17.76031 | 85° | 89km/h | 13521m | 5.3m/s | -52.5°C | 2.3% | 0hPa | 2.7V | 00:00:00 | 00:00:00 | 00:00:00 | |
| PETON7-10 | 2026-09-01 23:55:01 | 49.42578 | 17.75753 | 81° | 88km/h | 13486m | 5.3m/s | -52.3°C | 4.9% | 0hPa | 2.7V | 00:00:00 | 00:00:00 | 00:00:00 | |
| OE5DRO-10 | 2026-09-01 23:54:59 | 49.42570 | 17.75684 | 80° | 86km/h | 13477m | 4.5m/s | -52.2°C | 4.8% | 0hPa | 2.7V | 00:00:00 | 00:00:00 | 00:00:00 | |
| PG1ADW-2 | 2026-09-01 23:54:58 | 49.42566 | 17.75649 | 80° | 86km/h | 13472m | 4.2m/s | -52.2°C | 4.9% | 0hPa | 2.7V | 00:00:00 | 00:00:00 | 08:30:00 | |
| OE5DXL-15 | 2026-09-01 23:54:56 | 49.42558 | 17.75580 | 81° | 86km/h | 13464m | 5.4m/s | -52.3°C | 5.0% | 0hPa | 2.7V | 00:00:00 | 00:00:00 | 00:00:00 | |
| OE3JTB-15 | 2026-09-01 23:54:54 | 49.42546 | 17.75448 | 84° | 86km/h | 13446m | 4.3m/s | -52.2°C | 5.0% | 0hPa | 2.7V | 00:00:00 | 00:00:00 | 00:00:00 | |
| POL1PZ | 2026-09-01 23:54:47 | 49.42536 | 17.75318 | 84° | 88km/h | 13427m | 4.0m/s | -52.3°C | 2.4% | 0hPa | 2.7V | 00:00:00 | 00:00:00 | 00:00:00 | |
| PETON7-10 | 2026-09-01 23:54:46 | 49.42530 | 17.75251 | 82° | 86km/h | 13418m | 5.1m/s | -52.3°C | 5.0% | 0hPa | 2.7V | 00:00:00 | 01:11:22 | 00:00:00 | |
| OE5DRO-10 | 2026-09-01 23:54:40 | 49.42512 | 17.75055 | 83° | 88km/h | 13392m | 4.7m/s | -52.4°C | 5.2% | 0hPa | 2.7V | 00:00:00 | 00:00:00 | 00:00:00 | |
| PG1ADW-2 | 2026-09-01 23:54:38 | 49.42507 | 17.74992 | 86° | 88km/h | 13383m | 5.6m/s | -52.4°C | 5.2% | 0hPa | 2.7V | 00:00:00 | 00:00:00 | 00:00:00 | |
| PETON7-10 | 2026-09-01 23:54:31 | 49.42499 | 17.74753 | 88° | 86km/h | 13351m | 5.7m/s | -52.2°C | 5.2% | 0hPa | 2.7V | 00:00:00 | 00:00:00 | 00:00:00 | |
| OE5DXL-15 | 2026-09-01 23:54:26 | 49.42492 | 17.74581 | 87° | 82km/h | 13326m | 3.3m/s | -52.2°C | 5.3% | 0hPa | 2.7V | 00:00:00 | 00:00:00 | 00:00:00 | |
| OE3JTB-15 | 2026-09-01 23:54:25 | 49.42488 | 17.74482 | 88° | 82km/h | 13312m | 4.1m/s | -52.2°C | 5.3% | 0hPa | 2.7V | 00:00:00 | 01:10:59 | 00:00:00 | |
| OE3OSB-13 | 2026-09-01 23:54:24 | 49.42488 | 17.74482 | 87° | 84km/h | 13312m | 4.1m/s | -52.2°C | 2.5% | -1.0hPa | 2.7V | 00:00:00 | 00:00:00 | 00:00:00 | |
| OE5DRO-10 | 2026-09-01 23:54:21 | 49.42486 | 17.74416 | 90° | 82km/h | 13302m | 4.1m/s | -52.2°C | 5.4% | 0hPa | 2.7V | 00:00:00 | 00:00:00 | 00:00:00 | |
| PG1ADW-2 | 2026-09-01 23:54:18 | 49.42485 | 17.74318 | 88° | 80km/h | 13288m | 3.6m/s | -52.1°C | 5.5% | 0hPa | 2.7V | 00:00:00 | 00:00:00 | 00:00:00 | |
| PETON7-10 | 2026-09-01 23:54:16 | 49.42482 | 17.74253 | 87° | 80km/h | 13280m | 4.1m/s | -52.1°C | 5.5% | 0hPa | 2.7V | 00:00:00 | 00:00:00 | 00:00:00 | |
| POL1PZ | 2026-09-01 23:54:05 | 49.42474 | 17.73945 | 91° | 82km/h | 13235m | 5.3m/s | -52.1°C | 3.0% | 0hPa | 2.7V | 00:00:00 | 00:00:00 | 00:00:00 | |
| OE3OSB-13 | 2026-09-01 23:53:53 | 49.42472 | 17.73492 | 86° | 86km/h | 13174m | 4.5m/s | -53.5°C | 3.7% | -1.0hPa | 2.7V | 00:00:00 | 00:00:00 | 00:00:00 | |
| PETON7-10 | 2026-09-01 23:53:46 | 49.42470 | 17.73299 | 91° | 95km/h | 13148m | 5.0m/s | -53.6°C | 6.9% | 0hPa | 2.7V | 00:00:00 | 00:00:00 | 00:00:00 | |
| POL1PZ | 2026-09-01 23:53:45 | 49.42470 | 17.73299 | 92° | 86km/h | 13148m | 5.0m/s | -53.7°C | 3.9% | 0hPa | 2.7V | 00:00:00 | 00:00:00 | 00:00:00 | |
| OE5DRO-10 | 2026-09-01 23:53:43 | 49.42471 | 17.73195 | 89° | 99km/h | 13134m | 4.9m/s | -53.7°C | 7.0% | 0hPa | 2.7V | 00:00:00 | 00:00:00 | 00:00:00 | |
| PG1ADW-2 | 2026-09-01 23:53:38 | 49.42470 | 17.73011 | 92° | 100km/h | 13110m | 4.6m/s | -53.8°C | 7.1% | 0hPa | 2.7V | 00:00:00 | 00:00:00 | 00:00:00 | |
| PETON7-10 | 2026-09-01 23:53:31 | 49.42474 | 17.72745 | 92° | 102km/h | 13077m | 3.4m/s | -53.8°C | 7.4% | 0hPa | 2.7V | 00:00:00 | 00:00:00 | 00:00:00 | |
| OE3JTB-15 | 2026-09-01 23:53:27 | 49.42475 | 17.72543 | 88° | 102km/h | 13055m | 4.7m/s | -53.7°C | 7.6% | 0hPa | 2.7V | 00:00:00 | 00:00:00 | 00:00:00 | |
| OE5DXL-15 | 2026-09-01 23:53:26 | 49.42475 | 17.72543 | 88° | 102km/h | 13055m | 4.7m/s | -53.7°C | 7.6% | 0hPa | 2.7V | 00:00:00 | 00:00:00 | 00:00:00 | |
| OE5DRO-10 | 2026-09-01 23:53:24 | 49.42473 | 17.72464 | 89° | 102km/h | 13046m | 5.3m/s | -53.6°C | 7.6% | 0hPa | 2.7V | 00:00:00 | 00:00:00 | 00:00:00 | |
| OE3OSB-13 | 2026-09-01 23:53:21 | 49.42471 | 17.72347 | 87° | 99km/h | 13034m | 5.4m/s | -53.6°C | 4.3% | -1.0hPa | 2.7V | 00:00:00 | 00:00:00 | 00:00:00 | |
| PG1ADW-2 | 2026-09-01 23:53:18 | 49.42467 | 17.72230 | 89° | 102km/h | 13020m | 4.7m/s | -53.6°C | 7.8% | 0hPa | 2.7V | 00:00:00 | 00:00:00 | 00:00:00 | |
| PETON7-10 | 2026-09-01 23:53:16 | 49.42466 | 17.72151 | 89° | 102km/h | 13012m | 5.7m/s | -53.6°C | 7.7% | 0hPa | 2.7V | 00:00:00 | 01:09:52 | 00:00:00 | |
| OE5DRO-10 | 2026-09-01 23:53:05 | 49.42447 | 17.71714 | 88° | 99km/h | 12955m | 5.1m/s | -53.6°C | 8.1% | 0hPa | 2.7V | 00:00:00 | 00:00:00 | 00:00:00 | |
| POL1PZ | 2026-09-01 23:53:04 | 49.42447 | 17.71714 | 88° | 100km/h | 12955m | 5.2m/s | -53.6°C | 5.0% | 0hPa | 2.7V | 00:00:00 | 00:00:00 | 00:00:00 | |
| OE3OSB-13 | 2026-09-01 23:52:50 | 49.42414 | 17.71135 | 86° | 95km/h | 12864m | 9.5m/s | -55.0°C | 6.3% | -1.0hPa | 2.7V | 00:00:00 | 00:00:00 | 00:00:00 | |
| OE5DRO-10 | 2026-09-01 23:52:46 | 49.42405 | 17.70989 | 84° | 95km/h | 12838m | 9.3m/s | -55.0°C | 10.3% | 0hPa | 2.7V | 00:00:00 | 00:00:00 | 00:00:00 | |
| POL1PZ | 2026-09-01 23:52:43 | 49.42399 | 17.70917 | 83° | 95km/h | 12824m | 7.5m/s | -55.1°C | 6.7% | 0hPa | 2.7V | 00:00:00 | 00:00:00 | 00:00:00 | |
| PG1ADW-2 | 2026-09-01 23:52:38 | 49.42381 | 17.70703 | 82° | 91km/h | 12790m | 6.8m/s | -55.1°C | 10.9% | 0hPa | 2.7V | 00:00:00 | 01:09:14 | 00:00:00 | |
| PETON7-10 | 2026-09-01 23:52:31 | 49.42349 | 17.70456 | 77° | 93km/h | 12753m | 4.5m/s | -55.2°C | 11.3% | 0hPa | 2.7V | 00:00:00 | 01:09:07 | 00:00:00 | |
| OE3JTB-15 | 2026-09-01 23:52:29 | 49.42317 | 17.70312 | 70° | 89km/h | 12731m | 6.5m/s | -55.2°C | 11.6% | 0hPa | 2.7V | 00:00:00 | 00:00:00 | 08:30:00 | |
| OE5DRO-10 | 2026-09-01 23:52:27 | 49.42317 | 17.70312 | 70° | 86km/h | 12731m | 6.5m/s | -55.2°C | 11.6% | 0hPa | 2.7V | 00:00:00 | 00:00:00 | 00:00:00 | |
| OE5DXL-15 | 2026-09-01 23:52:26 | 49.42309 | 17.70277 | 72° | 88km/h | 12726m | 3.1m/s | -55.2°C | 11.9% | 0hPa | 2.7V | 00:00:00 | 00:00:00 | 00:00:00 | |
| POL1PZ | 2026-09-01 23:52:23 | 49.42295 | 17.70210 | 74° | 88km/h | 12715m | 7.8m/s | -55.3°C | 7.8% | 0hPa | 2.7V | 00:00:00 | 00:00:00 | 00:00:00 | |
| OE3OSB-13 | 2026-09-01 23:52:19 | 49.42265 | 17.70050 | 75° | 93km/h | 12686m | 5.8m/s | -55.4°C | 8.0% | -1.0hPa | 2.7V | 00:00:00 | 00:00:00 | 00:00:00 | |
| PG1ADW-2 | 2026-09-01 23:52:18 | 49.42259 | 17.70014 | 77° | 88km/h | 12681m | 5.2m/s | -55.3°C | 12.4% | 0hPa | 2.7V | 00:00:00 | 00:00:00 | 00:00:00 | |
| PETON7-10 | 2026-09-01 23:52:16 | 49.42248 | 17.69942 | 77° | 86km/h | 12671m | 6.2m/s | -55.3°C | 12.6% | 0hPa | 2.7V | 00:00:00 | 00:00:00 | 00:00:00 | |
| OE5DRO-10 | 2026-09-01 23:52:08 | 49.42221 | 17.69695 | 81° | 91km/h | 12626m | 8.8m/s | -55.2°C | 13.0% | 0hPa | 2.6V | 00:00:00 | 00:00:00 | 00:00:00 | |
| HA6NAB-11 | 2026-09-01 23:52:07 | 49.42218 | 17.69662 | 84° | 91km/h | 12619m | 4.9m/s | -55.2°C | 0% | 0hPa | 2.7V | 00:00:00 | 00:00:00 | 00:00:00 | |
| POL1PZ | 2026-09-01 23:52:02 | 49.42210 | 17.69518 | 86° | 95km/h | 12597m | 5.9m/s | -55.1°C | 9.1% | 0hPa | 2.7V | 00:00:00 | 00:00:00 | 00:00:00 | |
| OE3OSB-13 | 2026-09-01 23:51:48 | 49.42197 | 17.68982 | 92° | 99km/h | 12508m | 7.6m/s | -54.7°C | 10.4% | -1.0hPa | 2.7V | 00:00:00 | 00:00:00 | 00:00:00 | |
| PETON7-10 | 2026-09-01 23:51:46 | 49.42200 | 17.68907 | 93° | 95km/h | 12497m | 6.9m/s | -54.6°C | 15.3% | 0hPa | 2.7V | 00:00:00 | 01:08:22 | 00:00:00 | |
| POL1PZ | 2026-09-01 23:51:42 | 49.42201 | 17.68801 | 91° | 88km/h | 12479m | 6.6m/s | -54.6°C | 11.1% | 0hPa | 2.7V | 00:00:00 | 00:00:00 | 00:00:00 | |
| PG1ADW-2 | 2026-09-01 23:51:38 | 49.42197 | 17.68626 | 85° | 102km/h | 12447m | 4.5m/s | -55.1°C | 16.9% | 0hPa | 2.7V | 00:00:00 | 00:00:00 | 00:00:00 | |
| HA6NAB-11 | 2026-09-01 23:51:32 | 49.42196 | 17.68435 | 96° | 102km/h | 12413m | 10.3m/s | -55.2°C | 0% | 0hPa | 2.7V | 00:00:00 | 00:00:00 | 00:00:00 | |
| PETON7-10 | 2026-09-01 23:51:31 | 49.42202 | 17.68355 | 97° | 104km/h | 12400m | 6.6m/s | -55.3°C | 17.8% | 0hPa | 2.7V | 00:00:00 | 00:00:00 | 00:00:00 | |
| OE5DRO-10 | 2026-09-01 23:51:30 | 49.42205 | 17.68315 | 97° | 102km/h | 12394m | 3.8m/s | -55.4°C | 18.1% | 0hPa | 2.7V | 00:00:00 | 00:00:00 | 00:00:00 | |
| HA6NAB-11 | 2026-09-01 23:51:27 | 49.42211 | 17.68236 | 97° | 102km/h | 12384m | 5.6m/s | 0°C | 0% | 0hPa | 2.7V | 00:00:00 | 00:00:00 | 00:00:00 | |
| OE5DXL-15 | 2026-09-01 23:51:26 | 49.42213 | 17.68158 | 90° | 108km/h | 12374m | 4.2m/s | -55.3°C | 19.2% | 0hPa | 2.7V | 00:00:00 | 00:00:00 | 08:30:00 | |
| POL1PZ | 2026-09-01 23:51:22 | 49.42209 | 17.68000 | 88° | 104km/h | 12349m | 4.8m/s | -55.6°C | 15.6% | 0hPa | 2.7V | 00:00:00 | 00:00:00 | 00:00:00 | |
| HA6NAB-11 | 2026-09-01 23:51:21 | 49.42209 | 17.68000 | 88° | 104km/h | 12349m | 4.8m/s | 0°C | 0% | 0hPa | 2.7V | 00:00:00 | 00:00:00 | 00:00:00 | |
| PG1ADW-2 | 2026-09-01 23:51:18 | 49.42208 | 17.67835 | 92° | 108km/h | 12328m | 6.6m/s | -56.4°C | 22.8% | 0hPa | 2.7V | 00:00:00 | 01:07:54 | 00:00:00 | |
| OE3OSB-13 | 2026-09-01 23:51:17 | 49.42208 | 17.67795 | 91° | 102km/h | 12322m | 5.9m/s | -56.6°C | 17.1% | -1.0hPa | 2.7V | 00:00:00 | 00:00:00 | 00:00:00 | |
| PETON7-10 | 2026-09-01 23:51:16 | 49.42208 | 17.67756 | 91° | 106km/h | 12315m | 7.2m/s | -56.6°C | 23.5% | 0hPa | 2.7V | 00:00:00 | 00:00:00 | 00:00:00 | |
| HA6NAB-11 | 2026-09-01 23:51:13 | 49.42208 | 17.67680 | 90° | 95km/h | 12303m | 9.3m/s | 0°C | 0% | 0hPa | 2.7V | 00:00:00 | 00:00:00 | 00:00:00 | |
| OE5DRO-10 | 2026-09-01 23:51:11 | 49.42205 | 17.67565 | 87° | 113km/h | 12283m | 5.2m/s | -57.2°C | 25.7% | 0hPa | 2.7V | 00:00:00 | 00:00:00 | 08:30:00 | |
| HA6NAB-11 | 2026-09-01 23:51:08 | 49.42200 | 17.67485 | 85° | 108km/h | 12268m | 6.1m/s | 0°C | 0% | 0hPa | 2.7V | 00:00:00 | 00:00:00 | 00:00:00 | |
| HA6NAB-11 | 2026-09-01 23:51:03 | 49.42189 | 17.67266 | 89° | 115km/h | 12238m | 5.2m/s | 0°C | 0% | 0hPa | 2.7V | 00:00:00 | 00:00:00 | 00:00:00 | |
| PETON7-10 | 2026-09-01 23:51:01 | 49.42188 | 17.67133 | 89° | 115km/h | 12219m | 3.4m/s | -57.1°C | 31.6% | 0hPa | 2.7V | 00:00:00 | 01:07:37 | 00:00:00 | |
| PG1ADW-2 | 2026-09-01 23:50:58 | 49.42187 | 17.66998 | 90° | 119km/h | 12202m | 6.6m/s | -57.2°C | 32.7% | 0hPa | 2.7V | 00:00:00 | 00:00:00 | 00:00:00 | |
| HA6NAB-11 | 2026-09-01 23:50:57 | 49.42187 | 17.66998 | 91° | 119km/h | 12202m | 6.6m/s | 0°C | 0% | 0hPa | 2.7V | 00:00:00 | 00:00:00 | 00:00:00 | |
| OE5DXL-15 | 2026-09-01 23:50:56 | 49.42186 | 17.66908 | 90° | 120km/h | 12190m | 7.5m/s | -57.3°C | 33.2% | 0hPa | 2.7V | 00:00:00 | 00:00:00 | 00:00:00 | |
| OE5DRO-10 | 2026-09-01 23:50:52 | 49.42187 | 17.66735 | 92° | 120km/h | 12165m | 5.4m/s | -57.3°C | 34.6% | 0hPa | 2.7V | 00:00:00 | 00:00:00 | 00:00:00 | |
| PETON7-10 | 2026-09-01 23:50:46 | 49.42192 | 17.66469 | 93° | 122km/h | 12134m | 5.6m/s | -57.4°C | 36.2% | 0hPa | 2.7V | 00:00:00 | 00:00:00 | 08:30:00 | |
| POL1PZ | 2026-09-01 23:50:41 | 49.42197 | 17.66279 | 92° | 128km/h | 12112m | 5.4m/s | -57.5°C | 30.2% | 0hPa | 2.7V | 00:00:00 | 00:00:00 | 00:00:00 | |
| PG1ADW-2 | 2026-09-01 23:50:38 | 49.42199 | 17.66084 | 92° | 124km/h | 12095m | 3.8m/s | -57.6°C | 40.3% | 0hPa | 2.7V | 00:00:00 | 00:00:00 | 00:00:00 | |
| OE5DRO-10 | 2026-09-01 23:50:33 | 49.42203 | 17.65850 | 93° | 126km/h | 12073m | 4.0m/s | -57.6°C | 42.1% | 0hPa | 2.7V | 00:00:00 | 00:00:00 | 00:00:00 | |
| PETON7-10 | 2026-09-01 23:50:31 | 49.42206 | 17.65751 | 94° | 126km/h | 12062m | 4.1m/s | -57.6°C | 41.8% | 0hPa | 2.7V | 00:00:00 | 00:00:00 | 00:00:00 | |
| OE5DXL-15 | 2026-09-01 23:50:26 | 49.42218 | 17.65504 | 96° | 128km/h | 12028m | 5.5m/s | -57.6°C | 41.7% | 0hPa | 2.7V | 00:00:00 | 00:00:00 | 00:00:00 | |
| POL1PZ | 2026-09-01 23:50:20 | 49.42225 | 17.65262 | 91° | 122km/h | 11994m | 5.2m/s | -57.5°C | 34.1% | 0hPa | 2.7V | 00:00:00 | 00:00:00 | 00:00:00 | |
| PG1ADW-2 | 2026-09-01 23:50:18 | 49.42225 | 17.65120 | 91° | 130km/h | 11977m | 7.0m/s | -57.4°C | 44.0% | 0hPa | 2.7V | 00:00:00 | 00:00:00 | 00:00:00 | |
| OE3OSB-13 | 2026-09-01 23:50:15 | 49.42227 | 17.64971 | 90° | 131km/h | 11957m | 7.1m/s | -57.5°C | 35.8% | -1.0hPa | 2.7V | 00:00:00 | 00:00:00 | 00:00:00 | |
| OE5DRO-10 | 2026-09-01 23:50:14 | 49.42228 | 17.64919 | 91° | 130km/h | 11951m | 6.2m/s | -57.5°C | 46.2% | 0hPa | 2.7V | 00:00:00 | 00:00:00 | 00:00:00 | |
| OE3JTB-15 | 2026-09-01 23:50:04 | 49.42255 | 17.64256 | 92° | 126km/h | 11863m | 8.1m/s | -57.3°C | 47.5% | 0hPa | 2.7V | 00:00:00 | 00:00:00 | 00:00:00 | |
| PETON7-10 | 2026-09-01 23:50:01 | 49.42255 | 17.64256 | 92° | 126km/h | 11863m | 8.1m/s | -57.3°C | 47.5% | 0hPa | 2.7V | 00:00:00 | 00:00:00 | 00:00:00 | |
| POL1PZ | 2026-09-01 23:49:59 | 49.42256 | 17.64210 | 92° | 119km/h | 11857m | 4.8m/s | -57.4°C | 39.2% | 0hPa | 2.7V | 00:00:00 | 00:00:00 | 00:00:00 | |
| PG1ADW-2 | 2026-09-01 23:49:58 | 49.42257 | 17.64117 | 91° | 126km/h | 11845m | 4.2m/s | -57.3°C | 48.9% | 0hPa | 2.7V | 00:00:00 | 01:06:34 | 00:00:00 | |
| OE5DXL-15 | 2026-09-01 23:49:56 | 49.42258 | 17.64019 | 93° | 128km/h | 11832m | 5.7m/s | -57.2°C | 47.8% | 0hPa | 2.7V | 00:00:00 | 00:00:00 | 00:00:00 | |
| OE5DRO-10 | 2026-09-01 23:49:55 | 49.42260 | 17.63969 | 93° | 126km/h | 11826m | 6.4m/s | -57.2°C | 47.1% | 0hPa | 2.7V | 00:00:00 | 00:00:00 | 00:00:00 | |
| PETON7-10 | 2026-09-01 23:49:46 | 49.42269 | 17.63523 | 93° | 126km/h | 11763m | 4.5m/s | -57.0°C | 46.7% | 0hPa | 2.7V | 00:00:00 | 00:00:00 | 00:00:00 | |
| OE3OSB-13 | 2026-09-01 23:49:44 | 49.42272 | 17.63429 | 95° | 122km/h | 11751m | 6.0m/s | -57.1°C | 37.5% | -1.0hPa | 2.7V | 00:00:00 | 00:00:00 | 00:00:00 | |
| POL1PZ | 2026-09-01 23:49:39 | 49.42287 | 17.63236 | 97° | 126km/h | 11729m | 6.5m/s | -57.0°C | 38.9% | 0hPa | 2.7V | 00:00:00 | 00:00:00 | 00:00:00 | |
| PG1ADW-2 | 2026-09-01 23:49:38 | 49.42293 | 17.63140 | 96° | 131km/h | 11717m | 7.6m/s | -57.0°C | 49.6% | 0hPa | 2.7V | 00:00:00 | 00:00:00 | 00:00:00 | |
| OE5DRO-10 | 2026-09-01 23:49:36 | 49.42297 | 17.63042 | 91° | 133km/h | 11705m | 4.9m/s | -57.1°C | 51.7% | 0hPa | 2.7V | 00:00:00 | 00:00:00 | 00:00:00 | |
| PETON7-10 | 2026-09-01 23:49:31 | 49.42290 | 17.62793 | 90° | 133km/h | 11675m | 6.6m/s | -57.5°C | 53.7% | 0hPa | 2.7V | 00:00:00 | 01:06:07 | 00:00:00 | |
| OE5DXL-15 | 2026-09-01 23:49:26 | 49.42295 | 17.62544 | 90° | 135km/h | 11642m | 5.3m/s | -57.3°C | 55.3% | 0hPa | 2.7V | 00:00:00 | 00:00:00 | 00:00:00 | |
| OE3JTB-15 | 2026-09-01 23:49:24 | 49.42285 | 17.62274 | 87° | 133km/h | 11612m | 6.3m/s | -57.3°C | 56.8% | 0hPa | 2.7V | 00:00:00 | 01:05:57 | 00:00:00 | |
| PG1ADW-2 | 2026-09-01 23:49:18 | 49.42281 | 17.62117 | 89° | 133km/h | 11591m | 8.4m/s | -57.3°C | 57.2% | 0hPa | 2.7V | 00:00:00 | 00:00:00 | 00:00:00 | |
| OE5DRO-10 | 2026-09-01 23:49:17 | 49.42280 | 17.62064 | 90° | 133km/h | 11584m | 5.4m/s | -57.3°C | 58.2% | 0hPa | 2.7V | 00:00:00 | 00:00:00 | 00:00:00 | |
| PETON7-10 | 2026-09-01 23:49:16 | 49.42280 | 17.62012 | 91° | 133km/h | 11577m | 8.6m/s | -57.3°C | 58.3% | 0hPa | 2.7V | 00:00:00 | 00:00:00 | 00:00:00 | |
| OE3OSB-13 | 2026-09-01 23:49:13 | 49.42282 | 17.61859 | 90° | 130km/h | 11559m | 6.8m/s | -57.2°C | 46.4% | -1.0hPa | 2.7V | 00:00:00 | 00:00:00 | 00:00:00 | |
| PETON7-10 | 2026-09-01 23:49:01 | 49.42263 | 17.61241 | 91° | 137km/h | 11487m | 7.2m/s | -56.7°C | 58.6% | 0hPa | 2.7V | 00:00:00 | 00:00:00 | 00:00:00 | |
| OE5DRO-10 | 2026-09-01 23:48:58 | 49.42264 | 17.61078 | 89° | 135km/h | 11470m | 7.4m/s | -56.5°C | 56.7% | 0hPa | 2.7V | 00:00:00 | 00:00:00 | 00:00:00 | |
| OE5DXL-15 | 2026-09-01 23:48:56 | 49.42260 | 17.60966 | 86° | 135km/h | 11458m | 5.9m/s | -56.5°C | 56.3% | 0hPa | 2.7V | 00:00:00 | 00:00:00 | 00:00:00 | |
| PETON7-10 | 2026-09-01 23:48:46 | 49.42239 | 17.60446 | 88° | 135km/h | 11397m | 3.0m/s | -56.1°C | 62.0% | 0hPa | 2.7V | 00:00:00 | 01:05:22 | 00:00:00 | |
| OE5DRO-10 | 2026-09-01 23:48:39 | 49.42243 | 17.60081 | 93° | 135km/h | 11361m | 6.3m/s | -55.9°C | 59.2% | 0hPa | 2.7V | 00:00:00 | 00:00:00 | 00:00:00 | |
| PG1ADW-2 | 2026-09-01 23:48:38 | 49.42245 | 17.60030 | 94° | 135km/h | 11355m | 7.3m/s | -55.9°C | 59.1% | 0hPa | 2.7V | 00:00:00 | 01:05:14 | 00:00:00 | |
| POL1PZ | 2026-09-01 23:48:37 | 49.42245 | 17.60030 | 94° | 131km/h | 11355m | 7.4m/s | -56.0°C | 49.1% | 0hPa | 2.7V | 00:00:00 | 00:00:00 | 00:00:00 | |
| PETON7-10 | 2026-09-01 23:48:31 | 49.42245 | 17.59658 | 88° | 135km/h | 11304m | 4.7m/s | -55.6°C | 61.6% | 0hPa | 2.7V | 00:00:00 | 00:00:00 | 08:30:00 | |
| OE5DXL-15 | 2026-09-01 23:48:26 | 49.42238 | 17.59395 | 87° | 130km/h | 11270m | 7.2m/s | -55.5°C | 62.7% | 0hPa | 2.7V | 00:00:00 | 00:00:00 | 00:00:00 | |
| OE5DRO-10 | 2026-09-01 23:48:20 | 49.42232 | 17.59084 | 88° | 130km/h | 11233m | 5.4m/s | -55.2°C | 63.5% | 0hPa | 2.7V | 00:00:00 | 00:00:00 | 08:30:00 | |
| PG1ADW-2 | 2026-09-01 23:48:18 | 49.42227 | 17.58980 | 86° | 128km/h | 11222m | 5.6m/s | -55.1°C | 63.9% | 0hPa | 2.7V | 00:00:00 | 00:00:00 | 00:00:00 | |
| PETON7-10 | 2026-09-01 23:48:16 | 49.42221 | 17.58872 | 85° | 128km/h | 11209m | 6.6m/s | -55.1°C | 65.6% | 0hPa | 2.7V | 00:00:00 | 00:00:00 | 00:00:00 | |
| OE3OSB-13 | 2026-09-01 23:48:11 | 49.42207 | 17.58576 | 89° | 124km/h | 11174m | 4.9m/s | -55.0°C | 59.9% | -1.0hPa | 2.7V | 00:00:00 | 00:00:00 | 00:00:00 | |
| OE5DRO-10 | 2026-09-01 23:48:01 | 49.42200 | 17.58135 | 87° | 130km/h | 11118m | 6.8m/s | -54.6°C | 69.6% | 0hPa | 2.7V | 00:00:00 | 00:00:00 | 00:00:00 | |
| PG1ADW-2 | 2026-09-01 23:47:58 | 49.42197 | 17.57990 | 90° | 131km/h | 11100m | 5.7m/s | -54.4°C | 70.2% | 0hPa | 2.7V | 00:00:00 | 00:00:00 | 00:00:00 | |
| OE5DXL-15 | 2026-09-01 23:47:56 | 49.42196 | 17.57892 | 89° | 131km/h | 11089m | 5.5m/s | -54.3°C | 70.3% | 0hPa | 2.7V | 00:00:00 | 00:00:00 | 00:00:00 | |
| PETON7-10 | 2026-09-01 23:47:46 | 49.42184 | 17.57378 | 88° | 133km/h | 11037m | 4.7m/s | -53.9°C | 71.7% | 0hPa | 2.7V | 00:00:00 | 00:00:00 | 00:00:00 | |
| OE5DRO-10 | 2026-09-01 23:47:42 | 49.42177 | 17.57178 | 87° | 131km/h | 11021m | 3.7m/s | -53.7°C | 71.5% | 0hPa | 2.7V | 00:00:00 | 00:00:00 | 00:00:00 | |
| OE3OSB-13 | 2026-09-01 23:47:40 | 49.42175 | 17.57026 | 89° | 131km/h | 11008m | 3.8m/s | -53.7°C | 61.1% | -1.0hPa | 2.7V | 00:00:00 | 00:00:00 | 00:00:00 | |
| PG1ADW-2 | 2026-09-01 23:47:38 | 49.42175 | 17.56974 | 90° | 131km/h | 11004m | 4.9m/s | -53.6°C | 72.0% | 0hPa | 2.7V | 00:00:00 | 00:00:00 | 00:00:00 | |
| POL1PZ | 2026-09-01 23:47:35 | 49.42173 | 17.56871 | 89° | 135km/h | 10995m | 4.3m/s | -53.6°C | 62.0% | 0hPa | 2.7V | 00:00:00 | 00:00:00 | 00:00:00 | |
| PETON7-10 | 2026-09-01 23:47:31 | 49.42167 | 17.56608 | 88° | 130km/h | 10973m | 4.8m/s | -53.4°C | 75.0% | 0hPa | 2.7V | 00:00:00 | 00:00:00 | 00:00:00 | |
| OE5DRO-10 | 2026-09-01 23:47:23 | 49.42157 | 17.56207 | 88° | 128km/h | 10938m | 5.4m/s | -53.2°C | 72.4% | 0hPa | 2.7V | 00:00:00 | 00:00:00 | 00:00:00 | |
| PG1ADW-2 | 2026-09-01 23:47:18 | 49.42150 | 17.55957 | 89° | 128km/h | 10914m | 4.8m/s | -53.0°C | 71.3% | 0hPa | 2.7V | 00:00:00 | 01:03:54 | 00:00:00 | |
| OE3OSB-13 | 2026-09-01 23:47:12 | 49.42140 | 17.55465 | 89° | 128km/h | 10869m | 4.9m/s | -52.7°C | 59.0% | -1.0hPa | 2.7V | 00:00:00 | 00:00:00 | 00:00:00 | |
| OE5DRO-10 | 2026-09-01 23:47:04 | 49.42138 | 17.55266 | 90° | 126km/h | 10852m | 4.4m/s | -52.5°C | 67.3% | 0hPa | 2.7V | 00:00:00 | 00:00:00 | 00:00:00 | |
| PETON7-10 | 2026-09-01 23:47:01 | 49.42138 | 17.55119 | 90° | 126km/h | 10839m | 5.1m/s | -52.4°C | 65.7% | 0hPa | 2.7V | 00:00:00 | 00:00:00 | 00:00:00 | |
| PG1ADW-2 | 2026-09-01 23:46:58 | 49.42136 | 17.54970 | 90° | 126km/h | 10826m | 4.3m/s | -52.3°C | 64.9% | 0hPa | 2.7V | 00:00:00 | 00:00:00 | 00:00:00 | |
| OE5DXL-15 | 2026-09-01 23:46:56 | 49.42135 | 17.54872 | 88° | 122km/h | 10816m | 5.4m/s | -52.2°C | 64.4% | 0hPa | 2.7V | 00:00:00 | 00:00:00 | 08:30:00 | |
| POL1PZ | 2026-09-01 23:46:54 | 49.42134 | 17.54823 | 88° | 126km/h | 10812m | 4.3m/s | -52.2°C | 55.0% | 0hPa | 2.7V | 00:00:00 | 00:00:00 | 00:00:00 | |
| PETON7-10 | 2026-09-01 23:46:46 | 49.42119 | 17.54388 | 89° | 120km/h | 10769m | 6.4m/s | -51.9°C | 61.8% | 0hPa | 2.7V | 00:00:00 | 00:00:00 | 00:00:00 | |
| OE5DRO-10 | 2026-09-01 23:46:45 | 49.42118 | 17.54339 | 88° | 120km/h | 10763m | 4.4m/s | -51.9°C | 62.1% | 0hPa | 2.7V | 00:00:00 | 00:00:00 | 00:00:00 | |
| OE3OSB-13 | 2026-09-01 23:46:38 | 49.42101 | 17.53949 | 86° | 124km/h | 10726m | 4.8m/s | -51.6°C | 50.4% | -1.0hPa | 2.7V | 00:00:00 | 00:00:00 | 00:00:00 | |
| POL1PZ | 2026-09-01 23:46:33 | 49.42099 | 17.53814 | 93° | 110km/h | 10711m | 7.7m/s | -51.5°C | 48.6% | 0hPa | 2.7V | 00:00:00 | 00:00:00 | 00:00:00 | |
| PETON7-10 | 2026-09-01 23:46:31 | 49.42101 | 17.53684 | 90° | 126km/h | 10693m | 6.2m/s | -51.3°C | 57.9% | 0hPa | 2.7V | 00:00:00 | 01:03:07 | 00:00:00 | |
| OE5DXL-15 | 2026-09-01 23:46:26 | 49.42095 | 17.53447 | 89° | 122km/h | 10663m | 5.0m/s | -51.0°C | 55.6% | 0hPa | 2.7V | 00:00:00 | 00:00:00 | 00:00:00 | |
| PG1ADW-2 | 2026-09-01 23:46:18 | 49.42091 | 17.53045 | 91° | 120km/h | 10618m | 6.7m/s | -50.6°C | 51.6% | 0hPa | 2.7V | 00:00:00 | 00:00:00 | 00:00:00 | |
| PETON7-10 | 2026-09-01 23:46:16 | 49.42091 | 17.52955 | 89° | 120km/h | 10604m | 10.1m/s | -50.4°C | 51.1% | 0hPa | 2.7V | 00:00:00 | 00:00:00 | 08:30:00 | |
| POL1PZ | 2026-09-01 23:46:13 | 49.42089 | 17.52869 | 89° | 111km/h | 10590m | 6.7m/s | -50.4°C | 43.7% | 0hPa | 2.7V | 00:00:00 | 00:00:00 | 00:00:00 | |
| OE5DRO-10 | 2026-09-01 23:46:07 | 49.42085 | 17.52552 | 90° | 126km/h | 10544m | 8.9m/s | -49.9°C | 48.6% | 0hPa | 2.7V | 00:00:00 | 00:00:00 | 00:00:00 | |
| OE3OSB-13 | 2026-09-01 23:46:06 | 49.42085 | 17.52504 | 90° | 124km/h | 10536m | 7.6m/s | -49.9°C | 41.0% | -1.0hPa | 2.7V | 00:00:00 | 00:00:00 | 00:00:00 | |
| PETON7-10 | 2026-09-01 23:46:01 | 49.42090 | 17.52256 | 92° | 124km/h | 10502m | 8.2m/s | -49.5°C | 48.1% | 0hPa | 2.7V | 00:00:00 | 00:00:00 | 00:00:00 | |
| PG1ADW-2 | 2026-09-01 23:45:58 | 49.42089 | 17.52114 | 88° | 122km/h | 10483m | 8.3m/s | -49.3°C | 47.0% | 0hPa | 2.7V | 00:00:00 | 01:02:34 | 08:30:00 | |
| OE5DXL-15 | 2026-09-01 23:45:56 | 49.42086 | 17.52020 | 88° | 124km/h | 10470m | 5.5m/s | -49.2°C | 46.6% | 0hPa | 2.7V | 00:00:00 | 00:00:00 | 00:00:00 | |
| POL1PZ | 2026-09-01 23:45:52 | 49.42083 | 17.51871 | 93° | 130km/h | 10451m | 5.0m/s | -49.1°C | 40.0% | 0hPa | 2.7V | 00:00:00 | 00:00:00 | 00:00:00 | |
| OE5DRO-10 | 2026-09-01 23:45:48 | 49.42094 | 17.51627 | 93° | 120km/h | 10422m | 6.5m/s | -48.8°C | 47.6% | 0hPa | 2.7V | 00:00:00 | 00:00:00 | 00:00:00 | |
| PETON7-10 | 2026-09-01 23:45:46 | 49.42095 | 17.51536 | 92° | 119km/h | 10409m | 5.7m/s | -48.7°C | 48.0% | 0hPa | 2.7V | 00:00:00 | 01:02:22 | 00:00:00 | |
| PG1ADW-2 | 2026-09-01 23:45:38 | 49.42104 | 17.51168 | 92° | 120km/h | 10359m | 6.7m/s | -48.3°C | 48.6% | 0hPa | 2.7V | 00:00:00 | 00:00:00 | 00:00:00 | |
| OE3JTB-15 | 2026-09-01 23:45:35 | 49.42108 | 17.51027 | 95° | 91km/h | 10340m | 7.0m/s | -48.1°C | 48.0% | 0hPa | 2.7V | 00:00:00 | 00:00:00 | 08:30:00 | |
| PETON7-10 | 2026-09-01 23:45:31 | 49.42120 | 17.50840 | 95° | 119km/h | 10314m | 6.9m/s | -48.0°C | 49.4% | 0hPa | 2.7V | 00:00:00 | 00:00:00 | 00:00:00 | |
| OE5DRO-10 | 2026-09-01 23:45:29 | 49.42123 | 17.50747 | 93° | 120km/h | 10301m | 5.0m/s | -47.9°C | 49.0% | 0hPa | 2.7V | 00:00:00 | 00:00:00 | 08:30:00 | |
| OE5DXL-15 | 2026-09-01 23:45:26 | 49.42127 | 17.50607 | 94° | 119km/h | 10282m | 7.9m/s | -47.8°C | 46.9% | 0hPa | 2.7V | 00:00:00 | 00:00:00 | 00:00:00 | |
| PG1ADW-2 | 2026-09-01 23:45:18 | 49.42128 | 17.50237 | 90° | 117km/h | 10232m | 4.4m/s | -47.3°C | 47.6% | 0hPa | 2.7V | 00:00:00 | 00:00:00 | 00:00:00 | |
| PETON7-10 | 2026-09-01 23:45:16 | 49.42128 | 17.50147 | 92° | 119km/h | 10223m | 4.9m/s | -47.2°C | 47.9% | 0hPa | 2.7V | 00:00:00 | 00:00:00 | 00:00:00 | |
| POL1PZ | 2026-09-01 23:45:11 | 49.42136 | 17.49958 | 95° | 122km/h | 10203m | 5.3m/s | -47.2°C | 42.6% | 0hPa | 2.7V | 00:00:00 | 00:00:00 | 00:00:00 | |
| OE5DRO-10 | 2026-09-01 23:45:10 | 49.42139 | 17.49865 | 92° | 117km/h | 10194m | 5.4m/s | -47.1°C | 50.2% | 0hPa | 2.7V | 00:00:00 | 00:00:00 | 00:00:00 | |
| OE3OSB-13 | 2026-09-01 23:45:04 | 49.42132 | 17.49602 | 89° | 111km/h | 10166m | 5.8m/s | -46.8°C | 43.2% | -1.0hPa | 2.7V | 00:00:00 | 00:00:00 | 00:00:00 | |
| PETON7-10 | 2026-09-01 23:45:01 | 49.42139 | 17.49464 | 98° | 119km/h | 10148m | 8.5m/s | -46.6°C | 47.5% | 0hPa | 2.7V | 00:00:00 | 01:01:37 | 00:00:00 | |
| PG1ADW-2 | 2026-09-01 23:44:58 | 49.42149 | 17.49327 | 92° | 119km/h | 10125m | 7.1m/s | -46.4°C | 47.6% | 0hPa | 2.7V | 00:00:00 | 00:00:00 | 00:00:00 | |
| OE5DXL-15 | 2026-09-01 23:44:55 | 49.42143 | 17.49193 | 84° | 119km/h | 10104m | 6.5m/s | -46.2°C | 45.9% | 0hPa | 2.7V | 00:00:00 | 00:00:00 | 00:00:00 | |
| POL1PZ | 2026-09-01 23:44:51 | 49.42132 | 17.49005 | 89° | 120km/h | 10076m | 6.0m/s | -46.0°C | 40.0% | 0hPa | 2.7V | 00:00:00 | 00:00:00 | 00:00:00 | |
| PETON7-10 | 2026-09-01 23:44:46 | 49.42132 | 17.48782 | 89° | 120km/h | 10045m | 6.6m/s | -45.7°C | 44.8% | 0hPa | 2.7V | 00:00:00 | 00:00:00 | 00:00:00 | |
| PG1ADW-2 | 2026-09-01 23:44:38 | 49.42133 | 17.48412 | 92° | 120km/h | 10004m | 6.3m/s | -45.3°C | 43.2% | 0hPa | 2.7V | 00:00:00 | 01:01:14 | 00:00:00 | |
| OE3OSB-13 | 2026-09-01 23:44:33 | 49.42130 | 17.48175 | 89° | 119km/h | 9979m | 5.0m/s | -45.1°C | 37.6% | -1.0hPa | 2.7V | 00:00:00 | 00:00:00 | 00:00:00 | |
| OE5DRO-10 | 2026-09-01 23:44:32 | 49.42130 | 17.48129 | 92° | 119km/h | 9974m | 4.2m/s | -45.0°C | 43.7% | 0hPa | 2.7V | 00:00:00 | 00:00:00 | 00:00:00 | |
| PETON7-10 | 2026-09-01 23:44:31 | 49.42130 | 17.48084 | 92° | 119km/h | 9969m | 4.7m/s | -44.9°C | 43.7% | 0hPa | 2.7V | 00:00:00 | 00:00:00 | 00:00:00 | |
| POL1PZ | 2026-09-01 23:44:30 | 49.42130 | 17.48084 | 92° | 115km/h | 9969m | 4.8m/s | -45.0°C | 37.8% | 0hPa | 2.7V | 00:00:00 | 00:00:00 | 00:00:00 | |
| OE5DXL-15 | 2026-09-01 23:44:25 | 49.42127 | 17.47812 | 87° | 120km/h | 9940m | 6.2m/s | -44.7°C | 43.2% | 0hPa | 2.7V | 00:00:00 | 00:00:00 | 00:00:00 | |
| PG1ADW-2 | 2026-09-01 23:44:18 | 49.42123 | 17.47482 | 96° | 117km/h | 9903m | 8.4m/s | -44.4°C | 42.8% | 0hPa | 2.7V | 00:00:00 | 00:00:00 | 00:00:00 | |
| PETON7-10 | 2026-09-01 23:44:16 | 49.42127 | 17.47393 | 92° | 117km/h | 9887m | 7.3m/s | -44.3°C | 43.3% | 0hPa | 2.7V | 00:00:00 | 01:00:52 | 00:00:00 | |
| OE5DRO-10 | 2026-09-01 23:44:13 | 49.42126 | 17.47258 | 89° | 120km/h | 9868m | 8.1m/s | -44.2°C | 43.0% | 0hPa | 2.7V | 00:00:00 | 00:00:00 | 00:00:00 | |
| POL1PZ | 2026-09-01 23:44:09 | 49.42126 | 17.47119 | 93° | 117km/h | 9849m | 6.9m/s | -44.1°C | 38.3% | 0hPa | 2.7V | 00:00:00 | 00:00:00 | 00:00:00 | |
| OE3OSB-13 | 2026-09-01 23:44:02 | 49.42124 | 17.46756 | 86° | 119km/h | 9806m | 4.3m/s | -44.0°C | 44.5% | -1.0hPa | 2.7V | 00:00:00 | 00:00:00 | 00:00:00 | |
| PETON7-10 | 2026-09-01 23:44:01 | 49.42122 | 17.46710 | 88° | 122km/h | 9801m | 4.6m/s | -43.9°C | 51.4% | 0hPa | 2.7V | 00:00:00 | 00:00:00 | 08:30:00 | |
| PG1ADW-2 | 2026-09-01 23:43:58 | 49.42120 | 17.46567 | 90° | 120km/h | 9787m | 5.8m/s | -43.8°C | 51.8% | 0hPa | 2.7V | 00:00:00 | 00:00:00 | 00:00:00 | |
| OE5DXL-15 | 2026-09-01 23:43:55 | 49.42124 | 17.46419 | 97° | 117km/h | 9773m | 4.3m/s | 0°C | 0% | 0hPa | 2.9V | 00:00:00 | 00:00:00 | 00:00:00 | |
| PETON7-10 | 2026-09-01 23:43:46 | 49.42117 | 17.45999 | 82° | 115km/h | 9711m | 6.6m/s | -43.3°C | 59.1% | 0hPa | 2.9V | 00:00:00 | 00:00:00 | 00:00:00 | |
| PG1ADW-2 | 2026-09-01 23:43:38 | 49.42110 | 17.45650 | 89° | 117km/h | 9655m | 6.4m/s | -43.0°C | 62.6% | 0hPa | 2.9V | 00:00:00 | 00:00:00 | 00:00:00 | |
| OE5DRO-10 | 2026-09-01 23:43:35 | 49.42108 | 17.45512 | 90° | 117km/h | 9636m | 6.2m/s | -42.8°C | 63.6% | 0hPa | 2.9V | 00:00:00 | 00:00:00 | 00:00:00 | |
| PETON7-10 | 2026-09-01 23:43:31 | 49.42109 | 17.45334 | 90° | 117km/h | 9612m | 5.7m/s | -42.7°C | 64.3% | 0hPa | 2.7V | 00:00:00 | 01:00:07 | 00:00:00 | |
| POL1PZ | 2026-09-01 23:43:28 | 49.42109 | 17.45247 | 92° | 115km/h | 9598m | 6.4m/s | -42.6°C | 57.9% | 0hPa | 2.7V | 00:00:00 | 00:00:00 | 00:00:00 | |
| OE5DXL-15 | 2026-09-01 23:43:25 | 49.42107 | 17.45066 | 86° | 117km/h | 9577m | 4.0m/s | 0°C | 0% | 0hPa | 2.7V | 00:00:00 | 00:00:00 | 00:00:00 | |
| PG1ADW-2 | 2026-09-01 23:43:18 | 49.42111 | 17.44745 | 99° | 119km/h | 9537m | 6.4m/s | -42.0°C | 59.2% | 0hPa | 2.7V | 00:00:00 | 00:59:54 | 00:00:00 | |
| PETON7-10 | 2026-09-01 23:43:16 | 49.42118 | 17.44660 | 97° | 120km/h | 9525m | 5.8m/s | -41.9°C | 58.2% | 0hPa | 2.7V | 00:00:00 | 00:00:00 | 00:00:00 | |
| POL1PZ | 2026-09-01 23:43:08 | 49.42118 | 17.44346 | 91° | 122km/h | 9478m | 5.2m/s | -41.5°C | 44.2% | 0hPa | 2.9V | 00:00:00 | 00:00:00 | 00:00:00 | |
| OE3OSB-13 | 2026-09-01 23:43:00 | 49.42125 | 17.43913 | 91° | 113km/h | 9421m | 5.3m/s | -41.1°C | 32.7% | -1.0hPa | 2.9V | 00:00:00 | 00:00:00 | 00:00:00 | |
| PG1ADW-2 | 2026-09-01 23:42:58 | 49.42125 | 17.43827 | 89° | 111km/h | 9409m | 7.4m/s | -41.0°C | 36.7% | 0hPa | 2.9V | 00:00:00 | 00:00:00 | 08:30:00 | |
| OE5DRO-10 | 2026-09-01 23:42:57 | 49.42124 | 17.43785 | 87° | 111km/h | 9402m | 4.9m/s | -40.9°C | 36.3% | 0hPa | 2.9V | 00:00:00 | 00:00:00 | 00:00:00 | |
| OE5DXL-15 | 2026-09-01 23:42:55 | 49.42120 | 17.43701 | 86° | 119km/h | 9390m | 6.0m/s | 0°C | 0% | 0hPa | 2.9V | 00:00:00 | 00:59:31 | 00:00:00 | |
| POL1PZ | 2026-09-01 23:42:47 | 49.42124 | 17.43379 | 93° | 113km/h | 9343m | 7.7m/s | -40.6°C | 27.5% | 0hPa | 2.9V | 00:00:00 | 00:00:00 | 00:00:00 | |
| PETON7-10 | 2026-09-01 23:42:46 | 49.42125 | 17.43294 | 91° | 106km/h | 9327m | 8.5m/s | -40.4°C | 31.0% | 0hPa | 2.9V | 00:00:00 | 00:59:22 | 00:00:00 | |
| PG1ADW-2 | 2026-09-01 23:42:39 | 49.42132 | 17.42965 | 92° | 108km/h | 9271m | 6.0m/s | -40.1°C | 32.4% | 0hPa | 2.9V | 00:00:00 | 00:00:00 | 00:00:00 | |
| OE5DRO-10 | 2026-09-01 23:42:38 | 49.42132 | 17.42965 | 92° | 108km/h | 9271m | 6.0m/s | -40.1°C | 32.4% | 0hPa | 2.9V | 00:00:00 | 00:00:00 | 08:30:00 | |
| PETON7-10 | 2026-09-01 23:42:31 | 49.42120 | 17.42683 | 89° | 108km/h | 9225m | 5.4m/s | -39.7°C | 29.9% | 0hPa | 2.9V | 00:00:00 | 00:00:00 | 00:00:00 | |
| OE3OSB-13 | 2026-09-01 23:42:29 | 49.42120 | 17.42599 | 91° | 110km/h | 9212m | 8.2m/s | -39.7°C | 26.2% | -1.0hPa | 2.7V | 00:00:00 | 00:00:00 | 00:00:00 | |
| POL1PZ | 2026-09-01 23:42:27 | 49.42121 | 17.42556 | 94° | 108km/h | 9204m | 8.0m/s | -39.7°C | 26.9% | 0hPa | 2.7V | 00:00:00 | 00:00:00 | 00:00:00 | |
| OE5DXL-15 | 2026-09-01 23:42:25 | 49.42125 | 17.42430 | 92° | 104km/h | 9187m | 5.8m/s | 0°C | 0% | 0hPa | 2.7V | 00:00:00 | 00:00:00 | 00:00:00 | |
| OE5DRO-10 | 2026-09-01 23:42:19 | 49.42122 | 17.42176 | 90° | 102km/h | 9152m | 6.9m/s | -39.4°C | 34.9% | 0hPa | 2.7V | 00:00:00 | 00:00:00 | 00:00:00 | |
| PG1ADW-2 | 2026-09-01 23:42:18 | 49.42121 | 17.42135 | 89° | 104km/h | 9146m | 6.4m/s | -39.4°C | 35.9% | 0hPa | 2.7V | 00:00:00 | 00:00:00 | 00:00:00 | |
| PETON7-10 | 2026-09-01 23:42:16 | 49.42121 | 17.42054 | 93° | 102km/h | 9135m | 5.3m/s | -39.4°C | 37.1% | 0hPa | 2.7V | 00:00:00 | 00:00:00 | 00:00:00 | |
| POL1PZ | 2026-09-01 23:42:07 | 49.42148 | 17.41757 | 98° | 104km/h | 9092m | 8.8m/s | -39.2°C | 33.8% | 0hPa | 2.7V | 00:00:00 | 00:00:00 | 00:00:00 | |
| PETON7-10 | 2026-09-01 23:42:01 | 49.42153 | 17.41464 | 95° | 100km/h | 9043m | 7.4m/s | -38.8°C | 39.1% | 0hPa | 2.7V | 00:00:00 | 00:58:37 | 00:00:00 | |
| OE5DRO-10 | 2026-09-01 23:42:00 | 49.42156 | 17.41422 | 97° | 99km/h | 9036m | 5.1m/s | -38.8°C | 39.0% | 0hPa | 2.7V | 00:00:00 | 00:00:00 | 00:00:00 | |
| PG1ADW-2 | 2026-09-01 23:41:58 | 49.42163 | 17.41338 | 97° | 99km/h | 9026m | 4.6m/s | -38.7°C | 39.5% | 0hPa | 2.7V | 00:00:00 | 00:58:34 | 00:00:00 | |
| PETON7-10 | 2026-09-01 23:41:46 | 49.42140 | 17.40881 | 91° | 100km/h | 8958m | 6.3m/s | -38.3°C | 41.0% | 0hPa | 2.9V | 00:00:00 | 00:00:00 | 08:30:00 | |
| OE5DRO-10 | 2026-09-01 23:41:41 | 49.42136 | 17.40698 | 88° | 97km/h | 8929m | 5.7m/s | 0°C | 0% | 0hPa | 2.7V | 00:00:00 | 00:00:00 | 00:00:00 | |
| PG1ADW-2 | 2026-09-01 23:41:38 | 49.42138 | 17.40583 | 96° | 99km/h | 8912m | 4.5m/s | -38.0°C | 41.3% | 0hPa | 2.7V | 00:00:00 | 00:00:00 | 00:00:00 | |
| PETON7-10 | 2026-09-01 23:41:31 | 49.42159 | 17.40301 | 94° | 97km/h | 8879m | 8.0m/s | -37.6°C | 41.0% | 0hPa | 2.7V | 00:00:00 | 00:00:00 | 00:00:00 | |
| OE3OSB-13 | 2026-09-01 23:41:27 | 49.42161 | 17.40172 | 89° | 78km/h | 8848m | 7.6m/s | -37.4°C | 36.7% | -1.0hPa | 2.7V | 00:00:00 | 00:00:00 | 00:00:00 | |
| POL1PZ | 2026-09-01 23:41:26 | 49.42161 | 17.40140 | 90° | 88km/h | 8840m | 7.3m/s | -37.4°C | 37.0% | 0hPa | 2.7V | 00:00:00 | 00:00:00 | 00:00:00 | |
| OE5DRO-10 | 2026-09-01 23:41:22 | 49.42160 | 17.39986 | 91° | 93km/h | 8817m | 3.8m/s | 0°C | 0% | 0hPa | 2.7V | 00:00:00 | 00:00:00 | 00:00:00 | |
| PG1ADW-2 | 2026-09-01 23:41:18 | 49.42161 | 17.39820 | 92° | 89km/h | 8796m | 6.8m/s | 0°C | 0% | 0hPa | 2.7V | 00:00:00 | 00:00:00 | 00:00:00 | |
| PETON7-10 | 2026-09-01 23:41:16 | 49.42164 | 17.39738 | 95° | 86km/h | 8782m | 6.7m/s | -36.8°C | 40.3% | 0hPa | 2.7V | 00:00:00 | 00:57:52 | 00:00:00 | |
| POL1PZ | 2026-09-01 23:41:05 | 49.42195 | 17.39410 | 96° | 78km/h | 8716m | 7.2m/s | -36.2°C | 34.9% | 0hPa | 2.7V | 00:00:00 | 00:00:00 | 00:00:00 | |
| OE5DRO-10 | 2026-09-01 23:41:03 | 49.42199 | 17.39312 | 94° | 86km/h | 8694m | 8.1m/s | 0°C | 0% | 0hPa | 2.7V | 00:00:00 | 00:00:00 | 00:00:00 | |
| OE3OSB-13 | 2026-09-01 23:40:56 | 49.42203 | 17.39070 | 84° | 80km/h | 8650m | 4.6m/s | -35.7°C | 33.2% | -1.0hPa | 2.7V | 00:00:00 | 00:00:00 | 00:00:00 | |
| OE5DRO-10 | 2026-09-01 23:40:42 | 49.42208 | 17.38604 | 84° | 91km/h | 8556m | 4.4m/s | 0°C | 0% | 0hPa | 2.7V | 00:00:00 | 00:00:00 | 00:00:00 | |
| PG1ADW-2 | 2026-09-01 23:40:38 | 49.42205 | 17.38462 | 95° | 89km/h | 8535m | 6.2m/s | 0°C | 0% | 0hPa | 2.7V | 00:00:00 | 00:57:14 | 00:00:00 | |
| PETON7-10 | 2026-09-01 23:40:31 | 49.42220 | 17.38213 | 95° | 88km/h | 8489m | 6.5m/s | -34.2°C | 34.7% | 0hPa | 2.7V | 00:00:00 | 00:57:07 | 00:00:00 | |
| OE3OSB-13 | 2026-09-01 23:40:25 | 49.42238 | 17.38020 | 105° | 86km/h | 8457m | 5.1m/s | -34.0°C | 31.3% | -1.0hPa | 2.7V | 00:00:00 | 00:00:00 | 00:00:00 | |
| POL1PZ | 2026-09-01 23:40:24 | 49.42238 | 17.38020 | 106° | 86km/h | 8458m | 5.1m/s | -34.0°C | 31.4% | 0hPa | 2.7V | 00:00:00 | 00:00:00 | 00:00:00 | |
| OE5DRO-10 | 2026-09-01 23:40:20 | 49.42258 | 17.37847 | 92° | 86km/h | 8431m | 7.8m/s | 0°C | 0% | 0hPa | 2.7V | 00:00:00 | 00:00:00 | 00:00:00 | |
| PG1ADW-2 | 2026-09-01 23:40:18 | 49.42258 | 17.37775 | 91° | 86km/h | 8415m | 7.7m/s | 0°C | 0% | 0hPa | 2.7V | 00:00:00 | 00:00:00 | 00:00:00 | |
| PETON7-10 | 2026-09-01 23:40:16 | 49.42260 | 17.37704 | 95° | 86km/h | 8401m | 7.8m/s | -33.5°C | 34.4% | 0hPa | 2.7V | 00:00:00 | 00:00:00 | 00:00:00 | |
| OE3OSB-13 | 2026-09-01 23:39:54 | 49.42291 | 17.36940 | 97° | 84km/h | 8265m | 6.6m/s | -32.4°C | 32.6% | -1.0hPa | 2.7V | 00:00:00 | 00:00:00 | 00:00:00 | |
| OE5DRO-10 | 2026-09-01 23:39:53 | 49.42291 | 17.36940 | 98° | 84km/h | 8266m | 6.5m/s | 0°C | 0% | 0hPa | 2.7V | 00:00:00 | 00:00:00 | 00:00:00 | |
| OE3JTB-15 | 2026-09-01 23:39:52 | 49.42293 | 17.36908 | 96° | 84km/h | 8260m | 4.3m/s | -32.3°C | 36.5% | 0hPa | 2.7V | 00:00:00 | 00:00:00 | 00:00:00 | |
| PETON7-10 | 2026-09-01 23:39:46 | 49.42308 | 17.36715 | 98° | 86km/h | 8230m | 6.4m/s | -32.1°C | 37.5% | 0hPa | 2.7V | 00:00:00 | 00:56:22 | 00:00:00 | |
| POL1PZ | 2026-09-01 23:39:40 | 49.42317 | 17.36551 | 94° | 80km/h | 8206m | 5.6m/s | -32.0°C | 36.3% | 0hPa | 2.7V | 00:00:00 | 00:00:00 | 00:00:00 | |
| OE5DRO-10 | 2026-09-01 23:39:34 | 49.42331 | 17.36322 | 98° | 91km/h | 8176m | 4.5m/s | 0°C | 0% | 0hPa | 2.7V | 00:00:00 | 00:00:00 | 00:00:00 | |
| PETON7-10 | 2026-09-01 23:39:31 | 49.42346 | 17.36218 | 107° | 84km/h | 8162m | 4.0m/s | -31.7°C | 40.9% | 0hPa | 2.7V | 00:00:00 | 00:00:00 | 08:30:00 | |
| OE3OSB-13 | 2026-09-01 23:39:23 | 49.42389 | 17.35946 | 97° | 86km/h | 8109m | 8.3m/s | -31.4°C | 38.2% | -1.0hPa | 2.9V | 00:00:00 | 00:00:00 | 00:00:00 | |
| POL1PZ | 2026-09-01 23:39:19 | 49.42397 | 17.35879 | 101° | 91km/h | 8094m | 5.4m/s | -31.3°C | 39.0% | 0hPa | 2.9V | 00:00:00 | 00:00:00 | 00:00:00 | |
| PETON7-10 | 2026-09-01 23:39:16 | 49.42408 | 17.35740 | 92° | 73km/h | 8074m | 6.1m/s | -31.2°C | 42.9% | 0hPa | 2.9V | 00:00:00 | 00:00:00 | 00:00:00 | |
| OE3OSB-13 | 2026-09-01 23:38:52 | 49.42454 | 17.35035 | 108° | 66km/h | 7947m | 4.1m/s | -30.1°C | 35.0% | -1.0hPa | 2.9V | 00:00:00 | 00:00:00 | 00:00:00 | |
| PETON7-10 | 2026-09-01 23:38:46 | 49.42472 | 17.34924 | 99° | 71km/h | 7915m | 4.5m/s | -29.8°C | 37.2% | 0hPa | 2.9V | 00:00:00 | 00:00:00 | 00:00:00 | |
| POL1PZ | 2026-09-01 23:38:38 | 49.42496 | 17.34753 | 109° | 82km/h | 7873m | 8.1m/s | -29.5°C | 33.6% | 0hPa | 2.9V | 00:00:00 | 00:00:00 | 00:00:00 | |
| PETON7-10 | 2026-09-01 23:38:31 | 49.42513 | 17.34516 | 94° | 80km/h | 7827m | 4.2m/s | -29.1°C | 38.7% | 0hPa | 2.9V | 00:00:00 | 00:00:00 | 00:00:00 | |
| OE3JTB-15 | 2026-09-01 23:38:24 | 49.42538 | 17.34291 | 100° | 77km/h | 7796m | 4.6m/s | -28.9°C | 38.4% | 0hPa | 2.9V | 00:00:00 | 00:00:00 | 00:00:00 | |
| OE3OSB-13 | 2026-09-01 23:38:20 | 49.42551 | 17.34173 | 101° | 71km/h | 7776m | 7.5m/s | -28.7°C | 34.4% | -1.0hPa | 2.9V | 00:00:00 | 00:00:00 | 00:00:00 | |
| POL1PZ | 2026-09-01 23:38:18 | 49.42560 | 17.34117 | 108° | 78km/h | 7762m | 5.8m/s | -28.6°C | 34.4% | 0hPa | 2.9V | 00:00:00 | 00:00:00 | 00:00:00 | |
| PETON7-10 | 2026-09-01 23:38:16 | 49.42573 | 17.34062 | 114° | 82km/h | 7750m | 7.4m/s | -28.4°C | 36.9% | 0hPa | 2.9V | 00:00:00 | 00:54:52 | 00:00:00 | |
| OE3OSB-13 | 2026-09-01 23:37:50 | 49.42658 | 17.33297 | 103° | 66km/h | 7595m | 6.6m/s | -27.5°C | 39.4% | -1.0hPa | 2.9V | 00:00:00 | 00:00:00 | 00:00:00 | |
| PETON7-10 | 2026-09-01 23:37:46 | 49.42674 | 17.33214 | 106° | 71km/h | 7577m | 7.6m/s | -27.3°C | 41.5% | 0hPa | 2.9V | 00:00:00 | 00:00:00 | 00:00:00 | |
| POL1PZ | 2026-09-01 23:37:36 | 49.42712 | 17.32929 | 116° | 64km/h | 7526m | 5.4m/s | -27.0°C | 39.2% | 0hPa | 2.9V | 00:00:00 | 00:00:00 | 00:00:00 | |
| PETON7-10 | 2026-09-01 23:37:31 | 49.42746 | 17.32819 | 118° | 73km/h | 7504m | 5.7m/s | -26.7°C | 41.5% | 0hPa | 2.9V | 00:00:00 | 00:54:07 | 00:00:00 | |
| OE3JTB-15 | 2026-09-01 23:37:26 | 49.42765 | 17.32695 | 90° | 77km/h | 7469m | 7.8m/s | -26.4°C | 41.1% | 0hPa | 2.9V | 00:00:00 | 00:00:00 | 00:00:00 | |
| OE3OSB-13 | 2026-09-01 23:37:18 | 49.42787 | 17.32459 | 111° | 66km/h | 7422m | 8.2m/s | -26.1°C | 37.1% | -1.0hPa | 2.9V | 00:00:00 | 00:00:00 | 00:00:00 | |
| POL1PZ | 2026-09-01 23:37:16 | 49.42798 | 17.32412 | 109° | 66km/h | 7408m | 5.5m/s | -25.9°C | 36.8% | 0hPa | 2.9V | 00:00:00 | 00:00:00 | 00:00:00 | |
| OE3OSB-13 | 2026-09-01 23:36:47 | 49.42888 | 17.31598 | 109° | 58km/h | 7238m | 6.0m/s | -24.7°C | 31.8% | -1.0hPa | 2.9V | 00:00:00 | 00:00:00 | 00:00:00 | |
| PETON7-10 | 2026-09-01 23:36:46 | 49.42892 | 17.31577 | 106° | 69km/h | 7232m | 6.6m/s | -24.6°C | 34.6% | 0hPa | 2.9V | 00:00:00 | 00:53:22 | 00:00:00 | |
| POL1PZ | 2026-09-01 23:36:34 | 49.42928 | 17.31295 | 105° | 77km/h | 7163m | 4.2m/s | -24.2°C | 33.2% | 0hPa | 2.9V | 00:00:00 | 00:00:00 | 00:00:00 | |
| PETON7-10 | 2026-09-01 23:36:31 | 49.42953 | 17.31177 | 109° | 77km/h | 7144m | 3.7m/s | -24.1°C | 36.6% | 0hPa | 2.9V | 00:00:00 | 00:00:00 | 00:00:00 | |
| OE3JTB-15 | 2026-09-01 23:36:28 | 49.42971 | 17.31084 | 106° | 71km/h | 7131m | 6.0m/s | -24.0°C | 37.9% | 0hPa | 2.9V | 00:00:00 | 00:53:04 | 00:00:00 | |
| PETON7-10 | 2026-09-01 23:36:16 | 49.42995 | 17.30746 | 91° | 68km/h | 7066m | 4.6m/s | -23.5°C | 35.6% | 0hPa | 2.9V | 00:00:00 | 00:00:00 | 00:00:00 | |
| POL1PZ | 2026-09-01 23:36:14 | 49.42997 | 17.30695 | 98° | 69km/h | 7057m | 5.6m/s | -23.4°C | 33.4% | 0hPa | 2.9V | 00:00:00 | 00:00:00 | 00:00:00 | |
| OE3OSB-13 | 2026-09-01 23:35:45 | 49.43137 | 17.29929 | 106° | 86km/h | 6900m | 5.0m/s | -22.3°C | 29.9% | -1.0hPa | 2.9V | 00:00:00 | 00:00:00 | 00:00:00 | |
| POL1PZ | 2026-09-01 23:35:32 | 49.43201 | 17.29641 | 119° | 58km/h | 6834m | 4.5m/s | -21.9°C | 27.3% | 0hPa | 2.9V | 00:00:00 | 00:00:00 | 00:00:00 | |
| PETON7-10 | 2026-09-01 23:35:31 | 49.43217 | 17.29597 | 117° | 66km/h | 6823m | 5.9m/s | -21.7°C | 28.1% | 0hPa | 2.9V | 00:00:00 | 00:00:00 | 00:00:00 | |
| PETON7-10 | 2026-09-01 23:35:16 | 49.43287 | 17.29227 | 102° | 69km/h | 6732m | 5.4m/s | -20.9°C | 24.1% | 0hPa | 2.9V | 00:00:00 | 00:51:52 | 00:00:00 | |
| OE3OSB-13 | 2026-09-01 23:35:14 | 49.43294 | 17.29170 | 101° | 82km/h | 6720m | 6.4m/s | -20.8°C | 21.8% | -1.0hPa | 2.9V | 00:00:00 | 00:00:00 | 00:00:00 | |
| POL1PZ | 2026-09-01 23:35:12 | 49.43304 | 17.29108 | 108° | 80km/h | 6709m | 5.1m/s | -20.8°C | 21.5% | 0hPa | 2.9V | 00:00:00 | 00:00:00 | 00:00:00 | |
| PETON7-10 | 2026-09-01 23:35:01 | 49.43357 | 17.28836 | 109° | 66km/h | 6645m | 4.5m/s | -20.3°C | 20.3% | 0hPa | 2.9V | 00:00:00 | 00:00:00 | 08:30:00 | |
| POL1PZ | 2026-09-01 23:34:51 | 49.43375 | 17.28624 | 93° | 58km/h | 6595m | 4.3m/s | -20.0°C | 17.8% | 0hPa | 2.9V | 00:00:00 | 00:00:00 | 00:00:00 | |
| PETON7-10 | 2026-09-01 23:34:46 | 49.43385 | 17.28455 | 95° | 64km/h | 6568m | 3.6m/s | -19.7°C | 17.1% | 0hPa | 2.9V | 00:00:00 | 00:00:00 | 00:00:00 | |
| OE3OSB-13 | 2026-09-01 23:34:43 | 49.43388 | 17.28374 | 93° | 58km/h | 6552m | 5.9m/s | -19.7°C | 15.8% | -1.0hPa | 2.9V | 00:00:00 | 00:00:00 | 00:00:00 | |
| POL1PZ | 2026-09-01 23:34:32 | 49.43408 | 17.28113 | 110° | 77km/h | 6500m | 4.8m/s | -19.2°C | 15.2% | 0hPa | 2.9V | 00:00:00 | 00:00:00 | 00:00:00 | |
| PETON7-10 | 2026-09-01 23:34:31 | 49.43414 | 17.28087 | 111° | 58km/h | 6494m | 5.5m/s | -19.1°C | 16.3% | 0hPa | 2.9V | 00:00:00 | 00:51:07 | 00:00:00 | |
| PETON7-10 | 2026-09-01 23:34:16 | 49.43455 | 17.27761 | 92° | 55km/h | 6399m | 5.5m/s | -18.7°C | 17.3% | 0hPa | 2.9V | 00:00:00 | 00:00:00 | 00:00:00 | |
| OE3OSB-13 | 2026-09-01 23:34:12 | 49.43452 | 17.27696 | 83° | 44km/h | 6378m | 3.8m/s | -18.6°C | 16.2% | -1.0hPa | 2.9V | 00:00:00 | 00:00:00 | 00:00:00 | |
| POL1PZ | 2026-09-01 23:34:03 | 49.43472 | 17.27492 | 110° | 62km/h | 6335m | 6.6m/s | -18.3°C | 16.8% | 0hPa | 2.9V | 00:00:00 | 00:00:00 | 00:00:00 | |
| PETON7-10 | 2026-09-01 23:34:01 | 49.43480 | 17.27447 | 100° | 49km/h | 6321m | 7.4m/s | -18.3°C | 18.5% | 0hPa | 2.9V | 00:00:00 | 00:00:00 | 00:00:00 | |
| PETON7-10 | 2026-09-01 23:33:46 | 49.43482 | 17.27164 | 80° | 40km/h | 6235m | 4.9m/s | -18.6°C | 36.7% | 0hPa | 2.9V | 00:00:00 | 00:50:22 | 00:00:00 | |
| POL1PZ | 2026-09-01 23:33:42 | 49.43480 | 17.27124 | 102° | 29km/h | 6215m | 6.4m/s | -18.7°C | 38.2% | 0hPa | 2.9V | 00:00:00 | 00:00:00 | 00:00:00 | |
| OE3OSB-13 | 2026-09-01 23:33:41 | 49.43486 | 17.27099 | 115° | 37km/h | 6204m | 4.5m/s | -18.7°C | 39.7% | -1.0hPa | 2.9V | 00:00:00 | 00:00:00 | 00:00:00 | |
| OE3JTB-15 | 2026-09-01 23:33:34 | 49.43501 | 17.26974 | 75° | 49km/h | 6162m | 6.4m/s | -18.4°C | 45.8% | 0hPa | 2.9V | 00:00:00 | 00:50:10 | 00:00:00 | |
| PETON7-10 | 2026-09-01 23:33:31 | 49.43494 | 17.26936 | 74° | 51km/h | 6147m | 4.7m/s | -18.3°C | 49.1% | 0hPa | 2.9V | 00:00:00 | 00:00:00 | 00:00:00 | |
| POL1PZ | 2026-09-01 23:33:22 | 49.43493 | 17.26757 | 77° | 51km/h | 6093m | 4.9m/s | -18.2°C | 54.2% | 0hPa | 2.9V | 00:00:00 | 00:00:00 | 00:00:00 | |
| PETON7-10 | 2026-09-01 23:33:16 | 49.43477 | 17.26641 | 95° | 51km/h | 6061m | 6.0m/s | -17.9°C | 57.5% | 0hPa | 2.9V | 00:00:00 | 00:00:00 | 00:00:00 | |
| OE3OSB-13 | 2026-09-01 23:33:10 | 49.43492 | 17.26529 | 99° | 37km/h | 6024m | 3.2m/s | -17.6°C | 55.9% | -1.0hPa | 2.9V | 00:00:00 | 00:00:00 | 00:00:00 | |
| OE3JTB-15 | 2026-09-01 23:33:05 | 49.43495 | 17.26442 | 92° | 64km/h | 6000m | 6.6m/s | -17.4°C | 60.2% | 0hPa | 2.9V | 00:00:00 | 00:00:00 | 00:00:00 | |
| PETON7-10 | 2026-09-01 23:33:01 | 49.43499 | 17.26343 | 95° | 51km/h | 5974m | 5.6m/s | -17.2°C | 60.1% | 0hPa | 2.7V | 00:00:00 | 00:49:37 | 00:00:00 | |
| POL1PZ | 2026-09-01 23:33:00 | 49.43499 | 17.26343 | 95° | 60km/h | 5974m | 5.7m/s | -17.2°C | 57.7% | 0hPa | 2.7V | 00:00:00 | 00:00:00 | 00:00:00 | |
| PETON7-10 | 2026-09-01 23:32:46 | 49.43519 | 17.26053 | 104° | 55km/h | 5891m | 4.9m/s | -16.4°C | 60.4% | 0hPa | 2.7V | 00:00:00 | 00:00:00 | 08:30:00 | |
| OE3OSB-13 | 2026-09-01 23:32:39 | 49.43530 | 17.25911 | 74° | 47km/h | 5849m | 7.0m/s | -16.1°C | 58.5% | -1.0hPa | 2.9V | 00:00:00 | 00:00:00 | 00:00:00 | |
| OE3JTB-15 | 2026-09-01 23:32:36 | 49.43525 | 17.25844 | 90° | 55km/h | 5832m | 6.6m/s | -15.9°C | 60.6% | 0hPa | 2.9V | 00:00:00 | 00:00:00 | 00:00:00 | |
| PETON7-10 | 2026-09-01 23:32:31 | 49.43534 | 17.25743 | 101° | 55km/h | 5811m | 5.6m/s | -15.7°C | 59.6% | 0hPa | 2.9V | 00:00:00 | 00:00:00 | 00:00:00 | |
| POL1PZ | 2026-09-01 23:32:18 | 49.43541 | 17.25500 | 96° | 55km/h | 5741m | 7.8m/s | -15.1°C | 55.3% | 0hPa | 2.9V | 00:00:00 | 00:00:00 | 00:00:00 | |
| PETON7-10 | 2026-09-01 23:32:16 | 49.43539 | 17.25431 | 83° | 55km/h | 5720m | 6.0m/s | -14.8°C | 56.6% | 0hPa | 2.9V | 00:00:00 | 00:48:52 | 00:00:00 | |
| OE3OSB-13 | 2026-09-01 23:32:08 | 49.43534 | 17.25240 | 68° | 46km/h | 5674m | 5.9m/s | -14.6°C | 57.3% | -1.0hPa | 2.9V | 00:00:00 | 00:00:00 | 00:00:00 | |
| OE3JTB-15 | 2026-09-01 23:32:06 | 49.43529 | 17.25222 | 72° | 49km/h | 5668m | 5.8m/s | -14.5°C | 59.5% | 0hPa | 2.9V | 00:00:00 | 00:48:42 | 00:00:00 | |
| PETON7-10 | 2026-09-01 23:32:01 | 49.43524 | 17.25116 | 101° | 44km/h | 5634m | 6.5m/s | -14.2°C | 59.8% | 0hPa | 2.9V | 00:00:00 | 00:00:00 | 00:00:00 | |
| POL1PZ | 2026-09-01 23:31:58 | 49.43529 | 17.25080 | 100° | 40km/h | 5618m | 7.8m/s | -14.2°C | 0% | 0hPa | 2.9V | 00:00:00 | 00:00:00 | 00:00:00 | |
| PETON7-10 | 2026-09-01 23:31:46 | 49.43508 | 17.24863 | 71° | 51km/h | 5544m | 5.4m/s | -13.9°C | 68.8% | 0hPa | 2.9V | 00:00:00 | 00:00:00 | 00:00:00 | |
| POL1PZ | 2026-09-01 23:31:36 | 49.43514 | 17.24708 | 103° | 57km/h | 5501m | 3.8m/s | 0°C | 0% | 0hPa | 2.9V | 00:00:00 | 00:00:00 | 00:00:00 | |
| PETON7-10 | 2026-09-01 23:31:31 | 49.43513 | 17.24567 | 90° | 51km/h | 5472m | 4.5m/s | -13.4°C | 68.3% | 0hPa | 2.9V | 00:00:00 | 00:48:07 | 00:00:00 | |
| PETON7-10 | 2026-09-01 23:31:16 | 49.43535 | 17.24283 | 79° | 51km/h | 5390m | 3.5m/s | -13.0°C | 62.7% | 0hPa | 2.9V | 00:00:00 | 00:00:00 | 00:00:00 | |
| POL1PZ | 2026-09-01 23:31:15 | 49.43535 | 17.24283 | 79° | 51km/h | 5390m | 3.6m/s | 0°C | 0% | 0hPa | 2.7V | 00:00:00 | 00:00:00 | 00:00:00 | |
| OE3OSB-13 | 2026-09-01 23:31:06 | 49.43534 | 17.24053 | 76° | 46km/h | 5324m | 4.5m/s | -12.7°C | 48.8% | -1.0hPa | 2.7V | 00:00:00 | 00:00:00 | 00:00:00 | |
| PETON7-10 | 2026-09-01 23:31:01 | 49.43522 | 17.23990 | 83° | 51km/h | 5303m | 5.3m/s | -12.4°C | 48.6% | 0hPa | 2.7V | 00:00:00 | 00:00:00 | 00:00:00 | |
| POL1PZ | 2026-09-01 23:30:54 | 49.43538 | 17.23899 | 105° | 44km/h | 5270m | 4.6m/s | 0°C | 0% | 0hPa | 2.7V | 00:00:00 | 00:00:00 | 00:00:00 | |
| PETON7-10 | 2026-09-01 23:30:46 | 49.43550 | 17.23695 | 107° | 55km/h | 5211m | 5.1m/s | -11.8°C | 36.8% | 0hPa | 2.7V | 00:00:00 | 00:47:22 | 00:00:00 | |
| OE3OSB-13 | 2026-09-01 23:30:35 | 49.43563 | 17.23439 | 101° | 44km/h | 5142m | 5.0m/s | -11.5°C | 46.8% | -1.0hPa | 2.7V | 00:00:00 | 00:00:00 | 00:00:00 | |
| POL1PZ | 2026-09-01 23:30:33 | 49.43563 | 17.23439 | 103° | 46km/h | 5142m | 5.0m/s | 0°C | 0% | 0hPa | 2.7V | 00:00:00 | 00:00:00 | 00:00:00 | |
| PETON7-10 | 2026-09-01 23:30:31 | 49.43564 | 17.23385 | 88° | 58km/h | 5125m | 6.8m/s | -11.4°C | 48.2% | 0hPa | 2.7V | 00:00:00 | 00:00:00 | 08:30:00 | |
| PETON7-10 | 2026-09-01 23:30:16 | 49.43588 | 17.23026 | 107° | 53km/h | 5033m | 4.0m/s | -10.8°C | 50.7% | 0hPa | 2.9V | 00:00:00 | 00:00:00 | 00:00:00 | |
| POL1PZ | 2026-09-01 23:30:12 | 49.43594 | 17.22988 | 104° | 55km/h | 5024m | 5.3m/s | 0°C | 0% | 0hPa | 2.9V | 00:00:00 | 00:00:00 | 00:00:00 | |
| OE3OSB-13 | 2026-09-01 23:30:03 | 49.43578 | 17.22772 | 84° | 38km/h | 4971m | 5.9m/s | -10.5°C | 46.0% | -1.0hPa | 2.9V | 00:00:00 | 00:00:00 | 00:00:00 | |
| PETON7-10 | 2026-09-01 23:30:00 | 49.43582 | 17.22724 | 107° | 55km/h | 4955m | 5.6m/s | -10.3°C | 48.8% | 0hPa | 2.9V | 00:00:00 | 00:46:36 | 00:00:00 | |
| POL1PZ | 2026-09-01 23:29:50 | 49.43587 | 17.22541 | 100° | 53km/h | 4903m | 5.8m/s | 0°C | 0% | 0hPa | 2.9V | 00:00:00 | 00:00:00 | 00:00:00 | |
| PETON7-10 | 2026-09-01 23:29:45 | 49.43597 | 17.22403 | 88° | 58km/h | 4869m | 6.7m/s | -9.8°C | 50.0% | 0hPa | 2.9V | 00:00:00 | 00:00:00 | 00:00:00 | |
| OE3OSB-13 | 2026-09-01 23:29:32 | 49.43611 | 17.22109 | 97° | 47km/h | 4795m | 6.1m/s | -9.5°C | 63.5% | -1.0hPa | 2.9V | 00:00:00 | 00:00:00 | 00:00:00 | |
| PETON7-10 | 2026-09-01 23:29:30 | 49.43616 | 17.22070 | 102° | 51km/h | 4783m | 6.7m/s | -9.3°C | 64.4% | 0hPa | 2.9V | 00:00:00 | 00:00:00 | 00:00:00 | |
| POL1PZ | 2026-09-01 23:29:28 | 49.43618 | 17.22049 | 98° | 57km/h | 4775m | 8.1m/s | 0°C | 0% | 0hPa | 2.9V | 00:00:00 | 00:00:00 | 00:00:00 | |
| PETON7-10 | 2026-09-01 23:29:15 | 49.43658 | 17.21780 | 113° | 44km/h | 4692m | 6.7m/s | -8.6°C | 62.4% | 0hPa | 2.9V | 00:00:00 | 00:45:51 | 00:00:00 | |
| OE3OSB-13 | 2026-09-01 23:29:01 | 49.43693 | 17.21553 | 103° | 42km/h | 4612m | 5.3m/s | -7.9°C | 57.5% | -1.0hPa | 2.9V | 00:00:00 | 00:00:00 | 00:00:00 | |
| PETON7-10 | 2026-09-01 23:29:00 | 49.43696 | 17.21536 | 106° | 49km/h | 4606m | 7.5m/s | -7.8°C | 58.4% | 0hPa | 2.9V | 00:00:00 | 00:00:00 | 00:00:00 | |
| PETON7-10 | 2026-09-01 23:28:45 | 49.43703 | 17.21249 | 87° | 42km/h | 4516m | 4.9m/s | -7.2°C | 55.8% | 0hPa | 2.9V | 00:00:00 | 00:00:00 | 00:00:00 | |
| PETON7-10 | 2026-09-01 23:28:30 | 49.43707 | 17.21012 | 94° | 46km/h | 4434m | 7.1m/s | -6.7°C | 57.0% | 0hPa | 2.9V | 00:00:00 | 00:45:06 | 00:00:00 | |
| PETON7-10 | 2026-09-01 23:28:15 | 49.43738 | 17.20756 | 86° | 38km/h | 4355m | 4.6m/s | -6.1°C | 52.6% | 0hPa | 2.9V | 00:00:00 | 00:00:00 | 08:30:00 | |
| OE3OSB-13 | 2026-09-01 23:27:59 | 49.43738 | 17.20528 | 82° | 31km/h | 4259m | 5.9m/s | -5.5°C | 49.4% | -1.0hPa | 2.9V | 00:00:00 | 00:00:00 | 00:00:00 | |
| PETON7-10 | 2026-09-01 23:27:45 | 49.43757 | 17.20332 | 85° | 35km/h | 4181m | 5.0m/s | -4.9°C | 54.4% | 0hPa | 2.9V | 00:00:00 | 00:44:21 | 00:00:00 | |
| OE3JTB-15 | 2026-09-01 23:27:31 | 49.43758 | 17.20149 | 85° | 31km/h | 4091m | 7.1m/s | -4.1°C | 43.5% | 0hPa | 2.9V | 00:00:00 | 00:00:00 | 00:00:00 | |
| PETON7-10 | 2026-09-01 23:27:30 | 49.43757 | 17.20132 | 91° | 35km/h | 4083m | 8.1m/s | -4.1°C | 43.2% | 0hPa | 2.9V | 00:00:00 | 00:00:00 | 00:00:00 | |
| OE3OSB-13 | 2026-09-01 23:27:28 | 49.43759 | 17.20103 | 104° | 31km/h | 4067m | 6.8m/s | -4.0°C | 40.9% | -1.0hPa | 2.9V | 00:00:00 | 00:00:00 | 00:00:00 | |
| PETON7-10 | 2026-09-01 23:27:15 | 49.43770 | 17.19936 | 109° | 29km/h | 3983m | 3.8m/s | -3.6°C | 35.7% | 0hPa | 2.9V | 00:00:00 | 00:00:00 | 00:00:00 | |
| OE3OSB-13 | 2026-09-01 23:26:57 | 49.43817 | 17.19756 | 123° | 29km/h | 3894m | 4.7m/s | -2.9°C | 25.0% | -1.0hPa | 2.9V | 00:00:00 | 00:00:00 | 00:00:00 | |
| PETON7-10 | 2026-09-01 23:26:45 | 49.43835 | 17.19586 | 98° | 40km/h | 3830m | 4.0m/s | -2.4°C | 21.8% | 0hPa | 2.9V | 00:00:00 | 00:00:00 | 00:00:00 | |
| OE3JTB-15 | 2026-09-01 23:26:33 | 49.43881 | 17.19410 | 94° | 42km/h | 3774m | 4.8m/s | -2.1°C | 22.9% | 0hPa | 2.9V | 00:00:00 | 00:00:00 | 00:00:00 | |
| PETON7-10 | 2026-09-01 23:26:30 | 49.43886 | 17.19374 | 114° | 42km/h | 3760m | 5.3m/s | -2.1°C | 22.9% | 0hPa | 2.9V | 00:00:00 | 00:00:00 | 00:00:00 | |
| OE3OSB-13 | 2026-09-01 23:26:26 | 49.43899 | 17.19314 | 98° | 46km/h | 3737m | 5.6m/s | -2.2°C | 24.5% | -1.0hPa | 2.9V | 00:00:00 | 00:00:00 | 00:00:00 | |
| PETON7-10 | 2026-09-01 23:26:15 | 49.43911 | 17.19129 | 85° | 42km/h | 3674m | 4.1m/s | -1.6°C | 22.5% | 0hPa | 2.9V | 00:00:00 | 00:42:51 | 00:00:00 | |
| OE3JTB-15 | 2026-09-01 23:26:04 | 49.43960 | 17.18962 | 121° | 46km/h | 3623m | 4.5m/s | -1.3°C | 23.8% | 0hPa | 2.9V | 00:00:00 | 00:00:00 | 00:00:00 | |
| OE3OSB-13 | 2026-09-01 23:25:55 | 49.43978 | 17.18800 | 105° | 57km/h | 3579m | 4.4m/s | -1.1°C | 21.6% | -1.0hPa | 2.9V | 00:00:00 | 00:00:00 | 00:00:00 | |
| PETON7-10 | 2026-09-01 23:25:45 | 49.44016 | 17.18623 | 117° | 44km/h | 3526m | 7.3m/s | -0.6°C | 22.0% | 0hPa | 2.9V | 00:00:00 | 00:00:00 | 00:00:00 | |
| OE3JTB-15 | 2026-09-01 23:25:35 | 49.44040 | 17.18462 | 111° | 46km/h | 3475m | 5.1m/s | -0.1°C | 21.0% | 0hPa | 2.9V | 00:00:00 | 00:42:11 | 00:00:00 | |
| PETON7-10 | 2026-09-01 23:25:30 | 49.44045 | 17.18376 | 90° | 44km/h | 3446m | 4.3m/s | 0.0°C | 20.9% | 0hPa | 2.9V | 00:00:00 | 00:42:06 | 00:00:00 | |
| OE3OSB-13 | 2026-09-01 23:25:25 | 49.44047 | 17.18258 | 105° | 42km/h | 3407m | 5.3m/s | 0.1°C | 18.6% | -1.0hPa | 2.9V | 00:00:00 | 00:00:00 | 00:00:00 | |
| PETON7-10 | 2026-09-01 23:25:15 | 49.44071 | 17.18133 | 114° | 44km/h | 3361m | 4.0m/s | 0.2°C | 19.8% | 0hPa | 2.9V | 00:00:00 | 00:00:00 | 00:00:00 | |
| OE3JTB-15 | 2026-09-01 23:25:06 | 49.44081 | 17.17969 | 86° | 40km/h | 3320m | 5.4m/s | 0.2°C | 26.6% | 0hPa | 2.9V | 00:00:00 | 00:00:00 | 00:00:00 | |
| OE3OSB-13 | 2026-09-01 23:24:53 | 49.44127 | 17.17785 | 125° | 37km/h | 3258m | 5.9m/s | 0°C | -1.0% | -1.0hPa | 2.9V | 00:00:00 | 00:00:00 | 00:00:00 | |
| PETON7-10 | 2026-09-01 23:24:45 | 49.44163 | 17.17653 | 99° | 38km/h | 3228m | 5.1m/s | 0.4°C | 29.1% | 0hPa | 2.9V | 00:00:00 | 00:41:21 | 00:00:00 | |
| OE3JTB-15 | 2026-09-01 23:24:37 | 49.44188 | 17.17549 | 103° | 37km/h | 3185m | 4.7m/s | 0.1°C | 41.0% | 0hPa | 2.9V | 00:00:00 | 00:00:00 | 00:00:00 | |
| PETON7-10 | 2026-09-01 23:24:30 | 49.44215 | 17.17449 | 111° | 38km/h | 3145m | 5.3m/s | 0.2°C | 42.0% | 0hPa | 2.9V | 00:00:00 | 00:00:00 | 00:00:00 | |
| PETON7-10 | 2026-09-01 23:24:15 | 49.44276 | 17.17262 | 88° | 35km/h | 3076m | 4.0m/s | 0.3°C | 47.4% | 0hPa | 2.9V | 00:00:00 | 00:00:00 | 00:00:00 | |
| OE3JTB-15 | 2026-09-01 23:24:08 | 49.44304 | 17.17192 | 118° | 29km/h | 3039m | 5.7m/s | 0.4°C | 49.5% | 0hPa | 2.9V | 00:00:00 | 00:40:44 | 00:00:00 | |
| PETON7-10 | 2026-09-01 23:24:00 | 49.44315 | 17.17080 | 103° | 26km/h | 3002m | 5.1m/s | 0.4°C | 57.4% | 0hPa | 2.9V | 00:00:00 | 00:40:36 | 00:00:00 | |
| PETON7-10 | 2026-09-01 23:23:45 | 49.44357 | 17.16956 | 148° | 26km/h | 2924m | 4.7m/s | 0.7°C | 64.6% | 0hPa | 2.9V | 00:00:00 | 00:00:00 | 08:30:00 | |
| OE3JTB-15 | 2026-09-01 23:23:39 | 49.44388 | 17.16919 | 142° | 24km/h | 2899m | 6.0m/s | 0.5°C | 75.6% | 0hPa | 2.9V | 00:00:00 | 00:00:00 | 08:30:00 | |
| PETON7-10 | 2026-09-01 23:23:30 | 49.44406 | 17.16841 | 113° | 24km/h | 2852m | 5.8m/s | 0.7°C | 76.9% | 0hPa | 2.9V | 00:00:00 | 00:00:00 | 00:00:00 | |
| PETON7-10 | 2026-09-01 23:23:15 | 49.44429 | 17.16715 | 92° | 20km/h | 2763m | 5.3m/s | 1.3°C | 73.2% | 0hPa | 2.9V | 00:00:00 | 00:39:51 | 00:00:00 | |
| OE3JTB-15 | 2026-09-01 23:23:10 | 49.44424 | 17.16682 | 82° | 20km/h | 2740m | 4.1m/s | 1.5°C | 71.2% | 0hPa | 2.9V | 00:00:00 | 00:00:00 | 00:00:00 | |
| PETON7-10 | 2026-09-01 23:23:00 | 49.44439 | 17.16616 | 75° | 20km/h | 2692m | 4.0m/s | 2.0°C | 68.8% | 0hPa | 2.9V | 00:00:00 | 00:00:00 | 00:00:00 | |
| PETON7-10 | 2026-09-01 23:22:45 | 49.44469 | 17.16511 | 126° | 22km/h | 2603m | 4.7m/s | 2.7°C | 69.9% | 0hPa | 2.9V | 00:00:00 | 00:00:00 | 00:00:00 | |
| OE3JTB-15 | 2026-09-01 23:22:41 | 49.44477 | 17.16473 | 91° | 20km/h | 2583m | 5.4m/s | 2.9°C | 69.0% | 0hPa | 2.9V | 00:00:00 | 00:39:17 | 00:00:00 | |
| PETON7-10 | 2026-09-01 23:22:30 | 49.44497 | 17.16398 | 95° | 18km/h | 2526m | 5.3m/s | 3.4°C | 66.3% | 0hPa | 2.9V | 00:00:00 | 00:39:06 | 00:00:00 | |
| PETON7-10 | 2026-09-01 23:22:15 | 49.44528 | 17.16304 | 88° | 18km/h | 2436m | 5.6m/s | 0°C | 0% | 0hPa | 2.9V | 00:00:00 | 00:00:00 | 00:00:00 | |
| OE3JTB-15 | 2026-09-01 23:22:12 | 49.44525 | 17.16280 | 65° | 22km/h | 2422m | 5.6m/s | 4.1°C | 65.8% | 0hPa | 2.9V | 00:00:00 | 00:00:00 | 00:00:00 | |
| PETON7-10 | 2026-09-01 23:22:00 | 49.44528 | 17.16198 | 100° | 26km/h | 2354m | 6.2m/s | 0°C | 0% | 0hPa | 2.9V | 00:00:00 | 00:00:00 | 00:00:00 | |
| PETON7-10 | 2026-09-01 23:21:45 | 49.44547 | 17.16057 | 107° | 31km/h | 2275m | 5.7m/s | 0°C | 0% | 0hPa | 2.9V | 00:00:00 | 00:38:21 | 00:00:00 | |
| OE3JTB-15 | 2026-09-01 23:21:43 | 49.44551 | 17.16044 | 133° | 29km/h | 2261m | 6.5m/s | 5.1°C | 67.6% | 0hPa | 2.9V | 00:00:00 | 00:00:00 | 00:00:00 | |
| PETON7-10 | 2026-09-01 23:21:30 | 49.44576 | 17.15892 | 87° | 18km/h | 2197m | 4.0m/s | 0°C | 0% | 0hPa | 2.9V | 00:00:00 | 00:00:00 | 00:00:00 | |
| OE3JTB-15 | 2026-09-01 23:21:14 | 49.44620 | 17.15748 | 108° | 26km/h | 2111m | 5.9m/s | 6.2°C | 66.3% | 0hPa | 2.9V | 00:00:00 | 00:37:50 | 00:00:00 | |
| OE3JTB-15 | 2026-09-01 23:20:45 | 49.44701 | 17.15510 | 99° | 27km/h | 1953m | 6.0m/s | 7.3°C | 69.4% | 0hPa | 2.9V | 00:00:00 | 00:00:00 | 00:00:00 | |
| OE3JTB-15 | 2026-09-01 23:20:16 | 49.44784 | 17.15227 | 114° | 27km/h | 1796m | 5.2m/s | 8.5°C | 72.9% | 0hPa | 0V | 00:00:00 | 00:00:00 | 00:00:00 | |
| OE3JTB-15 | 2026-09-01 23:19:47 | 49.44877 | 17.14973 | 129° | 27km/h | 1636m | 6.1m/s | 0°C | 0% | 0hPa | 0V | 00:00:00 | 00:36:23 | 00:00:00 |